<?xml version='1.0' encoding='UTF-8'?><gpx version="1.1" creator="JPX - https://github.com/jenetics/jpx" xmlns="http://www.topografix.com/GPX/1/1"><trk><trkseg><trkpt lat="45.2354906" lon="9.037249"><ele>67.0</ele><time>2026-05-03T07:24:42.693Z</time></trkpt><trkpt lat="45.2355417" lon="9.0371927"><ele>67.0</ele><time>2026-05-03T07:24:47.685Z</time></trkpt><trkpt lat="45.235606" lon="9.0371614"><ele>67.0</ele><time>2026-05-03T07:24:51.695Z</time></trkpt><trkpt lat="45.2356734" lon="9.0371182"><ele>67.0</ele><time>2026-05-03T07:24:55.694Z</time></trkpt><trkpt lat="45.235727" lon="9.0370295"><ele>67.0</ele><time>2026-05-03T07:24:59.688Z</time></trkpt><trkpt lat="45.235785" lon="9.036963"><ele>67.0</ele><time>2026-05-03T07:25:02.688Z</time></trkpt><trkpt lat="45.2358285" lon="9.0368882"><ele>67.0</ele><time>2026-05-03T07:25:05.687Z</time></trkpt><trkpt lat="45.2358865" lon="9.036797"><ele>67.0</ele><time>2026-05-03T07:25:09.686Z</time></trkpt><trkpt lat="45.2359375" lon="9.0367198"><ele>67.0</ele><time>2026-05-03T07:25:12.691Z</time></trkpt><trkpt lat="45.2359916" lon="9.0366295"><ele>67.0</ele><time>2026-05-03T07:25:15.698Z</time></trkpt><trkpt lat="45.2360284" lon="9.036548"><ele>67.0</ele><time>2026-05-03T07:25:18.699Z</time></trkpt><trkpt lat="45.236074" lon="9.0364769"><ele>67.0</ele><time>2026-05-03T07:25:21.695Z</time></trkpt><trkpt lat="45.2361288" lon="9.036382"><ele>67.0</ele><time>2026-05-03T07:25:25.697Z</time></trkpt><trkpt lat="45.2361761" lon="9.0363037"><ele>67.0</ele><time>2026-05-03T07:25:28.696Z</time></trkpt><trkpt lat="45.236246" lon="9.0362164"><ele>67.0</ele><time>2026-05-03T07:25:31.711Z</time></trkpt><trkpt lat="45.2363024" lon="9.0361353"><ele>67.0</ele><time>2026-05-03T07:25:34.695Z</time></trkpt><trkpt lat="45.2363608" lon="9.0360483"><ele>67.0</ele><time>2026-05-03T07:25:37.685Z</time></trkpt><trkpt lat="45.2364238" lon="9.0359638"><ele>67.0</ele><time>2026-05-03T07:25:40.759Z</time></trkpt><trkpt lat="45.23648" lon="9.0358819"><ele>67.0</ele><time>2026-05-03T07:25:43.684Z</time></trkpt><trkpt lat="45.2365136" lon="9.035779"><ele>67.33333333333333</ele><time>2026-05-03T07:25:46.691Z</time></trkpt><trkpt lat="45.236542" lon="9.0356728"><ele>67.66666666666666</ele><time>2026-05-03T07:25:49.69Z</time></trkpt><trkpt lat="45.2365438" lon="9.0355498"><ele>68.0</ele><time>2026-05-03T07:25:52.698Z</time></trkpt><trkpt lat="45.2365565" lon="9.0354589"><ele>68.33333333333333</ele><time>2026-05-03T07:25:54.693Z</time></trkpt><trkpt lat="45.2365912" lon="9.0353265"><ele>68.66666666666667</ele><time>2026-05-03T07:25:57.696Z</time></trkpt><trkpt lat="45.2366487" lon="9.0352358"><ele>69.0</ele><time>2026-05-03T07:26:00.696Z</time></trkpt><trkpt lat="45.2367133" lon="9.0352382"><ele>69.0</ele><time>2026-05-03T07:26:04.691Z</time></trkpt><trkpt lat="45.2367722" lon="9.0353076"><ele>69.0</ele><time>2026-05-03T07:26:07.697Z</time></trkpt><trkpt lat="45.2368399" lon="9.0354018"><ele>69.0</ele><time>2026-05-03T07:26:10.68Z</time></trkpt><trkpt lat="45.2369182" lon="9.0354659"><ele>69.0</ele><time>2026-05-03T07:26:13.684Z</time></trkpt><trkpt lat="45.2369862" lon="9.0355317"><ele>69.0</ele><time>2026-05-03T07:26:16.69Z</time></trkpt><trkpt lat="45.2370455" lon="9.0355759"><ele>69.0</ele><time>2026-05-03T07:26:18.699Z</time></trkpt><trkpt lat="45.2371066" lon="9.0356166"><ele>69.0</ele><time>2026-05-03T07:26:20.691Z</time></trkpt><trkpt lat="45.2371732" lon="9.0356705"><ele>69.0</ele><time>2026-05-03T07:26:23.7Z</time></trkpt><trkpt lat="45.2372443" lon="9.0357056"><ele>69.0</ele><time>2026-05-03T07:26:25.691Z</time></trkpt><trkpt lat="45.2373034" lon="9.0357549"><ele>69.0</ele><time>2026-05-03T07:26:27.696Z</time></trkpt><trkpt lat="45.2373718" lon="9.0358135"><ele>69.0</ele><time>2026-05-03T07:26:29.695Z</time></trkpt><trkpt lat="45.2374359" lon="9.0358573"><ele>69.0</ele><time>2026-05-03T07:26:31.693Z</time></trkpt><trkpt lat="45.237497" lon="9.035889"><ele>69.0</ele><time>2026-05-03T07:26:33.695Z</time></trkpt><trkpt lat="45.2375752" lon="9.0359547"><ele>68.83333333333333</ele><time>2026-05-03T07:26:36.691Z</time></trkpt><trkpt lat="45.2376542" lon="9.0360261"><ele>68.66666666666667</ele><time>2026-05-03T07:26:39.69Z</time></trkpt><trkpt lat="45.2377113" lon="9.036081"><ele>68.5</ele><time>2026-05-03T07:26:41.685Z</time></trkpt><trkpt lat="45.2377646" lon="9.0361319"><ele>68.33333333333334</ele><time>2026-05-03T07:26:43.689Z</time></trkpt><trkpt lat="45.2378205" lon="9.0361893"><ele>68.16666666666667</ele><time>2026-05-03T07:26:45.702Z</time></trkpt><trkpt lat="45.2378759" lon="9.0362425"><ele>68.0</ele><time>2026-05-03T07:26:47.689Z</time></trkpt><trkpt lat="45.2379591" lon="9.0363114"><ele>68.0</ele><time>2026-05-03T07:26:50.695Z</time></trkpt><trkpt lat="45.2380129" lon="9.036381"><ele>68.0</ele><time>2026-05-03T07:26:52.692Z</time></trkpt><trkpt lat="45.2380968" lon="9.0364397"><ele>68.0</ele><time>2026-05-03T07:26:55.694Z</time></trkpt><trkpt lat="45.2381648" lon="9.0364708"><ele>68.0</ele><time>2026-05-03T07:26:57.689Z</time></trkpt><trkpt lat="45.2382496" lon="9.0365036"><ele>68.0</ele><time>2026-05-03T07:27:00.691Z</time></trkpt><trkpt lat="45.2383304" lon="9.0365168"><ele>68.0</ele><time>2026-05-03T07:27:03.702Z</time></trkpt><trkpt lat="45.2384245" lon="9.036535"><ele>68.66666666666667</ele><time>2026-05-03T07:27:06.69Z</time></trkpt><trkpt lat="45.2385043" lon="9.0365891"><ele>69.33333333333334</ele><time>2026-05-03T07:27:09.69Z</time></trkpt><trkpt lat="45.2385789" lon="9.0366684"><ele>70.0</ele><time>2026-05-03T07:27:12.757Z</time></trkpt><trkpt lat="45.2386384" lon="9.0367169"><ele>70.66666666666667</ele><time>2026-05-03T07:27:14.702Z</time></trkpt><trkpt lat="45.2387027" lon="9.036766"><ele>71.33333333333333</ele><time>2026-05-03T07:27:17.693Z</time></trkpt><trkpt lat="45.2387814" lon="9.0368232"><ele>72.0</ele><time>2026-05-03T07:27:21.684Z</time></trkpt><trkpt lat="45.2388288" lon="9.036893"><ele>72.0</ele><time>2026-05-03T07:27:23.687Z</time></trkpt><trkpt lat="45.2388876" lon="9.0369579"><ele>72.0</ele><time>2026-05-03T07:27:25.688Z</time></trkpt><trkpt lat="45.2389447" lon="9.0370178"><ele>72.0</ele><time>2026-05-03T07:27:27.696Z</time></trkpt><trkpt lat="45.2390022" lon="9.0370561"><ele>72.0</ele><time>2026-05-03T07:27:29.691Z</time></trkpt><trkpt lat="45.2390839" lon="9.0371184"><ele>72.0</ele><time>2026-05-03T07:27:32.694Z</time></trkpt><trkpt lat="45.239152" lon="9.0371856"><ele>72.0</ele><time>2026-05-03T07:27:35.702Z</time></trkpt><trkpt lat="45.2392258" lon="9.0372584"><ele>73.16666666666667</ele><time>2026-05-03T07:27:38.693Z</time></trkpt><trkpt lat="45.2393009" lon="9.0373178"><ele>74.33333333333333</ele><time>2026-05-03T07:27:41.702Z</time></trkpt><trkpt lat="45.2393719" lon="9.0373959"><ele>75.5</ele><time>2026-05-03T07:27:44.686Z</time></trkpt><trkpt lat="45.2394403" lon="9.0374568"><ele>76.66666666666666</ele><time>2026-05-03T07:27:46.687Z</time></trkpt><trkpt lat="45.2395021" lon="9.0375083"><ele>77.83333333333333</ele><time>2026-05-03T07:27:48.705Z</time></trkpt><trkpt lat="45.2395628" lon="9.0375553"><ele>79.0</ele><time>2026-05-03T07:27:50.691Z</time></trkpt><trkpt lat="45.2396148" lon="9.037608"><ele>79.28571428571429</ele><time>2026-05-03T07:27:52.696Z</time></trkpt><trkpt lat="45.2396686" lon="9.0376624"><ele>79.57142857142857</ele><time>2026-05-03T07:27:54.694Z</time></trkpt><trkpt lat="45.2397218" lon="9.0377189"><ele>79.85714285714286</ele><time>2026-05-03T07:27:56.69Z</time></trkpt><trkpt lat="45.2397936" lon="9.037779"><ele>80.14285714285714</ele><time>2026-05-03T07:27:59.696Z</time></trkpt><trkpt lat="45.2398528" lon="9.037825"><ele>80.42857142857143</ele><time>2026-05-03T07:28:01.693Z</time></trkpt><trkpt lat="45.2399023" lon="9.0378813"><ele>80.71428571428572</ele><time>2026-05-03T07:28:03.703Z</time></trkpt><trkpt lat="45.2399805" lon="9.037945"><ele>81.0</ele><time>2026-05-03T07:28:06.692Z</time></trkpt><trkpt lat="45.2400303" lon="9.0380015"><ele>81.0</ele><time>2026-05-03T07:28:08.692Z</time></trkpt><trkpt lat="45.2400811" lon="9.0380618"><ele>81.0</ele><time>2026-05-03T07:28:10.69Z</time></trkpt><trkpt lat="45.2401599" lon="9.0381287"><ele>81.0</ele><time>2026-05-03T07:28:13.683Z</time></trkpt><trkpt lat="45.2402171" lon="9.0381992"><ele>81.0</ele><time>2026-05-03T07:28:16.692Z</time></trkpt><trkpt lat="45.2402721" lon="9.0382663"><ele>81.0</ele><time>2026-05-03T07:28:19.683Z</time></trkpt><trkpt lat="45.2403415" lon="9.038318"><ele>81.0</ele><time>2026-05-03T07:28:33.686Z</time></trkpt><trkpt lat="45.2403862" lon="9.0383947"><ele>81.5</ele><time>2026-05-03T07:28:36.711Z</time></trkpt><trkpt lat="45.2404498" lon="9.0384548"><ele>82.0</ele><time>2026-05-03T07:28:39.691Z</time></trkpt><trkpt lat="45.2405263" lon="9.0384949"><ele>82.5</ele><time>2026-05-03T07:28:42.696Z</time></trkpt><trkpt lat="45.2405855" lon="9.0385319"><ele>83.0</ele><time>2026-05-03T07:28:45.694Z</time></trkpt><trkpt lat="45.2406564" lon="9.0385821"><ele>83.5</ele><time>2026-05-03T07:28:48.692Z</time></trkpt><trkpt lat="45.2407212" lon="9.0386503"><ele>84.0</ele><time>2026-05-03T07:28:51.69Z</time></trkpt><trkpt lat="45.2407867" lon="9.0387146"><ele>84.0</ele><time>2026-05-03T07:28:54.687Z</time></trkpt><trkpt lat="45.2408337" lon="9.0387818"><ele>84.0</ele><time>2026-05-03T07:28:57.689Z</time></trkpt><trkpt lat="45.2408954" lon="9.0388329"><ele>84.0</ele><time>2026-05-03T07:29:00.689Z</time></trkpt><trkpt lat="45.24096" lon="9.0388803"><ele>84.0</ele><time>2026-05-03T07:29:03.682Z</time></trkpt><trkpt lat="45.2410233" lon="9.0389466"><ele>84.0</ele><time>2026-05-03T07:29:06.682Z</time></trkpt><trkpt lat="45.2410672" lon="9.0390368"><ele>84.0</ele><time>2026-05-03T07:29:09.687Z</time></trkpt><trkpt lat="45.2410657" lon="9.0391361"><ele>84.0</ele><time>2026-05-03T07:29:12.691Z</time></trkpt><trkpt lat="45.2410232" lon="9.0392337"><ele>85.0</ele><time>2026-05-03T07:29:15.687Z</time></trkpt><trkpt lat="45.2409567" lon="9.0392958"><ele>86.0</ele><time>2026-05-03T07:29:18.691Z</time></trkpt><trkpt lat="45.2408837" lon="9.0393553"><ele>87.0</ele><time>2026-05-03T07:29:21.693Z</time></trkpt><trkpt lat="45.2408095" lon="9.0393968"><ele>88.0</ele><time>2026-05-03T07:29:24.694Z</time></trkpt><trkpt lat="45.2407483" lon="9.0394351"><ele>89.0</ele><time>2026-05-03T07:29:27.706Z</time></trkpt><trkpt lat="45.2407709" lon="9.0395341"><ele>90.0</ele><time>2026-05-03T07:29:31.686Z</time></trkpt><trkpt lat="45.2408356" lon="9.0395546"><ele>90.0</ele><time>2026-05-03T07:29:34.688Z</time></trkpt><trkpt lat="45.2409253" lon="9.0395703"><ele>90.0</ele><time>2026-05-03T07:29:37.691Z</time></trkpt><trkpt lat="45.2410105" lon="9.0395656"><ele>90.0</ele><time>2026-05-03T07:29:40.695Z</time></trkpt><trkpt lat="45.2410875" lon="9.0395206"><ele>90.0</ele><time>2026-05-03T07:29:43.688Z</time></trkpt><trkpt lat="45.2411535" lon="9.0394276"><ele>90.0</ele><time>2026-05-03T07:29:46.687Z</time></trkpt><trkpt lat="45.2412015" lon="9.0393269"><ele>90.0</ele><time>2026-05-03T07:29:49.69Z</time></trkpt><trkpt lat="45.2412484" lon="9.03922"><ele>89.28571428571428</ele><time>2026-05-03T07:29:52.691Z</time></trkpt><trkpt lat="45.2412761" lon="9.0391294"><ele>88.57142857142858</ele><time>2026-05-03T07:29:54.69Z</time></trkpt><trkpt lat="45.241311" lon="9.0390476"><ele>87.85714285714286</ele><time>2026-05-03T07:29:56.691Z</time></trkpt><trkpt lat="45.2413702" lon="9.0389492"><ele>87.14285714285714</ele><time>2026-05-03T07:29:59.688Z</time></trkpt><trkpt lat="45.2414028" lon="9.0388662"><ele>86.42857142857142</ele><time>2026-05-03T07:30:01.761Z</time></trkpt><trkpt lat="45.241431" lon="9.0387859"><ele>85.71428571428572</ele><time>2026-05-03T07:30:03.693Z</time></trkpt><trkpt lat="45.2414649" lon="9.0387059"><ele>85.0</ele><time>2026-05-03T07:30:05.691Z</time></trkpt><trkpt lat="45.2415014" lon="9.0386077"><ele>85.0</ele><time>2026-05-03T07:30:07.691Z</time></trkpt><trkpt lat="45.241546" lon="9.038529"><ele>85.0</ele><time>2026-05-03T07:30:09.682Z</time></trkpt><trkpt lat="45.2415849" lon="9.0384035"><ele>85.0</ele><time>2026-05-03T07:30:12.691Z</time></trkpt><trkpt lat="45.2416222" lon="9.0383271"><ele>85.0</ele><time>2026-05-03T07:30:14.689Z</time></trkpt><trkpt lat="45.2416563" lon="9.0382468"><ele>85.0</ele><time>2026-05-03T07:30:16.688Z</time></trkpt><trkpt lat="45.2416998" lon="9.038157"><ele>85.0</ele><time>2026-05-03T07:30:19.685Z</time></trkpt><trkpt lat="45.241745" lon="9.0380743"><ele>85.16666666666666</ele><time>2026-05-03T07:30:22.695Z</time></trkpt><trkpt lat="45.2418054" lon="9.0380204"><ele>85.33333333333333</ele><time>2026-05-03T07:30:27.688Z</time></trkpt><trkpt lat="45.2417379" lon="9.0379269"><ele>85.5</ele><time>2026-05-03T07:30:30.688Z</time></trkpt><trkpt lat="45.2416816" lon="9.0378842"><ele>85.66666666666667</ele><time>2026-05-03T07:30:32.687Z</time></trkpt><trkpt lat="45.241629" lon="9.0378308"><ele>85.83333333333334</ele><time>2026-05-03T07:30:34.691Z</time></trkpt><trkpt lat="45.241558" lon="9.0377546"><ele>86.0</ele><time>2026-05-03T07:30:37.689Z</time></trkpt><trkpt lat="45.2414801" lon="9.0377066"><ele>85.33333333333334</ele><time>2026-05-03T07:30:40.704Z</time></trkpt><trkpt lat="45.2414129" lon="9.0376506"><ele>84.66666666666667</ele><time>2026-05-03T07:30:43.687Z</time></trkpt><trkpt lat="45.2413346" lon="9.0376126"><ele>84.0</ele><time>2026-05-03T07:30:46.69Z</time></trkpt><trkpt lat="45.2412637" lon="9.0376185"><ele>83.33333333333333</ele><time>2026-05-03T07:30:48.687Z</time></trkpt><trkpt lat="45.2411968" lon="9.0376168"><ele>82.66666666666666</ele><time>2026-05-03T07:30:50.7Z</time></trkpt><trkpt lat="45.2411163" lon="9.0376047"><ele>82.0</ele><time>2026-05-03T07:30:52.696Z</time></trkpt><trkpt lat="45.2410378" lon="9.0375843"><ele>82.0</ele><time>2026-05-03T07:30:54.693Z</time></trkpt><trkpt lat="45.2409602" lon="9.0375589"><ele>82.0</ele><time>2026-05-03T07:30:56.692Z</time></trkpt><trkpt lat="45.2408816" lon="9.0375069"><ele>82.0</ele><time>2026-05-03T07:30:59.695Z</time></trkpt><trkpt lat="45.2408221" lon="9.0374387"><ele>82.0</ele><time>2026-05-03T07:31:02.692Z</time></trkpt><trkpt lat="45.2407578" lon="9.0373671"><ele>82.0</ele><time>2026-05-03T07:31:05.683Z</time></trkpt><trkpt lat="45.2406764" lon="9.0373167"><ele>82.0</ele><time>2026-05-03T07:31:08.693Z</time></trkpt><trkpt lat="45.2406052" lon="9.0372536"><ele>82.0</ele><time>2026-05-03T07:31:11.686Z</time></trkpt><trkpt lat="45.2405331" lon="9.0371679"><ele>82.0</ele><time>2026-05-03T07:31:14.693Z</time></trkpt><trkpt lat="45.2404588" lon="9.0370928"><ele>82.0</ele><time>2026-05-03T07:31:17.683Z</time></trkpt><trkpt lat="45.2403813" lon="9.0370226"><ele>82.0</ele><time>2026-05-03T07:31:20.685Z</time></trkpt><trkpt lat="45.240313" lon="9.0369429"><ele>82.0</ele><time>2026-05-03T07:31:23.693Z</time></trkpt><trkpt lat="45.2402773" lon="9.0368616"><ele>82.0</ele><time>2026-05-03T07:31:25.705Z</time></trkpt><trkpt lat="45.2402362" lon="9.0367465"><ele>82.0</ele><time>2026-05-03T07:31:28.761Z</time></trkpt><trkpt lat="45.240208" lon="9.0366636"><ele>82.0</ele><time>2026-05-03T07:31:30.688Z</time></trkpt><trkpt lat="45.2401822" lon="9.0365732"><ele>82.0</ele><time>2026-05-03T07:31:32.689Z</time></trkpt><trkpt lat="45.2401603" lon="9.0364735"><ele>82.0</ele><time>2026-05-03T07:31:34.69Z</time></trkpt><trkpt lat="45.2401424" lon="9.036368"><ele>82.0</ele><time>2026-05-03T07:31:36.697Z</time></trkpt><trkpt lat="45.2401336" lon="9.0362322"><ele>82.0</ele><time>2026-05-03T07:31:38.692Z</time></trkpt><trkpt lat="45.2401497" lon="9.0360653"><ele>82.16666666666666</ele><time>2026-05-03T07:31:40.688Z</time></trkpt><trkpt lat="45.2401699" lon="9.0358966"><ele>82.33333333333333</ele><time>2026-05-03T07:31:42.685Z</time></trkpt><trkpt lat="45.2401825" lon="9.0358007"><ele>82.5</ele><time>2026-05-03T07:31:43.708Z</time></trkpt><trkpt lat="45.240196" lon="9.0357008"><ele>82.66666666666667</ele><time>2026-05-03T07:31:44.76Z</time></trkpt><trkpt lat="45.2402101" lon="9.0356084"><ele>82.83333333333334</ele><time>2026-05-03T07:31:45.69Z</time></trkpt><trkpt lat="45.2402225" lon="9.0354501"><ele>83.0</ele><time>2026-05-03T07:31:47.685Z</time></trkpt><trkpt lat="45.2401754" lon="9.0353407"><ele>82.66666666666667</ele><time>2026-05-03T07:31:49.692Z</time></trkpt><trkpt lat="45.2400966" lon="9.0352963"><ele>82.33333333333334</ele><time>2026-05-03T07:31:51.691Z</time></trkpt><trkpt lat="45.2400127" lon="9.0352637"><ele>82.0</ele><time>2026-05-03T07:31:53.683Z</time></trkpt><trkpt lat="45.2399343" lon="9.035232"><ele>81.66666666666667</ele><time>2026-05-03T07:31:55.69Z</time></trkpt><trkpt lat="45.2398622" lon="9.035211"><ele>81.33333333333333</ele><time>2026-05-03T07:31:57.69Z</time></trkpt><trkpt lat="45.2397854" lon="9.0351946"><ele>81.0</ele><time>2026-05-03T07:31:59.689Z</time></trkpt><trkpt lat="45.2396961" lon="9.0351465"><ele>81.0</ele><time>2026-05-03T07:32:01.695Z</time></trkpt><trkpt lat="45.2395889" lon="9.0351132"><ele>81.0</ele><time>2026-05-03T07:32:03.699Z</time></trkpt><trkpt lat="45.2394694" lon="9.0350739"><ele>81.0</ele><time>2026-05-03T07:32:05.688Z</time></trkpt><trkpt lat="45.2393504" lon="9.0350382"><ele>81.0</ele><time>2026-05-03T07:32:07.7Z</time></trkpt><trkpt lat="45.2392432" lon="9.0350069"><ele>81.0</ele><time>2026-05-03T07:32:09.712Z</time></trkpt><trkpt lat="45.2391341" lon="9.0349784"><ele>81.0</ele><time>2026-05-03T07:32:11.681Z</time></trkpt><trkpt lat="45.2390249" lon="9.0349509"><ele>81.0</ele><time>2026-05-03T07:32:13.698Z</time></trkpt><trkpt lat="45.2389007" lon="9.0349274"><ele>81.0</ele><time>2026-05-03T07:32:15.69Z</time></trkpt><trkpt lat="45.2388096" lon="9.0348978"><ele>81.0</ele><time>2026-05-03T07:32:17.687Z</time></trkpt><trkpt lat="45.2387191" lon="9.0348663"><ele>79.66666666666667</ele><time>2026-05-03T07:32:19.752Z</time></trkpt><trkpt lat="45.238646" lon="9.0348649"><ele>78.33333333333333</ele><time>2026-05-03T07:32:21.705Z</time></trkpt><trkpt lat="45.2385578" lon="9.0348173"><ele>77.0</ele><time>2026-05-03T07:32:24.684Z</time></trkpt><trkpt lat="45.2385035" lon="9.0347518"><ele>75.66666666666666</ele><time>2026-05-03T07:32:26.707Z</time></trkpt><trkpt lat="45.2384784" lon="9.0346355"><ele>74.33333333333333</ele><time>2026-05-03T07:32:28.688Z</time></trkpt><trkpt lat="45.2384741" lon="9.0345396"><ele>73.0</ele><time>2026-05-03T07:32:29.69Z</time></trkpt><trkpt lat="45.2384861" lon="9.0344436"><ele>73.0</ele><time>2026-05-03T07:32:30.69Z</time></trkpt><trkpt lat="45.2385096" lon="9.0342949"><ele>73.0</ele><time>2026-05-03T07:32:32.766Z</time></trkpt><trkpt lat="45.2385396" lon="9.0341846"><ele>73.0</ele><time>2026-05-03T07:32:34.693Z</time></trkpt><trkpt lat="45.2385639" lon="9.0340729"><ele>73.0</ele><time>2026-05-03T07:32:37.691Z</time></trkpt><trkpt lat="45.2385743" lon="9.0339457"><ele>73.0</ele><time>2026-05-03T07:32:40.684Z</time></trkpt><trkpt lat="45.2385714" lon="9.0338343"><ele>73.0</ele><time>2026-05-03T07:32:42.689Z</time></trkpt><trkpt lat="45.2385589" lon="9.0337287"><ele>73.0</ele><time>2026-05-03T07:32:44.692Z</time></trkpt><trkpt lat="45.238533" lon="9.0336228"><ele>73.0</ele><time>2026-05-03T07:32:46.696Z</time></trkpt><trkpt lat="45.2384938" lon="9.0334956"><ele>73.0</ele><time>2026-05-03T07:32:48.694Z</time></trkpt><trkpt lat="45.238467" lon="9.0333729"><ele>73.0</ele><time>2026-05-03T07:32:50.692Z</time></trkpt><trkpt lat="45.2384566" lon="9.0332698"><ele>73.0</ele><time>2026-05-03T07:32:52.691Z</time></trkpt><trkpt lat="45.2384426" lon="9.0331722"><ele>73.0</ele><time>2026-05-03T07:32:54.693Z</time></trkpt><trkpt lat="45.2384162" lon="9.0330441"><ele>73.0</ele><time>2026-05-03T07:32:57.682Z</time></trkpt><trkpt lat="45.2384017" lon="9.0329571"><ele>73.0</ele><time>2026-05-03T07:32:59.694Z</time></trkpt><trkpt lat="45.2383766" lon="9.0328465"><ele>73.0</ele><time>2026-05-03T07:33:02.76Z</time></trkpt><trkpt lat="45.2383528" lon="9.0327464"><ele>73.0</ele><time>2026-05-03T07:33:05.687Z</time></trkpt><trkpt lat="45.2383225" lon="9.032629"><ele>73.0</ele><time>2026-05-03T07:33:08.694Z</time></trkpt><trkpt lat="45.2383058" lon="9.0325037"><ele>73.0</ele><time>2026-05-03T07:33:11.752Z</time></trkpt><trkpt lat="45.238303" lon="9.0323679"><ele>73.33333333333333</ele><time>2026-05-03T07:33:14.686Z</time></trkpt><trkpt lat="45.2382829" lon="9.0322399"><ele>73.66666666666666</ele><time>2026-05-03T07:33:17.698Z</time></trkpt><trkpt lat="45.2382572" lon="9.0321203"><ele>74.0</ele><time>2026-05-03T07:33:20.69Z</time></trkpt><trkpt lat="45.2382345" lon="9.0320109"><ele>74.33333333333333</ele><time>2026-05-03T07:33:23.687Z</time></trkpt><trkpt lat="45.2382236" lon="9.0318925"><ele>74.66666666666667</ele><time>2026-05-03T07:33:26.698Z</time></trkpt><trkpt lat="45.238204" lon="9.0317782"><ele>75.0</ele><time>2026-05-03T07:33:28.691Z</time></trkpt><trkpt lat="45.2381784" lon="9.0316636"><ele>75.0</ele><time>2026-05-03T07:33:30.685Z</time></trkpt><trkpt lat="45.2381652" lon="9.0315495"><ele>75.0</ele><time>2026-05-03T07:33:32.693Z</time></trkpt><trkpt lat="45.2381481" lon="9.0314596"><ele>75.0</ele><time>2026-05-03T07:33:34.695Z</time></trkpt><trkpt lat="45.238127" lon="9.0313446"><ele>75.0</ele><time>2026-05-03T07:33:37.694Z</time></trkpt><trkpt lat="45.2381074" lon="9.0312334"><ele>75.0</ele><time>2026-05-03T07:33:40.69Z</time></trkpt><trkpt lat="45.2380859" lon="9.0311174"><ele>75.0</ele><time>2026-05-03T07:33:43.703Z</time></trkpt><trkpt lat="45.2380515" lon="9.031004"><ele>74.33333333333333</ele><time>2026-05-03T07:33:46.683Z</time></trkpt><trkpt lat="45.2380149" lon="9.0309099"><ele>73.66666666666667</ele><time>2026-05-03T07:33:49.759Z</time></trkpt><trkpt lat="45.237935" lon="9.0308568"><ele>73.0</ele><time>2026-05-03T07:33:52.689Z</time></trkpt><trkpt lat="45.2378712" lon="9.0308386"><ele>72.33333333333334</ele><time>2026-05-03T07:33:54.688Z</time></trkpt><trkpt lat="45.2377866" lon="9.0308112"><ele>71.66666666666667</ele><time>2026-05-03T07:33:56.698Z</time></trkpt><trkpt lat="45.2376936" lon="9.0307779"><ele>71.0</ele><time>2026-05-03T07:33:58.7Z</time></trkpt><trkpt lat="45.2376114" lon="9.0307479"><ele>71.0</ele><time>2026-05-03T07:34:00.695Z</time></trkpt><trkpt lat="45.2375527" lon="9.0307011"><ele>71.0</ele><time>2026-05-03T07:34:02.759Z</time></trkpt><trkpt lat="45.2375018" lon="9.0305989"><ele>71.0</ele><time>2026-05-03T07:34:05.689Z</time></trkpt><trkpt lat="45.2374805" lon="9.0304843"><ele>71.0</ele><time>2026-05-03T07:34:08.694Z</time></trkpt><trkpt lat="45.2374657" lon="9.0303739"><ele>71.0</ele><time>2026-05-03T07:34:11.692Z</time></trkpt><trkpt lat="45.2374699" lon="9.0302581"><ele>71.0</ele><time>2026-05-03T07:34:14.749Z</time></trkpt><trkpt lat="45.2374612" lon="9.0301472"><ele>71.0</ele><time>2026-05-03T07:34:17.684Z</time></trkpt><trkpt lat="45.2374498" lon="9.0300229"><ele>71.0</ele><time>2026-05-03T07:34:20.681Z</time></trkpt><trkpt lat="45.2374421" lon="9.0299284"><ele>71.0</ele><time>2026-05-03T07:34:22.683Z</time></trkpt><trkpt lat="45.237447" lon="9.0298133"><ele>71.0</ele><time>2026-05-03T07:34:25.686Z</time></trkpt><trkpt lat="45.2374427" lon="9.029717"><ele>71.0</ele><time>2026-05-03T07:34:30.688Z</time></trkpt><trkpt lat="45.2374816" lon="9.0296256"><ele>71.0</ele><time>2026-05-03T07:34:34.69Z</time></trkpt><trkpt lat="45.2375445" lon="9.029567"><ele>70.71428571428571</ele><time>2026-05-03T07:34:37.69Z</time></trkpt><trkpt lat="45.2376204" lon="9.0295277"><ele>70.42857142857142</ele><time>2026-05-03T07:34:40.763Z</time></trkpt><trkpt lat="45.2377092" lon="9.0295147"><ele>70.14285714285714</ele><time>2026-05-03T07:34:43.677Z</time></trkpt><trkpt lat="45.2377787" lon="9.0295081"><ele>69.85714285714286</ele><time>2026-05-03T07:34:45.687Z</time></trkpt><trkpt lat="45.2378479" lon="9.0295068"><ele>69.57142857142858</ele><time>2026-05-03T07:34:47.683Z</time></trkpt><trkpt lat="45.237917" lon="9.0295012"><ele>69.28571428571429</ele><time>2026-05-03T07:34:49.684Z</time></trkpt><trkpt lat="45.2379854" lon="9.0295028"><ele>69.0</ele><time>2026-05-03T07:34:51.685Z</time></trkpt><trkpt lat="45.2380747" lon="9.0294779"><ele>68.66666666666667</ele><time>2026-05-03T07:34:54.68Z</time></trkpt><trkpt lat="45.238165" lon="9.0294566"><ele>68.33333333333333</ele><time>2026-05-03T07:34:57.688Z</time></trkpt><trkpt lat="45.2382569" lon="9.0294515"><ele>68.0</ele><time>2026-05-03T07:35:00.7Z</time></trkpt><trkpt lat="45.2383343" lon="9.0294161"><ele>67.66666666666666</ele><time>2026-05-03T07:35:03.688Z</time></trkpt><trkpt lat="45.2383967" lon="9.0293968"><ele>67.33333333333333</ele><time>2026-05-03T07:35:05.698Z</time></trkpt><trkpt lat="45.2384791" lon="9.0293375"><ele>67.0</ele><time>2026-05-03T07:35:08.701Z</time></trkpt><trkpt lat="45.2385465" lon="9.0292887"><ele>67.0</ele><time>2026-05-03T07:35:10.691Z</time></trkpt><trkpt lat="45.2386333" lon="9.0292258"><ele>67.0</ele><time>2026-05-03T07:35:12.685Z</time></trkpt><trkpt lat="45.2387246" lon="9.0291879"><ele>67.0</ele><time>2026-05-03T07:35:14.687Z</time></trkpt><trkpt lat="45.2388097" lon="9.0291681"><ele>67.0</ele><time>2026-05-03T07:35:16.69Z</time></trkpt><trkpt lat="45.2388895" lon="9.0291314"><ele>67.0</ele><time>2026-05-03T07:35:18.694Z</time></trkpt><trkpt lat="45.2389782" lon="9.0290993"><ele>66.83333333333333</ele><time>2026-05-03T07:35:20.693Z</time></trkpt><trkpt lat="45.2390645" lon="9.0290458"><ele>66.66666666666666</ele><time>2026-05-03T07:35:22.683Z</time></trkpt><trkpt lat="45.2391514" lon="9.0290214"><ele>66.5</ele><time>2026-05-03T07:35:24.683Z</time></trkpt><trkpt lat="45.2392342" lon="9.0290868"><ele>66.33333333333333</ele><time>2026-05-03T07:35:27.687Z</time></trkpt><trkpt lat="45.2392804" lon="9.0291698"><ele>66.16666666666667</ele><time>2026-05-03T07:35:29.687Z</time></trkpt><trkpt lat="45.2393176" lon="9.0292712"><ele>66.0</ele><time>2026-05-03T07:35:31.693Z</time></trkpt><trkpt lat="45.2393404" lon="9.0293665"><ele>66.33333333333333</ele><time>2026-05-03T07:35:33.69Z</time></trkpt><trkpt lat="45.2393566" lon="9.0294655"><ele>66.66666666666667</ele><time>2026-05-03T07:35:35.701Z</time></trkpt><trkpt lat="45.2393817" lon="9.029567"><ele>67.0</ele><time>2026-05-03T07:35:37.696Z</time></trkpt><trkpt lat="45.2394072" lon="9.0296852"><ele>67.33333333333334</ele><time>2026-05-03T07:35:39.688Z</time></trkpt><trkpt lat="45.2394288" lon="9.0297856"><ele>67.66666666666667</ele><time>2026-05-03T07:35:41.685Z</time></trkpt><trkpt lat="45.2394438" lon="9.0298909"><ele>68.0</ele><time>2026-05-03T07:35:43.715Z</time></trkpt><trkpt lat="45.2394563" lon="9.0299915"><ele>69.14285714285714</ele><time>2026-05-03T07:35:45.691Z</time></trkpt><trkpt lat="45.2394706" lon="9.0300842"><ele>70.28571428571428</ele><time>2026-05-03T07:35:47.694Z</time></trkpt><trkpt lat="45.2394851" lon="9.0301806"><ele>71.42857142857142</ele><time>2026-05-03T07:35:49.721Z</time></trkpt><trkpt lat="45.2395009" lon="9.0302752"><ele>72.57142857142857</ele><time>2026-05-03T07:35:51.699Z</time></trkpt><trkpt lat="45.2395189" lon="9.0303736"><ele>73.71428571428572</ele><time>2026-05-03T07:35:53.685Z</time></trkpt><trkpt lat="45.2395368" lon="9.0304722"><ele>74.85714285714285</ele><time>2026-05-03T07:35:55.679Z</time></trkpt><trkpt lat="45.2395538" lon="9.0305646"><ele>76.0</ele><time>2026-05-03T07:35:57.692Z</time></trkpt><trkpt lat="45.2395689" lon="9.0306633"><ele>76.0</ele><time>2026-05-03T07:35:59.685Z</time></trkpt><trkpt lat="45.23958" lon="9.0307648"><ele>76.0</ele><time>2026-05-03T07:36:01.686Z</time></trkpt><trkpt lat="45.2395968" lon="9.0308579"><ele>76.0</ele><time>2026-05-03T07:36:03.693Z</time></trkpt><trkpt lat="45.2396326" lon="9.0309323"><ele>76.0</ele><time>2026-05-03T07:36:05.713Z</time></trkpt><trkpt lat="45.2396834" lon="9.0309971"><ele>76.0</ele><time>2026-05-03T07:36:07.697Z</time></trkpt><trkpt lat="45.2397456" lon="9.0310523"><ele>76.0</ele><time>2026-05-03T07:36:09.688Z</time></trkpt><trkpt lat="45.2398176" lon="9.0311126"><ele>76.0</ele><time>2026-05-03T07:36:11.838Z</time></trkpt><trkpt lat="45.2398847" lon="9.031176"><ele>76.85714285714285</ele><time>2026-05-03T07:36:13.688Z</time></trkpt><trkpt lat="45.2399417" lon="9.0312305"><ele>77.71428571428572</ele><time>2026-05-03T07:36:15.687Z</time></trkpt><trkpt lat="45.2399974" lon="9.0313008"><ele>78.57142857142857</ele><time>2026-05-03T07:36:17.688Z</time></trkpt><trkpt lat="45.2400396" lon="9.031377"><ele>79.42857142857142</ele><time>2026-05-03T07:36:19.69Z</time></trkpt><trkpt lat="45.2400892" lon="9.0314538"><ele>80.28571428571428</ele><time>2026-05-03T07:36:21.689Z</time></trkpt><trkpt lat="45.2401361" lon="9.0315213"><ele>81.14285714285714</ele><time>2026-05-03T07:36:23.758Z</time></trkpt><trkpt lat="45.2401914" lon="9.0315861"><ele>82.0</ele><time>2026-05-03T07:36:25.706Z</time></trkpt><trkpt lat="45.2402428" lon="9.0316508"><ele>82.5</ele><time>2026-05-03T07:36:27.689Z</time></trkpt><trkpt lat="45.2402967" lon="9.0317004"><ele>83.0</ele><time>2026-05-03T07:36:29.686Z</time></trkpt><trkpt lat="45.2403569" lon="9.031765"><ele>83.5</ele><time>2026-05-03T07:36:31.691Z</time></trkpt><trkpt lat="45.2404083" lon="9.031822"><ele>84.0</ele><time>2026-05-03T07:36:33.687Z</time></trkpt><trkpt lat="45.2404746" lon="9.0319027"><ele>84.5</ele><time>2026-05-03T07:36:36.761Z</time></trkpt><trkpt lat="45.2405455" lon="9.0319861"><ele>85.0</ele><time>2026-05-03T07:36:39.691Z</time></trkpt><trkpt lat="45.2406046" lon="9.0320461"><ele>84.71428571428572</ele><time>2026-05-03T07:36:41.696Z</time></trkpt><trkpt lat="45.2406772" lon="9.0321231"><ele>84.42857142857142</ele><time>2026-05-03T07:36:44.697Z</time></trkpt><trkpt lat="45.2407263" lon="9.0321804"><ele>84.14285714285714</ele><time>2026-05-03T07:36:46.685Z</time></trkpt><trkpt lat="45.2407783" lon="9.0322379"><ele>83.85714285714286</ele><time>2026-05-03T07:36:48.762Z</time></trkpt><trkpt lat="45.2408318" lon="9.0322954"><ele>83.57142857142858</ele><time>2026-05-03T07:36:50.699Z</time></trkpt><trkpt lat="45.2408859" lon="9.0323537"><ele>83.28571428571428</ele><time>2026-05-03T07:36:52.689Z</time></trkpt><trkpt lat="45.2409391" lon="9.0324126"><ele>83.0</ele><time>2026-05-03T07:36:54.693Z</time></trkpt><trkpt lat="45.2409954" lon="9.0324682"><ele>83.28571428571428</ele><time>2026-05-03T07:36:56.688Z</time></trkpt><trkpt lat="45.2410489" lon="9.0325259"><ele>83.57142857142858</ele><time>2026-05-03T07:36:58.69Z</time></trkpt><trkpt lat="45.241099" lon="9.0325803"><ele>83.85714285714286</ele><time>2026-05-03T07:37:00.691Z</time></trkpt><trkpt lat="45.2411567" lon="9.0326388"><ele>84.14285714285714</ele><time>2026-05-03T07:37:02.687Z</time></trkpt><trkpt lat="45.2412168" lon="9.0326887"><ele>84.42857142857142</ele><time>2026-05-03T07:37:04.69Z</time></trkpt><trkpt lat="45.241291" lon="9.0327636"><ele>84.71428571428572</ele><time>2026-05-03T07:37:07.69Z</time></trkpt><trkpt lat="45.2413472" lon="9.0328227"><ele>85.0</ele><time>2026-05-03T07:37:09.696Z</time></trkpt><trkpt lat="45.2413983" lon="9.0328754"><ele>85.0</ele><time>2026-05-03T07:37:11.702Z</time></trkpt><trkpt lat="45.2414536" lon="9.0329361"><ele>85.0</ele><time>2026-05-03T07:37:13.77Z</time></trkpt><trkpt lat="45.2415026" lon="9.0330102"><ele>85.0</ele><time>2026-05-03T07:37:15.766Z</time></trkpt><trkpt lat="45.2415543" lon="9.0330877"><ele>85.0</ele><time>2026-05-03T07:37:17.69Z</time></trkpt><trkpt lat="45.2415995" lon="9.033175"><ele>85.0</ele><time>2026-05-03T07:37:19.693Z</time></trkpt><trkpt lat="45.2416431" lon="9.0332568"><ele>85.0</ele><time>2026-05-03T07:37:21.691Z</time></trkpt><trkpt lat="45.2416949" lon="9.0333379"><ele>85.0</ele><time>2026-05-03T07:37:23.705Z</time></trkpt><trkpt lat="45.2417428" lon="9.033409"><ele>84.42857142857143</ele><time>2026-05-03T07:37:25.762Z</time></trkpt><trkpt lat="45.2417862" lon="9.0334924"><ele>83.85714285714285</ele><time>2026-05-03T07:37:27.692Z</time></trkpt><trkpt lat="45.2418307" lon="9.0335699"><ele>83.28571428571428</ele><time>2026-05-03T07:37:29.767Z</time></trkpt><trkpt lat="45.2418757" lon="9.0336489"><ele>82.71428571428572</ele><time>2026-05-03T07:37:31.689Z</time></trkpt><trkpt lat="45.2419217" lon="9.0337319"><ele>82.14285714285714</ele><time>2026-05-03T07:37:33.688Z</time></trkpt><trkpt lat="45.241966" lon="9.0338086"><ele>81.57142857142857</ele><time>2026-05-03T07:37:35.69Z</time></trkpt><trkpt lat="45.2420086" lon="9.0338922"><ele>81.0</ele><time>2026-05-03T07:37:37.695Z</time></trkpt><trkpt lat="45.2420581" lon="9.0339672"><ele>81.0</ele><time>2026-05-03T07:37:39.694Z</time></trkpt><trkpt lat="45.2421098" lon="9.0340478"><ele>81.0</ele><time>2026-05-03T07:37:41.687Z</time></trkpt><trkpt lat="45.2421605" lon="9.0341329"><ele>81.0</ele><time>2026-05-03T07:37:43.765Z</time></trkpt><trkpt lat="45.2422091" lon="9.0342211"><ele>81.0</ele><time>2026-05-03T07:37:45.691Z</time></trkpt><trkpt lat="45.2422508" lon="9.0343078"><ele>81.0</ele><time>2026-05-03T07:37:47.698Z</time></trkpt><trkpt lat="45.2422844" lon="9.0343919"><ele>81.0</ele><time>2026-05-03T07:37:49.689Z</time></trkpt><trkpt lat="45.2423247" lon="9.0344784"><ele>81.0</ele><time>2026-05-03T07:37:51.692Z</time></trkpt><trkpt lat="45.2423634" lon="9.0345619"><ele>81.5</ele><time>2026-05-03T07:37:53.684Z</time></trkpt><trkpt lat="45.2424065" lon="9.0346456"><ele>82.0</ele><time>2026-05-03T07:37:55.692Z</time></trkpt><trkpt lat="45.2424525" lon="9.034731"><ele>82.5</ele><time>2026-05-03T07:37:57.691Z</time></trkpt><trkpt lat="45.2425031" lon="9.0348182"><ele>83.0</ele><time>2026-05-03T07:37:59.698Z</time></trkpt><trkpt lat="45.2425419" lon="9.0349095"><ele>83.5</ele><time>2026-05-03T07:38:01.685Z</time></trkpt><trkpt lat="45.2425902" lon="9.0349796"><ele>84.0</ele><time>2026-05-03T07:38:03.685Z</time></trkpt><trkpt lat="45.2426532" lon="9.0350447"><ele>84.0</ele><time>2026-05-03T07:38:05.689Z</time></trkpt><trkpt lat="45.2427325" lon="9.0351092"><ele>84.0</ele><time>2026-05-03T07:38:08.7Z</time></trkpt><trkpt lat="45.242794" lon="9.0350763"><ele>84.0</ele><time>2026-05-03T07:38:11.688Z</time></trkpt><trkpt lat="45.2428199" lon="9.0349932"><ele>84.0</ele><time>2026-05-03T07:38:13.684Z</time></trkpt><trkpt lat="45.2428401" lon="9.0349046"><ele>84.0</ele><time>2026-05-03T07:38:15.684Z</time></trkpt><trkpt lat="45.2428662" lon="9.0348153"><ele>84.0</ele><time>2026-05-03T07:38:17.688Z</time></trkpt><trkpt lat="45.2428995" lon="9.0347311"><ele>84.0</ele><time>2026-05-03T07:38:19.687Z</time></trkpt><trkpt lat="45.2429413" lon="9.034653"><ele>84.0</ele><time>2026-05-03T07:38:21.69Z</time></trkpt><trkpt lat="45.2429861" lon="9.0345709"><ele>84.0</ele><time>2026-05-03T07:38:23.684Z</time></trkpt><trkpt lat="45.2430306" lon="9.0344974"><ele>84.0</ele><time>2026-05-03T07:38:25.695Z</time></trkpt><trkpt lat="45.2430776" lon="9.0344251"><ele>84.0</ele><time>2026-05-03T07:38:27.691Z</time></trkpt><trkpt lat="45.2431329" lon="9.0343448"><ele>84.0</ele><time>2026-05-03T07:38:29.693Z</time></trkpt><trkpt lat="45.2431802" lon="9.0342557"><ele>84.0</ele><time>2026-05-03T07:38:31.682Z</time></trkpt><trkpt lat="45.2432311" lon="9.0341588"><ele>84.0</ele><time>2026-05-03T07:38:33.694Z</time></trkpt><trkpt lat="45.2432873" lon="9.0340698"><ele>84.0</ele><time>2026-05-03T07:38:35.691Z</time></trkpt><trkpt lat="45.243333" lon="9.0339842"><ele>84.0</ele><time>2026-05-03T07:38:37.694Z</time></trkpt><trkpt lat="45.2433832" lon="9.0338827"><ele>84.0</ele><time>2026-05-03T07:38:39.695Z</time></trkpt><trkpt lat="45.2434363" lon="9.0338035"><ele>84.0</ele><time>2026-05-03T07:38:41.689Z</time></trkpt><trkpt lat="45.2434818" lon="9.0337127"><ele>84.0</ele><time>2026-05-03T07:38:43.693Z</time></trkpt><trkpt lat="45.2435282" lon="9.0336215"><ele>84.0</ele><time>2026-05-03T07:38:45.684Z</time></trkpt><trkpt lat="45.2435755" lon="9.033528"><ele>84.0</ele><time>2026-05-03T07:38:47.692Z</time></trkpt><trkpt lat="45.2436159" lon="9.0334293"><ele>84.0</ele><time>2026-05-03T07:38:49.691Z</time></trkpt><trkpt lat="45.2436583" lon="9.0333258"><ele>84.0</ele><time>2026-05-03T07:38:51.69Z</time></trkpt><trkpt lat="45.2436965" lon="9.0332195"><ele>84.0</ele><time>2026-05-03T07:38:53.69Z</time></trkpt><trkpt lat="45.2437312" lon="9.0331169"><ele>84.0</ele><time>2026-05-03T07:38:55.686Z</time></trkpt><trkpt lat="45.2437693" lon="9.0330126"><ele>84.16666666666667</ele><time>2026-05-03T07:38:57.691Z</time></trkpt><trkpt lat="45.2438066" lon="9.0329154"><ele>84.33333333333333</ele><time>2026-05-03T07:38:59.691Z</time></trkpt><trkpt lat="45.2438413" lon="9.0328247"><ele>84.5</ele><time>2026-05-03T07:39:01.683Z</time></trkpt><trkpt lat="45.2438732" lon="9.0327269"><ele>84.66666666666666</ele><time>2026-05-03T07:39:03.685Z</time></trkpt><trkpt lat="45.2439053" lon="9.0326459"><ele>84.83333333333333</ele><time>2026-05-03T07:39:05.688Z</time></trkpt><trkpt lat="45.2439599" lon="9.0325585"><ele>85.0</ele><time>2026-05-03T07:39:08.695Z</time></trkpt><trkpt lat="45.2440461" lon="9.0325602"><ele>85.33333333333333</ele><time>2026-05-03T07:39:11.695Z</time></trkpt><trkpt lat="45.2441045" lon="9.0326024"><ele>85.66666666666666</ele><time>2026-05-03T07:39:13.689Z</time></trkpt><trkpt lat="45.2441601" lon="9.0326548"><ele>86.0</ele><time>2026-05-03T07:39:15.686Z</time></trkpt><trkpt lat="45.2442448" lon="9.0327165"><ele>86.33333333333333</ele><time>2026-05-03T07:39:18.69Z</time></trkpt><trkpt lat="45.2443024" lon="9.0327641"><ele>86.66666666666667</ele><time>2026-05-03T07:39:20.691Z</time></trkpt><trkpt lat="45.2443859" lon="9.0328237"><ele>87.0</ele><time>2026-05-03T07:39:23.76Z</time></trkpt><trkpt lat="45.2444669" lon="9.0328805"><ele>87.0</ele><time>2026-05-03T07:39:26.691Z</time></trkpt><trkpt lat="45.244527" lon="9.0329176"><ele>87.0</ele><time>2026-05-03T07:39:28.688Z</time></trkpt><trkpt lat="45.2446079" lon="9.0329793"><ele>87.0</ele><time>2026-05-03T07:39:31.684Z</time></trkpt><trkpt lat="45.2446765" lon="9.0330264"><ele>87.0</ele><time>2026-05-03T07:39:33.678Z</time></trkpt><trkpt lat="45.24474" lon="9.0330754"><ele>87.0</ele><time>2026-05-03T07:39:35.688Z</time></trkpt><trkpt lat="45.2448025" lon="9.0331161"><ele>87.0</ele><time>2026-05-03T07:39:37.69Z</time></trkpt><trkpt lat="45.2448631" lon="9.0331552"><ele>87.0</ele><time>2026-05-03T07:39:39.691Z</time></trkpt><trkpt lat="45.2449206" lon="9.0331999"><ele>87.0</ele><time>2026-05-03T07:39:41.691Z</time></trkpt><trkpt lat="45.2449868" lon="9.0332439"><ele>87.0</ele><time>2026-05-03T07:39:43.687Z</time></trkpt><trkpt lat="45.2450534" lon="9.0332918"><ele>87.0</ele><time>2026-05-03T07:39:45.685Z</time></trkpt><trkpt lat="45.2451187" lon="9.0333375"><ele>87.0</ele><time>2026-05-03T07:39:47.686Z</time></trkpt><trkpt lat="45.2451865" lon="9.0333743"><ele>87.0</ele><time>2026-05-03T07:39:49.691Z</time></trkpt><trkpt lat="45.245248" lon="9.0334196"><ele>87.0</ele><time>2026-05-03T07:39:51.691Z</time></trkpt><trkpt lat="45.2453157" lon="9.03346"><ele>87.0</ele><time>2026-05-03T07:39:53.688Z</time></trkpt><trkpt lat="45.2453731" lon="9.0335075"><ele>86.66666666666667</ele><time>2026-05-03T07:39:55.702Z</time></trkpt><trkpt lat="45.2454386" lon="9.0335603"><ele>86.33333333333333</ele><time>2026-05-03T07:39:57.691Z</time></trkpt><trkpt lat="45.2455041" lon="9.0336045"><ele>86.0</ele><time>2026-05-03T07:39:59.693Z</time></trkpt><trkpt lat="45.2455674" lon="9.0336484"><ele>85.66666666666666</ele><time>2026-05-03T07:40:01.701Z</time></trkpt><trkpt lat="45.2456341" lon="9.0337027"><ele>85.33333333333333</ele><time>2026-05-03T07:40:03.748Z</time></trkpt><trkpt lat="45.2457017" lon="9.0337565"><ele>85.0</ele><time>2026-05-03T07:40:05.69Z</time></trkpt><trkpt lat="45.2457735" lon="9.0337984"><ele>85.0</ele><time>2026-05-03T07:40:07.69Z</time></trkpt><trkpt lat="45.245838" lon="9.0338434"><ele>85.0</ele><time>2026-05-03T07:40:09.696Z</time></trkpt><trkpt lat="45.2458978" lon="9.0338855"><ele>85.0</ele><time>2026-05-03T07:40:11.688Z</time></trkpt><trkpt lat="45.2459591" lon="9.0339318"><ele>85.0</ele><time>2026-05-03T07:40:13.698Z</time></trkpt><trkpt lat="45.2460236" lon="9.0339785"><ele>85.0</ele><time>2026-05-03T07:40:15.688Z</time></trkpt><trkpt lat="45.2460878" lon="9.0340272"><ele>85.0</ele><time>2026-05-03T07:40:17.696Z</time></trkpt><trkpt lat="45.2461455" lon="9.034082"><ele>85.0</ele><time>2026-05-03T07:40:19.69Z</time></trkpt><trkpt lat="45.2462087" lon="9.0341283"><ele>85.0</ele><time>2026-05-03T07:40:21.687Z</time></trkpt><trkpt lat="45.246272" lon="9.034171"><ele>85.0</ele><time>2026-05-03T07:40:23.687Z</time></trkpt><trkpt lat="45.2463361" lon="9.0342206"><ele>85.0</ele><time>2026-05-03T07:40:25.696Z</time></trkpt><trkpt lat="45.2464153" lon="9.0342634"><ele>85.0</ele><time>2026-05-03T07:40:27.696Z</time></trkpt><trkpt lat="45.2464945" lon="9.0343083"><ele>85.0</ele><time>2026-05-03T07:40:29.69Z</time></trkpt><trkpt lat="45.2465596" lon="9.0343496"><ele>85.0</ele><time>2026-05-03T07:40:31.696Z</time></trkpt><trkpt lat="45.246625" lon="9.0343862"><ele>85.33333333333333</ele><time>2026-05-03T07:40:33.683Z</time></trkpt><trkpt lat="45.246717" lon="9.0343881"><ele>85.66666666666666</ele><time>2026-05-03T07:40:36.692Z</time></trkpt><trkpt lat="45.2467726" lon="9.0343192"><ele>86.0</ele><time>2026-05-03T07:40:38.707Z</time></trkpt><trkpt lat="45.2468163" lon="9.0342405"><ele>86.33333333333333</ele><time>2026-05-03T07:40:40.689Z</time></trkpt><trkpt lat="45.2468524" lon="9.0341561"><ele>86.66666666666667</ele><time>2026-05-03T07:40:42.766Z</time></trkpt><trkpt lat="45.2468936" lon="9.0340779"><ele>87.0</ele><time>2026-05-03T07:40:44.699Z</time></trkpt><trkpt lat="45.2469403" lon="9.0339842"><ele>87.0</ele><time>2026-05-03T07:40:46.686Z</time></trkpt><trkpt lat="45.2469833" lon="9.0338949"><ele>87.0</ele><time>2026-05-03T07:40:48.688Z</time></trkpt><trkpt lat="45.2470341" lon="9.0338163"><ele>87.0</ele><time>2026-05-03T07:40:50.691Z</time></trkpt><trkpt lat="45.2470814" lon="9.0337323"><ele>87.0</ele><time>2026-05-03T07:40:52.692Z</time></trkpt><trkpt lat="45.2471252" lon="9.033663"><ele>87.0</ele><time>2026-05-03T07:40:54.69Z</time></trkpt><trkpt lat="45.247166" lon="9.0335933"><ele>87.0</ele><time>2026-05-03T07:40:56.689Z</time></trkpt><trkpt lat="45.2472117" lon="9.0335126"><ele>87.0</ele><time>2026-05-03T07:40:58.684Z</time></trkpt><trkpt lat="45.2472553" lon="9.0334364"><ele>87.14285714285714</ele><time>2026-05-03T07:41:00.694Z</time></trkpt><trkpt lat="45.2473037" lon="9.0333606"><ele>87.28571428571429</ele><time>2026-05-03T07:41:02.685Z</time></trkpt><trkpt lat="45.2473448" lon="9.0332844"><ele>87.42857142857143</ele><time>2026-05-03T07:41:04.687Z</time></trkpt><trkpt lat="45.2473824" lon="9.0332038"><ele>87.57142857142857</ele><time>2026-05-03T07:41:06.685Z</time></trkpt><trkpt lat="45.2474201" lon="9.0331281"><ele>87.71428571428571</ele><time>2026-05-03T07:41:08.765Z</time></trkpt><trkpt lat="45.24746" lon="9.0330447"><ele>87.85714285714286</ele><time>2026-05-03T07:41:10.69Z</time></trkpt><trkpt lat="45.2474917" lon="9.0329489"><ele>88.0</ele><time>2026-05-03T07:41:12.692Z</time></trkpt><trkpt lat="45.2475169" lon="9.0328506"><ele>88.0</ele><time>2026-05-03T07:41:14.69Z</time></trkpt><trkpt lat="45.2475451" lon="9.0327562"><ele>88.0</ele><time>2026-05-03T07:41:16.686Z</time></trkpt><trkpt lat="45.2475741" lon="9.0326572"><ele>88.0</ele><time>2026-05-03T07:41:18.699Z</time></trkpt><trkpt lat="45.2476064" lon="9.0325612"><ele>88.0</ele><time>2026-05-03T07:41:20.692Z</time></trkpt><trkpt lat="45.2476401" lon="9.0324693"><ele>88.0</ele><time>2026-05-03T07:41:22.686Z</time></trkpt><trkpt lat="45.2476771" lon="9.0323801"><ele>88.0</ele><time>2026-05-03T07:41:24.691Z</time></trkpt><trkpt lat="45.2477096" lon="9.0322881"><ele>88.0</ele><time>2026-05-03T07:41:26.683Z</time></trkpt><trkpt lat="45.2477431" lon="9.032195"><ele>88.0</ele><time>2026-05-03T07:41:28.701Z</time></trkpt><trkpt lat="45.2477774" lon="9.0321068"><ele>88.0</ele><time>2026-05-03T07:41:30.69Z</time></trkpt><trkpt lat="45.2478123" lon="9.0320267"><ele>88.0</ele><time>2026-05-03T07:41:32.69Z</time></trkpt><trkpt lat="45.2478527" lon="9.0319461"><ele>88.0</ele><time>2026-05-03T07:41:34.689Z</time></trkpt><trkpt lat="45.2478957" lon="9.0318596"><ele>88.0</ele><time>2026-05-03T07:41:36.682Z</time></trkpt><trkpt lat="45.2479376" lon="9.0317646"><ele>88.0</ele><time>2026-05-03T07:41:38.69Z</time></trkpt><trkpt lat="45.2479909" lon="9.0316836"><ele>88.0</ele><time>2026-05-03T07:41:40.691Z</time></trkpt><trkpt lat="45.2480313" lon="9.031598"><ele>88.0</ele><time>2026-05-03T07:41:42.69Z</time></trkpt><trkpt lat="45.2480621" lon="9.0315044"><ele>88.0</ele><time>2026-05-03T07:41:44.692Z</time></trkpt><trkpt lat="45.248098" lon="9.0314037"><ele>88.0</ele><time>2026-05-03T07:41:46.694Z</time></trkpt><trkpt lat="45.2481252" lon="9.0312971"><ele>88.0</ele><time>2026-05-03T07:41:48.756Z</time></trkpt><trkpt lat="45.2481552" lon="9.0312013"><ele>88.0</ele><time>2026-05-03T07:41:50.698Z</time></trkpt><trkpt lat="45.2481884" lon="9.031106"><ele>88.0</ele><time>2026-05-03T07:41:52.695Z</time></trkpt><trkpt lat="45.248226" lon="9.0310098"><ele>88.16666666666666</ele><time>2026-05-03T07:41:54.687Z</time></trkpt><trkpt lat="45.2482623" lon="9.0309142"><ele>88.33333333333333</ele><time>2026-05-03T07:41:56.683Z</time></trkpt><trkpt lat="45.2482967" lon="9.0308378"><ele>88.5</ele><time>2026-05-03T07:41:58.69Z</time></trkpt><trkpt lat="45.2483467" lon="9.0307489"><ele>88.66666666666667</ele><time>2026-05-03T07:42:01.689Z</time></trkpt><trkpt lat="45.2484069" lon="9.0306444"><ele>88.83333333333334</ele><time>2026-05-03T07:42:04.691Z</time></trkpt><trkpt lat="45.2484528" lon="9.0305643"><ele>89.0</ele><time>2026-05-03T07:42:06.687Z</time></trkpt><trkpt lat="45.2484877" lon="9.0304802"><ele>88.99999999999999</ele><time>2026-05-03T07:42:08.691Z</time></trkpt><trkpt lat="45.2485184" lon="9.0303887"><ele>89.0</ele><time>2026-05-03T07:42:10.688Z</time></trkpt><trkpt lat="45.2485554" lon="9.0303"><ele>89.0</ele><time>2026-05-03T07:42:12.686Z</time></trkpt><trkpt lat="45.2485894" lon="9.0302185"><ele>89.0</ele><time>2026-05-03T07:42:14.693Z</time></trkpt><trkpt lat="45.2486202" lon="9.030112"><ele>89.0</ele><time>2026-05-03T07:42:16.692Z</time></trkpt><trkpt lat="45.2486546" lon="9.0300161"><ele>88.99999999999999</ele><time>2026-05-03T07:42:18.7Z</time></trkpt><trkpt lat="45.2486888" lon="9.0299265"><ele>89.0</ele><time>2026-05-03T07:42:20.688Z</time></trkpt><trkpt lat="45.2487292" lon="9.0298331"><ele>88.99999999999999</ele><time>2026-05-03T07:42:22.697Z</time></trkpt><trkpt lat="45.2487621" lon="9.0297396"><ele>89.0</ele><time>2026-05-03T07:42:24.69Z</time></trkpt><trkpt lat="45.2487953" lon="9.0296435"><ele>89.0</ele><time>2026-05-03T07:42:26.688Z</time></trkpt><trkpt lat="45.248828" lon="9.0295608"><ele>89.0</ele><time>2026-05-03T07:42:28.696Z</time></trkpt><trkpt lat="45.2488625" lon="9.0294599"><ele>89.0</ele><time>2026-05-03T07:42:30.698Z</time></trkpt><trkpt lat="45.2489025" lon="9.0293552"><ele>88.99999999999999</ele><time>2026-05-03T07:42:32.687Z</time></trkpt><trkpt lat="45.2489268" lon="9.029264"><ele>89.0</ele><time>2026-05-03T07:42:34.689Z</time></trkpt><trkpt lat="45.2489559" lon="9.0291814"><ele>89.14285714285714</ele><time>2026-05-03T07:42:36.688Z</time></trkpt><trkpt lat="45.2489818" lon="9.0290962"><ele>89.28571428571428</ele><time>2026-05-03T07:42:38.685Z</time></trkpt><trkpt lat="45.2490067" lon="9.0290104"><ele>89.42857142857142</ele><time>2026-05-03T07:42:40.69Z</time></trkpt><trkpt lat="45.2490337" lon="9.0289242"><ele>89.57142857142857</ele><time>2026-05-03T07:42:42.692Z</time></trkpt><trkpt lat="45.2490625" lon="9.0288383"><ele>89.71428571428572</ele><time>2026-05-03T07:42:44.702Z</time></trkpt><trkpt lat="45.2490894" lon="9.0287523"><ele>89.85714285714285</ele><time>2026-05-03T07:42:46.69Z</time></trkpt><trkpt lat="45.2491147" lon="9.0286626"><ele>90.0</ele><time>2026-05-03T07:42:48.689Z</time></trkpt><trkpt lat="45.249149" lon="9.0285833"><ele>90.0</ele><time>2026-05-03T07:42:50.761Z</time></trkpt><trkpt lat="45.2491834" lon="9.0285004"><ele>90.0</ele><time>2026-05-03T07:42:52.694Z</time></trkpt><trkpt lat="45.2492209" lon="9.0284146"><ele>90.0</ele><time>2026-05-03T07:42:54.691Z</time></trkpt><trkpt lat="45.2492506" lon="9.028316"><ele>90.0</ele><time>2026-05-03T07:42:56.689Z</time></trkpt><trkpt lat="45.249296" lon="9.0282266"><ele>90.0</ele><time>2026-05-03T07:42:58.691Z</time></trkpt><trkpt lat="45.2493354" lon="9.0281367"><ele>90.0</ele><time>2026-05-03T07:43:00.686Z</time></trkpt><trkpt lat="45.2493824" lon="9.0280275"><ele>89.66666666666667</ele><time>2026-05-03T07:43:03.687Z</time></trkpt><trkpt lat="45.2494251" lon="9.027924"><ele>89.33333333333333</ele><time>2026-05-03T07:43:06.683Z</time></trkpt><trkpt lat="45.2494626" lon="9.0278273"><ele>89.0</ele><time>2026-05-03T07:43:09.685Z</time></trkpt><trkpt lat="45.2494177" lon="9.0277371"><ele>88.66666666666666</ele><time>2026-05-03T07:43:14.69Z</time></trkpt><trkpt lat="45.249344" lon="9.0277587"><ele>88.33333333333333</ele><time>2026-05-03T07:43:16.696Z</time></trkpt><trkpt lat="45.2492639" lon="9.0277783"><ele>88.0</ele><time>2026-05-03T07:43:18.688Z</time></trkpt><trkpt lat="45.2491731" lon="9.0278066"><ele>88.0</ele><time>2026-05-03T07:43:20.68Z</time></trkpt><trkpt lat="45.2490954" lon="9.0278081"><ele>88.0</ele><time>2026-05-03T07:43:22.684Z</time></trkpt><trkpt lat="45.2490129" lon="9.0277984"><ele>88.0</ele><time>2026-05-03T07:43:24.687Z</time></trkpt><trkpt lat="45.248916" lon="9.0277784"><ele>88.0</ele><time>2026-05-03T07:43:26.682Z</time></trkpt><trkpt lat="45.2488217" lon="9.027749"><ele>88.0</ele><time>2026-05-03T07:43:28.686Z</time></trkpt><trkpt lat="45.248726" lon="9.0277116"><ele>88.0</ele><time>2026-05-03T07:43:30.685Z</time></trkpt><trkpt lat="45.2486403" lon="9.0276799"><ele>88.0</ele><time>2026-05-03T07:43:32.68Z</time></trkpt><trkpt lat="45.2485577" lon="9.0276404"><ele>88.0</ele><time>2026-05-03T07:43:34.685Z</time></trkpt><trkpt lat="45.2484755" lon="9.0275796"><ele>88.0</ele><time>2026-05-03T07:43:36.686Z</time></trkpt><trkpt lat="45.2483984" lon="9.0275273"><ele>88.0</ele><time>2026-05-03T07:43:38.687Z</time></trkpt><trkpt lat="45.248327" lon="9.0274798"><ele>88.0</ele><time>2026-05-03T07:43:40.687Z</time></trkpt><trkpt lat="45.2482638" lon="9.0274348"><ele>88.0</ele><time>2026-05-03T07:43:42.694Z</time></trkpt><trkpt lat="45.2482058" lon="9.0273774"><ele>88.0</ele><time>2026-05-03T07:43:44.688Z</time></trkpt><trkpt lat="45.24814" lon="9.027321"><ele>88.0</ele><time>2026-05-03T07:43:46.68Z</time></trkpt><trkpt lat="45.2480684" lon="9.0272679"><ele>88.0</ele><time>2026-05-03T07:43:48.684Z</time></trkpt><trkpt lat="45.2480017" lon="9.027208"><ele>88.0</ele><time>2026-05-03T07:43:50.682Z</time></trkpt><trkpt lat="45.2479383" lon="9.0271426"><ele>88.0</ele><time>2026-05-03T07:43:52.685Z</time></trkpt><trkpt lat="45.2478657" lon="9.0270855"><ele>88.0</ele><time>2026-05-03T07:43:54.692Z</time></trkpt><trkpt lat="45.2477973" lon="9.0270206"><ele>88.0</ele><time>2026-05-03T07:43:56.678Z</time></trkpt><trkpt lat="45.2477248" lon="9.026958"><ele>88.0</ele><time>2026-05-03T07:43:58.677Z</time></trkpt><trkpt lat="45.2476576" lon="9.0268918"><ele>88.0</ele><time>2026-05-03T07:44:00.691Z</time></trkpt><trkpt lat="45.2475882" lon="9.026832"><ele>88.0</ele><time>2026-05-03T07:44:02.695Z</time></trkpt><trkpt lat="45.2475186" lon="9.0267814"><ele>88.0</ele><time>2026-05-03T07:44:04.684Z</time></trkpt><trkpt lat="45.2474472" lon="9.026717"><ele>88.0</ele><time>2026-05-03T07:44:06.692Z</time></trkpt><trkpt lat="45.2473752" lon="9.0266676"><ele>88.0</ele><time>2026-05-03T07:44:08.682Z</time></trkpt><trkpt lat="45.2473007" lon="9.0266087"><ele>88.0</ele><time>2026-05-03T07:44:10.682Z</time></trkpt><trkpt lat="45.2472248" lon="9.0265574"><ele>88.0</ele><time>2026-05-03T07:44:12.688Z</time></trkpt><trkpt lat="45.247147" lon="9.0265122"><ele>88.0</ele><time>2026-05-03T07:44:14.688Z</time></trkpt><trkpt lat="45.2470639" lon="9.0264643"><ele>88.0</ele><time>2026-05-03T07:44:16.693Z</time></trkpt><trkpt lat="45.2469974" lon="9.02642"><ele>87.85714285714286</ele><time>2026-05-03T07:44:18.685Z</time></trkpt><trkpt lat="45.2469372" lon="9.0263913"><ele>87.71428571428571</ele><time>2026-05-03T07:44:20.685Z</time></trkpt><trkpt lat="45.2468735" lon="9.0263855"><ele>87.57142857142857</ele><time>2026-05-03T07:44:22.688Z</time></trkpt><trkpt lat="45.2468097" lon="9.0264095"><ele>87.42857142857143</ele><time>2026-05-03T07:44:24.693Z</time></trkpt><trkpt lat="45.2467558" lon="9.0264703"><ele>87.28571428571429</ele><time>2026-05-03T07:44:26.689Z</time></trkpt><trkpt lat="45.246716" lon="9.0265521"><ele>87.14285714285714</ele><time>2026-05-03T07:44:28.68Z</time></trkpt><trkpt lat="45.2466854" lon="9.0266382"><ele>87.0</ele><time>2026-05-03T07:44:30.686Z</time></trkpt><trkpt lat="45.2466641" lon="9.0267424"><ele>87.0</ele><time>2026-05-03T07:44:32.684Z</time></trkpt><trkpt lat="45.2466445" lon="9.0268401"><ele>87.0</ele><time>2026-05-03T07:44:34.757Z</time></trkpt><trkpt lat="45.2466201" lon="9.0269403"><ele>87.0</ele><time>2026-05-03T07:44:36.691Z</time></trkpt><trkpt lat="45.2466025" lon="9.027035"><ele>87.0</ele><time>2026-05-03T07:44:38.685Z</time></trkpt><trkpt lat="45.2465858" lon="9.0271372"><ele>87.0</ele><time>2026-05-03T07:44:40.685Z</time></trkpt><trkpt lat="45.2465702" lon="9.0272309"><ele>87.0</ele><time>2026-05-03T07:44:42.691Z</time></trkpt><trkpt lat="45.2465547" lon="9.0273257"><ele>87.0</ele><time>2026-05-03T07:44:44.685Z</time></trkpt><trkpt lat="45.2465256" lon="9.0274189"><ele>87.14285714285714</ele><time>2026-05-03T07:44:46.685Z</time></trkpt><trkpt lat="45.2465112" lon="9.0275147"><ele>87.28571428571429</ele><time>2026-05-03T07:44:48.693Z</time></trkpt><trkpt lat="45.2464943" lon="9.0276109"><ele>87.42857142857143</ele><time>2026-05-03T07:44:50.691Z</time></trkpt><trkpt lat="45.2464776" lon="9.0277037"><ele>87.57142857142857</ele><time>2026-05-03T07:44:52.685Z</time></trkpt><trkpt lat="45.2464608" lon="9.0278007"><ele>87.71428571428571</ele><time>2026-05-03T07:44:54.687Z</time></trkpt><trkpt lat="45.246432" lon="9.0279007"><ele>87.85714285714286</ele><time>2026-05-03T07:44:56.692Z</time></trkpt><trkpt lat="45.2464115" lon="9.0279963"><ele>88.0</ele><time>2026-05-03T07:44:58.683Z</time></trkpt><trkpt lat="45.2463877" lon="9.0280974"><ele>87.57142857142857</ele><time>2026-05-03T07:45:00.689Z</time></trkpt><trkpt lat="45.2463684" lon="9.0282003"><ele>87.14285714285714</ele><time>2026-05-03T07:45:02.755Z</time></trkpt><trkpt lat="45.2463413" lon="9.0282995"><ele>86.71428571428572</ele><time>2026-05-03T07:45:04.68Z</time></trkpt><trkpt lat="45.2463176" lon="9.0283925"><ele>86.28571428571428</ele><time>2026-05-03T07:45:06.688Z</time></trkpt><trkpt lat="45.246291" lon="9.028489"><ele>85.85714285714285</ele><time>2026-05-03T07:45:08.687Z</time></trkpt><trkpt lat="45.2462674" lon="9.0285864"><ele>85.42857142857143</ele><time>2026-05-03T07:45:10.69Z</time></trkpt><trkpt lat="45.2462438" lon="9.028675"><ele>85.0</ele><time>2026-05-03T07:45:12.685Z</time></trkpt><trkpt lat="45.2462198" lon="9.0287681"><ele>84.85714285714286</ele><time>2026-05-03T07:45:14.688Z</time></trkpt><trkpt lat="45.2461962" lon="9.0288692"><ele>84.71428571428571</ele><time>2026-05-03T07:45:16.686Z</time></trkpt><trkpt lat="45.2461709" lon="9.0289635"><ele>84.57142857142857</ele><time>2026-05-03T07:45:18.686Z</time></trkpt><trkpt lat="45.2461392" lon="9.0290592"><ele>84.42857142857143</ele><time>2026-05-03T07:45:20.686Z</time></trkpt><trkpt lat="45.2461034" lon="9.0291467"><ele>84.28571428571428</ele><time>2026-05-03T07:45:22.685Z</time></trkpt><trkpt lat="45.2460626" lon="9.0292397"><ele>84.14285714285714</ele><time>2026-05-03T07:45:24.691Z</time></trkpt><trkpt lat="45.2460193" lon="9.0293223"><ele>84.0</ele><time>2026-05-03T07:45:26.687Z</time></trkpt><trkpt lat="45.2459796" lon="9.0293978"><ele>84.0</ele><time>2026-05-03T07:45:28.688Z</time></trkpt><trkpt lat="45.2459102" lon="9.0294688"><ele>84.0</ele><time>2026-05-03T07:45:31.682Z</time></trkpt><trkpt lat="45.2458245" lon="9.0294302"><ele>84.0</ele><time>2026-05-03T07:45:34.687Z</time></trkpt><trkpt lat="45.2457471" lon="9.0293695"><ele>84.0</ele><time>2026-05-03T07:45:36.702Z</time></trkpt><trkpt lat="45.2456567" lon="9.0292958"><ele>84.0</ele><time>2026-05-03T07:45:38.686Z</time></trkpt><trkpt lat="45.2455564" lon="9.0292084"><ele>83.4</ele><time>2026-05-03T07:45:40.687Z</time></trkpt><trkpt lat="45.245453" lon="9.0291199"><ele>82.80000000000001</ele><time>2026-05-03T07:45:42.763Z</time></trkpt><trkpt lat="45.2453562" lon="9.0290321"><ele>82.19999999999999</ele><time>2026-05-03T07:45:44.684Z</time></trkpt><trkpt lat="45.2452707" lon="9.0289497"><ele>81.6</ele><time>2026-05-03T07:45:46.686Z</time></trkpt><trkpt lat="45.2451783" lon="9.028865"><ele>81.0</ele><time>2026-05-03T07:45:48.685Z</time></trkpt><trkpt lat="45.2450874" lon="9.0287934"><ele>81.0</ele><time>2026-05-03T07:45:50.692Z</time></trkpt><trkpt lat="45.2450118" lon="9.0287237"><ele>81.0</ele><time>2026-05-03T07:45:52.686Z</time></trkpt><trkpt lat="45.2449407" lon="9.0286698"><ele>81.0</ele><time>2026-05-03T07:45:54.687Z</time></trkpt><trkpt lat="45.2448832" lon="9.0286165"><ele>81.0</ele><time>2026-05-03T07:45:56.682Z</time></trkpt><trkpt lat="45.2448222" lon="9.0285631"><ele>81.0</ele><time>2026-05-03T07:45:58.686Z</time></trkpt><trkpt lat="45.2447544" lon="9.0284995"><ele>81.0</ele><time>2026-05-03T07:46:00.683Z</time></trkpt><trkpt lat="45.2446957" lon="9.0284465"><ele>81.0</ele><time>2026-05-03T07:46:02.691Z</time></trkpt><trkpt lat="45.2446346" lon="9.0283981"><ele>81.0</ele><time>2026-05-03T07:46:04.686Z</time></trkpt><trkpt lat="45.2445746" lon="9.0283542"><ele>81.0</ele><time>2026-05-03T07:46:06.684Z</time></trkpt><trkpt lat="45.2445125" lon="9.0283005"><ele>81.0</ele><time>2026-05-03T07:46:08.688Z</time></trkpt><trkpt lat="45.2444422" lon="9.0282487"><ele>81.0</ele><time>2026-05-03T07:46:10.692Z</time></trkpt><trkpt lat="45.2443742" lon="9.0281931"><ele>81.0</ele><time>2026-05-03T07:46:12.69Z</time></trkpt><trkpt lat="45.2443097" lon="9.0281366"><ele>81.0</ele><time>2026-05-03T07:46:14.686Z</time></trkpt><trkpt lat="45.2442343" lon="9.0280676"><ele>81.0</ele><time>2026-05-03T07:46:16.692Z</time></trkpt><trkpt lat="45.2441531" lon="9.0279957"><ele>81.0</ele><time>2026-05-03T07:46:18.69Z</time></trkpt><trkpt lat="45.244077" lon="9.0279249"><ele>81.0</ele><time>2026-05-03T07:46:20.757Z</time></trkpt><trkpt lat="45.2440096" lon="9.027858"><ele>81.0</ele><time>2026-05-03T07:46:22.688Z</time></trkpt><trkpt lat="45.2439407" lon="9.027791"><ele>81.0</ele><time>2026-05-03T07:46:24.689Z</time></trkpt><trkpt lat="45.2438698" lon="9.0277261"><ele>81.0</ele><time>2026-05-03T07:46:26.685Z</time></trkpt><trkpt lat="45.2437913" lon="9.0276576"><ele>80.83333333333333</ele><time>2026-05-03T07:46:28.683Z</time></trkpt><trkpt lat="45.2437166" lon="9.0275985"><ele>80.66666666666667</ele><time>2026-05-03T07:46:30.69Z</time></trkpt><trkpt lat="45.2436305" lon="9.0275488"><ele>80.5</ele><time>2026-05-03T07:46:32.695Z</time></trkpt><trkpt lat="45.2435427" lon="9.027525"><ele>80.33333333333334</ele><time>2026-05-03T07:46:34.686Z</time></trkpt><trkpt lat="45.2434654" lon="9.0275763"><ele>80.16666666666667</ele><time>2026-05-03T07:46:36.693Z</time></trkpt><trkpt lat="45.2434112" lon="9.0276526"><ele>80.0</ele><time>2026-05-03T07:46:38.688Z</time></trkpt><trkpt lat="45.2433567" lon="9.0277322"><ele>80.0</ele><time>2026-05-03T07:46:40.682Z</time></trkpt><trkpt lat="45.2433111" lon="9.0278067"><ele>80.0</ele><time>2026-05-03T07:46:42.688Z</time></trkpt><trkpt lat="45.2432512" lon="9.0278903"><ele>80.0</ele><time>2026-05-03T07:46:44.689Z</time></trkpt><trkpt lat="45.2431907" lon="9.0279732"><ele>80.0</ele><time>2026-05-03T07:46:46.685Z</time></trkpt><trkpt lat="45.2431433" lon="9.0280481"><ele>80.0</ele><time>2026-05-03T07:46:48.683Z</time></trkpt><trkpt lat="45.2430906" lon="9.0281337"><ele>80.0</ele><time>2026-05-03T07:46:50.689Z</time></trkpt><trkpt lat="45.2430371" lon="9.0282181"><ele>79.5</ele><time>2026-05-03T07:46:52.695Z</time></trkpt><trkpt lat="45.2429935" lon="9.0282978"><ele>79.0</ele><time>2026-05-03T07:46:54.687Z</time></trkpt><trkpt lat="45.2429408" lon="9.0283816"><ele>78.5</ele><time>2026-05-03T07:46:56.69Z</time></trkpt><trkpt lat="45.2429076" lon="9.0284707"><ele>78.0</ele><time>2026-05-03T07:46:58.682Z</time></trkpt><trkpt lat="45.2428844" lon="9.0285655"><ele>77.5</ele><time>2026-05-03T07:47:00.687Z</time></trkpt><trkpt lat="45.2428804" lon="9.0286962"><ele>77.0</ele><time>2026-05-03T07:47:03.681Z</time></trkpt><trkpt lat="45.2428892" lon="9.0287908"><ele>77.0</ele><time>2026-05-03T07:47:05.689Z</time></trkpt><trkpt lat="45.2429027" lon="9.028884"><ele>77.0</ele><time>2026-05-03T07:47:07.682Z</time></trkpt><trkpt lat="45.2429132" lon="9.0289796"><ele>77.0</ele><time>2026-05-03T07:47:09.684Z</time></trkpt><trkpt lat="45.2429227" lon="9.0290782"><ele>77.0</ele><time>2026-05-03T07:47:11.68Z</time></trkpt><trkpt lat="45.2428918" lon="9.0291691"><ele>77.0</ele><time>2026-05-03T07:47:13.686Z</time></trkpt><trkpt lat="45.2428216" lon="9.0292602"><ele>77.0</ele><time>2026-05-03T07:47:16.69Z</time></trkpt><trkpt lat="45.24276" lon="9.0293067"><ele>77.0</ele><time>2026-05-03T07:47:18.683Z</time></trkpt><trkpt lat="45.2426996" lon="9.0293706"><ele>77.0</ele><time>2026-05-03T07:47:20.695Z</time></trkpt><trkpt lat="45.2426399" lon="9.0294313"><ele>77.0</ele><time>2026-05-03T07:47:22.686Z</time></trkpt><trkpt lat="45.2425751" lon="9.0294829"><ele>77.0</ele><time>2026-05-03T07:47:24.693Z</time></trkpt><trkpt lat="45.2425123" lon="9.0295362"><ele>77.0</ele><time>2026-05-03T07:47:26.68Z</time></trkpt><trkpt lat="45.2424565" lon="9.0295801"><ele>77.0</ele><time>2026-05-03T07:47:28.756Z</time></trkpt><trkpt lat="45.2423631" lon="9.0295634"><ele>77.0</ele><time>2026-05-03T07:47:31.689Z</time></trkpt><trkpt lat="45.2423001" lon="9.0294776"><ele>76.16666666666667</ele><time>2026-05-03T07:47:33.69Z</time></trkpt><trkpt lat="45.2422179" lon="9.0293672"><ele>75.33333333333334</ele><time>2026-05-03T07:47:35.688Z</time></trkpt><trkpt lat="45.2421681" lon="9.0292996"><ele>74.5</ele><time>2026-05-03T07:47:36.686Z</time></trkpt><trkpt lat="45.2421164" lon="9.0292327"><ele>73.66666666666667</ele><time>2026-05-03T07:47:37.689Z</time></trkpt><trkpt lat="45.2420597" lon="9.0291652"><ele>72.83333333333333</ele><time>2026-05-03T07:47:38.694Z</time></trkpt><trkpt lat="45.242001" lon="9.0290962"><ele>72.0</ele><time>2026-05-03T07:47:39.683Z</time></trkpt><trkpt lat="45.2419337" lon="9.0290229"><ele>71.6</ele><time>2026-05-03T07:47:40.69Z</time></trkpt><trkpt lat="45.2418668" lon="9.0289468"><ele>71.2</ele><time>2026-05-03T07:47:41.691Z</time></trkpt><trkpt lat="45.2417975" lon="9.0288638"><ele>70.8</ele><time>2026-05-03T07:47:42.766Z</time></trkpt><trkpt lat="45.2417343" lon="9.0287715"><ele>70.4</ele><time>2026-05-03T07:47:43.688Z</time></trkpt><trkpt lat="45.2416669" lon="9.0286849"><ele>70.0</ele><time>2026-05-03T07:47:44.691Z</time></trkpt><trkpt lat="45.2415995" lon="9.0285913"><ele>70.0</ele><time>2026-05-03T07:47:45.69Z</time></trkpt><trkpt lat="45.2415419" lon="9.0285041"><ele>70.0</ele><time>2026-05-03T07:47:46.684Z</time></trkpt><trkpt lat="45.2414751" lon="9.0284148"><ele>70.0</ele><time>2026-05-03T07:47:47.707Z</time></trkpt><trkpt lat="45.2414045" lon="9.0283332"><ele>70.0</ele><time>2026-05-03T07:47:48.688Z</time></trkpt><trkpt lat="45.241332" lon="9.0282582"><ele>70.0</ele><time>2026-05-03T07:47:49.69Z</time></trkpt><trkpt lat="45.2412636" lon="9.0281849"><ele>70.0</ele><time>2026-05-03T07:47:50.688Z</time></trkpt><trkpt lat="45.2411961" lon="9.0281114"><ele>69.42857142857143</ele><time>2026-05-03T07:47:51.691Z</time></trkpt><trkpt lat="45.2411347" lon="9.0280391"><ele>68.85714285714286</ele><time>2026-05-03T07:47:52.689Z</time></trkpt><trkpt lat="45.2410716" lon="9.0279701"><ele>68.28571428571428</ele><time>2026-05-03T07:47:53.685Z</time></trkpt><trkpt lat="45.2410118" lon="9.0279073"><ele>67.71428571428572</ele><time>2026-05-03T07:47:54.689Z</time></trkpt><trkpt lat="45.2409523" lon="9.0278472"><ele>67.14285714285714</ele><time>2026-05-03T07:47:55.686Z</time></trkpt><trkpt lat="45.2409018" lon="9.0277882"><ele>66.57142857142857</ele><time>2026-05-03T07:47:56.688Z</time></trkpt><trkpt lat="45.2408468" lon="9.0277256"><ele>66.0</ele><time>2026-05-03T07:47:57.686Z</time></trkpt><trkpt lat="45.240793" lon="9.0276675"><ele>66.0</ele><time>2026-05-03T07:47:58.693Z</time></trkpt><trkpt lat="45.2406966" lon="9.0275638"><ele>66.0</ele><time>2026-05-03T07:48:00.689Z</time></trkpt><trkpt lat="45.2406118" lon="9.0274779"><ele>66.0</ele><time>2026-05-03T07:48:02.698Z</time></trkpt><trkpt lat="45.2405365" lon="9.0273969"><ele>66.0</ele><time>2026-05-03T07:48:04.677Z</time></trkpt><trkpt lat="45.2404597" lon="9.0273397"><ele>66.0</ele><time>2026-05-03T07:48:06.686Z</time></trkpt><trkpt lat="45.2403902" lon="9.0273305"><ele>66.0</ele><time>2026-05-03T07:48:08.687Z</time></trkpt><trkpt lat="45.2403043" lon="9.027365"><ele>66.0</ele><time>2026-05-03T07:48:11.689Z</time></trkpt><trkpt lat="45.2402643" lon="9.0274349"><ele>66.0</ele><time>2026-05-03T07:48:14.687Z</time></trkpt><trkpt lat="45.2402318" lon="9.027529"><ele>66.0</ele><time>2026-05-03T07:48:17.685Z</time></trkpt><trkpt lat="45.2402096" lon="9.0276335"><ele>66.0</ele><time>2026-05-03T07:48:20.698Z</time></trkpt><trkpt lat="45.2401692" lon="9.0277342"><ele>66.0</ele><time>2026-05-03T07:48:22.686Z</time></trkpt><trkpt lat="45.2401365" lon="9.0278142"><ele>65.83333333333333</ele><time>2026-05-03T07:48:24.683Z</time></trkpt><trkpt lat="45.2400961" lon="9.0279244"><ele>65.66666666666667</ele><time>2026-05-03T07:48:27.686Z</time></trkpt><trkpt lat="45.2400519" lon="9.0280047"><ele>65.5</ele><time>2026-05-03T07:48:29.693Z</time></trkpt><trkpt lat="45.2400031" lon="9.0280968"><ele>65.33333333333334</ele><time>2026-05-03T07:48:31.688Z</time></trkpt><trkpt lat="45.2399504" lon="9.0281733"><ele>65.16666666666667</ele><time>2026-05-03T07:48:33.694Z</time></trkpt><trkpt lat="45.2399091" lon="9.028244"><ele>65.0</ele><time>2026-05-03T07:48:35.76Z</time></trkpt><trkpt lat="45.2398467" lon="9.0283353"><ele>64.85714285714286</ele><time>2026-05-03T07:48:38.692Z</time></trkpt><trkpt lat="45.2398018" lon="9.0284018"><ele>64.71428571428572</ele><time>2026-05-03T07:48:40.695Z</time></trkpt><trkpt lat="45.2397498" lon="9.0284698"><ele>64.57142857142857</ele><time>2026-05-03T07:48:42.689Z</time></trkpt><trkpt lat="45.239697" lon="9.0285359"><ele>64.42857142857143</ele><time>2026-05-03T07:48:44.686Z</time></trkpt><trkpt lat="45.2396418" lon="9.0286052"><ele>64.28571428571428</ele><time>2026-05-03T07:48:46.687Z</time></trkpt><trkpt lat="45.2395939" lon="9.0286688"><ele>64.14285714285714</ele><time>2026-05-03T07:48:48.704Z</time></trkpt><trkpt lat="45.2395188" lon="9.0287626"><ele>64.0</ele><time>2026-05-03T07:48:51.692Z</time></trkpt><trkpt lat="45.2394724" lon="9.0288315"><ele>64.33333333333333</ele><time>2026-05-03T07:48:53.694Z</time></trkpt><trkpt lat="45.2394227" lon="9.028933"><ele>64.66666666666666</ele><time>2026-05-03T07:48:56.691Z</time></trkpt><trkpt lat="45.239411" lon="9.0290565"><ele>65.0</ele><time>2026-05-03T07:48:59.686Z</time></trkpt><trkpt lat="45.2394028" lon="9.0291538"><ele>65.33333333333333</ele><time>2026-05-03T07:49:01.681Z</time></trkpt><trkpt lat="45.2393713" lon="9.029251"><ele>65.66666666666667</ele><time>2026-05-03T07:49:04.683Z</time></trkpt><trkpt lat="45.2392956" lon="9.0292649"><ele>66.0</ele><time>2026-05-03T07:49:07.692Z</time></trkpt><trkpt lat="45.2392408" lon="9.0292039"><ele>66.0</ele><time>2026-05-03T07:49:09.688Z</time></trkpt><trkpt lat="45.2391741" lon="9.0291102"><ele>66.0</ele><time>2026-05-03T07:49:12.68Z</time></trkpt><trkpt lat="45.2390818" lon="9.0290999"><ele>66.0</ele><time>2026-05-03T07:49:15.694Z</time></trkpt><trkpt lat="45.2390173" lon="9.0291472"><ele>66.0</ele><time>2026-05-03T07:49:18.686Z</time></trkpt><trkpt lat="45.2389344" lon="9.0291889"><ele>66.0</ele><time>2026-05-03T07:49:21.69Z</time></trkpt><trkpt lat="45.2388663" lon="9.029223"><ele>66.0</ele><time>2026-05-03T07:49:23.689Z</time></trkpt><trkpt lat="45.2387956" lon="9.0292655"><ele>66.16666666666667</ele><time>2026-05-03T07:49:25.688Z</time></trkpt><trkpt lat="45.2387301" lon="9.0292917"><ele>66.33333333333333</ele><time>2026-05-03T07:49:27.689Z</time></trkpt><trkpt lat="45.2386644" lon="9.0293182"><ele>66.5</ele><time>2026-05-03T07:49:29.687Z</time></trkpt><trkpt lat="45.2385732" lon="9.0293365"><ele>66.66666666666666</ele><time>2026-05-03T07:49:32.688Z</time></trkpt><trkpt lat="45.2385088" lon="9.0293606"><ele>66.83333333333333</ele><time>2026-05-03T07:49:34.686Z</time></trkpt><trkpt lat="45.2384289" lon="9.0294021"><ele>67.0</ele><time>2026-05-03T07:49:37.68Z</time></trkpt><trkpt lat="45.238368" lon="9.029451"><ele>67.0</ele><time>2026-05-03T07:49:39.754Z</time></trkpt><trkpt lat="45.2382784" lon="9.029508"><ele>67.0</ele><time>2026-05-03T07:49:42.688Z</time></trkpt><trkpt lat="45.2382079" lon="9.0295425"><ele>67.0</ele><time>2026-05-03T07:49:44.696Z</time></trkpt><trkpt lat="45.2381443" lon="9.029563"><ele>67.0</ele><time>2026-05-03T07:49:46.688Z</time></trkpt><trkpt lat="45.2380795" lon="9.0295804"><ele>67.0</ele><time>2026-05-03T07:49:48.681Z</time></trkpt><trkpt lat="45.2380102" lon="9.0295945"><ele>67.0</ele><time>2026-05-03T07:49:50.683Z</time></trkpt><trkpt lat="45.2379235" lon="9.0296078"><ele>67.33333333333333</ele><time>2026-05-03T07:49:53.689Z</time></trkpt><trkpt lat="45.2378329" lon="9.029618"><ele>67.66666666666666</ele><time>2026-05-03T07:49:56.687Z</time></trkpt><trkpt lat="45.2377612" lon="9.0296261"><ele>68.0</ele><time>2026-05-03T07:49:58.686Z</time></trkpt><trkpt lat="45.2376861" lon="9.029641"><ele>68.33333333333333</ele><time>2026-05-03T07:50:00.69Z</time></trkpt><trkpt lat="45.2376137" lon="9.0296647"><ele>68.66666666666667</ele><time>2026-05-03T07:50:02.683Z</time></trkpt><trkpt lat="45.2375506" lon="9.0296877"><ele>69.0</ele><time>2026-05-03T07:50:04.69Z</time></trkpt><trkpt lat="45.2374851" lon="9.0297655"><ele>69.0</ele><time>2026-05-03T07:50:07.694Z</time></trkpt><trkpt lat="45.2374669" lon="9.0298944"><ele>69.0</ele><time>2026-05-03T07:50:10.691Z</time></trkpt><trkpt lat="45.2374744" lon="9.0299939"><ele>69.0</ele><time>2026-05-03T07:50:12.685Z</time></trkpt><trkpt lat="45.2374992" lon="9.0301306"><ele>69.0</ele><time>2026-05-03T07:50:15.708Z</time></trkpt><trkpt lat="45.237511" lon="9.0302208"><ele>69.0</ele><time>2026-05-03T07:50:17.691Z</time></trkpt><trkpt lat="45.2375373" lon="9.0303118"><ele>69.0</ele><time>2026-05-03T07:50:19.687Z</time></trkpt><trkpt lat="45.2375524" lon="9.030424"><ele>68.85714285714286</ele><time>2026-05-03T07:50:21.693Z</time></trkpt><trkpt lat="45.2375678" lon="9.0305182"><ele>68.71428571428572</ele><time>2026-05-03T07:50:23.694Z</time></trkpt><trkpt lat="45.2375959" lon="9.0306171"><ele>68.57142857142857</ele><time>2026-05-03T07:50:25.693Z</time></trkpt><trkpt lat="45.2376344" lon="9.0306936"><ele>68.42857142857143</ele><time>2026-05-03T07:50:27.693Z</time></trkpt><trkpt lat="45.2376785" lon="9.0307597"><ele>68.28571428571428</ele><time>2026-05-03T07:50:29.691Z</time></trkpt><trkpt lat="45.237742" lon="9.0307926"><ele>68.14285714285714</ele><time>2026-05-03T07:50:31.699Z</time></trkpt><trkpt lat="45.2378096" lon="9.030806"><ele>68.0</ele><time>2026-05-03T07:50:33.692Z</time></trkpt><trkpt lat="45.237889" lon="9.0308262"><ele>68.0</ele><time>2026-05-03T07:50:35.694Z</time></trkpt><trkpt lat="45.2379838" lon="9.0308418"><ele>68.0</ele><time>2026-05-03T07:50:37.707Z</time></trkpt><trkpt lat="45.2380567" lon="9.030903"><ele>68.0</ele><time>2026-05-03T07:50:40.687Z</time></trkpt><trkpt lat="45.2380949" lon="9.0309964"><ele>68.0</ele><time>2026-05-03T07:50:43.684Z</time></trkpt><trkpt lat="45.2381154" lon="9.0311195"><ele>68.0</ele><time>2026-05-03T07:50:46.686Z</time></trkpt><trkpt lat="45.2381375" lon="9.0312509"><ele>68.0</ele><time>2026-05-03T07:50:49.689Z</time></trkpt><trkpt lat="45.2381446" lon="9.0313467"><ele>69.16666666666667</ele><time>2026-05-03T07:50:51.689Z</time></trkpt><trkpt lat="45.2381705" lon="9.0314775"><ele>70.33333333333334</ele><time>2026-05-03T07:50:54.69Z</time></trkpt><trkpt lat="45.2381924" lon="9.0315829"><ele>71.5</ele><time>2026-05-03T07:50:57.7Z</time></trkpt><trkpt lat="45.2382029" lon="9.0317043"><ele>72.66666666666667</ele><time>2026-05-03T07:51:00.694Z</time></trkpt><trkpt lat="45.2382203" lon="9.0318219"><ele>73.83333333333333</ele><time>2026-05-03T07:51:03.689Z</time></trkpt><trkpt lat="45.2382372" lon="9.0319383"><ele>75.0</ele><time>2026-05-03T07:51:06.691Z</time></trkpt><trkpt lat="45.2382575" lon="9.0320513"><ele>75.0</ele><time>2026-05-03T07:51:09.692Z</time></trkpt><trkpt lat="45.2382815" lon="9.0321864"><ele>75.0</ele><time>2026-05-03T07:51:12.764Z</time></trkpt><trkpt lat="45.2383022" lon="9.0322735"><ele>75.0</ele><time>2026-05-03T07:51:14.681Z</time></trkpt><trkpt lat="45.2383229" lon="9.0324021"><ele>75.0</ele><time>2026-05-03T07:51:17.692Z</time></trkpt><trkpt lat="45.2383413" lon="9.0325313"><ele>75.0</ele><time>2026-05-03T07:51:20.684Z</time></trkpt><trkpt lat="45.2383497" lon="9.032627"><ele>75.0</ele><time>2026-05-03T07:51:22.687Z</time></trkpt><trkpt lat="45.2383681" lon="9.0327541"><ele>74.66666666666667</ele><time>2026-05-03T07:51:25.686Z</time></trkpt><trkpt lat="45.2383911" lon="9.0328922"><ele>74.33333333333333</ele><time>2026-05-03T07:51:28.689Z</time></trkpt><trkpt lat="45.2384101" lon="9.0330029"><ele>74.0</ele><time>2026-05-03T07:51:30.684Z</time></trkpt><trkpt lat="45.2384232" lon="9.0330963"><ele>73.66666666666666</ele><time>2026-05-03T07:51:32.684Z</time></trkpt><trkpt lat="45.2384441" lon="9.0331934"><ele>73.33333333333333</ele><time>2026-05-03T07:51:34.688Z</time></trkpt><trkpt lat="45.2384686" lon="9.0332888"><ele>73.0</ele><time>2026-05-03T07:51:36.689Z</time></trkpt><trkpt lat="45.2384911" lon="9.0333863"><ele>72.85714285714286</ele><time>2026-05-03T07:51:38.688Z</time></trkpt><trkpt lat="45.2385019" lon="9.0334799"><ele>72.71428571428572</ele><time>2026-05-03T07:51:40.693Z</time></trkpt><trkpt lat="45.2385378" lon="9.0335902"><ele>72.57142857142858</ele><time>2026-05-03T07:51:43.689Z</time></trkpt><trkpt lat="45.2385659" lon="9.0336754"><ele>72.42857142857143</ele><time>2026-05-03T07:51:45.686Z</time></trkpt><trkpt lat="45.2385871" lon="9.0337634"><ele>72.28571428571429</ele><time>2026-05-03T07:51:47.679Z</time></trkpt><trkpt lat="45.2386123" lon="9.033884"><ele>72.14285714285715</ele><time>2026-05-03T07:51:50.687Z</time></trkpt><trkpt lat="45.2386166" lon="9.0339795"><ele>72.0</ele><time>2026-05-03T07:51:52.676Z</time></trkpt><trkpt lat="45.2386066" lon="9.0340963"><ele>72.16666666666667</ele><time>2026-05-03T07:51:55.686Z</time></trkpt><trkpt lat="45.2385892" lon="9.0342011"><ele>72.33333333333333</ele><time>2026-05-03T07:51:57.689Z</time></trkpt><trkpt lat="45.238559" lon="9.0343162"><ele>72.5</ele><time>2026-05-03T07:51:59.691Z</time></trkpt><trkpt lat="45.238542" lon="9.0344359"><ele>72.66666666666666</ele><time>2026-05-03T07:52:01.696Z</time></trkpt><trkpt lat="45.2385352" lon="9.0345361"><ele>72.83333333333333</ele><time>2026-05-03T07:52:03.687Z</time></trkpt><trkpt lat="45.2385357" lon="9.0346545"><ele>73.0</ele><time>2026-05-03T07:52:06.7Z</time></trkpt><trkpt lat="45.2384996" lon="9.0347368"><ele>73.0</ele><time>2026-05-03T07:52:11.684Z</time></trkpt><trkpt lat="45.2384251" lon="9.0347534"><ele>73.0</ele><time>2026-05-03T07:52:14.678Z</time></trkpt><trkpt lat="45.2383441" lon="9.0347194"><ele>73.0</ele><time>2026-05-03T07:52:16.698Z</time></trkpt><trkpt lat="45.2382693" lon="9.034714"><ele>73.0</ele><time>2026-05-03T07:52:18.687Z</time></trkpt><trkpt lat="45.2381846" lon="9.0346865"><ele>73.0</ele><time>2026-05-03T07:52:20.685Z</time></trkpt><trkpt lat="45.2380938" lon="9.034654"><ele>73.0</ele><time>2026-05-03T07:52:22.681Z</time></trkpt><trkpt lat="45.238003" lon="9.0346069"><ele>72.33333333333333</ele><time>2026-05-03T07:52:24.688Z</time></trkpt><trkpt lat="45.2379321" lon="9.0345713"><ele>71.66666666666666</ele><time>2026-05-03T07:52:26.688Z</time></trkpt><trkpt lat="45.2378363" lon="9.0345669"><ele>71.0</ele><time>2026-05-03T07:52:28.691Z</time></trkpt><trkpt lat="45.2377508" lon="9.0345266"><ele>70.33333333333333</ele><time>2026-05-03T07:52:30.685Z</time></trkpt><trkpt lat="45.2376708" lon="9.034487"><ele>69.66666666666667</ele><time>2026-05-03T07:52:32.69Z</time></trkpt><trkpt lat="45.2375887" lon="9.0344589"><ele>69.0</ele><time>2026-05-03T07:52:34.694Z</time></trkpt><trkpt lat="45.2375065" lon="9.0344239"><ele>69.0</ele><time>2026-05-03T07:52:36.698Z</time></trkpt><trkpt lat="45.2374229" lon="9.0343805"><ele>69.0</ele><time>2026-05-03T07:52:39.691Z</time></trkpt><trkpt lat="45.2374029" lon="9.0342604"><ele>69.0</ele><time>2026-05-03T07:52:42.683Z</time></trkpt><trkpt lat="45.2374214" lon="9.0341726"><ele>69.0</ele><time>2026-05-03T07:52:44.688Z</time></trkpt><trkpt lat="45.2374335" lon="9.034039"><ele>69.0</ele><time>2026-05-03T07:52:47.696Z</time></trkpt><trkpt lat="45.2374421" lon="9.0339162"><ele>69.0</ele><time>2026-05-03T07:52:50.695Z</time></trkpt><trkpt lat="45.2374363" lon="9.0337894"><ele>69.0</ele><time>2026-05-03T07:52:53.76Z</time></trkpt><trkpt lat="45.2374341" lon="9.0336883"><ele>69.0</ele><time>2026-05-03T07:52:55.777Z</time></trkpt><trkpt lat="45.2374358" lon="9.0335952"><ele>69.0</ele><time>2026-05-03T07:52:57.688Z</time></trkpt><trkpt lat="45.2374399" lon="9.0335018"><ele>69.0</ele><time>2026-05-03T07:52:59.684Z</time></trkpt><trkpt lat="45.2374468" lon="9.0334047"><ele>69.0</ele><time>2026-05-03T07:53:01.696Z</time></trkpt><trkpt lat="45.2374609" lon="9.0332764"><ele>69.0</ele><time>2026-05-03T07:53:04.689Z</time></trkpt><trkpt lat="45.2374693" lon="9.0331753"><ele>69.0</ele><time>2026-05-03T07:53:06.688Z</time></trkpt><trkpt lat="45.2374677" lon="9.0330746"><ele>68.71428571428572</ele><time>2026-05-03T07:53:08.689Z</time></trkpt><trkpt lat="45.2374606" lon="9.0329504"><ele>68.42857142857143</ele><time>2026-05-03T07:53:11.683Z</time></trkpt><trkpt lat="45.2374426" lon="9.032832"><ele>68.14285714285714</ele><time>2026-05-03T07:53:14.687Z</time></trkpt><trkpt lat="45.2374334" lon="9.0327398"><ele>67.85714285714286</ele><time>2026-05-03T07:53:16.693Z</time></trkpt><trkpt lat="45.2374243" lon="9.03264"><ele>67.57142857142857</ele><time>2026-05-03T07:53:18.692Z</time></trkpt><trkpt lat="45.2374009" lon="9.0325546"><ele>67.28571428571429</ele><time>2026-05-03T07:53:20.685Z</time></trkpt><trkpt lat="45.237365" lon="9.0324795"><ele>67.0</ele><time>2026-05-03T07:53:22.689Z</time></trkpt><trkpt lat="45.237325" lon="9.0323955"><ele>67.14285714285714</ele><time>2026-05-03T07:53:24.678Z</time></trkpt><trkpt lat="45.2372853" lon="9.0323107"><ele>67.28571428571428</ele><time>2026-05-03T07:53:26.688Z</time></trkpt><trkpt lat="45.2372438" lon="9.0322417"><ele>67.42857142857142</ele><time>2026-05-03T07:53:28.692Z</time></trkpt><trkpt lat="45.2371951" lon="9.0321602"><ele>67.57142857142857</ele><time>2026-05-03T07:53:30.691Z</time></trkpt><trkpt lat="45.2371545" lon="9.0320871"><ele>67.71428571428571</ele><time>2026-05-03T07:53:32.685Z</time></trkpt><trkpt lat="45.2371072" lon="9.0320202"><ele>67.85714285714285</ele><time>2026-05-03T07:53:34.76Z</time></trkpt><trkpt lat="45.237044" lon="9.0319618"><ele>68.0</ele><time>2026-05-03T07:53:36.689Z</time></trkpt><trkpt lat="45.2369741" lon="9.0319074"><ele>67.99999999999999</ele><time>2026-05-03T07:53:38.69Z</time></trkpt><trkpt lat="45.2369075" lon="9.0318604"><ele>68.0</ele><time>2026-05-03T07:53:40.689Z</time></trkpt><trkpt lat="45.2368535" lon="9.0318096"><ele>68.0</ele><time>2026-05-03T07:53:42.683Z</time></trkpt><trkpt lat="45.2367911" lon="9.0317599"><ele>68.0</ele><time>2026-05-03T07:53:44.692Z</time></trkpt><trkpt lat="45.2367216" lon="9.0317141"><ele>68.0</ele><time>2026-05-03T07:53:46.759Z</time></trkpt><trkpt lat="45.236663" lon="9.0316718"><ele>67.99999999999999</ele><time>2026-05-03T07:53:48.689Z</time></trkpt><trkpt lat="45.2365979" lon="9.0316323"><ele>68.0</ele><time>2026-05-03T07:53:50.686Z</time></trkpt><trkpt lat="45.2365332" lon="9.0316219"><ele>67.83333333333334</ele><time>2026-05-03T07:53:52.688Z</time></trkpt><trkpt lat="45.2364436" lon="9.031598"><ele>67.66666666666667</ele><time>2026-05-03T07:53:55.69Z</time></trkpt><trkpt lat="45.2363831" lon="9.0315252"><ele>67.5</ele><time>2026-05-03T07:53:58.692Z</time></trkpt><trkpt lat="45.2363326" lon="9.031407"><ele>67.33333333333333</ele><time>2026-05-03T07:54:01.693Z</time></trkpt><trkpt lat="45.2363063" lon="9.0312963"><ele>67.16666666666666</ele><time>2026-05-03T07:54:03.691Z</time></trkpt><trkpt lat="45.2362728" lon="9.0312034"><ele>67.0</ele><time>2026-05-03T07:54:05.696Z</time></trkpt><trkpt lat="45.2362437" lon="9.0311211"><ele>67.0</ele><time>2026-05-03T07:54:07.689Z</time></trkpt><trkpt lat="45.2361741" lon="9.0310485"><ele>67.0</ele><time>2026-05-03T07:54:10.69Z</time></trkpt><trkpt lat="45.2360922" lon="9.0309793"><ele>67.0</ele><time>2026-05-03T07:54:13.692Z</time></trkpt><trkpt lat="45.2360105" lon="9.0309178"><ele>67.0</ele><time>2026-05-03T07:54:16.684Z</time></trkpt><trkpt lat="45.2359277" lon="9.0308581"><ele>67.0</ele><time>2026-05-03T07:54:19.7Z</time></trkpt><trkpt lat="45.2358463" lon="9.0308147"><ele>66.85714285714286</ele><time>2026-05-03T07:54:22.693Z</time></trkpt><trkpt lat="45.2357792" lon="9.0307977"><ele>66.71428571428571</ele><time>2026-05-03T07:54:24.692Z</time></trkpt><trkpt lat="45.235715" lon="9.0307747"><ele>66.57142857142857</ele><time>2026-05-03T07:54:26.685Z</time></trkpt><trkpt lat="45.235655" lon="9.0307445"><ele>66.42857142857143</ele><time>2026-05-03T07:54:28.687Z</time></trkpt><trkpt lat="45.2356042" lon="9.0306907"><ele>66.28571428571429</ele><time>2026-05-03T07:54:30.691Z</time></trkpt><trkpt lat="45.2355487" lon="9.030628"><ele>66.14285714285714</ele><time>2026-05-03T07:54:32.686Z</time></trkpt><trkpt lat="45.2354859" lon="9.0305454"><ele>66.0</ele><time>2026-05-03T07:54:35.681Z</time></trkpt><trkpt lat="45.2354366" lon="9.0304777"><ele>66.0</ele><time>2026-05-03T07:54:37.689Z</time></trkpt><trkpt lat="45.2353811" lon="9.0303999"><ele>66.0</ele><time>2026-05-03T07:54:39.832Z</time></trkpt><trkpt lat="45.2353336" lon="9.0303252"><ele>66.0</ele><time>2026-05-03T07:54:41.687Z</time></trkpt><trkpt lat="45.2352902" lon="9.0302542"><ele>66.0</ele><time>2026-05-03T07:54:43.679Z</time></trkpt><trkpt lat="45.2352295" lon="9.0301619"><ele>66.0</ele><time>2026-05-03T07:54:46.683Z</time></trkpt><trkpt lat="45.2351697" lon="9.0300981"><ele>66.0</ele><time>2026-05-03T07:54:49.687Z</time></trkpt><trkpt lat="45.2351054" lon="9.0300104"><ele>66.0</ele><time>2026-05-03T07:54:52.695Z</time></trkpt><trkpt lat="45.2350587" lon="9.0299453"><ele>66.0</ele><time>2026-05-03T07:54:54.686Z</time></trkpt><trkpt lat="45.2350136" lon="9.0298773"><ele>66.0</ele><time>2026-05-03T07:54:56.69Z</time></trkpt><trkpt lat="45.2349679" lon="9.0298136"><ele>66.0</ele><time>2026-05-03T07:54:58.68Z</time></trkpt><trkpt lat="45.2349142" lon="9.0297525"><ele>66.0</ele><time>2026-05-03T07:55:00.685Z</time></trkpt><trkpt lat="45.2348629" lon="9.0296909"><ele>66.0</ele><time>2026-05-03T07:55:02.687Z</time></trkpt><trkpt lat="45.2348098" lon="9.0296265"><ele>66.0</ele><time>2026-05-03T07:55:04.684Z</time></trkpt><trkpt lat="45.2347573" lon="9.0295611"><ele>66.0</ele><time>2026-05-03T07:55:06.69Z</time></trkpt><trkpt lat="45.2347145" lon="9.029493"><ele>66.0</ele><time>2026-05-03T07:55:08.686Z</time></trkpt><trkpt lat="45.234647" lon="9.0294218"><ele>66.0</ele><time>2026-05-03T07:55:11.699Z</time></trkpt><trkpt lat="45.234589" lon="9.029368"><ele>66.0</ele><time>2026-05-03T07:55:14.691Z</time></trkpt><trkpt lat="45.2345124" lon="9.0293935"><ele>66.0</ele><time>2026-05-03T07:55:18.687Z</time></trkpt><trkpt lat="45.2344488" lon="9.0293495"><ele>66.0</ele><time>2026-05-03T07:55:22.684Z</time></trkpt><trkpt lat="45.234386" lon="9.0293067"><ele>66.0</ele><time>2026-05-03T07:55:25.685Z</time></trkpt><trkpt lat="45.2343071" lon="9.0293105"><ele>66.0</ele><time>2026-05-03T07:55:29.755Z</time></trkpt><trkpt lat="45.2342423" lon="9.029264"><ele>66.0</ele><time>2026-05-03T07:55:34.688Z</time></trkpt><trkpt lat="45.2341952" lon="9.0291806"><ele>66.0</ele><time>2026-05-03T07:55:45.686Z</time></trkpt><trkpt lat="45.2341147" lon="9.0292163"><ele>66.0</ele><time>2026-05-03T07:56:10.695Z</time></trkpt><trkpt lat="45.2340542" lon="9.02925"><ele>66.0</ele><time>2026-05-03T07:56:16.688Z</time></trkpt><trkpt lat="45.2339958" lon="9.0293132"><ele>66.0</ele><time>2026-05-03T07:56:19.696Z</time></trkpt><trkpt lat="45.2339129" lon="9.0293429"><ele>65.83333333333333</ele><time>2026-05-03T07:56:22.766Z</time></trkpt><trkpt lat="45.2338554" lon="9.029384"><ele>65.66666666666667</ele><time>2026-05-03T07:56:38.69Z</time></trkpt><trkpt lat="45.233755" lon="9.02934"><ele>65.5</ele><time>2026-05-03T07:56:59.688Z</time></trkpt><trkpt lat="45.2336985" lon="9.0294014"><ele>65.33333333333334</ele><time>2026-05-03T07:57:14.704Z</time></trkpt><trkpt lat="45.2336685" lon="9.0294924"><ele>65.16666666666667</ele><time>2026-05-03T07:57:17.691Z</time></trkpt><trkpt lat="45.2336176" lon="9.0295727"><ele>65.0</ele><time>2026-05-03T07:57:20.693Z</time></trkpt><trkpt lat="45.2335686" lon="9.0296553"><ele>65.0</ele><time>2026-05-03T07:57:23.691Z</time></trkpt><trkpt lat="45.2335156" lon="9.0297473"><ele>65.0</ele><time>2026-05-03T07:57:26.686Z</time></trkpt><trkpt lat="45.2334643" lon="9.0298185"><ele>65.0</ele><time>2026-05-03T07:57:29.682Z</time></trkpt><trkpt lat="45.2333949" lon="9.0298402"><ele>65.0</ele><time>2026-05-03T07:57:32.687Z</time></trkpt><trkpt lat="45.233327" lon="9.0297918"><ele>65.0</ele><time>2026-05-03T07:57:35.683Z</time></trkpt><trkpt lat="45.2332546" lon="9.0297391"><ele>65.0</ele><time>2026-05-03T07:57:38.694Z</time></trkpt><trkpt lat="45.2331893" lon="9.0296743"><ele>65.33333333333334</ele><time>2026-05-03T07:57:41.696Z</time></trkpt><trkpt lat="45.2331141" lon="9.0296146"><ele>65.66666666666667</ele><time>2026-05-03T07:57:44.692Z</time></trkpt><trkpt lat="45.2330445" lon="9.0295507"><ele>66.0</ele><time>2026-05-03T07:57:47.685Z</time></trkpt><trkpt lat="45.2329787" lon="9.0294882"><ele>66.33333333333333</ele><time>2026-05-03T07:57:50.773Z</time></trkpt><trkpt lat="45.2329143" lon="9.0294469"><ele>66.66666666666666</ele><time>2026-05-03T07:57:52.692Z</time></trkpt><trkpt lat="45.2328537" lon="9.0294022"><ele>67.0</ele><time>2026-05-03T07:57:54.694Z</time></trkpt><trkpt lat="45.2327869" lon="9.0293334"><ele>67.0</ele><time>2026-05-03T07:57:57.689Z</time></trkpt><trkpt lat="45.232723" lon="9.0292703"><ele>67.0</ele><time>2026-05-03T07:58:00.696Z</time></trkpt><trkpt lat="45.2326611" lon="9.0292245"><ele>67.0</ele><time>2026-05-03T07:58:03.687Z</time></trkpt><trkpt lat="45.2326028" lon="9.0291785"><ele>67.0</ele><time>2026-05-03T07:58:05.756Z</time></trkpt><trkpt lat="45.2325375" lon="9.0291238"><ele>67.0</ele><time>2026-05-03T07:58:08.683Z</time></trkpt><trkpt lat="45.2324641" lon="9.0290648"><ele>67.0</ele><time>2026-05-03T07:58:11.694Z</time></trkpt><trkpt lat="45.2324077" lon="9.0290228"><ele>67.0</ele><time>2026-05-03T07:58:13.689Z</time></trkpt><trkpt lat="45.2323357" lon="9.0289592"><ele>66.66666666666666</ele><time>2026-05-03T07:58:16.696Z</time></trkpt><trkpt lat="45.2322677" lon="9.0289043"><ele>66.33333333333333</ele><time>2026-05-03T07:58:19.693Z</time></trkpt><trkpt lat="45.2321897" lon="9.0288503"><ele>66.0</ele><time>2026-05-03T07:58:22.687Z</time></trkpt><trkpt lat="45.2321371" lon="9.0287975"><ele>65.66666666666667</ele><time>2026-05-03T07:58:24.694Z</time></trkpt><trkpt lat="45.23207" lon="9.028733"><ele>65.33333333333334</ele><time>2026-05-03T07:58:27.689Z</time></trkpt><trkpt lat="45.2319898" lon="9.028669"><ele>65.0</ele><time>2026-05-03T07:58:30.685Z</time></trkpt><trkpt lat="45.2319144" lon="9.0286276"><ele>65.0</ele><time>2026-05-03T07:58:33.685Z</time></trkpt><trkpt lat="45.2318335" lon="9.0286064"><ele>65.0</ele><time>2026-05-03T07:58:36.687Z</time></trkpt><trkpt lat="45.2317633" lon="9.0285913"><ele>65.0</ele><time>2026-05-03T07:58:38.686Z</time></trkpt><trkpt lat="45.2316794" lon="9.028548"><ele>65.0</ele><time>2026-05-03T07:58:41.682Z</time></trkpt><trkpt lat="45.2315923" lon="9.0284895"><ele>65.0</ele><time>2026-05-03T07:58:44.695Z</time></trkpt><trkpt lat="45.2315248" lon="9.0284461"><ele>65.0</ele><time>2026-05-03T07:58:47.682Z</time></trkpt><trkpt lat="45.2314641" lon="9.0284088"><ele>64.83333333333334</ele><time>2026-05-03T07:58:50.691Z</time></trkpt><trkpt lat="45.2313832" lon="9.0283821"><ele>64.66666666666667</ele><time>2026-05-03T07:58:53.704Z</time></trkpt><trkpt lat="45.2313146" lon="9.0284228"><ele>64.5</ele><time>2026-05-03T07:58:56.69Z</time></trkpt><trkpt lat="45.2312611" lon="9.0285147"><ele>64.33333333333333</ele><time>2026-05-03T07:58:59.691Z</time></trkpt><trkpt lat="45.2312066" lon="9.0286172"><ele>64.16666666666666</ele><time>2026-05-03T07:59:02.686Z</time></trkpt><trkpt lat="45.2311546" lon="9.0287269"><ele>64.0</ele><time>2026-05-03T07:59:05.687Z</time></trkpt><trkpt lat="45.2311126" lon="9.0287969"><ele>64.0</ele><time>2026-05-03T07:59:07.685Z</time></trkpt><trkpt lat="45.2310778" lon="9.0288734"><ele>63.99999999999999</ele><time>2026-05-03T07:59:09.688Z</time></trkpt><trkpt lat="45.2310374" lon="9.0289491"><ele>64.0</ele><time>2026-05-03T07:59:12.779Z</time></trkpt><trkpt lat="45.2309933" lon="9.0290251"><ele>64.0</ele><time>2026-05-03T07:59:16.691Z</time></trkpt><trkpt lat="45.2309506" lon="9.029117"><ele>63.99999999999999</ele><time>2026-05-03T07:59:20.686Z</time></trkpt><trkpt lat="45.2309" lon="9.0291794"><ele>64.0</ele><time>2026-05-03T07:59:22.684Z</time></trkpt><trkpt lat="45.2308724" lon="9.0292691"><ele>64.0</ele><time>2026-05-03T07:59:27.685Z</time></trkpt><trkpt lat="45.2308375" lon="9.0293803"><ele>63.99999999999999</ele><time>2026-05-03T07:59:30.685Z</time></trkpt><trkpt lat="45.230821" lon="9.0294897"><ele>64.0</ele><time>2026-05-03T07:59:32.69Z</time></trkpt><trkpt lat="45.2308061" lon="9.0296165"><ele>64.0</ele><time>2026-05-03T07:59:34.69Z</time></trkpt><trkpt lat="45.2307933" lon="9.0297466"><ele>64.0</ele><time>2026-05-03T07:59:36.7Z</time></trkpt><trkpt lat="45.230794" lon="9.0298562"><ele>63.99999999999999</ele><time>2026-05-03T07:59:38.692Z</time></trkpt><trkpt lat="45.2307934" lon="9.0299592"><ele>64.0</ele><time>2026-05-03T07:59:40.692Z</time></trkpt><trkpt lat="45.230792" lon="9.0300523"><ele>64.0</ele><time>2026-05-03T07:59:42.694Z</time></trkpt><trkpt lat="45.230788" lon="9.0301447"><ele>63.99999999999999</ele><time>2026-05-03T07:59:44.683Z</time></trkpt><trkpt lat="45.2307849" lon="9.0302346"><ele>64.0</ele><time>2026-05-03T07:59:46.691Z</time></trkpt><trkpt lat="45.230762" lon="9.0303618"><ele>64.0</ele><time>2026-05-03T07:59:49.688Z</time></trkpt><trkpt lat="45.2307462" lon="9.0304508"><ele>63.99999999999999</ele><time>2026-05-03T07:59:51.686Z</time></trkpt><trkpt lat="45.2307317" lon="9.0305544"><ele>64.0</ele><time>2026-05-03T07:59:54.689Z</time></trkpt><trkpt lat="45.2307242" lon="9.0306661"><ele>64.0</ele><time>2026-05-03T07:59:57.692Z</time></trkpt><trkpt lat="45.2306783" lon="9.0307702"><ele>63.99999999999999</ele><time>2026-05-03T08:00:00.691Z</time></trkpt><trkpt lat="45.2306274" lon="9.030867"><ele>64.0</ele><time>2026-05-03T08:00:03.847Z</time></trkpt><trkpt lat="45.2305743" lon="9.0309734"><ele>64.0</ele><time>2026-05-03T08:00:06.685Z</time></trkpt><trkpt lat="45.2305231" lon="9.0310811"><ele>64.0</ele><time>2026-05-03T08:00:09.691Z</time></trkpt><trkpt lat="45.2304865" lon="9.031157"><ele>63.99999999999999</ele><time>2026-05-03T08:00:11.684Z</time></trkpt><trkpt lat="45.2304407" lon="9.0312201"><ele>64.0</ele><time>2026-05-03T08:00:13.692Z</time></trkpt><trkpt lat="45.2303826" lon="9.0312872"><ele>63.99999999999999</ele><time>2026-05-03T08:00:16.704Z</time></trkpt><trkpt lat="45.2303858" lon="9.0313891"><ele>64.0</ele><time>2026-05-03T08:00:20.692Z</time></trkpt><trkpt lat="45.2304216" lon="9.0314703"><ele>64.0</ele><time>2026-05-03T08:00:23.693Z</time></trkpt><trkpt lat="45.2304569" lon="9.031586"><ele>64.0</ele><time>2026-05-03T08:00:26.688Z</time></trkpt><trkpt lat="45.2304753" lon="9.0316771"><ele>63.99999999999999</ele><time>2026-05-03T08:00:28.691Z</time></trkpt><trkpt lat="45.2304651" lon="9.03181"><ele>64.0</ele><time>2026-05-03T08:00:31.712Z</time></trkpt><trkpt lat="45.230462" lon="9.0319382"><ele>64.33333333333333</ele><time>2026-05-03T08:00:34.695Z</time></trkpt><trkpt lat="45.230429" lon="9.0320348"><ele>64.66666666666666</ele><time>2026-05-03T08:00:37.697Z</time></trkpt><trkpt lat="45.2303681" lon="9.0320833"><ele>65.0</ele><time>2026-05-03T08:00:39.68Z</time></trkpt><trkpt lat="45.2302896" lon="9.0321484"><ele>65.33333333333333</ele><time>2026-05-03T08:00:41.688Z</time></trkpt><trkpt lat="45.2302091" lon="9.0322054"><ele>65.66666666666667</ele><time>2026-05-03T08:00:44.692Z</time></trkpt><trkpt lat="45.2301394" lon="9.0322514"><ele>66.0</ele><time>2026-05-03T08:00:46.692Z</time></trkpt><trkpt lat="45.2300777" lon="9.0322922"><ele>66.0</ele><time>2026-05-03T08:00:48.694Z</time></trkpt><trkpt lat="45.2300141" lon="9.0323241"><ele>66.0</ele><time>2026-05-03T08:00:50.691Z</time></trkpt><trkpt lat="45.2299402" lon="9.0323517"><ele>66.0</ele><time>2026-05-03T08:00:52.689Z</time></trkpt><trkpt lat="45.2298752" lon="9.0323764"><ele>66.0</ele><time>2026-05-03T08:00:54.691Z</time></trkpt><trkpt lat="45.2298095" lon="9.0323922"><ele>66.0</ele><time>2026-05-03T08:00:56.693Z</time></trkpt><trkpt lat="45.2297424" lon="9.0324173"><ele>66.0</ele><time>2026-05-03T08:00:58.7Z</time></trkpt><trkpt lat="45.2296748" lon="9.0324655"><ele>66.0</ele><time>2026-05-03T08:01:00.699Z</time></trkpt><trkpt lat="45.2296146" lon="9.0325244"><ele>65.85714285714286</ele><time>2026-05-03T08:01:02.698Z</time></trkpt><trkpt lat="45.2295587" lon="9.0326136"><ele>65.71428571428572</ele><time>2026-05-03T08:01:05.715Z</time></trkpt><trkpt lat="45.2295145" lon="9.0326817"><ele>65.57142857142858</ele><time>2026-05-03T08:01:07.692Z</time></trkpt><trkpt lat="45.2294589" lon="9.0327466"><ele>65.42857142857143</ele><time>2026-05-03T08:01:09.691Z</time></trkpt><trkpt lat="45.2294212" lon="9.0328306"><ele>65.28571428571429</ele><time>2026-05-03T08:01:11.683Z</time></trkpt><trkpt lat="45.2293749" lon="9.0329009"><ele>65.14285714285715</ele><time>2026-05-03T08:01:13.694Z</time></trkpt><trkpt lat="45.2293432" lon="9.032979"><ele>65.0</ele><time>2026-05-03T08:01:15.69Z</time></trkpt><trkpt lat="45.2293019" lon="9.0330532"><ele>65.0</ele><time>2026-05-03T08:01:17.693Z</time></trkpt><trkpt lat="45.2292446" lon="9.033135"><ele>65.0</ele><time>2026-05-03T08:01:19.701Z</time></trkpt><trkpt lat="45.2291778" lon="9.0331861"><ele>65.0</ele><time>2026-05-03T08:01:21.772Z</time></trkpt><trkpt lat="45.2291159" lon="9.0332234"><ele>65.0</ele><time>2026-05-03T08:01:23.702Z</time></trkpt><trkpt lat="45.2290345" lon="9.0332783"><ele>65.0</ele><time>2026-05-03T08:01:26.694Z</time></trkpt><trkpt lat="45.2289732" lon="9.0333591"><ele>65.0</ele><time>2026-05-03T08:01:29.69Z</time></trkpt><trkpt lat="45.2289137" lon="9.0334599"><ele>65.00000000000001</ele><time>2026-05-03T08:01:32.691Z</time></trkpt><trkpt lat="45.2288486" lon="9.0335449"><ele>65.0</ele><time>2026-05-03T08:01:35.685Z</time></trkpt><trkpt lat="45.2288039" lon="9.0336217"><ele>65.0</ele><time>2026-05-03T08:01:37.693Z</time></trkpt><trkpt lat="45.2287527" lon="9.0337109"><ele>65.0</ele><time>2026-05-03T08:01:39.686Z</time></trkpt><trkpt lat="45.2287054" lon="9.0337894"><ele>65.0</ele><time>2026-05-03T08:01:41.687Z</time></trkpt><trkpt lat="45.2286586" lon="9.0338596"><ele>65.00000000000001</ele><time>2026-05-03T08:01:43.684Z</time></trkpt><trkpt lat="45.2286071" lon="9.0339194"><ele>65.0</ele><time>2026-05-03T08:01:45.689Z</time></trkpt><trkpt lat="45.228543" lon="9.0339816"><ele>65.0</ele><time>2026-05-03T08:01:48.69Z</time></trkpt><trkpt lat="45.2284815" lon="9.0340412"><ele>65.0</ele><time>2026-05-03T08:01:51.691Z</time></trkpt><trkpt lat="45.2284202" lon="9.0341088"><ele>65.0</ele><time>2026-05-03T08:01:54.686Z</time></trkpt><trkpt lat="45.2283646" lon="9.0341728"><ele>65.0</ele><time>2026-05-03T08:01:57.695Z</time></trkpt><trkpt lat="45.2282984" lon="9.0342501"><ele>65.0</ele><time>2026-05-03T08:02:00.784Z</time></trkpt><trkpt lat="45.2282329" lon="9.034335"><ele>65.0</ele><time>2026-05-03T08:02:03.688Z</time></trkpt><trkpt lat="45.2281783" lon="9.0344252"><ele>64.5</ele><time>2026-05-03T08:02:05.703Z</time></trkpt><trkpt lat="45.2281332" lon="9.0345151"><ele>64.0</ele><time>2026-05-03T08:02:07.686Z</time></trkpt><trkpt lat="45.2280796" lon="9.0345842"><ele>63.5</ele><time>2026-05-03T08:02:09.687Z</time></trkpt><trkpt lat="45.2280237" lon="9.0346554"><ele>63.0</ele><time>2026-05-03T08:02:11.69Z</time></trkpt><trkpt lat="45.2279552" lon="9.0347404"><ele>62.50000000000001</ele><time>2026-05-03T08:02:13.69Z</time></trkpt><trkpt lat="45.2278849" lon="9.0348255"><ele>62.0</ele><time>2026-05-03T08:02:15.687Z</time></trkpt><trkpt lat="45.2278308" lon="9.0348808"><ele>62.00000000000001</ele><time>2026-05-03T08:02:17.696Z</time></trkpt><trkpt lat="45.2277501" lon="9.0349207"><ele>62.0</ele><time>2026-05-03T08:02:20.706Z</time></trkpt><trkpt lat="45.2276791" lon="9.0349531"><ele>62.0</ele><time>2026-05-03T08:02:22.691Z</time></trkpt><trkpt lat="45.2276136" lon="9.0349657"><ele>62.0</ele><time>2026-05-03T08:02:24.694Z</time></trkpt><trkpt lat="45.2275299" lon="9.0349896"><ele>62.00000000000001</ele><time>2026-05-03T08:02:27.687Z</time></trkpt><trkpt lat="45.2274477" lon="9.0350424"><ele>62.0</ele><time>2026-05-03T08:02:30.701Z</time></trkpt><trkpt lat="45.2273902" lon="9.0351049"><ele>62.16666666666667</ele><time>2026-05-03T08:02:32.692Z</time></trkpt><trkpt lat="45.2273254" lon="9.035147"><ele>62.333333333333336</ele><time>2026-05-03T08:02:34.684Z</time></trkpt><trkpt lat="45.2272693" lon="9.0351925"><ele>62.5</ele><time>2026-05-03T08:02:36.683Z</time></trkpt><trkpt lat="45.2271981" lon="9.0352682"><ele>62.66666666666667</ele><time>2026-05-03T08:02:39.687Z</time></trkpt><trkpt lat="45.2271468" lon="9.035377"><ele>62.833333333333336</ele><time>2026-05-03T08:02:42.692Z</time></trkpt><trkpt lat="45.2271071" lon="9.0354568"><ele>63.0</ele><time>2026-05-03T08:02:44.684Z</time></trkpt><trkpt lat="45.2270888" lon="9.0355567"><ele>62.833333333333336</ele><time>2026-05-03T08:02:47.692Z</time></trkpt><trkpt lat="45.2270702" lon="9.0356719"><ele>62.66666666666667</ele><time>2026-05-03T08:02:50.685Z</time></trkpt><trkpt lat="45.2270545" lon="9.0358037"><ele>62.5</ele><time>2026-05-03T08:02:53.684Z</time></trkpt><trkpt lat="45.2270223" lon="9.0359323"><ele>62.333333333333336</ele><time>2026-05-03T08:02:56.695Z</time></trkpt><trkpt lat="45.2270059" lon="9.0360235"><ele>62.16666666666667</ele><time>2026-05-03T08:02:58.692Z</time></trkpt><trkpt lat="45.2269768" lon="9.0361127"><ele>62.0</ele><time>2026-05-03T08:03:00.695Z</time></trkpt><trkpt lat="45.2269436" lon="9.0361953"><ele>62.00000000000001</ele><time>2026-05-03T08:03:02.687Z</time></trkpt><trkpt lat="45.2269097" lon="9.0362755"><ele>62.0</ele><time>2026-05-03T08:03:04.686Z</time></trkpt><trkpt lat="45.2268761" lon="9.0363635"><ele>62.0</ele><time>2026-05-03T08:03:06.688Z</time></trkpt><trkpt lat="45.2268306" lon="9.0364648"><ele>62.0</ele><time>2026-05-03T08:03:08.688Z</time></trkpt><trkpt lat="45.2267921" lon="9.0365554"><ele>62.00000000000001</ele><time>2026-05-03T08:03:10.688Z</time></trkpt><trkpt lat="45.2267496" lon="9.0366618"><ele>62.0</ele><time>2026-05-03T08:03:13.692Z</time></trkpt><trkpt lat="45.2267051" lon="9.0367553"><ele>62.16666666666667</ele><time>2026-05-03T08:03:18.695Z</time></trkpt><trkpt lat="45.2266305" lon="9.0368258"><ele>62.333333333333336</ele><time>2026-05-03T08:03:21.694Z</time></trkpt><trkpt lat="45.2265771" lon="9.0368773"><ele>62.5</ele><time>2026-05-03T08:03:24.689Z</time></trkpt><trkpt lat="45.2265173" lon="9.0369526"><ele>62.66666666666667</ele><time>2026-05-03T08:03:28.694Z</time></trkpt><trkpt lat="45.2265661" lon="9.0368694"><ele>62.833333333333336</ele><time>2026-05-03T08:03:46.684Z</time></trkpt><trkpt lat="45.2266141" lon="9.0367956"><ele>63.0</ele><time>2026-05-03T08:03:49.69Z</time></trkpt><trkpt lat="45.2266778" lon="9.0367584"><ele>63.0</ele><time>2026-05-03T08:03:52.687Z</time></trkpt><trkpt lat="45.2267379" lon="9.0368191"><ele>63.0</ele><time>2026-05-03T08:03:59.693Z</time></trkpt><trkpt lat="45.2267531" lon="9.0369098"><ele>63.0</ele><time>2026-05-03T08:04:02.707Z</time></trkpt><trkpt lat="45.2267892" lon="9.0370298"><ele>63.0</ele><time>2026-05-03T08:04:05.688Z</time></trkpt><trkpt lat="45.2268149" lon="9.0371149"><ele>63.0</ele><time>2026-05-03T08:04:07.69Z</time></trkpt><trkpt lat="45.2268518" lon="9.0372332"><ele>63.0</ele><time>2026-05-03T08:04:10.679Z</time></trkpt><trkpt lat="45.2269069" lon="9.037339"><ele>63.0</ele><time>2026-05-03T08:04:13.689Z</time></trkpt><trkpt lat="45.2269472" lon="9.0374265"><ele>63.0</ele><time>2026-05-03T08:04:15.684Z</time></trkpt><trkpt lat="45.226985" lon="9.0375159"><ele>63.0</ele><time>2026-05-03T08:04:17.685Z</time></trkpt><trkpt lat="45.2270379" lon="9.0375998"><ele>63.0</ele><time>2026-05-03T08:04:19.683Z</time></trkpt><trkpt lat="45.2270959" lon="9.0377023"><ele>63.0</ele><time>2026-05-03T08:04:22.683Z</time></trkpt><trkpt lat="45.2271256" lon="9.0378267"><ele>63.0</ele><time>2026-05-03T08:04:25.691Z</time></trkpt><trkpt lat="45.2271458" lon="9.0379233"><ele>63.5</ele><time>2026-05-03T08:04:28.682Z</time></trkpt><trkpt lat="45.2271738" lon="9.0380125"><ele>64.0</ele><time>2026-05-03T08:04:31.699Z</time></trkpt><trkpt lat="45.2272397" lon="9.0380953"><ele>64.5</ele><time>2026-05-03T08:04:34.69Z</time></trkpt><trkpt lat="45.2272896" lon="9.038162"><ele>65.0</ele><time>2026-05-03T08:04:36.684Z</time></trkpt><trkpt lat="45.2273235" lon="9.0382572"><ele>65.5</ele><time>2026-05-03T08:04:38.689Z</time></trkpt><trkpt lat="45.2273462" lon="9.0383835"><ele>66.0</ele><time>2026-05-03T08:04:40.69Z</time></trkpt><trkpt lat="45.2273356" lon="9.0385006"><ele>66.16666666666667</ele><time>2026-05-03T08:04:43.691Z</time></trkpt><trkpt lat="45.2273227" lon="9.0386043"><ele>66.33333333333333</ele><time>2026-05-03T08:04:46.699Z</time></trkpt><trkpt lat="45.2273033" lon="9.0387197"><ele>66.5</ele><time>2026-05-03T08:04:49.687Z</time></trkpt><trkpt lat="45.2273398" lon="9.0388276"><ele>66.66666666666666</ele><time>2026-05-03T08:04:52.684Z</time></trkpt><trkpt lat="45.2274053" lon="9.0388636"><ele>66.83333333333333</ele><time>2026-05-03T08:04:55.753Z</time></trkpt><trkpt lat="45.2274977" lon="9.0388894"><ele>67.0</ele><time>2026-05-03T08:04:58.69Z</time></trkpt><trkpt lat="45.2275893" lon="9.0389005"><ele>67.33333333333333</ele><time>2026-05-03T08:05:01.691Z</time></trkpt><trkpt lat="45.2276796" lon="9.0389408"><ele>67.66666666666666</ele><time>2026-05-03T08:05:04.688Z</time></trkpt><trkpt lat="45.2277568" lon="9.0389737"><ele>68.0</ele><time>2026-05-03T08:05:06.765Z</time></trkpt><trkpt lat="45.2278293" lon="9.0389896"><ele>68.33333333333333</ele><time>2026-05-03T08:05:08.765Z</time></trkpt><trkpt lat="45.227923" lon="9.0390042"><ele>68.66666666666667</ele><time>2026-05-03T08:05:11.703Z</time></trkpt><trkpt lat="45.2279979" lon="9.0390269"><ele>69.0</ele><time>2026-05-03T08:05:13.68Z</time></trkpt><trkpt lat="45.2280635" lon="9.0390543"><ele>69.0</ele><time>2026-05-03T08:05:15.687Z</time></trkpt><trkpt lat="45.2281368" lon="9.0390869"><ele>69.0</ele><time>2026-05-03T08:05:17.69Z</time></trkpt><trkpt lat="45.2282052" lon="9.0391059"><ele>69.0</ele><time>2026-05-03T08:05:19.685Z</time></trkpt><trkpt lat="45.228273" lon="9.0391187"><ele>69.0</ele><time>2026-05-03T08:05:21.772Z</time></trkpt><trkpt lat="45.2283606" lon="9.0391218"><ele>69.0</ele><time>2026-05-03T08:05:23.694Z</time></trkpt><trkpt lat="45.2284339" lon="9.0391481"><ele>69.0</ele><time>2026-05-03T08:05:25.687Z</time></trkpt><trkpt lat="45.228523" lon="9.0391872"><ele>69.0</ele><time>2026-05-03T08:05:28.698Z</time></trkpt><trkpt lat="45.2285997" lon="9.0392119"><ele>69.0</ele><time>2026-05-03T08:05:30.694Z</time></trkpt><trkpt lat="45.2286771" lon="9.0392517"><ele>69.0</ele><time>2026-05-03T08:05:33.688Z</time></trkpt><trkpt lat="45.2287588" lon="9.0392794"><ele>69.0</ele><time>2026-05-03T08:05:36.687Z</time></trkpt><trkpt lat="45.2288508" lon="9.0392906"><ele>69.0</ele><time>2026-05-03T08:05:39.695Z</time></trkpt><trkpt lat="45.2289152" lon="9.0393063"><ele>69.0</ele><time>2026-05-03T08:05:41.686Z</time></trkpt><trkpt lat="45.229" lon="9.0393198"><ele>69.0</ele><time>2026-05-03T08:05:44.687Z</time></trkpt><trkpt lat="45.2290825" lon="9.0393556"><ele>69.0</ele><time>2026-05-03T08:05:47.764Z</time></trkpt><trkpt lat="45.229142" lon="9.0394486"><ele>69.0</ele><time>2026-05-03T08:05:50.685Z</time></trkpt><trkpt lat="45.2291825" lon="9.0395705"><ele>69.0</ele><time>2026-05-03T08:05:53.687Z</time></trkpt><trkpt lat="45.2292414" lon="9.0396741"><ele>69.0</ele><time>2026-05-03T08:05:56.695Z</time></trkpt><trkpt lat="45.2293271" lon="9.0396998"><ele>69.0</ele><time>2026-05-03T08:05:59.688Z</time></trkpt><trkpt lat="45.2294121" lon="9.0397071"><ele>69.0</ele><time>2026-05-03T08:06:02.682Z</time></trkpt><trkpt lat="45.2294911" lon="9.0396501"><ele>69.0</ele><time>2026-05-03T08:06:05.686Z</time></trkpt><trkpt lat="45.2295472" lon="9.039604"><ele>69.0</ele><time>2026-05-03T08:06:07.697Z</time></trkpt><trkpt lat="45.2295984" lon="9.0395509"><ele>69.0</ele><time>2026-05-03T08:06:09.688Z</time></trkpt><trkpt lat="45.2296763" lon="9.0394722"><ele>69.0</ele><time>2026-05-03T08:06:12.686Z</time></trkpt><trkpt lat="45.2297499" lon="9.0393973"><ele>69.0</ele><time>2026-05-03T08:06:15.688Z</time></trkpt><trkpt lat="45.2298037" lon="9.0393396"><ele>69.0</ele><time>2026-05-03T08:06:17.689Z</time></trkpt><trkpt lat="45.2298797" lon="9.0392609"><ele>69.0</ele><time>2026-05-03T08:06:20.698Z</time></trkpt><trkpt lat="45.2299289" lon="9.0392015"><ele>69.0</ele><time>2026-05-03T08:06:22.681Z</time></trkpt><trkpt lat="45.2299837" lon="9.039144"><ele>69.0</ele><time>2026-05-03T08:06:24.693Z</time></trkpt><trkpt lat="45.2300664" lon="9.0391102"><ele>69.0</ele><time>2026-05-03T08:06:27.759Z</time></trkpt><trkpt lat="45.2301294" lon="9.0391334"><ele>69.0</ele><time>2026-05-03T08:06:29.697Z</time></trkpt><trkpt lat="45.2301928" lon="9.0391614"><ele>68.83333333333333</ele><time>2026-05-03T08:06:31.68Z</time></trkpt><trkpt lat="45.2302716" lon="9.039184"><ele>68.66666666666667</ele><time>2026-05-03T08:06:34.685Z</time></trkpt><trkpt lat="45.230357" lon="9.03922"><ele>68.5</ele><time>2026-05-03T08:06:37.682Z</time></trkpt><trkpt lat="45.2304326" lon="9.0392576"><ele>68.33333333333334</ele><time>2026-05-03T08:06:40.683Z</time></trkpt><trkpt lat="45.230512" lon="9.0392904"><ele>68.16666666666667</ele><time>2026-05-03T08:06:43.697Z</time></trkpt><trkpt lat="45.2305769" lon="9.0393113"><ele>68.0</ele><time>2026-05-03T08:06:45.695Z</time></trkpt><trkpt lat="45.2306676" lon="9.0393437"><ele>67.16666666666667</ele><time>2026-05-03T08:06:48.683Z</time></trkpt><trkpt lat="45.2307326" lon="9.0393663"><ele>66.33333333333334</ele><time>2026-05-03T08:06:50.685Z</time></trkpt><trkpt lat="45.2307953" lon="9.0393906"><ele>65.5</ele><time>2026-05-03T08:06:52.69Z</time></trkpt><trkpt lat="45.2308822" lon="9.0394197"><ele>64.66666666666667</ele><time>2026-05-03T08:06:55.692Z</time></trkpt><trkpt lat="45.2309559" lon="9.039447"><ele>63.833333333333336</ele><time>2026-05-03T08:06:58.695Z</time></trkpt><trkpt lat="45.2310353" lon="9.0394714"><ele>63.0</ele><time>2026-05-03T08:07:01.682Z</time></trkpt><trkpt lat="45.2311218" lon="9.0394946"><ele>63.0</ele><time>2026-05-03T08:07:04.682Z</time></trkpt><trkpt lat="45.2311991" lon="9.0395184"><ele>63.0</ele><time>2026-05-03T08:07:07.687Z</time></trkpt><trkpt lat="45.2312628" lon="9.0394985"><ele>63.0</ele><time>2026-05-03T08:07:10.704Z</time></trkpt><trkpt lat="45.2313482" lon="9.0394991"><ele>63.0</ele><time>2026-05-03T08:07:13.689Z</time></trkpt><trkpt lat="45.2314366" lon="9.0395095"><ele>63.0</ele><time>2026-05-03T08:07:16.691Z</time></trkpt><trkpt lat="45.2315173" lon="9.0395322"><ele>63.0</ele><time>2026-05-03T08:07:19.694Z</time></trkpt><trkpt lat="45.2315821" lon="9.0395629"><ele>62.833333333333336</ele><time>2026-05-03T08:07:21.688Z</time></trkpt><trkpt lat="45.2316438" lon="9.0395824"><ele>62.66666666666667</ele><time>2026-05-03T08:07:23.689Z</time></trkpt><trkpt lat="45.2317327" lon="9.0396145"><ele>62.5</ele><time>2026-05-03T08:07:26.69Z</time></trkpt><trkpt lat="45.2318109" lon="9.0396466"><ele>62.333333333333336</ele><time>2026-05-03T08:07:29.691Z</time></trkpt><trkpt lat="45.2318911" lon="9.0396359"><ele>62.16666666666667</ele><time>2026-05-03T08:07:32.689Z</time></trkpt><trkpt lat="45.2319559" lon="9.0396074"><ele>62.0</ele><time>2026-05-03T08:07:35.682Z</time></trkpt><trkpt lat="45.2320313" lon="9.0395497"><ele>62.00000000000001</ele><time>2026-05-03T08:07:38.697Z</time></trkpt><trkpt lat="45.232105" lon="9.0394739"><ele>62.0</ele><time>2026-05-03T08:07:41.69Z</time></trkpt><trkpt lat="45.2321465" lon="9.0393924"><ele>62.0</ele><time>2026-05-03T08:07:43.688Z</time></trkpt><trkpt lat="45.2321718" lon="9.0393044"><ele>62.0</ele><time>2026-05-03T08:07:45.689Z</time></trkpt><trkpt lat="45.2321889" lon="9.0391989"><ele>62.00000000000001</ele><time>2026-05-03T08:07:47.758Z</time></trkpt><trkpt lat="45.2321996" lon="9.039092"><ele>62.0</ele><time>2026-05-03T08:07:49.705Z</time></trkpt><trkpt lat="45.2322146" lon="9.0389953"><ele>61.85714285714286</ele><time>2026-05-03T08:07:51.696Z</time></trkpt><trkpt lat="45.2322339" lon="9.0388605"><ele>61.71428571428572</ele><time>2026-05-03T08:07:54.688Z</time></trkpt><trkpt lat="45.2322466" lon="9.0387602"><ele>61.57142857142857</ele><time>2026-05-03T08:07:56.687Z</time></trkpt><trkpt lat="45.2322599" lon="9.0386624"><ele>61.42857142857143</ele><time>2026-05-03T08:07:58.69Z</time></trkpt><trkpt lat="45.2322775" lon="9.0385657"><ele>61.285714285714285</ele><time>2026-05-03T08:08:00.77Z</time></trkpt><trkpt lat="45.2323015" lon="9.0384705"><ele>61.14285714285714</ele><time>2026-05-03T08:08:02.684Z</time></trkpt><trkpt lat="45.2323249" lon="9.0383788"><ele>60.99999999999999</ele><time>2026-05-03T08:08:04.688Z</time></trkpt><trkpt lat="45.2323342" lon="9.038251"><ele>61.14285714285714</ele><time>2026-05-03T08:08:07.69Z</time></trkpt><trkpt lat="45.232311" lon="9.0381253"><ele>61.285714285714285</ele><time>2026-05-03T08:08:10.698Z</time></trkpt><trkpt lat="45.2322797" lon="9.0380443"><ele>61.42857142857143</ele><time>2026-05-03T08:08:12.689Z</time></trkpt><trkpt lat="45.2322352" lon="9.0379738"><ele>61.57142857142857</ele><time>2026-05-03T08:08:14.692Z</time></trkpt><trkpt lat="45.2321936" lon="9.0379043"><ele>61.71428571428572</ele><time>2026-05-03T08:08:16.69Z</time></trkpt><trkpt lat="45.2321511" lon="9.0378343"><ele>61.85714285714286</ele><time>2026-05-03T08:08:18.681Z</time></trkpt><trkpt lat="45.2321207" lon="9.0377483"><ele>62.0</ele><time>2026-05-03T08:08:20.692Z</time></trkpt><trkpt lat="45.2321117" lon="9.0376464"><ele>62.00000000000001</ele><time>2026-05-03T08:08:22.699Z</time></trkpt><trkpt lat="45.2321145" lon="9.0375506"><ele>62.0</ele><time>2026-05-03T08:08:24.688Z</time></trkpt><trkpt lat="45.2321152" lon="9.037417"><ele>62.0</ele><time>2026-05-03T08:08:27.685Z</time></trkpt><trkpt lat="45.2321171" lon="9.037324"><ele>62.0</ele><time>2026-05-03T08:08:29.747Z</time></trkpt><trkpt lat="45.2321154" lon="9.0371893"><ele>62.00000000000001</ele><time>2026-05-03T08:08:32.685Z</time></trkpt><trkpt lat="45.2321248" lon="9.0370971"><ele>62.0</ele><time>2026-05-03T08:08:34.686Z</time></trkpt><trkpt lat="45.2321542" lon="9.0369922"><ele>62.333333333333336</ele><time>2026-05-03T08:08:37.767Z</time></trkpt><trkpt lat="45.2321894" lon="9.0368744"><ele>62.66666666666667</ele><time>2026-05-03T08:08:40.687Z</time></trkpt><trkpt lat="45.2322234" lon="9.0367551"><ele>63.0</ele><time>2026-05-03T08:08:43.688Z</time></trkpt><trkpt lat="45.2322658" lon="9.036655"><ele>63.33333333333333</ele><time>2026-05-03T08:08:46.689Z</time></trkpt><trkpt lat="45.232297" lon="9.0365762"><ele>63.666666666666664</ele><time>2026-05-03T08:08:48.694Z</time></trkpt><trkpt lat="45.2323466" lon="9.0364655"><ele>64.0</ele><time>2026-05-03T08:08:51.683Z</time></trkpt><trkpt lat="45.2323819" lon="9.0363903"><ele>63.99999999999999</ele><time>2026-05-03T08:08:53.69Z</time></trkpt><trkpt lat="45.2324194" lon="9.0363122"><ele>64.0</ele><time>2026-05-03T08:08:55.692Z</time></trkpt><trkpt lat="45.2324565" lon="9.0362373"><ele>64.0</ele><time>2026-05-03T08:08:57.691Z</time></trkpt><trkpt lat="45.2325021" lon="9.0361583"><ele>64.0</ele><time>2026-05-03T08:08:59.697Z</time></trkpt><trkpt lat="45.2325537" lon="9.0360604"><ele>63.99999999999999</ele><time>2026-05-03T08:09:01.692Z</time></trkpt><trkpt lat="45.232597" lon="9.0359769"><ele>64.0</ele><time>2026-05-03T08:09:03.681Z</time></trkpt><trkpt lat="45.2326411" lon="9.0358623"><ele>64.14285714285714</ele><time>2026-05-03T08:09:06.681Z</time></trkpt><trkpt lat="45.2326642" lon="9.035779"><ele>64.28571428571428</ele><time>2026-05-03T08:09:08.692Z</time></trkpt><trkpt lat="45.2327003" lon="9.0356844"><ele>64.42857142857143</ele><time>2026-05-03T08:09:10.69Z</time></trkpt><trkpt lat="45.2327328" lon="9.0355807"><ele>64.57142857142857</ele><time>2026-05-03T08:09:12.693Z</time></trkpt><trkpt lat="45.2327559" lon="9.0354927"><ele>64.71428571428572</ele><time>2026-05-03T08:09:14.705Z</time></trkpt><trkpt lat="45.232782" lon="9.0353945"><ele>64.85714285714286</ele><time>2026-05-03T08:09:16.682Z</time></trkpt><trkpt lat="45.2328091" lon="9.0352848"><ele>65.0</ele><time>2026-05-03T08:09:18.693Z</time></trkpt><trkpt lat="45.2328327" lon="9.0351845"><ele>65.00000000000001</ele><time>2026-05-03T08:09:20.694Z</time></trkpt><trkpt lat="45.2328548" lon="9.0350782"><ele>65.0</ele><time>2026-05-03T08:09:22.687Z</time></trkpt><trkpt lat="45.2328709" lon="9.0349672"><ele>65.0</ele><time>2026-05-03T08:09:24.685Z</time></trkpt><trkpt lat="45.2329132" lon="9.034874"><ele>65.0</ele><time>2026-05-03T08:09:26.684Z</time></trkpt><trkpt lat="45.2329465" lon="9.0347965"><ele>65.0</ele><time>2026-05-03T08:09:28.695Z</time></trkpt><trkpt lat="45.232985" lon="9.0347041"><ele>65.00000000000001</ele><time>2026-05-03T08:09:31.689Z</time></trkpt><trkpt lat="45.2330243" lon="9.0346275"><ele>65.0</ele><time>2026-05-03T08:09:33.706Z</time></trkpt><trkpt lat="45.2330776" lon="9.0345288"><ele>65.00000000000001</ele><time>2026-05-03T08:09:36.688Z</time></trkpt><trkpt lat="45.2331338" lon="9.034434"><ele>65.0</ele><time>2026-05-03T08:09:39.691Z</time></trkpt><trkpt lat="45.2331747" lon="9.0343648"><ele>65.0</ele><time>2026-05-03T08:09:41.689Z</time></trkpt><trkpt lat="45.2332203" lon="9.0343017"><ele>65.0</ele><time>2026-05-03T08:09:43.686Z</time></trkpt><trkpt lat="45.2332647" lon="9.0342297"><ele>65.0</ele><time>2026-05-03T08:09:45.776Z</time></trkpt><trkpt lat="45.2333036" lon="9.0341581"><ele>65.00000000000001</ele><time>2026-05-03T08:09:48.686Z</time></trkpt><trkpt lat="45.2333524" lon="9.0341012"><ele>65.0</ele><time>2026-05-03T08:09:50.704Z</time></trkpt><trkpt lat="45.2334053" lon="9.0340449"><ele>64.66666666666667</ele><time>2026-05-03T08:09:52.687Z</time></trkpt><trkpt lat="45.233479" lon="9.0339712"><ele>64.33333333333334</ele><time>2026-05-03T08:09:55.692Z</time></trkpt><trkpt lat="45.2335332" lon="9.0339204"><ele>64.0</ele><time>2026-05-03T08:09:57.684Z</time></trkpt><trkpt lat="45.233589" lon="9.0338655"><ele>63.66666666666667</ele><time>2026-05-03T08:09:59.686Z</time></trkpt><trkpt lat="45.2336416" lon="9.0338089"><ele>63.333333333333336</ele><time>2026-05-03T08:10:01.68Z</time></trkpt><trkpt lat="45.2337275" lon="9.033742"><ele>63.0</ele><time>2026-05-03T08:10:04.685Z</time></trkpt><trkpt lat="45.2337885" lon="9.0336702"><ele>63.0</ele><time>2026-05-03T08:10:06.688Z</time></trkpt><trkpt lat="45.2338373" lon="9.0336121"><ele>63.0</ele><time>2026-05-03T08:10:08.679Z</time></trkpt><trkpt lat="45.2338848" lon="9.0335524"><ele>63.0</ele><time>2026-05-03T08:10:10.695Z</time></trkpt><trkpt lat="45.2339307" lon="9.0334884"><ele>63.0</ele><time>2026-05-03T08:10:12.766Z</time></trkpt><trkpt lat="45.2339724" lon="9.0334078"><ele>63.0</ele><time>2026-05-03T08:10:14.691Z</time></trkpt><trkpt lat="45.2340267" lon="9.0333425"><ele>63.0</ele><time>2026-05-03T08:10:16.689Z</time></trkpt><trkpt lat="45.2340773" lon="9.0332822"><ele>63.0</ele><time>2026-05-03T08:10:18.686Z</time></trkpt><trkpt lat="45.234132" lon="9.033225"><ele>63.57142857142857</ele><time>2026-05-03T08:10:20.702Z</time></trkpt><trkpt lat="45.2342013" lon="9.0331915"><ele>64.14285714285714</ele><time>2026-05-03T08:10:22.766Z</time></trkpt><trkpt lat="45.2342659" lon="9.033168"><ele>64.71428571428572</ele><time>2026-05-03T08:10:24.691Z</time></trkpt><trkpt lat="45.2343381" lon="9.0331652"><ele>65.28571428571428</ele><time>2026-05-03T08:10:26.683Z</time></trkpt><trkpt lat="45.2344144" lon="9.0331765"><ele>65.85714285714286</ele><time>2026-05-03T08:10:28.69Z</time></trkpt><trkpt lat="45.2344854" lon="9.0332037"><ele>66.42857142857143</ele><time>2026-05-03T08:10:30.686Z</time></trkpt><trkpt lat="45.2345433" lon="9.0332458"><ele>67.0</ele><time>2026-05-03T08:10:32.678Z</time></trkpt><trkpt lat="45.2345964" lon="9.0333048"><ele>66.83333333333333</ele><time>2026-05-03T08:10:34.686Z</time></trkpt><trkpt lat="45.2346573" lon="9.0333496"><ele>66.66666666666666</ele><time>2026-05-03T08:10:36.691Z</time></trkpt><trkpt lat="45.234715" lon="9.0333948"><ele>66.5</ele><time>2026-05-03T08:10:38.689Z</time></trkpt><trkpt lat="45.2347713" lon="9.0334444"><ele>66.33333333333333</ele><time>2026-05-03T08:10:40.685Z</time></trkpt><trkpt lat="45.234853" lon="9.0335122"><ele>66.16666666666667</ele><time>2026-05-03T08:10:43.686Z</time></trkpt><trkpt lat="45.2349098" lon="9.0335654"><ele>66.0</ele><time>2026-05-03T08:10:45.688Z</time></trkpt><trkpt lat="45.2349921" lon="9.0336407"><ele>66.0</ele><time>2026-05-03T08:10:48.764Z</time></trkpt><trkpt lat="45.2350775" lon="9.0336914"><ele>66.0</ele><time>2026-05-03T08:10:51.696Z</time></trkpt><trkpt lat="45.235162" lon="9.0337449"><ele>66.0</ele><time>2026-05-03T08:10:54.695Z</time></trkpt><trkpt lat="45.2352226" lon="9.0337697"><ele>66.0</ele><time>2026-05-03T08:10:56.691Z</time></trkpt><trkpt lat="45.2352825" lon="9.0338128"><ele>66.0</ele><time>2026-05-03T08:10:58.69Z</time></trkpt><trkpt lat="45.2353422" lon="9.0338588"><ele>66.0</ele><time>2026-05-03T08:11:00.684Z</time></trkpt><trkpt lat="45.2353976" lon="9.0339031"><ele>66.0</ele><time>2026-05-03T08:11:02.69Z</time></trkpt><trkpt lat="45.235468" lon="9.0339777"><ele>66.0</ele><time>2026-05-03T08:11:05.688Z</time></trkpt><trkpt lat="45.2355288" lon="9.0340301"><ele>66.0</ele><time>2026-05-03T08:11:07.681Z</time></trkpt><trkpt lat="45.2355864" lon="9.0340856"><ele>66.0</ele><time>2026-05-03T08:11:09.686Z</time></trkpt><trkpt lat="45.2356403" lon="9.0341419"><ele>66.0</ele><time>2026-05-03T08:11:11.696Z</time></trkpt><trkpt lat="45.2357137" lon="9.0342146"><ele>66.0</ele><time>2026-05-03T08:11:14.687Z</time></trkpt><trkpt lat="45.2357992" lon="9.034286"><ele>66.0</ele><time>2026-05-03T08:11:17.69Z</time></trkpt><trkpt lat="45.2358676" lon="9.0343536"><ele>66.14285714285714</ele><time>2026-05-03T08:11:20.693Z</time></trkpt><trkpt lat="45.2359207" lon="9.0344099"><ele>66.28571428571429</ele><time>2026-05-03T08:11:22.686Z</time></trkpt><trkpt lat="45.2359786" lon="9.0344603"><ele>66.42857142857143</ele><time>2026-05-03T08:11:24.691Z</time></trkpt><trkpt lat="45.2360366" lon="9.0345164"><ele>66.57142857142857</ele><time>2026-05-03T08:11:26.696Z</time></trkpt><trkpt lat="45.236099" lon="9.0345753"><ele>66.71428571428571</ele><time>2026-05-03T08:11:28.687Z</time></trkpt><trkpt lat="45.2361494" lon="9.0346301"><ele>66.85714285714286</ele><time>2026-05-03T08:11:30.762Z</time></trkpt><trkpt lat="45.2362347" lon="9.0347194"><ele>67.0</ele><time>2026-05-03T08:11:33.686Z</time></trkpt><trkpt lat="45.2363019" lon="9.0347647"><ele>67.0</ele><time>2026-05-03T08:11:36.695Z</time></trkpt><trkpt lat="45.2363569" lon="9.0348085"><ele>67.0</ele><time>2026-05-03T08:11:39.681Z</time></trkpt><trkpt lat="45.2364048" lon="9.0348951"><ele>67.0</ele><time>2026-05-03T08:11:46.69Z</time></trkpt><trkpt lat="45.2364403" lon="9.0349742"><ele>67.0</ele><time>2026-05-03T08:11:49.68Z</time></trkpt><trkpt lat="45.2364907" lon="9.035037"><ele>67.0</ele><time>2026-05-03T08:11:52.683Z</time></trkpt><trkpt lat="45.2365318" lon="9.0351323"><ele>67.0</ele><time>2026-05-03T08:11:57.691Z</time></trkpt><trkpt lat="45.236603" lon="9.035207"><ele>67.0</ele><time>2026-05-03T08:12:00.679Z</time></trkpt><trkpt lat="45.2366639" lon="9.0352385"><ele>67.33333333333333</ele><time>2026-05-03T08:12:02.692Z</time></trkpt><trkpt lat="45.2367327" lon="9.0353017"><ele>67.66666666666666</ele><time>2026-05-03T08:12:05.685Z</time></trkpt><trkpt lat="45.2367988" lon="9.0353959"><ele>68.0</ele><time>2026-05-03T08:12:08.686Z</time></trkpt><trkpt lat="45.236867" lon="9.0354663"><ele>68.33333333333333</ele><time>2026-05-03T08:12:11.68Z</time></trkpt><trkpt lat="45.2369202" lon="9.0355164"><ele>68.66666666666667</ele><time>2026-05-03T08:12:13.684Z</time></trkpt><trkpt lat="45.2369851" lon="9.0355536"><ele>69.0</ele><time>2026-05-03T08:12:15.688Z</time></trkpt><trkpt lat="45.2370589" lon="9.0355914"><ele>69.0</ele><time>2026-05-03T08:12:18.69Z</time></trkpt><trkpt lat="45.237114" lon="9.0356551"><ele>69.0</ele><time>2026-05-03T08:12:21.684Z</time></trkpt><trkpt lat="45.2371716" lon="9.0357219"><ele>69.0</ele><time>2026-05-03T08:12:24.683Z</time></trkpt><trkpt lat="45.2372266" lon="9.0357995"><ele>69.0</ele><time>2026-05-03T08:12:27.688Z</time></trkpt><trkpt lat="45.2372833" lon="9.0358811"><ele>69.0</ele><time>2026-05-03T08:12:30.682Z</time></trkpt><trkpt lat="45.2373276" lon="9.0359712"><ele>69.0</ele><time>2026-05-03T08:12:33.691Z</time></trkpt><trkpt lat="45.237392" lon="9.0360422"><ele>68.85714285714286</ele><time>2026-05-03T08:12:36.684Z</time></trkpt><trkpt lat="45.2374475" lon="9.0360971"><ele>68.71428571428572</ele><time>2026-05-03T08:12:38.682Z</time></trkpt><trkpt lat="45.2375152" lon="9.0361445"><ele>68.57142857142857</ele><time>2026-05-03T08:12:40.681Z</time></trkpt><trkpt lat="45.2375795" lon="9.0361815"><ele>68.42857142857143</ele><time>2026-05-03T08:12:42.686Z</time></trkpt><trkpt lat="45.2376514" lon="9.0362205"><ele>68.28571428571428</ele><time>2026-05-03T08:12:44.69Z</time></trkpt><trkpt lat="45.2377246" lon="9.0362766"><ele>68.14285714285714</ele><time>2026-05-03T08:12:46.763Z</time></trkpt><trkpt lat="45.2377927" lon="9.0363219"><ele>68.0</ele><time>2026-05-03T08:12:48.774Z</time></trkpt><trkpt lat="45.2378528" lon="9.0363869"><ele>67.99999999999999</ele><time>2026-05-03T08:12:50.687Z</time></trkpt><trkpt lat="45.2379083" lon="9.0364336"><ele>68.0</ele><time>2026-05-03T08:12:52.688Z</time></trkpt><trkpt lat="45.2379719" lon="9.03647"><ele>68.0</ele><time>2026-05-03T08:12:54.683Z</time></trkpt><trkpt lat="45.238045" lon="9.0364758"><ele>68.0</ele><time>2026-05-03T08:12:56.692Z</time></trkpt><trkpt lat="45.2381121" lon="9.0364745"><ele>68.0</ele><time>2026-05-03T08:12:58.686Z</time></trkpt><trkpt lat="45.2382087" lon="9.0365011"><ele>67.99999999999999</ele><time>2026-05-03T08:13:01.685Z</time></trkpt><trkpt lat="45.2382769" lon="9.0365323"><ele>68.0</ele><time>2026-05-03T08:13:03.687Z</time></trkpt><trkpt lat="45.2383599" lon="9.036582"><ele>68.66666666666667</ele><time>2026-05-03T08:13:06.688Z</time></trkpt><trkpt lat="45.2384227" lon="9.0366316"><ele>69.33333333333334</ele><time>2026-05-03T08:13:08.683Z</time></trkpt><trkpt lat="45.2384854" lon="9.0367056"><ele>70.0</ele><time>2026-05-03T08:13:11.685Z</time></trkpt><trkpt lat="45.238547" lon="9.0367663"><ele>70.66666666666667</ele><time>2026-05-03T08:13:14.684Z</time></trkpt><trkpt lat="45.2386063" lon="9.0368545"><ele>71.33333333333333</ele><time>2026-05-03T08:13:17.687Z</time></trkpt><trkpt lat="45.2386563" lon="9.0369105"><ele>72.0</ele><time>2026-05-03T08:13:19.693Z</time></trkpt><trkpt lat="45.2387117" lon="9.0369856"><ele>72.0</ele><time>2026-05-03T08:13:22.687Z</time></trkpt><trkpt lat="45.2387641" lon="9.0370624"><ele>72.0</ele><time>2026-05-03T08:13:25.693Z</time></trkpt><trkpt lat="45.2388207" lon="9.0371401"><ele>72.0</ele><time>2026-05-03T08:13:28.763Z</time></trkpt><trkpt lat="45.2388999" lon="9.0371974"><ele>72.0</ele><time>2026-05-03T08:13:31.673Z</time></trkpt><trkpt lat="45.2389637" lon="9.0372394"><ele>72.0</ele><time>2026-05-03T08:13:33.688Z</time></trkpt><trkpt lat="45.2390352" lon="9.0373137"><ele>72.0</ele><time>2026-05-03T08:13:36.684Z</time></trkpt><trkpt lat="45.2390904" lon="9.0373824"><ele>73.16666666666667</ele><time>2026-05-03T08:13:39.683Z</time></trkpt><trkpt lat="45.2391472" lon="9.0374551"><ele>74.33333333333333</ele><time>2026-05-03T08:13:42.679Z</time></trkpt><trkpt lat="45.23921" lon="9.0375542"><ele>75.5</ele><time>2026-05-03T08:13:45.683Z</time></trkpt><trkpt lat="45.2392279" lon="9.0376538"><ele>76.66666666666666</ele><time>2026-05-03T08:13:47.682Z</time></trkpt><trkpt lat="45.2392277" lon="9.0377874"><ele>77.83333333333333</ele><time>2026-05-03T08:13:50.685Z</time></trkpt><trkpt lat="45.2392181" lon="9.0379185"><ele>79.0</ele><time>2026-05-03T08:13:53.692Z</time></trkpt><trkpt lat="45.2392264" lon="9.0380505"><ele>79.28571428571429</ele><time>2026-05-03T08:13:56.69Z</time></trkpt><trkpt lat="45.2392593" lon="9.0381302"><ele>79.57142857142857</ele><time>2026-05-03T08:13:58.683Z</time></trkpt><trkpt lat="45.2393096" lon="9.0382185"><ele>79.85714285714286</ele><time>2026-05-03T08:14:00.686Z</time></trkpt><trkpt lat="45.2393526" lon="9.0383063"><ele>80.14285714285714</ele><time>2026-05-03T08:14:02.695Z</time></trkpt><trkpt lat="45.2393922" lon="9.0383995"><ele>80.42857142857143</ele><time>2026-05-03T08:14:04.687Z</time></trkpt><trkpt lat="45.2394289" lon="9.0384821"><ele>80.71428571428572</ele><time>2026-05-03T08:14:06.68Z</time></trkpt><trkpt lat="45.239461" lon="9.0385709"><ele>81.0</ele><time>2026-05-03T08:14:08.682Z</time></trkpt><trkpt lat="45.2395035" lon="9.0386659"><ele>81.85714285714286</ele><time>2026-05-03T08:14:10.678Z</time></trkpt><trkpt lat="45.2395471" lon="9.0387511"><ele>82.71428571428571</ele><time>2026-05-03T08:14:12.689Z</time></trkpt><trkpt lat="45.2395884" lon="9.0388347"><ele>83.57142857142857</ele><time>2026-05-03T08:14:14.683Z</time></trkpt><trkpt lat="45.2396264" lon="9.0389082"><ele>84.42857142857143</ele><time>2026-05-03T08:14:16.681Z</time></trkpt><trkpt lat="45.2396648" lon="9.0389813"><ele>85.28571428571429</ele><time>2026-05-03T08:14:18.676Z</time></trkpt><trkpt lat="45.2397021" lon="9.0390616"><ele>86.14285714285714</ele><time>2026-05-03T08:14:20.692Z</time></trkpt><trkpt lat="45.2397527" lon="9.0391597"><ele>87.0</ele><time>2026-05-03T08:14:23.686Z</time></trkpt><trkpt lat="45.2398301" lon="9.0392419"><ele>87.0</ele><time>2026-05-03T08:14:26.685Z</time></trkpt><trkpt lat="45.2398745" lon="9.0393581"><ele>87.0</ele><time>2026-05-03T08:14:29.682Z</time></trkpt><trkpt lat="45.2398619" lon="9.0394698"><ele>87.0</ele><time>2026-05-03T08:14:32.677Z</time></trkpt><trkpt lat="45.2398105" lon="9.0395594"><ele>87.0</ele><time>2026-05-03T08:14:35.684Z</time></trkpt><trkpt lat="45.2397436" lon="9.0396422"><ele>87.0</ele><time>2026-05-03T08:14:38.683Z</time></trkpt><trkpt lat="45.2396829" lon="9.0397121"><ele>87.0</ele><time>2026-05-03T08:14:41.685Z</time></trkpt><trkpt lat="45.2396202" lon="9.0397999"><ele>87.0</ele><time>2026-05-03T08:14:44.74Z</time></trkpt><trkpt lat="45.2395689" lon="9.0398683"><ele>87.0</ele><time>2026-05-03T08:14:46.678Z</time></trkpt><trkpt lat="45.2395112" lon="9.0399393"><ele>87.0</ele><time>2026-05-03T08:14:48.687Z</time></trkpt><trkpt lat="45.2394545" lon="9.0400229"><ele>87.0</ele><time>2026-05-03T08:14:50.686Z</time></trkpt><trkpt lat="45.2394002" lon="9.0401044"><ele>87.0</ele><time>2026-05-03T08:14:52.686Z</time></trkpt><trkpt lat="45.2393414" lon="9.0401853"><ele>87.0</ele><time>2026-05-03T08:14:54.678Z</time></trkpt><trkpt lat="45.2392809" lon="9.0402663"><ele>87.0</ele><time>2026-05-03T08:14:56.688Z</time></trkpt><trkpt lat="45.2392176" lon="9.0403499"><ele>87.0</ele><time>2026-05-03T08:14:58.688Z</time></trkpt><trkpt lat="45.2391547" lon="9.0404255"><ele>87.0</ele><time>2026-05-03T08:15:00.688Z</time></trkpt><trkpt lat="45.2390977" lon="9.0405208"><ele>87.0</ele><time>2026-05-03T08:15:02.684Z</time></trkpt><trkpt lat="45.2390271" lon="9.0406086"><ele>87.0</ele><time>2026-05-03T08:15:04.678Z</time></trkpt><trkpt lat="45.2389607" lon="9.0406892"><ele>87.0</ele><time>2026-05-03T08:15:06.682Z</time></trkpt><trkpt lat="45.2388931" lon="9.0407786"><ele>86.6</ele><time>2026-05-03T08:15:08.689Z</time></trkpt><trkpt lat="45.2388253" lon="9.0408662"><ele>86.19999999999999</ele><time>2026-05-03T08:15:10.685Z</time></trkpt><trkpt lat="45.2387589" lon="9.0409545"><ele>85.8</ele><time>2026-05-03T08:15:12.688Z</time></trkpt><trkpt lat="45.2386949" lon="9.0410415"><ele>85.4</ele><time>2026-05-03T08:15:14.688Z</time></trkpt><trkpt lat="45.23863" lon="9.041131"><ele>85.0</ele><time>2026-05-03T08:15:16.676Z</time></trkpt><trkpt lat="45.2385626" lon="9.0412136"><ele>85.0</ele><time>2026-05-03T08:15:18.679Z</time></trkpt><trkpt lat="45.2384949" lon="9.0413029"><ele>85.0</ele><time>2026-05-03T08:15:20.686Z</time></trkpt><trkpt lat="45.2384276" lon="9.0413867"><ele>85.0</ele><time>2026-05-03T08:15:22.685Z</time></trkpt><trkpt lat="45.2383681" lon="9.0414728"><ele>85.0</ele><time>2026-05-03T08:15:24.688Z</time></trkpt><trkpt lat="45.2383041" lon="9.0415458"><ele>85.0</ele><time>2026-05-03T08:15:26.678Z</time></trkpt><trkpt lat="45.238249" lon="9.0416325"><ele>85.0</ele><time>2026-05-03T08:15:28.682Z</time></trkpt><trkpt lat="45.2381858" lon="9.0417116"><ele>85.16666666666666</ele><time>2026-05-03T08:15:30.687Z</time></trkpt><trkpt lat="45.2381292" lon="9.0417898"><ele>85.33333333333333</ele><time>2026-05-03T08:15:32.698Z</time></trkpt><trkpt lat="45.2380704" lon="9.0418678"><ele>85.5</ele><time>2026-05-03T08:15:34.684Z</time></trkpt><trkpt lat="45.2380139" lon="9.041947"><ele>85.66666666666667</ele><time>2026-05-03T08:15:36.679Z</time></trkpt><trkpt lat="45.2379549" lon="9.042024"><ele>85.83333333333334</ele><time>2026-05-03T08:15:38.692Z</time></trkpt><trkpt lat="45.2378978" lon="9.042091"><ele>86.0</ele><time>2026-05-03T08:15:40.684Z</time></trkpt><trkpt lat="45.2378414" lon="9.04217"><ele>86.0</ele><time>2026-05-03T08:15:42.687Z</time></trkpt><trkpt lat="45.237781" lon="9.0422586"><ele>86.0</ele><time>2026-05-03T08:15:44.682Z</time></trkpt><trkpt lat="45.2377189" lon="9.0423341"><ele>86.0</ele><time>2026-05-03T08:15:46.682Z</time></trkpt><trkpt lat="45.237664" lon="9.0424014"><ele>86.0</ele><time>2026-05-03T08:15:48.69Z</time></trkpt><trkpt lat="45.2376055" lon="9.0424911"><ele>86.0</ele><time>2026-05-03T08:15:50.695Z</time></trkpt><trkpt lat="45.2375482" lon="9.0425809"><ele>86.0</ele><time>2026-05-03T08:15:52.678Z</time></trkpt><trkpt lat="45.2374933" lon="9.0426532"><ele>86.0</ele><time>2026-05-03T08:15:54.685Z</time></trkpt><trkpt lat="45.2374502" lon="9.042739"><ele>86.0</ele><time>2026-05-03T08:15:56.685Z</time></trkpt><trkpt lat="45.2374042" lon="9.0428374"><ele>86.0</ele><time>2026-05-03T08:15:58.68Z</time></trkpt><trkpt lat="45.2373664" lon="9.0429481"><ele>86.0</ele><time>2026-05-03T08:16:00.683Z</time></trkpt><trkpt lat="45.2373296" lon="9.0430446"><ele>86.0</ele><time>2026-05-03T08:16:02.68Z</time></trkpt><trkpt lat="45.2373013" lon="9.043139"><ele>86.0</ele><time>2026-05-03T08:16:04.679Z</time></trkpt><trkpt lat="45.2372787" lon="9.0432305"><ele>86.33333333333334</ele><time>2026-05-03T08:16:06.682Z</time></trkpt><trkpt lat="45.237247" lon="9.0433245"><ele>86.66666666666667</ele><time>2026-05-03T08:16:08.678Z</time></trkpt><trkpt lat="45.2372151" lon="9.0434341"><ele>87.0</ele><time>2026-05-03T08:16:10.69Z</time></trkpt><trkpt lat="45.2371787" lon="9.0435419"><ele>87.33333333333333</ele><time>2026-05-03T08:16:12.688Z</time></trkpt><trkpt lat="45.2371552" lon="9.0436565"><ele>87.66666666666666</ele><time>2026-05-03T08:16:14.681Z</time></trkpt><trkpt lat="45.2371227" lon="9.0437786"><ele>88.0</ele><time>2026-05-03T08:16:16.692Z</time></trkpt><trkpt lat="45.2370881" lon="9.0438974"><ele>88.0</ele><time>2026-05-03T08:16:18.678Z</time></trkpt><trkpt lat="45.2370631" lon="9.0440052"><ele>88.0</ele><time>2026-05-03T08:16:20.679Z</time></trkpt><trkpt lat="45.2370341" lon="9.0441143"><ele>88.0</ele><time>2026-05-03T08:16:22.682Z</time></trkpt><trkpt lat="45.2370118" lon="9.0442234"><ele>88.0</ele><time>2026-05-03T08:16:24.687Z</time></trkpt><trkpt lat="45.2369889" lon="9.0443166"><ele>88.0</ele><time>2026-05-03T08:16:26.684Z</time></trkpt><trkpt lat="45.2369635" lon="9.044407"><ele>88.0</ele><time>2026-05-03T08:16:28.685Z</time></trkpt><trkpt lat="45.2369427" lon="9.044514"><ele>88.16666666666666</ele><time>2026-05-03T08:16:30.688Z</time></trkpt><trkpt lat="45.2369237" lon="9.0446065"><ele>88.33333333333333</ele><time>2026-05-03T08:16:32.693Z</time></trkpt><trkpt lat="45.2369061" lon="9.0447105"><ele>88.5</ele><time>2026-05-03T08:16:34.685Z</time></trkpt><trkpt lat="45.236893" lon="9.0448299"><ele>88.66666666666667</ele><time>2026-05-03T08:16:36.688Z</time></trkpt><trkpt lat="45.2368777" lon="9.044941"><ele>88.83333333333334</ele><time>2026-05-03T08:16:38.681Z</time></trkpt><trkpt lat="45.236866" lon="9.0450685"><ele>89.0</ele><time>2026-05-03T08:16:40.683Z</time></trkpt><trkpt lat="45.2368602" lon="9.045183"><ele>89.0</ele><time>2026-05-03T08:16:42.684Z</time></trkpt><trkpt lat="45.2368619" lon="9.0452894"><ele>89.0</ele><time>2026-05-03T08:16:44.69Z</time></trkpt><trkpt lat="45.2368562" lon="9.0454042"><ele>89.0</ele><time>2026-05-03T08:16:46.676Z</time></trkpt><trkpt lat="45.2368563" lon="9.0455201"><ele>89.0</ele><time>2026-05-03T08:16:48.687Z</time></trkpt><trkpt lat="45.2368525" lon="9.0456427"><ele>89.0</ele><time>2026-05-03T08:16:50.681Z</time></trkpt><trkpt lat="45.2368584" lon="9.0457503"><ele>89.0</ele><time>2026-05-03T08:16:52.678Z</time></trkpt><trkpt lat="45.2368718" lon="9.0458611"><ele>88.83333333333334</ele><time>2026-05-03T08:16:54.687Z</time></trkpt><trkpt lat="45.2368777" lon="9.045976"><ele>88.66666666666667</ele><time>2026-05-03T08:16:56.76Z</time></trkpt><trkpt lat="45.2368821" lon="9.0460885"><ele>88.5</ele><time>2026-05-03T08:16:58.768Z</time></trkpt><trkpt lat="45.2368795" lon="9.0462103"><ele>88.33333333333333</ele><time>2026-05-03T08:17:00.684Z</time></trkpt><trkpt lat="45.2368851" lon="9.0463252"><ele>88.16666666666666</ele><time>2026-05-03T08:17:02.682Z</time></trkpt><trkpt lat="45.2368882" lon="9.0464495"><ele>88.0</ele><time>2026-05-03T08:17:04.691Z</time></trkpt><trkpt lat="45.2368906" lon="9.0465689"><ele>88.16666666666666</ele><time>2026-05-03T08:17:06.684Z</time></trkpt><trkpt lat="45.2368943" lon="9.0466943"><ele>88.33333333333333</ele><time>2026-05-03T08:17:08.679Z</time></trkpt><trkpt lat="45.2368924" lon="9.046831"><ele>88.5</ele><time>2026-05-03T08:17:10.676Z</time></trkpt><trkpt lat="45.236896" lon="9.0469619"><ele>88.66666666666667</ele><time>2026-05-03T08:17:12.677Z</time></trkpt><trkpt lat="45.2368966" lon="9.0470742"><ele>88.83333333333334</ele><time>2026-05-03T08:17:14.694Z</time></trkpt><trkpt lat="45.2368965" lon="9.047185"><ele>89.0</ele><time>2026-05-03T08:17:16.681Z</time></trkpt><trkpt lat="45.2368957" lon="9.0472839"><ele>88.99999999999999</ele><time>2026-05-03T08:17:18.682Z</time></trkpt><trkpt lat="45.2368952" lon="9.0473921"><ele>89.0</ele><time>2026-05-03T08:17:20.686Z</time></trkpt><trkpt lat="45.2368933" lon="9.0475054"><ele>89.0</ele><time>2026-05-03T08:17:22.686Z</time></trkpt><trkpt lat="45.2368928" lon="9.047606"><ele>89.0</ele><time>2026-05-03T08:17:24.681Z</time></trkpt><trkpt lat="45.2368889" lon="9.047701"><ele>89.0</ele><time>2026-05-03T08:17:26.683Z</time></trkpt><trkpt lat="45.2368848" lon="9.0478028"><ele>88.99999999999999</ele><time>2026-05-03T08:17:28.688Z</time></trkpt><trkpt lat="45.236893" lon="9.047916"><ele>89.0</ele><time>2026-05-03T08:17:30.689Z</time></trkpt><trkpt lat="45.2368999" lon="9.048031"><ele>88.66666666666667</ele><time>2026-05-03T08:17:32.688Z</time></trkpt><trkpt lat="45.2368948" lon="9.0481368"><ele>88.33333333333334</ele><time>2026-05-03T08:17:34.685Z</time></trkpt><trkpt lat="45.2368951" lon="9.0482339"><ele>88.0</ele><time>2026-05-03T08:17:36.766Z</time></trkpt><trkpt lat="45.2368937" lon="9.0483292"><ele>87.66666666666667</ele><time>2026-05-03T08:17:38.759Z</time></trkpt><trkpt lat="45.236895" lon="9.0484309"><ele>87.33333333333333</ele><time>2026-05-03T08:17:40.687Z</time></trkpt><trkpt lat="45.2368975" lon="9.0485622"><ele>87.0</ele><time>2026-05-03T08:17:42.683Z</time></trkpt><trkpt lat="45.2368772" lon="9.0486854"><ele>87.0</ele><time>2026-05-03T08:17:44.681Z</time></trkpt><trkpt lat="45.2368226" lon="9.0487502"><ele>87.0</ele><time>2026-05-03T08:17:46.68Z</time></trkpt><trkpt lat="45.2367464" lon="9.0487509"><ele>87.0</ele><time>2026-05-03T08:17:48.678Z</time></trkpt><trkpt lat="45.2366848" lon="9.0487179"><ele>87.0</ele><time>2026-05-03T08:17:50.68Z</time></trkpt><trkpt lat="45.2366072" lon="9.0486566"><ele>87.0</ele><time>2026-05-03T08:17:52.685Z</time></trkpt><trkpt lat="45.236525" lon="9.0485889"><ele>87.0</ele><time>2026-05-03T08:17:54.683Z</time></trkpt><trkpt lat="45.2364539" lon="9.0485195"><ele>87.0</ele><time>2026-05-03T08:17:56.686Z</time></trkpt><trkpt lat="45.2363957" lon="9.0484319"><ele>87.0</ele><time>2026-05-03T08:17:58.682Z</time></trkpt><trkpt lat="45.2363408" lon="9.0483503"><ele>87.0</ele><time>2026-05-03T08:18:00.68Z</time></trkpt><trkpt lat="45.2362852" lon="9.0482765"><ele>87.0</ele><time>2026-05-03T08:18:02.694Z</time></trkpt><trkpt lat="45.236225" lon="9.048211"><ele>87.0</ele><time>2026-05-03T08:18:04.685Z</time></trkpt><trkpt lat="45.2361753" lon="9.0481342"><ele>87.0</ele><time>2026-05-03T08:18:06.685Z</time></trkpt><trkpt lat="45.2361323" lon="9.048066"><ele>87.0</ele><time>2026-05-03T08:18:08.688Z</time></trkpt><trkpt lat="45.2360859" lon="9.0479957"><ele>87.0</ele><time>2026-05-03T08:18:10.684Z</time></trkpt><trkpt lat="45.2360394" lon="9.0479299"><ele>87.0</ele><time>2026-05-03T08:18:12.685Z</time></trkpt><trkpt lat="45.2359863" lon="9.0478647"><ele>87.0</ele><time>2026-05-03T08:18:14.672Z</time></trkpt><trkpt lat="45.2359278" lon="9.04781"><ele>87.0</ele><time>2026-05-03T08:18:16.682Z</time></trkpt><trkpt lat="45.2358743" lon="9.047755"><ele>87.0</ele><time>2026-05-03T08:18:18.686Z</time></trkpt><trkpt lat="45.2358142" lon="9.0477043"><ele>87.0</ele><time>2026-05-03T08:18:20.691Z</time></trkpt><trkpt lat="45.2357575" lon="9.0476464"><ele>87.0</ele><time>2026-05-03T08:18:22.686Z</time></trkpt><trkpt lat="45.2356933" lon="9.0475914"><ele>87.0</ele><time>2026-05-03T08:18:24.685Z</time></trkpt><trkpt lat="45.2356153" lon="9.0475499"><ele>87.0</ele><time>2026-05-03T08:18:26.679Z</time></trkpt><trkpt lat="45.2355394" lon="9.0474993"><ele>87.0</ele><time>2026-05-03T08:18:28.683Z</time></trkpt><trkpt lat="45.2354516" lon="9.0474584"><ele>87.0</ele><time>2026-05-03T08:18:30.684Z</time></trkpt><trkpt lat="45.2353558" lon="9.0474138"><ele>87.0</ele><time>2026-05-03T08:18:32.686Z</time></trkpt><trkpt lat="45.23526" lon="9.0473763"><ele>86.5</ele><time>2026-05-03T08:18:34.679Z</time></trkpt><trkpt lat="45.23517" lon="9.0473525"><ele>86.0</ele><time>2026-05-03T08:18:36.693Z</time></trkpt><trkpt lat="45.2350872" lon="9.0473364"><ele>85.5</ele><time>2026-05-03T08:18:38.679Z</time></trkpt><trkpt lat="45.2350203" lon="9.0473048"><ele>85.0</ele><time>2026-05-03T08:18:40.685Z</time></trkpt><trkpt lat="45.2349657" lon="9.0472139"><ele>84.5</ele><time>2026-05-03T08:18:43.686Z</time></trkpt><trkpt lat="45.2348857" lon="9.0471629"><ele>84.0</ele><time>2026-05-03T08:18:46.684Z</time></trkpt><trkpt lat="45.2348212" lon="9.0471142"><ele>83.33333333333333</ele><time>2026-05-03T08:18:49.685Z</time></trkpt><trkpt lat="45.2347433" lon="9.0470457"><ele>82.66666666666667</ele><time>2026-05-03T08:18:52.685Z</time></trkpt><trkpt lat="45.2346869" lon="9.0469947"><ele>82.0</ele><time>2026-05-03T08:18:54.691Z</time></trkpt><trkpt lat="45.2346155" lon="9.04693"><ele>81.33333333333334</ele><time>2026-05-03T08:18:57.682Z</time></trkpt><trkpt lat="45.2345388" lon="9.046868"><ele>80.66666666666667</ele><time>2026-05-03T08:19:00.679Z</time></trkpt><trkpt lat="45.2344766" lon="9.0468157"><ele>80.0</ele><time>2026-05-03T08:19:02.672Z</time></trkpt><trkpt lat="45.2344208" lon="9.0467568"><ele>80.0</ele><time>2026-05-03T08:19:04.682Z</time></trkpt><trkpt lat="45.2343561" lon="9.0467086"><ele>80.0</ele><time>2026-05-03T08:19:06.679Z</time></trkpt><trkpt lat="45.2342884" lon="9.0466619"><ele>80.0</ele><time>2026-05-03T08:19:08.681Z</time></trkpt><trkpt lat="45.2342272" lon="9.0466063"><ele>80.0</ele><time>2026-05-03T08:19:10.689Z</time></trkpt><trkpt lat="45.2341541" lon="9.0465516"><ele>80.0</ele><time>2026-05-03T08:19:12.68Z</time></trkpt><trkpt lat="45.2340866" lon="9.0464961"><ele>80.0</ele><time>2026-05-03T08:19:14.68Z</time></trkpt><trkpt lat="45.2340212" lon="9.0464399"><ele>79.83333333333334</ele><time>2026-05-03T08:19:16.675Z</time></trkpt><trkpt lat="45.2339566" lon="9.0463863"><ele>79.66666666666667</ele><time>2026-05-03T08:19:18.68Z</time></trkpt><trkpt lat="45.2338882" lon="9.0463257"><ele>79.5</ele><time>2026-05-03T08:19:20.676Z</time></trkpt><trkpt lat="45.2338202" lon="9.0462584"><ele>79.33333333333333</ele><time>2026-05-03T08:19:22.677Z</time></trkpt><trkpt lat="45.2337523" lon="9.0461826"><ele>79.16666666666666</ele><time>2026-05-03T08:19:24.679Z</time></trkpt><trkpt lat="45.2336896" lon="9.0461206"><ele>79.0</ele><time>2026-05-03T08:19:26.679Z</time></trkpt><trkpt lat="45.2336336" lon="9.0460483"><ele>79.0</ele><time>2026-05-03T08:19:28.678Z</time></trkpt><trkpt lat="45.2335655" lon="9.0459737"><ele>79.0</ele><time>2026-05-03T08:19:30.683Z</time></trkpt><trkpt lat="45.2335005" lon="9.0458943"><ele>79.0</ele><time>2026-05-03T08:19:32.693Z</time></trkpt><trkpt lat="45.2334398" lon="9.0458222"><ele>79.0</ele><time>2026-05-03T08:19:34.766Z</time></trkpt><trkpt lat="45.233377" lon="9.0457454"><ele>79.0</ele><time>2026-05-03T08:19:36.689Z</time></trkpt><trkpt lat="45.233308" lon="9.0456836"><ele>79.0</ele><time>2026-05-03T08:19:38.683Z</time></trkpt><trkpt lat="45.2332275" lon="9.0456777"><ele>79.16666666666666</ele><time>2026-05-03T08:19:40.688Z</time></trkpt><trkpt lat="45.2331559" lon="9.0457281"><ele>79.33333333333333</ele><time>2026-05-03T08:19:42.692Z</time></trkpt><trkpt lat="45.2330984" lon="9.0458091"><ele>79.5</ele><time>2026-05-03T08:19:44.681Z</time></trkpt><trkpt lat="45.2330444" lon="9.045917"><ele>79.66666666666667</ele><time>2026-05-03T08:19:46.68Z</time></trkpt><trkpt lat="45.2329949" lon="9.0459993"><ele>79.83333333333334</ele><time>2026-05-03T08:19:48.687Z</time></trkpt><trkpt lat="45.2329489" lon="9.0460769"><ele>80.0</ele><time>2026-05-03T08:19:50.687Z</time></trkpt><trkpt lat="45.2328958" lon="9.0461767"><ele>80.16666666666667</ele><time>2026-05-03T08:19:52.68Z</time></trkpt><trkpt lat="45.2328455" lon="9.0462675"><ele>80.33333333333334</ele><time>2026-05-03T08:19:54.684Z</time></trkpt><trkpt lat="45.2327901" lon="9.0463347"><ele>80.5</ele><time>2026-05-03T08:19:56.678Z</time></trkpt><trkpt lat="45.2327205" lon="9.0463412"><ele>80.66666666666667</ele><time>2026-05-03T08:19:58.686Z</time></trkpt><trkpt lat="45.2326586" lon="9.0462741"><ele>80.83333333333333</ele><time>2026-05-03T08:20:00.683Z</time></trkpt><trkpt lat="45.2325971" lon="9.0461829"><ele>81.0</ele><time>2026-05-03T08:20:02.688Z</time></trkpt><trkpt lat="45.2325313" lon="9.0461029"><ele>81.0</ele><time>2026-05-03T08:20:04.684Z</time></trkpt><trkpt lat="45.2324751" lon="9.0460216"><ele>81.0</ele><time>2026-05-03T08:20:06.676Z</time></trkpt><trkpt lat="45.2324167" lon="9.0459481"><ele>81.0</ele><time>2026-05-03T08:20:08.683Z</time></trkpt><trkpt lat="45.2323596" lon="9.0458764"><ele>81.0</ele><time>2026-05-03T08:20:10.682Z</time></trkpt><trkpt lat="45.2323029" lon="9.0458004"><ele>81.0</ele><time>2026-05-03T08:20:12.756Z</time></trkpt><trkpt lat="45.2322485" lon="9.0457222"><ele>81.0</ele><time>2026-05-03T08:20:14.688Z</time></trkpt><trkpt lat="45.2321872" lon="9.0456458"><ele>80.33333333333333</ele><time>2026-05-03T08:20:16.687Z</time></trkpt><trkpt lat="45.2321286" lon="9.0455616"><ele>79.66666666666667</ele><time>2026-05-03T08:20:18.679Z</time></trkpt><trkpt lat="45.2320632" lon="9.0454823"><ele>79.0</ele><time>2026-05-03T08:20:20.683Z</time></trkpt><trkpt lat="45.2320018" lon="9.0454072"><ele>78.33333333333334</ele><time>2026-05-03T08:20:22.681Z</time></trkpt><trkpt lat="45.2319379" lon="9.0453232"><ele>77.66666666666667</ele><time>2026-05-03T08:20:24.684Z</time></trkpt><trkpt lat="45.231882" lon="9.0452492"><ele>77.0</ele><time>2026-05-03T08:20:26.682Z</time></trkpt><trkpt lat="45.2318186" lon="9.0451544"><ele>77.0</ele><time>2026-05-03T08:20:28.764Z</time></trkpt><trkpt lat="45.2317593" lon="9.04507"><ele>77.0</ele><time>2026-05-03T08:20:30.682Z</time></trkpt><trkpt lat="45.2317021" lon="9.0449895"><ele>77.0</ele><time>2026-05-03T08:20:32.686Z</time></trkpt><trkpt lat="45.2316367" lon="9.0449126"><ele>77.0</ele><time>2026-05-03T08:20:34.677Z</time></trkpt><trkpt lat="45.2315762" lon="9.0448405"><ele>77.0</ele><time>2026-05-03T08:20:36.687Z</time></trkpt><trkpt lat="45.2315151" lon="9.0447537"><ele>77.0</ele><time>2026-05-03T08:20:38.687Z</time></trkpt><trkpt lat="45.2314589" lon="9.0446741"><ele>77.33333333333334</ele><time>2026-05-03T08:20:40.685Z</time></trkpt><trkpt lat="45.2313986" lon="9.0445941"><ele>77.66666666666667</ele><time>2026-05-03T08:20:42.684Z</time></trkpt><trkpt lat="45.2313373" lon="9.0445148"><ele>78.0</ele><time>2026-05-03T08:20:44.678Z</time></trkpt><trkpt lat="45.2312789" lon="9.0444351"><ele>78.33333333333333</ele><time>2026-05-03T08:20:46.684Z</time></trkpt><trkpt lat="45.2312177" lon="9.0443502"><ele>78.66666666666666</ele><time>2026-05-03T08:20:48.677Z</time></trkpt><trkpt lat="45.2311483" lon="9.0442657"><ele>79.0</ele><time>2026-05-03T08:20:50.686Z</time></trkpt><trkpt lat="45.2310844" lon="9.0441924"><ele>79.0</ele><time>2026-05-03T08:20:52.686Z</time></trkpt><trkpt lat="45.2310277" lon="9.0441147"><ele>79.0</ele><time>2026-05-03T08:20:54.68Z</time></trkpt><trkpt lat="45.2309786" lon="9.0440457"><ele>79.0</ele><time>2026-05-03T08:20:56.676Z</time></trkpt><trkpt lat="45.2309217" lon="9.0439691"><ele>79.0</ele><time>2026-05-03T08:20:58.684Z</time></trkpt><trkpt lat="45.2308563" lon="9.0438855"><ele>79.0</ele><time>2026-05-03T08:21:00.681Z</time></trkpt><trkpt lat="45.2307949" lon="9.0438038"><ele>79.0</ele><time>2026-05-03T08:21:02.685Z</time></trkpt><trkpt lat="45.2307393" lon="9.0437386"><ele>79.00000000000001</ele><time>2026-05-03T08:21:04.691Z</time></trkpt><trkpt lat="45.2306922" lon="9.0436737"><ele>79.0</ele><time>2026-05-03T08:21:06.676Z</time></trkpt><trkpt lat="45.2306424" lon="9.0436093"><ele>79.0</ele><time>2026-05-03T08:21:08.685Z</time></trkpt><trkpt lat="45.2305899" lon="9.0435481"><ele>79.0</ele><time>2026-05-03T08:21:10.68Z</time></trkpt><trkpt lat="45.2305368" lon="9.0434682"><ele>79.0</ele><time>2026-05-03T08:21:12.68Z</time></trkpt><trkpt lat="45.230477" lon="9.0433962"><ele>79.00000000000001</ele><time>2026-05-03T08:21:14.682Z</time></trkpt><trkpt lat="45.2304275" lon="9.0433306"><ele>79.0</ele><time>2026-05-03T08:21:16.699Z</time></trkpt><trkpt lat="45.2303563" lon="9.043243"><ele>78.83333333333333</ele><time>2026-05-03T08:21:19.693Z</time></trkpt><trkpt lat="45.2303025" lon="9.0431811"><ele>78.66666666666666</ele><time>2026-05-03T08:21:21.688Z</time></trkpt><trkpt lat="45.2302416" lon="9.0431151"><ele>78.5</ele><time>2026-05-03T08:21:23.68Z</time></trkpt><trkpt lat="45.2301824" lon="9.0430548"><ele>78.33333333333333</ele><time>2026-05-03T08:21:25.689Z</time></trkpt><trkpt lat="45.230115" lon="9.0429965"><ele>78.16666666666667</ele><time>2026-05-03T08:21:27.684Z</time></trkpt><trkpt lat="45.2300466" lon="9.0429671"><ele>78.0</ele><time>2026-05-03T08:21:29.68Z</time></trkpt><trkpt lat="45.2299662" lon="9.0429721"><ele>78.0</ele><time>2026-05-03T08:21:31.682Z</time></trkpt><trkpt lat="45.2298981" lon="9.0430027"><ele>78.0</ele><time>2026-05-03T08:21:33.759Z</time></trkpt><trkpt lat="45.2298462" lon="9.0430564"><ele>78.0</ele><time>2026-05-03T08:21:35.672Z</time></trkpt><trkpt lat="45.2297935" lon="9.0431282"><ele>78.0</ele><time>2026-05-03T08:21:37.678Z</time></trkpt><trkpt lat="45.2297416" lon="9.0432"><ele>78.0</ele><time>2026-05-03T08:21:39.673Z</time></trkpt><trkpt lat="45.22969" lon="9.0432859"><ele>78.0</ele><time>2026-05-03T08:21:41.683Z</time></trkpt><trkpt lat="45.2296362" lon="9.0433632"><ele>78.0</ele><time>2026-05-03T08:21:43.683Z</time></trkpt><trkpt lat="45.2295817" lon="9.0434331"><ele>78.16666666666667</ele><time>2026-05-03T08:21:45.68Z</time></trkpt><trkpt lat="45.229522" lon="9.043516"><ele>78.33333333333333</ele><time>2026-05-03T08:21:47.686Z</time></trkpt><trkpt lat="45.229465" lon="9.0435882"><ele>78.5</ele><time>2026-05-03T08:21:49.687Z</time></trkpt><trkpt lat="45.2294085" lon="9.0436683"><ele>78.66666666666666</ele><time>2026-05-03T08:21:51.676Z</time></trkpt><trkpt lat="45.2293545" lon="9.0437467"><ele>78.83333333333333</ele><time>2026-05-03T08:21:53.686Z</time></trkpt><trkpt lat="45.2293024" lon="9.0438205"><ele>79.0</ele><time>2026-05-03T08:21:55.697Z</time></trkpt><trkpt lat="45.2292517" lon="9.0438796"><ele>79.0</ele><time>2026-05-03T08:21:57.686Z</time></trkpt><trkpt lat="45.2292071" lon="9.0439438"><ele>79.0</ele><time>2026-05-03T08:21:59.681Z</time></trkpt><trkpt lat="45.2291601" lon="9.0440108"><ele>79.0</ele><time>2026-05-03T08:22:01.68Z</time></trkpt><trkpt lat="45.2291039" lon="9.044092"><ele>79.0</ele><time>2026-05-03T08:22:03.679Z</time></trkpt><trkpt lat="45.2290431" lon="9.044166"><ele>79.0</ele><time>2026-05-03T08:22:05.678Z</time></trkpt><trkpt lat="45.2290007" lon="9.0442386"><ele>79.0</ele><time>2026-05-03T08:22:07.701Z</time></trkpt><trkpt lat="45.2289324" lon="9.0443283"><ele>78.5</ele><time>2026-05-03T08:22:10.686Z</time></trkpt><trkpt lat="45.2288865" lon="9.0443949"><ele>78.0</ele><time>2026-05-03T08:22:12.678Z</time></trkpt><trkpt lat="45.2288343" lon="9.0444826"><ele>77.5</ele><time>2026-05-03T08:22:14.68Z</time></trkpt><trkpt lat="45.2287853" lon="9.0445717"><ele>77.0</ele><time>2026-05-03T08:22:16.676Z</time></trkpt><trkpt lat="45.2287291" lon="9.0446841"><ele>76.5</ele><time>2026-05-03T08:22:19.682Z</time></trkpt><trkpt lat="45.2286799" lon="9.0447702"><ele>76.0</ele><time>2026-05-03T08:22:21.684Z</time></trkpt><trkpt lat="45.2286293" lon="9.0448468"><ele>76.0</ele><time>2026-05-03T08:22:23.678Z</time></trkpt><trkpt lat="45.2285876" lon="9.0449472"><ele>76.0</ele><time>2026-05-03T08:22:25.681Z</time></trkpt><trkpt lat="45.2285482" lon="9.0450426"><ele>76.0</ele><time>2026-05-03T08:22:27.683Z</time></trkpt><trkpt lat="45.228512" lon="9.0451551"><ele>76.0</ele><time>2026-05-03T08:22:29.671Z</time></trkpt><trkpt lat="45.228481" lon="9.0452733"><ele>76.0</ele><time>2026-05-03T08:22:31.685Z</time></trkpt><trkpt lat="45.2284645" lon="9.0453815"><ele>76.0</ele><time>2026-05-03T08:22:33.679Z</time></trkpt><trkpt lat="45.2284621" lon="9.0454856"><ele>76.33333333333333</ele><time>2026-05-03T08:22:35.687Z</time></trkpt><trkpt lat="45.2284705" lon="9.0455972"><ele>76.66666666666666</ele><time>2026-05-03T08:22:37.685Z</time></trkpt><trkpt lat="45.2284794" lon="9.0456932"><ele>77.0</ele><time>2026-05-03T08:22:39.684Z</time></trkpt><trkpt lat="45.2284771" lon="9.0458017"><ele>77.33333333333333</ele><time>2026-05-03T08:22:41.684Z</time></trkpt><trkpt lat="45.2284788" lon="9.0459156"><ele>77.66666666666667</ele><time>2026-05-03T08:22:43.681Z</time></trkpt><trkpt lat="45.2284832" lon="9.046025"><ele>78.0</ele><time>2026-05-03T08:22:45.684Z</time></trkpt><trkpt lat="45.228488" lon="9.0461345"><ele>78.0</ele><time>2026-05-03T08:22:47.686Z</time></trkpt><trkpt lat="45.2284868" lon="9.0462405"><ele>78.0</ele><time>2026-05-03T08:22:49.679Z</time></trkpt><trkpt lat="45.2284906" lon="9.0463517"><ele>78.0</ele><time>2026-05-03T08:22:51.687Z</time></trkpt><trkpt lat="45.2284954" lon="9.0464841"><ele>78.0</ele><time>2026-05-03T08:22:53.684Z</time></trkpt><trkpt lat="45.2285016" lon="9.0466173"><ele>78.0</ele><time>2026-05-03T08:22:55.685Z</time></trkpt><trkpt lat="45.2285115" lon="9.0467436"><ele>78.0</ele><time>2026-05-03T08:22:57.683Z</time></trkpt><trkpt lat="45.2284915" lon="9.0468565"><ele>77.4</ele><time>2026-05-03T08:22:59.68Z</time></trkpt><trkpt lat="45.2284188" lon="9.0469089"><ele>76.8</ele><time>2026-05-03T08:23:01.672Z</time></trkpt><trkpt lat="45.2283309" lon="9.0468909"><ele>76.2</ele><time>2026-05-03T08:23:03.686Z</time></trkpt><trkpt lat="45.2282318" lon="9.0468631"><ele>75.6</ele><time>2026-05-03T08:23:05.767Z</time></trkpt><trkpt lat="45.2281249" lon="9.046845"><ele>75.0</ele><time>2026-05-03T08:23:07.679Z</time></trkpt><trkpt lat="45.2280277" lon="9.0468159"><ele>74.8</ele><time>2026-05-03T08:23:09.683Z</time></trkpt><trkpt lat="45.2279264" lon="9.0467852"><ele>74.6</ele><time>2026-05-03T08:23:11.679Z</time></trkpt><trkpt lat="45.2278201" lon="9.0467507"><ele>74.4</ele><time>2026-05-03T08:23:13.684Z</time></trkpt><trkpt lat="45.2277104" lon="9.0467204"><ele>74.2</ele><time>2026-05-03T08:23:15.682Z</time></trkpt><trkpt lat="45.2276097" lon="9.0466857"><ele>74.0</ele><time>2026-05-03T08:23:17.682Z</time></trkpt><trkpt lat="45.2275061" lon="9.0466529"><ele>74.0</ele><time>2026-05-03T08:23:19.678Z</time></trkpt><trkpt lat="45.2274015" lon="9.0466207"><ele>74.0</ele><time>2026-05-03T08:23:21.682Z</time></trkpt><trkpt lat="45.2273032" lon="9.0465812"><ele>74.0</ele><time>2026-05-03T08:23:23.682Z</time></trkpt><trkpt lat="45.2272206" lon="9.0465067"><ele>74.0</ele><time>2026-05-03T08:23:25.68Z</time></trkpt><trkpt lat="45.2271744" lon="9.046382"><ele>74.0</ele><time>2026-05-03T08:23:27.679Z</time></trkpt><trkpt lat="45.2271453" lon="9.046249"><ele>74.0</ele><time>2026-05-03T08:23:29.679Z</time></trkpt><trkpt lat="45.2271299" lon="9.0461058"><ele>74.0</ele><time>2026-05-03T08:23:31.76Z</time></trkpt><trkpt lat="45.2271181" lon="9.04596"><ele>74.0</ele><time>2026-05-03T08:23:33.7Z</time></trkpt><trkpt lat="45.2271112" lon="9.0458237"><ele>74.0</ele><time>2026-05-03T08:23:35.681Z</time></trkpt><trkpt lat="45.2270913" lon="9.0457018"><ele>74.0</ele><time>2026-05-03T08:23:37.67Z</time></trkpt><trkpt lat="45.2270216" lon="9.0456793"><ele>74.0</ele><time>2026-05-03T08:23:39.676Z</time></trkpt><trkpt lat="45.226931" lon="9.045709"><ele>74.0</ele><time>2026-05-03T08:23:41.681Z</time></trkpt><trkpt lat="45.2268377" lon="9.0457787"><ele>74.0</ele><time>2026-05-03T08:23:43.676Z</time></trkpt><trkpt lat="45.2267832" lon="9.0458973"><ele>74.0</ele><time>2026-05-03T08:23:45.675Z</time></trkpt><trkpt lat="45.226788" lon="9.0460565"><ele>74.0</ele><time>2026-05-03T08:23:47.692Z</time></trkpt><trkpt lat="45.2268016" lon="9.0461599"><ele>74.0</ele><time>2026-05-03T08:23:48.687Z</time></trkpt><trkpt lat="45.2268078" lon="9.0462657"><ele>74.0</ele><time>2026-05-03T08:23:49.682Z</time></trkpt><trkpt lat="45.2268109" lon="9.0463688"><ele>74.0</ele><time>2026-05-03T08:23:50.68Z</time></trkpt><trkpt lat="45.2268065" lon="9.0464632"><ele>74.0</ele><time>2026-05-03T08:23:51.679Z</time></trkpt><trkpt lat="45.226783" lon="9.0465476"><ele>74.0</ele><time>2026-05-03T08:23:52.692Z</time></trkpt><trkpt lat="45.2267292" lon="9.04662"><ele>74.0</ele><time>2026-05-03T08:23:53.676Z</time></trkpt><trkpt lat="45.2266703" lon="9.0466722"><ele>74.0</ele><time>2026-05-03T08:23:54.676Z</time></trkpt><trkpt lat="45.2266099" lon="9.0467173"><ele>73.42857142857143</ele><time>2026-05-03T08:23:55.676Z</time></trkpt><trkpt lat="45.2265485" lon="9.0467574"><ele>72.85714285714286</ele><time>2026-05-03T08:23:56.674Z</time></trkpt><trkpt lat="45.2264777" lon="9.046775"><ele>72.28571428571428</ele><time>2026-05-03T08:23:57.704Z</time></trkpt><trkpt lat="45.2264053" lon="9.0467843"><ele>71.71428571428572</ele><time>2026-05-03T08:23:58.752Z</time></trkpt><trkpt lat="45.2263317" lon="9.0467925"><ele>71.14285714285714</ele><time>2026-05-03T08:23:59.681Z</time></trkpt><trkpt lat="45.2262634" lon="9.0468046"><ele>70.57142857142857</ele><time>2026-05-03T08:24:00.678Z</time></trkpt><trkpt lat="45.226196" lon="9.0468093"><ele>70.0</ele><time>2026-05-03T08:24:01.683Z</time></trkpt><trkpt lat="45.2260754" lon="9.0468206"><ele>69.0</ele><time>2026-05-03T08:24:03.677Z</time></trkpt><trkpt lat="45.2259594" lon="9.0468432"><ele>68.0</ele><time>2026-05-03T08:24:05.678Z</time></trkpt><trkpt lat="45.2258488" lon="9.0468529"><ele>67.0</ele><time>2026-05-03T08:24:07.676Z</time></trkpt><trkpt lat="45.2257483" lon="9.0468717"><ele>66.0</ele><time>2026-05-03T08:24:09.755Z</time></trkpt><trkpt lat="45.2256582" lon="9.0468864"><ele>65.0</ele><time>2026-05-03T08:24:11.754Z</time></trkpt><trkpt lat="45.2255729" lon="9.0469036"><ele>65.0</ele><time>2026-05-03T08:24:13.69Z</time></trkpt><trkpt lat="45.2254893" lon="9.0469219"><ele>65.0</ele><time>2026-05-03T08:24:15.68Z</time></trkpt><trkpt lat="45.2254211" lon="9.0469576"><ele>65.0</ele><time>2026-05-03T08:24:17.684Z</time></trkpt><trkpt lat="45.2253819" lon="9.0470291"><ele>65.0</ele><time>2026-05-03T08:24:19.686Z</time></trkpt><trkpt lat="45.2253144" lon="9.0471125"><ele>65.0</ele><time>2026-05-03T08:24:22.682Z</time></trkpt><trkpt lat="45.2252612" lon="9.0471968"><ele>65.0</ele><time>2026-05-03T08:24:25.68Z</time></trkpt><trkpt lat="45.2252128" lon="9.047261"><ele>65.0</ele><time>2026-05-03T08:24:27.672Z</time></trkpt><trkpt lat="45.2251587" lon="9.0473645"><ele>65.0</ele><time>2026-05-03T08:24:29.675Z</time></trkpt><trkpt lat="45.2251038" lon="9.0474598"><ele>65.0</ele><time>2026-05-03T08:24:31.678Z</time></trkpt><trkpt lat="45.2250473" lon="9.0475415"><ele>65.0</ele><time>2026-05-03T08:24:33.684Z</time></trkpt><trkpt lat="45.2249911" lon="9.0476228"><ele>65.0</ele><time>2026-05-03T08:24:35.756Z</time></trkpt><trkpt lat="45.2249388" lon="9.0476969"><ele>65.0</ele><time>2026-05-03T08:24:37.693Z</time></trkpt><trkpt lat="45.2248886" lon="9.0477864"><ele>65.0</ele><time>2026-05-03T08:24:39.685Z</time></trkpt><trkpt lat="45.2248231" lon="9.0478868"><ele>65.0</ele><time>2026-05-03T08:24:41.682Z</time></trkpt><trkpt lat="45.2247628" lon="9.0479928"><ele>65.0</ele><time>2026-05-03T08:24:43.686Z</time></trkpt><trkpt lat="45.2247155" lon="9.04809"><ele>65.0</ele><time>2026-05-03T08:24:45.684Z</time></trkpt><trkpt lat="45.2246787" lon="9.0481871"><ele>65.0</ele><time>2026-05-03T08:24:47.683Z</time></trkpt><trkpt lat="45.2246447" lon="9.0482817"><ele>65.0</ele><time>2026-05-03T08:24:49.677Z</time></trkpt><trkpt lat="45.2246263" lon="9.0483841"><ele>65.0</ele><time>2026-05-03T08:24:51.68Z</time></trkpt><trkpt lat="45.2246526" lon="9.0484968"><ele>65.0</ele><time>2026-05-03T08:24:53.679Z</time></trkpt><trkpt lat="45.2246823" lon="9.0486116"><ele>65.0</ele><time>2026-05-03T08:24:55.687Z</time></trkpt><trkpt lat="45.2246974" lon="9.0487216"><ele>65.0</ele><time>2026-05-03T08:24:57.678Z</time></trkpt><trkpt lat="45.2247062" lon="9.0488343"><ele>65.0</ele><time>2026-05-03T08:24:59.683Z</time></trkpt><trkpt lat="45.2247105" lon="9.0489464"><ele>65.0</ele><time>2026-05-03T08:25:01.679Z</time></trkpt><trkpt lat="45.2247084" lon="9.0490848"><ele>65.0</ele><time>2026-05-03T08:25:03.682Z</time></trkpt><trkpt lat="45.2247172" lon="9.0492054"><ele>65.0</ele><time>2026-05-03T08:25:05.674Z</time></trkpt><trkpt lat="45.2247055" lon="9.0493269"><ele>65.0</ele><time>2026-05-03T08:25:07.682Z</time></trkpt><trkpt lat="45.2247054" lon="9.0494526"><ele>65.0</ele><time>2026-05-03T08:25:09.674Z</time></trkpt><trkpt lat="45.2246907" lon="9.0495966"><ele>65.0</ele><time>2026-05-03T08:25:11.677Z</time></trkpt><trkpt lat="45.2246693" lon="9.0497221"><ele>65.0</ele><time>2026-05-03T08:25:13.681Z</time></trkpt><trkpt lat="45.2246416" lon="9.049837"><ele>65.0</ele><time>2026-05-03T08:25:15.685Z</time></trkpt><trkpt lat="45.224605" lon="9.049937"><ele>65.0</ele><time>2026-05-03T08:25:17.681Z</time></trkpt><trkpt lat="45.224579" lon="9.0500785"><ele>65.0</ele><time>2026-05-03T08:25:19.687Z</time></trkpt><trkpt lat="45.224561" lon="9.0501735"><ele>65.0</ele><time>2026-05-03T08:25:21.681Z</time></trkpt><trkpt lat="45.224524" lon="9.0502827"><ele>65.0</ele><time>2026-05-03T08:25:23.681Z</time></trkpt><trkpt lat="45.2244918" lon="9.0503759"><ele>65.16666666666667</ele><time>2026-05-03T08:25:25.68Z</time></trkpt><trkpt lat="45.2244713" lon="9.0505188"><ele>65.33333333333334</ele><time>2026-05-03T08:25:27.678Z</time></trkpt><trkpt lat="45.2244609" lon="9.0506526"><ele>65.5</ele><time>2026-05-03T08:25:29.676Z</time></trkpt><trkpt lat="45.2244392" lon="9.050751"><ele>65.66666666666667</ele><time>2026-05-03T08:25:31.686Z</time></trkpt><trkpt lat="45.224415" lon="9.0508447"><ele>65.83333333333333</ele><time>2026-05-03T08:25:33.678Z</time></trkpt><trkpt lat="45.2243918" lon="9.0509492"><ele>66.0</ele><time>2026-05-03T08:25:35.685Z</time></trkpt><trkpt lat="45.2243576" lon="9.0510598"><ele>66.0</ele><time>2026-05-03T08:25:37.681Z</time></trkpt><trkpt lat="45.2243058" lon="9.0511623"><ele>66.0</ele><time>2026-05-03T08:25:39.675Z</time></trkpt><trkpt lat="45.2242411" lon="9.051218"><ele>66.0</ele><time>2026-05-03T08:25:41.673Z</time></trkpt><trkpt lat="45.2241713" lon="9.0512411"><ele>66.0</ele><time>2026-05-03T08:25:47.694Z</time></trkpt><trkpt lat="45.2241293" lon="9.0513136"><ele>66.0</ele><time>2026-05-03T08:25:50.671Z</time></trkpt><trkpt lat="45.2240729" lon="9.0513824"><ele>66.0</ele><time>2026-05-03T08:25:54.677Z</time></trkpt><trkpt lat="45.2241455" lon="9.0514338"><ele>66.0</ele><time>2026-05-03T08:26:01.683Z</time></trkpt><trkpt lat="45.2242061" lon="9.0514877"><ele>66.0</ele><time>2026-05-03T08:26:05.679Z</time></trkpt><trkpt lat="45.2242141" lon="9.0516037"><ele>66.0</ele><time>2026-05-03T08:26:08.677Z</time></trkpt><trkpt lat="45.2242644" lon="9.0517088"><ele>66.0</ele><time>2026-05-03T08:26:12.683Z</time></trkpt><trkpt lat="45.2242787" lon="9.0518108"><ele>66.0</ele><time>2026-05-03T08:26:15.68Z</time></trkpt><trkpt lat="45.2243025" lon="9.0519202"><ele>66.0</ele><time>2026-05-03T08:26:18.681Z</time></trkpt><trkpt lat="45.2243179" lon="9.0520452"><ele>65.66666666666667</ele><time>2026-05-03T08:26:21.748Z</time></trkpt><trkpt lat="45.2243202" lon="9.052169"><ele>65.33333333333333</ele><time>2026-05-03T08:26:24.684Z</time></trkpt><trkpt lat="45.2243393" lon="9.0522578"><ele>65.0</ele><time>2026-05-03T08:26:26.683Z</time></trkpt><trkpt lat="45.2243601" lon="9.0523878"><ele>64.66666666666666</ele><time>2026-05-03T08:26:29.678Z</time></trkpt><trkpt lat="45.2243854" lon="9.0525087"><ele>64.33333333333333</ele><time>2026-05-03T08:26:32.684Z</time></trkpt><trkpt lat="45.224403" lon="9.0525983"><ele>64.0</ele><time>2026-05-03T08:26:34.678Z</time></trkpt><trkpt lat="45.2244197" lon="9.0526867"><ele>63.666666666666664</ele><time>2026-05-03T08:26:36.679Z</time></trkpt><trkpt lat="45.2244431" lon="9.052792"><ele>63.33333333333333</ele><time>2026-05-03T08:26:38.682Z</time></trkpt><trkpt lat="45.2244597" lon="9.0529104"><ele>63.0</ele><time>2026-05-03T08:26:41.681Z</time></trkpt><trkpt lat="45.2244733" lon="9.0530313"><ele>62.66666666666667</ele><time>2026-05-03T08:26:44.678Z</time></trkpt><trkpt lat="45.224477" lon="9.05316"><ele>62.333333333333336</ele><time>2026-05-03T08:26:47.683Z</time></trkpt><trkpt lat="45.2244864" lon="9.0532983"><ele>62.0</ele><time>2026-05-03T08:26:50.674Z</time></trkpt><trkpt lat="45.2244923" lon="9.0533908"><ele>62.0</ele><time>2026-05-03T08:26:52.679Z</time></trkpt><trkpt lat="45.2244952" lon="9.0534878"><ele>62.00000000000001</ele><time>2026-05-03T08:26:54.677Z</time></trkpt><trkpt lat="45.2244946" lon="9.0535862"><ele>62.0</ele><time>2026-05-03T08:26:56.687Z</time></trkpt><trkpt lat="45.2245006" lon="9.0536873"><ele>62.0</ele><time>2026-05-03T08:26:58.676Z</time></trkpt><trkpt lat="45.2245028" lon="9.053782"><ele>62.00000000000001</ele><time>2026-05-03T08:27:00.765Z</time></trkpt><trkpt lat="45.2245053" lon="9.0538779"><ele>62.0</ele><time>2026-05-03T08:27:02.676Z</time></trkpt><trkpt lat="45.2245111" lon="9.0539791"><ele>62.0</ele><time>2026-05-03T08:27:04.677Z</time></trkpt><trkpt lat="45.2245106" lon="9.0540733"><ele>61.833333333333336</ele><time>2026-05-03T08:27:06.678Z</time></trkpt><trkpt lat="45.2245123" lon="9.0541802"><ele>61.66666666666667</ele><time>2026-05-03T08:27:08.683Z</time></trkpt><trkpt lat="45.2245206" lon="9.0542722"><ele>61.5</ele><time>2026-05-03T08:27:10.68Z</time></trkpt><trkpt lat="45.2245462" lon="9.0544001"><ele>61.33333333333333</ele><time>2026-05-03T08:27:13.676Z</time></trkpt><trkpt lat="45.2246158" lon="9.054475"><ele>61.166666666666664</ele><time>2026-05-03T08:27:16.684Z</time></trkpt><trkpt lat="45.2247075" lon="9.0544393"><ele>61.0</ele><time>2026-05-03T08:27:19.692Z</time></trkpt><trkpt lat="45.2247824" lon="9.0544042"><ele>60.99999999999999</ele><time>2026-05-03T08:27:21.678Z</time></trkpt><trkpt lat="45.224847" lon="9.0543408"><ele>61.0</ele><time>2026-05-03T08:27:23.671Z</time></trkpt><trkpt lat="45.2249137" lon="9.054276"><ele>61.0</ele><time>2026-05-03T08:27:25.675Z</time></trkpt><trkpt lat="45.2249841" lon="9.0542019"><ele>61.0</ele><time>2026-05-03T08:27:27.677Z</time></trkpt><trkpt lat="45.2250571" lon="9.0541285"><ele>60.99999999999999</ele><time>2026-05-03T08:27:29.676Z</time></trkpt><trkpt lat="45.225131" lon="9.0540626"><ele>61.0</ele><time>2026-05-03T08:27:31.681Z</time></trkpt><trkpt lat="45.2252101" lon="9.053987"><ele>60.99999999999999</ele><time>2026-05-03T08:27:33.681Z</time></trkpt><trkpt lat="45.2252882" lon="9.0539119"><ele>61.0</ele><time>2026-05-03T08:27:35.687Z</time></trkpt><trkpt lat="45.2253613" lon="9.0538477"><ele>61.0</ele><time>2026-05-03T08:27:37.681Z</time></trkpt><trkpt lat="45.2254392" lon="9.0537767"><ele>61.0</ele><time>2026-05-03T08:27:39.679Z</time></trkpt><trkpt lat="45.2255099" lon="9.0537082"><ele>60.99999999999999</ele><time>2026-05-03T08:27:41.673Z</time></trkpt><trkpt lat="45.2255871" lon="9.0536428"><ele>61.0</ele><time>2026-05-03T08:27:43.676Z</time></trkpt><trkpt lat="45.2256611" lon="9.0535758"><ele>61.199999999999996</ele><time>2026-05-03T08:27:45.686Z</time></trkpt><trkpt lat="45.225735" lon="9.0535141"><ele>61.39999999999999</ele><time>2026-05-03T08:27:47.68Z</time></trkpt><trkpt lat="45.2258112" lon="9.0534437"><ele>61.6</ele><time>2026-05-03T08:27:49.676Z</time></trkpt><trkpt lat="45.22589" lon="9.0533739"><ele>61.8</ele><time>2026-05-03T08:27:51.751Z</time></trkpt><trkpt lat="45.2259749" lon="9.0533174"><ele>62.0</ele><time>2026-05-03T08:27:53.756Z</time></trkpt><trkpt lat="45.2260626" lon="9.0532801"><ele>62.2</ele><time>2026-05-03T08:27:55.679Z</time></trkpt><trkpt lat="45.2261617" lon="9.0532681"><ele>62.400000000000006</ele><time>2026-05-03T08:27:57.679Z</time></trkpt><trkpt lat="45.2262518" lon="9.0532526"><ele>62.599999999999994</ele><time>2026-05-03T08:27:59.681Z</time></trkpt><trkpt lat="45.2263403" lon="9.0532311"><ele>62.8</ele><time>2026-05-03T08:28:01.684Z</time></trkpt><trkpt lat="45.2264359" lon="9.0532178"><ele>63.0</ele><time>2026-05-03T08:28:03.678Z</time></trkpt><trkpt lat="45.2265276" lon="9.0532012"><ele>63.599999999999994</ele><time>2026-05-03T08:28:05.671Z</time></trkpt><trkpt lat="45.2266136" lon="9.0531878"><ele>64.19999999999999</ele><time>2026-05-03T08:28:07.676Z</time></trkpt><trkpt lat="45.2266997" lon="9.0531732"><ele>64.8</ele><time>2026-05-03T08:28:09.683Z</time></trkpt><trkpt lat="45.226789" lon="9.0531372"><ele>65.39999999999999</ele><time>2026-05-03T08:28:11.677Z</time></trkpt><trkpt lat="45.226881" lon="9.0530738"><ele>66.0</ele><time>2026-05-03T08:28:13.678Z</time></trkpt><trkpt lat="45.2269653" lon="9.0530163"><ele>66.0</ele><time>2026-05-03T08:28:15.683Z</time></trkpt><trkpt lat="45.2270516" lon="9.0529754"><ele>66.0</ele><time>2026-05-03T08:28:17.679Z</time></trkpt><trkpt lat="45.2271446" lon="9.0529563"><ele>66.0</ele><time>2026-05-03T08:28:19.683Z</time></trkpt><trkpt lat="45.2272422" lon="9.052969"><ele>66.0</ele><time>2026-05-03T08:28:21.693Z</time></trkpt><trkpt lat="45.2273227" lon="9.0529998"><ele>66.0</ele><time>2026-05-03T08:28:23.685Z</time></trkpt><trkpt lat="45.2274111" lon="9.053034"><ele>66.83333333333333</ele><time>2026-05-03T08:28:25.68Z</time></trkpt><trkpt lat="45.2274996" lon="9.0530661"><ele>67.66666666666667</ele><time>2026-05-03T08:28:27.682Z</time></trkpt><trkpt lat="45.227578" lon="9.0531022"><ele>68.5</ele><time>2026-05-03T08:28:29.686Z</time></trkpt><trkpt lat="45.2276578" lon="9.0531245"><ele>69.33333333333334</ele><time>2026-05-03T08:28:31.676Z</time></trkpt><trkpt lat="45.2277277" lon="9.0531831"><ele>70.16666666666667</ele><time>2026-05-03T08:28:33.747Z</time></trkpt><trkpt lat="45.2277939" lon="9.0532453"><ele>71.0</ele><time>2026-05-03T08:28:35.69Z</time></trkpt><trkpt lat="45.2278659" lon="9.0533137"><ele>72.0</ele><time>2026-05-03T08:28:37.686Z</time></trkpt><trkpt lat="45.2279275" lon="9.0533887"><ele>73.0</ele><time>2026-05-03T08:28:39.677Z</time></trkpt><trkpt lat="45.2280022" lon="9.0534611"><ele>74.0</ele><time>2026-05-03T08:28:41.678Z</time></trkpt><trkpt lat="45.2280826" lon="9.0535208"><ele>75.0</ele><time>2026-05-03T08:28:43.69Z</time></trkpt><trkpt lat="45.228161" lon="9.0535446"><ele>76.0</ele><time>2026-05-03T08:28:45.678Z</time></trkpt><trkpt lat="45.2282515" lon="9.0535573"><ele>77.0</ele><time>2026-05-03T08:28:47.68Z</time></trkpt><trkpt lat="45.2283494" lon="9.0535497"><ele>77.33333333333334</ele><time>2026-05-03T08:28:49.678Z</time></trkpt><trkpt lat="45.2284206" lon="9.0535416"><ele>77.66666666666667</ele><time>2026-05-03T08:28:51.684Z</time></trkpt><trkpt lat="45.2284976" lon="9.053566"><ele>78.0</ele><time>2026-05-03T08:28:54.676Z</time></trkpt><trkpt lat="45.2284932" lon="9.0536689"><ele>78.33333333333333</ele><time>2026-05-03T08:28:57.68Z</time></trkpt><trkpt lat="45.2284646" lon="9.0537501"><ele>78.66666666666666</ele><time>2026-05-03T08:28:59.679Z</time></trkpt><trkpt lat="45.2284145" lon="9.0538446"><ele>79.0</ele><time>2026-05-03T08:29:02.68Z</time></trkpt><trkpt lat="45.2283541" lon="9.0539356"><ele>79.0</ele><time>2026-05-03T08:29:05.687Z</time></trkpt><trkpt lat="45.2282829" lon="9.053965"><ele>79.0</ele><time>2026-05-03T08:29:07.677Z</time></trkpt><trkpt lat="45.2282047" lon="9.0539426"><ele>79.0</ele><time>2026-05-03T08:29:09.687Z</time></trkpt><trkpt lat="45.2281339" lon="9.0539037"><ele>79.0</ele><time>2026-05-03T08:29:11.688Z</time></trkpt><trkpt lat="45.2280443" lon="9.0538653"><ele>79.0</ele><time>2026-05-03T08:29:14.678Z</time></trkpt><trkpt lat="45.2279638" lon="9.0538151"><ele>79.0</ele><time>2026-05-03T08:29:17.682Z</time></trkpt><trkpt lat="45.2278827" lon="9.0537651"><ele>78.66666666666666</ele><time>2026-05-03T08:29:20.678Z</time></trkpt><trkpt lat="45.2278178" lon="9.0537234"><ele>78.33333333333333</ele><time>2026-05-03T08:29:22.676Z</time></trkpt><trkpt lat="45.2277471" lon="9.0536837"><ele>78.0</ele><time>2026-05-03T08:29:24.678Z</time></trkpt><trkpt lat="45.2276821" lon="9.0536484"><ele>77.66666666666667</ele><time>2026-05-03T08:29:26.694Z</time></trkpt><trkpt lat="45.2276041" lon="9.0536141"><ele>77.33333333333334</ele><time>2026-05-03T08:29:28.675Z</time></trkpt><trkpt lat="45.2275315" lon="9.0535749"><ele>77.0</ele><time>2026-05-03T08:29:30.676Z</time></trkpt><trkpt lat="45.2274535" lon="9.0535465"><ele>77.0</ele><time>2026-05-03T08:29:32.69Z</time></trkpt><trkpt lat="45.2273788" lon="9.0535431"><ele>77.0</ele><time>2026-05-03T08:29:34.673Z</time></trkpt><trkpt lat="45.2273061" lon="9.0535969"><ele>77.0</ele><time>2026-05-03T08:29:36.678Z</time></trkpt><trkpt lat="45.2272626" lon="9.0536776"><ele>77.0</ele><time>2026-05-03T08:29:38.678Z</time></trkpt><trkpt lat="45.227215" lon="9.0537912"><ele>77.0</ele><time>2026-05-03T08:29:40.681Z</time></trkpt><trkpt lat="45.2271762" lon="9.053906"><ele>77.0</ele><time>2026-05-03T08:29:42.685Z</time></trkpt><trkpt lat="45.2271297" lon="9.0540145"><ele>76.66666666666667</ele><time>2026-05-03T08:29:44.676Z</time></trkpt><trkpt lat="45.2270884" lon="9.0541124"><ele>76.33333333333334</ele><time>2026-05-03T08:29:46.752Z</time></trkpt><trkpt lat="45.2270579" lon="9.0542252"><ele>76.0</ele><time>2026-05-03T08:29:48.687Z</time></trkpt><trkpt lat="45.227028" lon="9.0543419"><ele>75.66666666666667</ele><time>2026-05-03T08:29:50.672Z</time></trkpt><trkpt lat="45.2269877" lon="9.05445"><ele>75.33333333333333</ele><time>2026-05-03T08:29:52.682Z</time></trkpt><trkpt lat="45.2269519" lon="9.0545551"><ele>75.0</ele><time>2026-05-03T08:29:54.682Z</time></trkpt><trkpt lat="45.2269105" lon="9.0546604"><ele>75.0</ele><time>2026-05-03T08:29:56.687Z</time></trkpt><trkpt lat="45.2268764" lon="9.0547661"><ele>75.0</ele><time>2026-05-03T08:29:58.674Z</time></trkpt><trkpt lat="45.2268372" lon="9.0548745"><ele>75.0</ele><time>2026-05-03T08:30:00.671Z</time></trkpt><trkpt lat="45.226797" lon="9.0549906"><ele>75.0</ele><time>2026-05-03T08:30:02.677Z</time></trkpt><trkpt lat="45.2267539" lon="9.0551051"><ele>75.0</ele><time>2026-05-03T08:30:04.682Z</time></trkpt><trkpt lat="45.2267171" lon="9.055206"><ele>75.0</ele><time>2026-05-03T08:30:06.676Z</time></trkpt><trkpt lat="45.2266851" lon="9.05529"><ele>75.16666666666667</ele><time>2026-05-03T08:30:08.682Z</time></trkpt><trkpt lat="45.226651" lon="9.0553851"><ele>75.33333333333333</ele><time>2026-05-03T08:30:10.68Z</time></trkpt><trkpt lat="45.2266027" lon="9.0555281"><ele>75.5</ele><time>2026-05-03T08:30:13.689Z</time></trkpt><trkpt lat="45.2265659" lon="9.0556351"><ele>75.66666666666666</ele><time>2026-05-03T08:30:15.675Z</time></trkpt><trkpt lat="45.2265278" lon="9.0557333"><ele>75.83333333333333</ele><time>2026-05-03T08:30:17.685Z</time></trkpt><trkpt lat="45.2264838" lon="9.0558406"><ele>76.0</ele><time>2026-05-03T08:30:19.682Z</time></trkpt><trkpt lat="45.2264484" lon="9.0559353"><ele>75.66666666666666</ele><time>2026-05-03T08:30:21.676Z</time></trkpt><trkpt lat="45.2264118" lon="9.0560275"><ele>75.33333333333333</ele><time>2026-05-03T08:30:23.688Z</time></trkpt><trkpt lat="45.2263688" lon="9.0561354"><ele>75.0</ele><time>2026-05-03T08:30:25.679Z</time></trkpt><trkpt lat="45.226334" lon="9.0562265"><ele>74.66666666666667</ele><time>2026-05-03T08:30:27.669Z</time></trkpt><trkpt lat="45.2262952" lon="9.0563217"><ele>74.33333333333334</ele><time>2026-05-03T08:30:29.681Z</time></trkpt><trkpt lat="45.226255" lon="9.056429"><ele>74.0</ele><time>2026-05-03T08:30:31.679Z</time></trkpt><trkpt lat="45.226215" lon="9.056534"><ele>74.5</ele><time>2026-05-03T08:30:33.685Z</time></trkpt><trkpt lat="45.2261484" lon="9.0566405"><ele>75.0</ele><time>2026-05-03T08:30:35.689Z</time></trkpt><trkpt lat="45.2260781" lon="9.0567035"><ele>75.5</ele><time>2026-05-03T08:30:37.673Z</time></trkpt><trkpt lat="45.2259914" lon="9.0567523"><ele>76.0</ele><time>2026-05-03T08:30:40.68Z</time></trkpt><trkpt lat="45.2259319" lon="9.0567986"><ele>76.5</ele><time>2026-05-03T08:30:42.679Z</time></trkpt><trkpt lat="45.2258708" lon="9.0568479"><ele>77.0</ele><time>2026-05-03T08:30:44.677Z</time></trkpt><trkpt lat="45.2258221" lon="9.0569283"><ele>77.0</ele><time>2026-05-03T08:30:46.681Z</time></trkpt><trkpt lat="45.2257819" lon="9.0570087"><ele>77.0</ele><time>2026-05-03T08:30:48.68Z</time></trkpt><trkpt lat="45.2257335" lon="9.057092"><ele>77.0</ele><time>2026-05-03T08:30:50.679Z</time></trkpt><trkpt lat="45.2256911" lon="9.057164"><ele>77.0</ele><time>2026-05-03T08:30:52.677Z</time></trkpt><trkpt lat="45.2256457" lon="9.0572521"><ele>77.0</ele><time>2026-05-03T08:30:54.676Z</time></trkpt><trkpt lat="45.2256028" lon="9.0573536"><ele>77.0</ele><time>2026-05-03T08:30:56.677Z</time></trkpt><trkpt lat="45.2255394" lon="9.0574875"><ele>76.66666666666667</ele><time>2026-05-03T08:30:59.685Z</time></trkpt><trkpt lat="45.2254953" lon="9.0576042"><ele>76.33333333333334</ele><time>2026-05-03T08:31:01.678Z</time></trkpt><trkpt lat="45.2254599" lon="9.0577099"><ele>76.0</ele><time>2026-05-03T08:31:03.679Z</time></trkpt><trkpt lat="45.2254172" lon="9.0578102"><ele>75.66666666666667</ele><time>2026-05-03T08:31:05.759Z</time></trkpt><trkpt lat="45.2253722" lon="9.0579022"><ele>75.33333333333333</ele><time>2026-05-03T08:31:07.679Z</time></trkpt><trkpt lat="45.225324" lon="9.0579902"><ele>75.0</ele><time>2026-05-03T08:31:09.676Z</time></trkpt><trkpt lat="45.2252692" lon="9.0581037"><ele>74.99999999999999</ele><time>2026-05-03T08:31:11.688Z</time></trkpt><trkpt lat="45.2252237" lon="9.0581778"><ele>75.0</ele><time>2026-05-03T08:31:12.681Z</time></trkpt><trkpt lat="45.2251762" lon="9.0582511"><ele>75.0</ele><time>2026-05-03T08:31:13.682Z</time></trkpt><trkpt lat="45.2251241" lon="9.0583264"><ele>75.0</ele><time>2026-05-03T08:31:14.675Z</time></trkpt><trkpt lat="45.2250696" lon="9.0584062"><ele>75.0</ele><time>2026-05-03T08:31:15.674Z</time></trkpt><trkpt lat="45.225019" lon="9.0584656"><ele>74.99999999999999</ele><time>2026-05-03T08:31:16.679Z</time></trkpt><trkpt lat="45.224973" lon="9.058531"><ele>75.0</ele><time>2026-05-03T08:31:17.681Z</time></trkpt><trkpt lat="45.2249228" lon="9.0585984"><ele>75.16666666666667</ele><time>2026-05-03T08:31:18.751Z</time></trkpt><trkpt lat="45.2248363" lon="9.0587114"><ele>75.33333333333333</ele><time>2026-05-03T08:31:20.682Z</time></trkpt><trkpt lat="45.2247568" lon="9.0587691"><ele>75.5</ele><time>2026-05-03T08:31:22.681Z</time></trkpt><trkpt lat="45.2247081" lon="9.0586918"><ele>75.66666666666666</ele><time>2026-05-03T08:31:25.681Z</time></trkpt><trkpt lat="45.2246984" lon="9.0585854"><ele>75.83333333333333</ele><time>2026-05-03T08:31:27.683Z</time></trkpt><trkpt lat="45.2247004" lon="9.0584917"><ele>76.0</ele><time>2026-05-03T08:31:29.671Z</time></trkpt><trkpt lat="45.2246749" lon="9.0583653"><ele>75.66666666666666</ele><time>2026-05-03T08:31:32.674Z</time></trkpt><trkpt lat="45.2246259" lon="9.0583046"><ele>75.33333333333333</ele><time>2026-05-03T08:31:34.681Z</time></trkpt><trkpt lat="45.2245454" lon="9.0583129"><ele>75.0</ele><time>2026-05-03T08:31:36.694Z</time></trkpt><trkpt lat="45.2244781" lon="9.0583304"><ele>74.66666666666667</ele><time>2026-05-03T08:31:38.677Z</time></trkpt><trkpt lat="45.2243979" lon="9.0583521"><ele>74.33333333333334</ele><time>2026-05-03T08:31:40.674Z</time></trkpt><trkpt lat="45.2242851" lon="9.0583791"><ele>74.0</ele><time>2026-05-03T08:31:42.688Z</time></trkpt><trkpt lat="45.2241759" lon="9.0583711"><ele>74.0</ele><time>2026-05-03T08:31:44.687Z</time></trkpt><trkpt lat="45.2240694" lon="9.0583663"><ele>74.0</ele><time>2026-05-03T08:31:46.676Z</time></trkpt><trkpt lat="45.2239615" lon="9.0583497"><ele>74.0</ele><time>2026-05-03T08:31:48.674Z</time></trkpt><trkpt lat="45.2238611" lon="9.0583282"><ele>74.0</ele><time>2026-05-03T08:31:50.675Z</time></trkpt><trkpt lat="45.2237761" lon="9.0583008"><ele>74.0</ele><time>2026-05-03T08:31:52.68Z</time></trkpt><trkpt lat="45.2236866" lon="9.0582785"><ele>73.16666666666667</ele><time>2026-05-03T08:31:54.682Z</time></trkpt><trkpt lat="45.2236008" lon="9.0582682"><ele>72.33333333333334</ele><time>2026-05-03T08:31:56.757Z</time></trkpt><trkpt lat="45.2235174" lon="9.0582491"><ele>71.5</ele><time>2026-05-03T08:31:58.686Z</time></trkpt><trkpt lat="45.2234408" lon="9.0582316"><ele>70.66666666666667</ele><time>2026-05-03T08:32:00.682Z</time></trkpt><trkpt lat="45.2233762" lon="9.0582037"><ele>69.83333333333333</ele><time>2026-05-03T08:32:02.673Z</time></trkpt><trkpt lat="45.2233089" lon="9.0581805"><ele>69.0</ele><time>2026-05-03T08:32:04.683Z</time></trkpt><trkpt lat="45.2232374" lon="9.0581495"><ele>69.0</ele><time>2026-05-03T08:32:06.68Z</time></trkpt><trkpt lat="45.2231661" lon="9.0581218"><ele>69.0</ele><time>2026-05-03T08:32:08.683Z</time></trkpt><trkpt lat="45.2231028" lon="9.0580977"><ele>69.0</ele><time>2026-05-03T08:32:10.683Z</time></trkpt><trkpt lat="45.2230264" lon="9.0580975"><ele>69.0</ele><time>2026-05-03T08:32:12.672Z</time></trkpt><trkpt lat="45.2229558" lon="9.0581182"><ele>69.0</ele><time>2026-05-03T08:32:14.682Z</time></trkpt><trkpt lat="45.222909" lon="9.0581929"><ele>69.0</ele><time>2026-05-03T08:32:16.679Z</time></trkpt><trkpt lat="45.2228743" lon="9.0582745"><ele>69.0</ele><time>2026-05-03T08:32:18.675Z</time></trkpt><trkpt lat="45.2228386" lon="9.058385"><ele>69.28571428571429</ele><time>2026-05-03T08:32:20.679Z</time></trkpt><trkpt lat="45.2227988" lon="9.058481"><ele>69.57142857142858</ele><time>2026-05-03T08:32:22.751Z</time></trkpt><trkpt lat="45.2227676" lon="9.0585717"><ele>69.85714285714286</ele><time>2026-05-03T08:32:24.68Z</time></trkpt><trkpt lat="45.2227317" lon="9.0586595"><ele>70.14285714285714</ele><time>2026-05-03T08:32:26.679Z</time></trkpt><trkpt lat="45.2226929" lon="9.0587507"><ele>70.42857142857142</ele><time>2026-05-03T08:32:28.679Z</time></trkpt><trkpt lat="45.2226438" lon="9.0588372"><ele>70.71428571428571</ele><time>2026-05-03T08:32:30.678Z</time></trkpt><trkpt lat="45.2225909" lon="9.0588892"><ele>71.0</ele><time>2026-05-03T08:32:32.684Z</time></trkpt><trkpt lat="45.2225083" lon="9.0589373"><ele>71.0</ele><time>2026-05-03T08:32:35.678Z</time></trkpt><trkpt lat="45.2224441" lon="9.059004"><ele>71.0</ele><time>2026-05-03T08:32:37.669Z</time></trkpt><trkpt lat="45.2223806" lon="9.0590938"><ele>71.0</ele><time>2026-05-03T08:32:39.685Z</time></trkpt><trkpt lat="45.2223228" lon="9.0591794"><ele>71.0</ele><time>2026-05-03T08:32:41.687Z</time></trkpt><trkpt lat="45.2222711" lon="9.059247"><ele>71.0</ele><time>2026-05-03T08:32:43.679Z</time></trkpt><trkpt lat="45.2222071" lon="9.0593318"><ele>71.0</ele><time>2026-05-03T08:32:45.672Z</time></trkpt><trkpt lat="45.2221439" lon="9.0594054"><ele>71.16666666666667</ele><time>2026-05-03T08:32:47.674Z</time></trkpt><trkpt lat="45.2220801" lon="9.0594797"><ele>71.33333333333334</ele><time>2026-05-03T08:32:49.676Z</time></trkpt><trkpt lat="45.2220184" lon="9.0595546"><ele>71.5</ele><time>2026-05-03T08:32:51.677Z</time></trkpt><trkpt lat="45.221952" lon="9.0596219"><ele>71.66666666666667</ele><time>2026-05-03T08:32:53.682Z</time></trkpt><trkpt lat="45.2218962" lon="9.0596764"><ele>71.83333333333333</ele><time>2026-05-03T08:32:55.68Z</time></trkpt><trkpt lat="45.2218383" lon="9.0597421"><ele>72.0</ele><time>2026-05-03T08:32:57.669Z</time></trkpt><trkpt lat="45.2217802" lon="9.0598152"><ele>72.00000000000001</ele><time>2026-05-03T08:32:59.679Z</time></trkpt><trkpt lat="45.2217197" lon="9.0598719"><ele>72.0</ele><time>2026-05-03T08:33:01.679Z</time></trkpt><trkpt lat="45.221658" lon="9.0599419"><ele>72.0</ele><time>2026-05-03T08:33:03.679Z</time></trkpt><trkpt lat="45.2215986" lon="9.0600037"><ele>72.0</ele><time>2026-05-03T08:33:05.685Z</time></trkpt><trkpt lat="45.2215437" lon="9.0600655"><ele>72.0</ele><time>2026-05-03T08:33:07.679Z</time></trkpt><trkpt lat="45.2214829" lon="9.0601351"><ele>72.00000000000001</ele><time>2026-05-03T08:33:09.679Z</time></trkpt><trkpt lat="45.2214207" lon="9.0601965"><ele>72.0</ele><time>2026-05-03T08:33:11.678Z</time></trkpt><trkpt lat="45.2213659" lon="9.0602592"><ele>72.66666666666667</ele><time>2026-05-03T08:33:13.677Z</time></trkpt><trkpt lat="45.2213061" lon="9.0603189"><ele>73.33333333333333</ele><time>2026-05-03T08:33:15.677Z</time></trkpt><trkpt lat="45.2212444" lon="9.0603956"><ele>74.0</ele><time>2026-05-03T08:33:17.695Z</time></trkpt><trkpt lat="45.2211833" lon="9.0604497"><ele>74.66666666666666</ele><time>2026-05-03T08:33:19.696Z</time></trkpt><trkpt lat="45.2211323" lon="9.0605115"><ele>75.33333333333333</ele><time>2026-05-03T08:33:21.682Z</time></trkpt><trkpt lat="45.2210744" lon="9.0605798"><ele>76.0</ele><time>2026-05-03T08:33:23.673Z</time></trkpt><trkpt lat="45.2210096" lon="9.0606499"><ele>76.0</ele><time>2026-05-03T08:33:25.744Z</time></trkpt><trkpt lat="45.220958" lon="9.0607133"><ele>76.0</ele><time>2026-05-03T08:33:27.707Z</time></trkpt><trkpt lat="45.2208934" lon="9.060774"><ele>76.0</ele><time>2026-05-03T08:33:29.673Z</time></trkpt><trkpt lat="45.2208393" lon="9.0608385"><ele>76.0</ele><time>2026-05-03T08:33:31.679Z</time></trkpt><trkpt lat="45.2207831" lon="9.0608996"><ele>76.0</ele><time>2026-05-03T08:33:33.69Z</time></trkpt><trkpt lat="45.2207284" lon="9.060962"><ele>76.0</ele><time>2026-05-03T08:33:35.672Z</time></trkpt><trkpt lat="45.2206651" lon="9.0610228"><ele>76.0</ele><time>2026-05-03T08:33:37.679Z</time></trkpt><trkpt lat="45.2206028" lon="9.0611012"><ele>76.14285714285714</ele><time>2026-05-03T08:33:39.679Z</time></trkpt><trkpt lat="45.2205354" lon="9.0611718"><ele>76.28571428571429</ele><time>2026-05-03T08:33:41.678Z</time></trkpt><trkpt lat="45.2204767" lon="9.061245"><ele>76.42857142857143</ele><time>2026-05-03T08:33:43.68Z</time></trkpt><trkpt lat="45.2204304" lon="9.0613152"><ele>76.57142857142857</ele><time>2026-05-03T08:33:45.693Z</time></trkpt><trkpt lat="45.2204485" lon="9.0614283"><ele>76.71428571428572</ele><time>2026-05-03T08:33:48.677Z</time></trkpt><trkpt lat="45.2204858" lon="9.0615005"><ele>76.85714285714286</ele><time>2026-05-03T08:33:50.683Z</time></trkpt><trkpt lat="45.2205264" lon="9.0615832"><ele>77.0</ele><time>2026-05-03T08:33:52.676Z</time></trkpt><trkpt lat="45.2205649" lon="9.0616683"><ele>77.0</ele><time>2026-05-03T08:33:54.676Z</time></trkpt><trkpt lat="45.2206109" lon="9.0617839"><ele>77.0</ele><time>2026-05-03T08:33:57.682Z</time></trkpt><trkpt lat="45.2206513" lon="9.0618623"><ele>77.0</ele><time>2026-05-03T08:33:59.681Z</time></trkpt><trkpt lat="45.2207007" lon="9.0619458"><ele>77.0</ele><time>2026-05-03T08:34:01.69Z</time></trkpt><trkpt lat="45.2207341" lon="9.0620542"><ele>77.0</ele><time>2026-05-03T08:34:03.678Z</time></trkpt><trkpt lat="45.2207779" lon="9.0621488"><ele>77.0</ele><time>2026-05-03T08:34:05.686Z</time></trkpt><trkpt lat="45.2208176" lon="9.0622462"><ele>77.0</ele><time>2026-05-03T08:34:07.675Z</time></trkpt><trkpt lat="45.2208634" lon="9.0623338"><ele>77.0</ele><time>2026-05-03T08:34:09.68Z</time></trkpt><trkpt lat="45.2209108" lon="9.0624227"><ele>77.0</ele><time>2026-05-03T08:34:11.685Z</time></trkpt><trkpt lat="45.2209608" lon="9.0625171"><ele>77.0</ele><time>2026-05-03T08:34:13.672Z</time></trkpt><trkpt lat="45.2210097" lon="9.0626135"><ele>77.0</ele><time>2026-05-03T08:34:15.672Z</time></trkpt><trkpt lat="45.2210535" lon="9.0627079"><ele>77.0</ele><time>2026-05-03T08:34:17.677Z</time></trkpt><trkpt lat="45.2211037" lon="9.0627993"><ele>77.16666666666667</ele><time>2026-05-03T08:34:19.681Z</time></trkpt><trkpt lat="45.22115" lon="9.0628989"><ele>77.33333333333334</ele><time>2026-05-03T08:34:21.684Z</time></trkpt><trkpt lat="45.2211993" lon="9.0629941"><ele>77.5</ele><time>2026-05-03T08:34:23.68Z</time></trkpt><trkpt lat="45.2212413" lon="9.0630922"><ele>77.66666666666667</ele><time>2026-05-03T08:34:25.683Z</time></trkpt><trkpt lat="45.2212767" lon="9.0631743"><ele>77.83333333333333</ele><time>2026-05-03T08:34:27.672Z</time></trkpt><trkpt lat="45.2212882" lon="9.0632652"><ele>78.0</ele><time>2026-05-03T08:34:29.68Z</time></trkpt><trkpt lat="45.2212586" lon="9.0633554"><ele>77.66666666666667</ele><time>2026-05-03T08:34:31.676Z</time></trkpt><trkpt lat="45.2211816" lon="9.0634334"><ele>77.33333333333333</ele><time>2026-05-03T08:34:34.675Z</time></trkpt><trkpt lat="45.221101" lon="9.0635121"><ele>77.0</ele><time>2026-05-03T08:34:37.675Z</time></trkpt><trkpt lat="45.2210368" lon="9.0635919"><ele>76.66666666666666</ele><time>2026-05-03T08:34:39.671Z</time></trkpt><trkpt lat="45.2209777" lon="9.0636592"><ele>76.33333333333333</ele><time>2026-05-03T08:34:41.668Z</time></trkpt><trkpt lat="45.2209122" lon="9.0637305"><ele>76.0</ele><time>2026-05-03T08:34:43.764Z</time></trkpt><trkpt lat="45.2208524" lon="9.0638042"><ele>76.0</ele><time>2026-05-03T08:34:45.678Z</time></trkpt><trkpt lat="45.2207895" lon="9.0638743"><ele>76.0</ele><time>2026-05-03T08:34:47.672Z</time></trkpt><trkpt lat="45.2207236" lon="9.0639403"><ele>76.0</ele><time>2026-05-03T08:34:49.68Z</time></trkpt><trkpt lat="45.2206528" lon="9.0640134"><ele>76.0</ele><time>2026-05-03T08:34:51.672Z</time></trkpt><trkpt lat="45.2205812" lon="9.0640833"><ele>76.0</ele><time>2026-05-03T08:34:53.676Z</time></trkpt><trkpt lat="45.2205087" lon="9.0641535"><ele>76.0</ele><time>2026-05-03T08:34:55.846Z</time></trkpt><trkpt lat="45.2204323" lon="9.0642108"><ele>76.0</ele><time>2026-05-03T08:34:57.683Z</time></trkpt><trkpt lat="45.220356" lon="9.0642659"><ele>76.0</ele><time>2026-05-03T08:34:59.674Z</time></trkpt><trkpt lat="45.2202779" lon="9.0643331"><ele>76.0</ele><time>2026-05-03T08:35:01.672Z</time></trkpt><trkpt lat="45.2202014" lon="9.0643917"><ele>76.0</ele><time>2026-05-03T08:35:03.678Z</time></trkpt><trkpt lat="45.2201383" lon="9.064444"><ele>76.0</ele><time>2026-05-03T08:35:05.682Z</time></trkpt><trkpt lat="45.2200758" lon="9.0644926"><ele>76.0</ele><time>2026-05-03T08:35:07.673Z</time></trkpt><trkpt lat="45.2200061" lon="9.0645585"><ele>76.0</ele><time>2026-05-03T08:35:09.681Z</time></trkpt><trkpt lat="45.2199356" lon="9.0646192"><ele>76.0</ele><time>2026-05-03T08:35:11.675Z</time></trkpt><trkpt lat="45.2198691" lon="9.0646788"><ele>76.0</ele><time>2026-05-03T08:35:13.686Z</time></trkpt><trkpt lat="45.2198093" lon="9.0647294"><ele>76.0</ele><time>2026-05-03T08:35:15.673Z</time></trkpt><trkpt lat="45.2197551" lon="9.0647774"><ele>76.0</ele><time>2026-05-03T08:35:17.675Z</time></trkpt><trkpt lat="45.2196916" lon="9.0648311"><ele>76.0</ele><time>2026-05-03T08:35:19.671Z</time></trkpt><trkpt lat="45.2196296" lon="9.0648876"><ele>76.0</ele><time>2026-05-03T08:35:21.671Z</time></trkpt><trkpt lat="45.2195657" lon="9.0649431"><ele>76.0</ele><time>2026-05-03T08:35:23.67Z</time></trkpt><trkpt lat="45.2195047" lon="9.0650097"><ele>76.0</ele><time>2026-05-03T08:35:25.681Z</time></trkpt><trkpt lat="45.2194342" lon="9.0650731"><ele>76.0</ele><time>2026-05-03T08:35:27.672Z</time></trkpt><trkpt lat="45.2193594" lon="9.065132"><ele>76.0</ele><time>2026-05-03T08:35:29.679Z</time></trkpt><trkpt lat="45.2192934" lon="9.0651891"><ele>76.0</ele><time>2026-05-03T08:35:31.668Z</time></trkpt><trkpt lat="45.2192361" lon="9.0652339"><ele>76.0</ele><time>2026-05-03T08:35:33.672Z</time></trkpt><trkpt lat="45.2191739" lon="9.0652698"><ele>76.0</ele><time>2026-05-03T08:35:35.678Z</time></trkpt><trkpt lat="45.2191163" lon="9.0653185"><ele>76.0</ele><time>2026-05-03T08:35:37.678Z</time></trkpt><trkpt lat="45.2190538" lon="9.0653713"><ele>76.0</ele><time>2026-05-03T08:35:39.674Z</time></trkpt><trkpt lat="45.2189925" lon="9.0654397"><ele>76.0</ele><time>2026-05-03T08:35:41.671Z</time></trkpt><trkpt lat="45.2189273" lon="9.0654936"><ele>76.0</ele><time>2026-05-03T08:35:43.67Z</time></trkpt><trkpt lat="45.2188593" lon="9.0655525"><ele>76.0</ele><time>2026-05-03T08:35:45.682Z</time></trkpt><trkpt lat="45.2187981" lon="9.0656153"><ele>76.0</ele><time>2026-05-03T08:35:47.682Z</time></trkpt><trkpt lat="45.2187361" lon="9.0656635"><ele>76.0</ele><time>2026-05-03T08:35:49.671Z</time></trkpt><trkpt lat="45.2186668" lon="9.0657273"><ele>76.0</ele><time>2026-05-03T08:35:51.673Z</time></trkpt><trkpt lat="45.2185994" lon="9.0657803"><ele>76.0</ele><time>2026-05-03T08:35:53.679Z</time></trkpt><trkpt lat="45.2185424" lon="9.0658246"><ele>76.0</ele><time>2026-05-03T08:35:55.672Z</time></trkpt><trkpt lat="45.2184831" lon="9.0658764"><ele>76.0</ele><time>2026-05-03T08:35:57.673Z</time></trkpt><trkpt lat="45.2184259" lon="9.0659324"><ele>76.0</ele><time>2026-05-03T08:35:59.681Z</time></trkpt><trkpt lat="45.2183646" lon="9.0659718"><ele>76.0</ele><time>2026-05-03T08:36:01.673Z</time></trkpt><trkpt lat="45.218301" lon="9.0660361"><ele>76.0</ele><time>2026-05-03T08:36:03.669Z</time></trkpt><trkpt lat="45.2182374" lon="9.0660839"><ele>76.0</ele><time>2026-05-03T08:36:05.679Z</time></trkpt><trkpt lat="45.218171" lon="9.0661377"><ele>76.0</ele><time>2026-05-03T08:36:07.681Z</time></trkpt><trkpt lat="45.2181037" lon="9.0661882"><ele>76.0</ele><time>2026-05-03T08:36:09.677Z</time></trkpt><trkpt lat="45.218034" lon="9.0662449"><ele>76.0</ele><time>2026-05-03T08:36:11.67Z</time></trkpt><trkpt lat="45.2179674" lon="9.0663045"><ele>76.0</ele><time>2026-05-03T08:36:13.68Z</time></trkpt><trkpt lat="45.217903" lon="9.0663623"><ele>76.0</ele><time>2026-05-03T08:36:15.68Z</time></trkpt><trkpt lat="45.2178344" lon="9.0664143"><ele>76.0</ele><time>2026-05-03T08:36:17.683Z</time></trkpt><trkpt lat="45.2177695" lon="9.0664683"><ele>76.0</ele><time>2026-05-03T08:36:19.686Z</time></trkpt><trkpt lat="45.2177059" lon="9.0665274"><ele>76.0</ele><time>2026-05-03T08:36:21.672Z</time></trkpt><trkpt lat="45.2176402" lon="9.0665892"><ele>76.0</ele><time>2026-05-03T08:36:23.675Z</time></trkpt><trkpt lat="45.2175783" lon="9.0666343"><ele>76.0</ele><time>2026-05-03T08:36:25.74Z</time></trkpt><trkpt lat="45.2175148" lon="9.0666935"><ele>76.0</ele><time>2026-05-03T08:36:27.687Z</time></trkpt><trkpt lat="45.2174401" lon="9.0667561"><ele>76.0</ele><time>2026-05-03T08:36:29.676Z</time></trkpt><trkpt lat="45.2173705" lon="9.0668106"><ele>76.0</ele><time>2026-05-03T08:36:31.672Z</time></trkpt><trkpt lat="45.2172974" lon="9.0668741"><ele>76.0</ele><time>2026-05-03T08:36:33.678Z</time></trkpt><trkpt lat="45.2172529" lon="9.0669578"><ele>76.0</ele><time>2026-05-03T08:36:35.679Z</time></trkpt><trkpt lat="45.2172719" lon="9.0670921"><ele>76.0</ele><time>2026-05-03T08:36:38.672Z</time></trkpt><trkpt lat="45.2173099" lon="9.0672131"><ele>76.0</ele><time>2026-05-03T08:36:41.676Z</time></trkpt><trkpt lat="45.2173257" lon="9.0673025"><ele>76.0</ele><time>2026-05-03T08:36:43.674Z</time></trkpt><trkpt lat="45.2173408" lon="9.0674159"><ele>76.0</ele><time>2026-05-03T08:36:45.681Z</time></trkpt><trkpt lat="45.2173567" lon="9.0675135"><ele>76.0</ele><time>2026-05-03T08:36:47.677Z</time></trkpt><trkpt lat="45.2173769" lon="9.0676177"><ele>76.0</ele><time>2026-05-03T08:36:49.686Z</time></trkpt><trkpt lat="45.2173945" lon="9.067726"><ele>76.0</ele><time>2026-05-03T08:36:51.677Z</time></trkpt><trkpt lat="45.2174097" lon="9.0678366"><ele>75.66666666666666</ele><time>2026-05-03T08:36:53.682Z</time></trkpt><trkpt lat="45.2174329" lon="9.0679469"><ele>75.33333333333333</ele><time>2026-05-03T08:36:55.684Z</time></trkpt><trkpt lat="45.2174482" lon="9.0680448"><ele>75.0</ele><time>2026-05-03T08:36:57.676Z</time></trkpt><trkpt lat="45.2174591" lon="9.0681442"><ele>74.66666666666667</ele><time>2026-05-03T08:36:59.671Z</time></trkpt><trkpt lat="45.2174779" lon="9.0682458"><ele>74.33333333333334</ele><time>2026-05-03T08:37:01.679Z</time></trkpt><trkpt lat="45.2174926" lon="9.068353"><ele>74.0</ele><time>2026-05-03T08:37:03.687Z</time></trkpt><trkpt lat="45.2175196" lon="9.0684608"><ele>73.83333333333334</ele><time>2026-05-03T08:37:05.679Z</time></trkpt><trkpt lat="45.217552" lon="9.0685664"><ele>73.66666666666667</ele><time>2026-05-03T08:37:07.68Z</time></trkpt><trkpt lat="45.2175903" lon="9.068669"><ele>73.5</ele><time>2026-05-03T08:37:09.679Z</time></trkpt><trkpt lat="45.2176259" lon="9.0687706"><ele>73.33333333333333</ele><time>2026-05-03T08:37:11.667Z</time></trkpt><trkpt lat="45.217663" lon="9.0688768"><ele>73.16666666666666</ele><time>2026-05-03T08:37:13.678Z</time></trkpt><trkpt lat="45.2177164" lon="9.0689782"><ele>73.0</ele><time>2026-05-03T08:37:15.675Z</time></trkpt><trkpt lat="45.2177732" lon="9.0690754"><ele>73.14285714285714</ele><time>2026-05-03T08:37:17.675Z</time></trkpt><trkpt lat="45.2178146" lon="9.0691828"><ele>73.28571428571429</ele><time>2026-05-03T08:37:19.682Z</time></trkpt><trkpt lat="45.2178418" lon="9.0692807"><ele>73.42857142857143</ele><time>2026-05-03T08:37:21.671Z</time></trkpt><trkpt lat="45.2178652" lon="9.069373"><ele>73.57142857142857</ele><time>2026-05-03T08:37:23.675Z</time></trkpt><trkpt lat="45.2178942" lon="9.069469"><ele>73.71428571428571</ele><time>2026-05-03T08:37:25.681Z</time></trkpt><trkpt lat="45.2179136" lon="9.0695666"><ele>73.85714285714286</ele><time>2026-05-03T08:37:27.679Z</time></trkpt><trkpt lat="45.2179311" lon="9.0696609"><ele>74.0</ele><time>2026-05-03T08:37:29.746Z</time></trkpt><trkpt lat="45.2179451" lon="9.0697727"><ele>74.0</ele><time>2026-05-03T08:37:31.69Z</time></trkpt><trkpt lat="45.2179618" lon="9.0698867"><ele>74.0</ele><time>2026-05-03T08:37:33.684Z</time></trkpt><trkpt lat="45.2179795" lon="9.0699873"><ele>74.0</ele><time>2026-05-03T08:37:35.671Z</time></trkpt><trkpt lat="45.2179869" lon="9.0700937"><ele>74.0</ele><time>2026-05-03T08:37:37.678Z</time></trkpt><trkpt lat="45.2179857" lon="9.0702223"><ele>74.0</ele><time>2026-05-03T08:37:39.674Z</time></trkpt><trkpt lat="45.2179709" lon="9.0703432"><ele>74.0</ele><time>2026-05-03T08:37:41.751Z</time></trkpt><trkpt lat="45.2179388" lon="9.0704528"><ele>74.16666666666667</ele><time>2026-05-03T08:37:43.685Z</time></trkpt><trkpt lat="45.2178679" lon="9.0705268"><ele>74.33333333333334</ele><time>2026-05-03T08:37:45.677Z</time></trkpt><trkpt lat="45.2178183" lon="9.0706082"><ele>74.5</ele><time>2026-05-03T08:37:47.674Z</time></trkpt><trkpt lat="45.2177605" lon="9.0707027"><ele>74.66666666666667</ele><time>2026-05-03T08:37:49.674Z</time></trkpt><trkpt lat="45.2176956" lon="9.070791"><ele>74.83333333333333</ele><time>2026-05-03T08:37:51.676Z</time></trkpt><trkpt lat="45.217628" lon="9.0708944"><ele>75.0</ele><time>2026-05-03T08:37:53.672Z</time></trkpt><trkpt lat="45.2175648" lon="9.0709592"><ele>75.33333333333333</ele><time>2026-05-03T08:37:55.677Z</time></trkpt><trkpt lat="45.2174979" lon="9.0709908"><ele>75.66666666666667</ele><time>2026-05-03T08:37:57.678Z</time></trkpt><trkpt lat="45.2174252" lon="9.0710246"><ele>76.0</ele><time>2026-05-03T08:37:59.671Z</time></trkpt><trkpt lat="45.217349" lon="9.0710636"><ele>76.33333333333334</ele><time>2026-05-03T08:38:01.675Z</time></trkpt><trkpt lat="45.2172808" lon="9.0711022"><ele>76.66666666666667</ele><time>2026-05-03T08:38:03.674Z</time></trkpt><trkpt lat="45.2172054" lon="9.0711389"><ele>77.0</ele><time>2026-05-03T08:38:05.675Z</time></trkpt><trkpt lat="45.2171367" lon="9.0711933"><ele>76.33333333333334</ele><time>2026-05-03T08:38:07.738Z</time></trkpt><trkpt lat="45.2170568" lon="9.0712383"><ele>75.66666666666667</ele><time>2026-05-03T08:38:09.688Z</time></trkpt><trkpt lat="45.2169807" lon="9.0712812"><ele>75.0</ele><time>2026-05-03T08:38:11.671Z</time></trkpt><trkpt lat="45.2169094" lon="9.0713188"><ele>74.33333333333333</ele><time>2026-05-03T08:38:13.677Z</time></trkpt><trkpt lat="45.2168414" lon="9.0713583"><ele>73.66666666666666</ele><time>2026-05-03T08:38:15.676Z</time></trkpt><trkpt lat="45.2167683" lon="9.0714057"><ele>73.0</ele><time>2026-05-03T08:38:17.674Z</time></trkpt><trkpt lat="45.2167004" lon="9.0714629"><ele>73.0</ele><time>2026-05-03T08:38:19.676Z</time></trkpt><trkpt lat="45.2166435" lon="9.0715311"><ele>73.0</ele><time>2026-05-03T08:38:21.676Z</time></trkpt><trkpt lat="45.2165933" lon="9.0715981"><ele>73.0</ele><time>2026-05-03T08:38:23.671Z</time></trkpt><trkpt lat="45.2165413" lon="9.0716678"><ele>73.0</ele><time>2026-05-03T08:38:25.676Z</time></trkpt><trkpt lat="45.2164756" lon="9.0717387"><ele>73.0</ele><time>2026-05-03T08:38:27.69Z</time></trkpt><trkpt lat="45.2164213" lon="9.0718262"><ele>73.0</ele><time>2026-05-03T08:38:29.676Z</time></trkpt><trkpt lat="45.2163721" lon="9.0719076"><ele>72.83333333333333</ele><time>2026-05-03T08:38:31.674Z</time></trkpt><trkpt lat="45.2163176" lon="9.0720159"><ele>72.66666666666666</ele><time>2026-05-03T08:38:33.667Z</time></trkpt><trkpt lat="45.216265" lon="9.0721094"><ele>72.5</ele><time>2026-05-03T08:38:35.742Z</time></trkpt><trkpt lat="45.2161865" lon="9.0722205"><ele>72.33333333333333</ele><time>2026-05-03T08:38:38.678Z</time></trkpt><trkpt lat="45.2161241" lon="9.072292"><ele>72.16666666666667</ele><time>2026-05-03T08:38:40.674Z</time></trkpt><trkpt lat="45.2160664" lon="9.0723712"><ele>72.0</ele><time>2026-05-03T08:38:42.676Z</time></trkpt><trkpt lat="45.2160123" lon="9.0724505"><ele>72.33333333333333</ele><time>2026-05-03T08:38:44.675Z</time></trkpt><trkpt lat="45.2159621" lon="9.0725196"><ele>72.66666666666667</ele><time>2026-05-03T08:38:46.676Z</time></trkpt><trkpt lat="45.2159075" lon="9.0725921"><ele>73.0</ele><time>2026-05-03T08:38:48.675Z</time></trkpt><trkpt lat="45.2158483" lon="9.0726729"><ele>73.33333333333334</ele><time>2026-05-03T08:38:50.676Z</time></trkpt><trkpt lat="45.2157967" lon="9.0727531"><ele>73.66666666666667</ele><time>2026-05-03T08:38:52.673Z</time></trkpt><trkpt lat="45.2157389" lon="9.0728317"><ele>74.0</ele><time>2026-05-03T08:38:54.667Z</time></trkpt><trkpt lat="45.2156784" lon="9.0729155"><ele>73.85714285714286</ele><time>2026-05-03T08:38:56.672Z</time></trkpt><trkpt lat="45.2156243" lon="9.0729846"><ele>73.71428571428571</ele><time>2026-05-03T08:38:58.67Z</time></trkpt><trkpt lat="45.2155748" lon="9.0730555"><ele>73.57142857142857</ele><time>2026-05-03T08:39:00.679Z</time></trkpt><trkpt lat="45.2155258" lon="9.073127"><ele>73.42857142857143</ele><time>2026-05-03T08:39:02.674Z</time></trkpt><trkpt lat="45.2154878" lon="9.0732176"><ele>73.28571428571429</ele><time>2026-05-03T08:39:04.679Z</time></trkpt><trkpt lat="45.2154453" lon="9.0732932"><ele>73.14285714285714</ele><time>2026-05-03T08:39:06.679Z</time></trkpt><trkpt lat="45.2153922" lon="9.0733544"><ele>73.0</ele><time>2026-05-03T08:39:08.672Z</time></trkpt><trkpt lat="45.2153282" lon="9.073419"><ele>73.0</ele><time>2026-05-03T08:39:10.676Z</time></trkpt><trkpt lat="45.2152688" lon="9.0734995"><ele>73.0</ele><time>2026-05-03T08:39:12.679Z</time></trkpt><trkpt lat="45.2152145" lon="9.0735727"><ele>73.0</ele><time>2026-05-03T08:39:14.752Z</time></trkpt><trkpt lat="45.2151596" lon="9.0736488"><ele>73.0</ele><time>2026-05-03T08:39:16.682Z</time></trkpt><trkpt lat="45.215099" lon="9.0737369"><ele>73.0</ele><time>2026-05-03T08:39:18.675Z</time></trkpt><trkpt lat="45.2150425" lon="9.0738155"><ele>73.0</ele><time>2026-05-03T08:39:20.674Z</time></trkpt><trkpt lat="45.2149907" lon="9.0738855"><ele>73.0</ele><time>2026-05-03T08:39:22.68Z</time></trkpt><trkpt lat="45.2149425" lon="9.0739536"><ele>73.0</ele><time>2026-05-03T08:39:24.674Z</time></trkpt><trkpt lat="45.2148821" lon="9.0740262"><ele>73.0</ele><time>2026-05-03T08:39:26.669Z</time></trkpt><trkpt lat="45.2148337" lon="9.0741"><ele>73.0</ele><time>2026-05-03T08:39:28.736Z</time></trkpt><trkpt lat="45.2147747" lon="9.0741801"><ele>73.0</ele><time>2026-05-03T08:39:30.672Z</time></trkpt><trkpt lat="45.2146981" lon="9.0742429"><ele>73.0</ele><time>2026-05-03T08:39:32.68Z</time></trkpt><trkpt lat="45.2146181" lon="9.0742858"><ele>73.33333333333333</ele><time>2026-05-03T08:39:34.679Z</time></trkpt><trkpt lat="45.2145384" lon="9.074327"><ele>73.66666666666666</ele><time>2026-05-03T08:39:36.674Z</time></trkpt><trkpt lat="45.2144614" lon="9.0743776"><ele>74.0</ele><time>2026-05-03T08:39:38.675Z</time></trkpt><trkpt lat="45.214385" lon="9.0744253"><ele>74.33333333333333</ele><time>2026-05-03T08:39:40.673Z</time></trkpt><trkpt lat="45.2143153" lon="9.0745027"><ele>74.66666666666667</ele><time>2026-05-03T08:39:42.675Z</time></trkpt><trkpt lat="45.2142541" lon="9.0745932"><ele>75.0</ele><time>2026-05-03T08:39:44.676Z</time></trkpt><trkpt lat="45.214185" lon="9.0746753"><ele>75.0</ele><time>2026-05-03T08:39:46.674Z</time></trkpt><trkpt lat="45.2141369" lon="9.0747608"><ele>75.0</ele><time>2026-05-03T08:39:48.678Z</time></trkpt><trkpt lat="45.2140972" lon="9.074837"><ele>75.0</ele><time>2026-05-03T08:39:50.669Z</time></trkpt><trkpt lat="45.2140438" lon="9.0749131"><ele>75.0</ele><time>2026-05-03T08:39:52.675Z</time></trkpt><trkpt lat="45.2139925" lon="9.0749952"><ele>75.0</ele><time>2026-05-03T08:39:54.677Z</time></trkpt><trkpt lat="45.2139531" lon="9.0750875"><ele>75.0</ele><time>2026-05-03T08:39:56.681Z</time></trkpt><trkpt lat="45.2139032" lon="9.0751785"><ele>73.83333333333333</ele><time>2026-05-03T08:39:58.682Z</time></trkpt><trkpt lat="45.2138545" lon="9.0752669"><ele>72.66666666666667</ele><time>2026-05-03T08:40:00.676Z</time></trkpt><trkpt lat="45.2138122" lon="9.075341"><ele>71.5</ele><time>2026-05-03T08:40:02.675Z</time></trkpt><trkpt lat="45.2137643" lon="9.0754154"><ele>70.33333333333334</ele><time>2026-05-03T08:40:04.68Z</time></trkpt><trkpt lat="45.2137151" lon="9.0755064"><ele>69.16666666666667</ele><time>2026-05-03T08:40:06.677Z</time></trkpt><trkpt lat="45.213664" lon="9.0755954"><ele>68.0</ele><time>2026-05-03T08:40:08.678Z</time></trkpt><trkpt lat="45.2136118" lon="9.0756981"><ele>68.57142857142857</ele><time>2026-05-03T08:40:10.679Z</time></trkpt><trkpt lat="45.2135722" lon="9.0757941"><ele>69.14285714285714</ele><time>2026-05-03T08:40:12.681Z</time></trkpt><trkpt lat="45.2135333" lon="9.0758894"><ele>69.71428571428572</ele><time>2026-05-03T08:40:14.671Z</time></trkpt><trkpt lat="45.2135018" lon="9.0759684"><ele>70.28571428571428</ele><time>2026-05-03T08:40:16.671Z</time></trkpt><trkpt lat="45.2134734" lon="9.0760497"><ele>70.85714285714286</ele><time>2026-05-03T08:40:18.68Z</time></trkpt><trkpt lat="45.2134409" lon="9.0761468"><ele>71.42857142857143</ele><time>2026-05-03T08:40:20.679Z</time></trkpt><trkpt lat="45.2134076" lon="9.0762394"><ele>72.0</ele><time>2026-05-03T08:40:22.686Z</time></trkpt><trkpt lat="45.2133767" lon="9.07633"><ele>72.00000000000001</ele><time>2026-05-03T08:40:24.681Z</time></trkpt><trkpt lat="45.213342" lon="9.0764164"><ele>72.0</ele><time>2026-05-03T08:40:26.682Z</time></trkpt><trkpt lat="45.2133137" lon="9.076507"><ele>72.0</ele><time>2026-05-03T08:40:28.678Z</time></trkpt><trkpt lat="45.2132779" lon="9.076606"><ele>72.0</ele><time>2026-05-03T08:40:30.674Z</time></trkpt><trkpt lat="45.2132452" lon="9.0767058"><ele>72.0</ele><time>2026-05-03T08:40:32.737Z</time></trkpt><trkpt lat="45.2132184" lon="9.0767933"><ele>72.00000000000001</ele><time>2026-05-03T08:40:34.686Z</time></trkpt><trkpt lat="45.2131894" lon="9.0768742"><ele>72.0</ele><time>2026-05-03T08:40:36.671Z</time></trkpt><trkpt lat="45.2131654" lon="9.0769661"><ele>72.33333333333333</ele><time>2026-05-03T08:40:38.673Z</time></trkpt><trkpt lat="45.213149" lon="9.0770578"><ele>72.66666666666667</ele><time>2026-05-03T08:40:40.679Z</time></trkpt><trkpt lat="45.2131409" lon="9.0771488"><ele>73.0</ele><time>2026-05-03T08:40:42.684Z</time></trkpt><trkpt lat="45.213134" lon="9.0772727"><ele>73.33333333333334</ele><time>2026-05-03T08:40:44.68Z</time></trkpt><trkpt lat="45.2131294" lon="9.0773737"><ele>73.66666666666667</ele><time>2026-05-03T08:40:46.675Z</time></trkpt><trkpt lat="45.213127" lon="9.0774726"><ele>74.0</ele><time>2026-05-03T08:40:48.679Z</time></trkpt><trkpt lat="45.2131261" lon="9.0776058"><ele>74.66666666666667</ele><time>2026-05-03T08:40:51.67Z</time></trkpt><trkpt lat="45.2131274" lon="9.0776999"><ele>75.33333333333334</ele><time>2026-05-03T08:40:53.678Z</time></trkpt><trkpt lat="45.2131252" lon="9.0778005"><ele>76.0</ele><time>2026-05-03T08:40:55.687Z</time></trkpt><trkpt lat="45.2131233" lon="9.0779084"><ele>76.66666666666667</ele><time>2026-05-03T08:40:57.679Z</time></trkpt><trkpt lat="45.2131261" lon="9.0780181"><ele>77.33333333333333</ele><time>2026-05-03T08:40:59.693Z</time></trkpt><trkpt lat="45.2131259" lon="9.0781185"><ele>78.0</ele><time>2026-05-03T08:41:01.679Z</time></trkpt><trkpt lat="45.2131099" lon="9.0782478"><ele>78.0</ele><time>2026-05-03T08:41:04.682Z</time></trkpt><trkpt lat="45.2130998" lon="9.0783706"><ele>78.0</ele><time>2026-05-03T08:41:07.69Z</time></trkpt><trkpt lat="45.2131475" lon="9.0784415"><ele>78.0</ele><time>2026-05-03T08:41:10.678Z</time></trkpt><trkpt lat="45.2132059" lon="9.078476"><ele>78.0</ele><time>2026-05-03T08:41:12.674Z</time></trkpt><trkpt lat="45.2132629" lon="9.0785169"><ele>78.0</ele><time>2026-05-03T08:41:14.677Z</time></trkpt><trkpt lat="45.213325" lon="9.0785705"><ele>78.0</ele><time>2026-05-03T08:41:16.675Z</time></trkpt><trkpt lat="45.2133807" lon="9.078642"><ele>78.0</ele><time>2026-05-03T08:41:18.67Z</time></trkpt><trkpt lat="45.2134373" lon="9.078704"><ele>78.0</ele><time>2026-05-03T08:41:20.682Z</time></trkpt><trkpt lat="45.2134966" lon="9.0787648"><ele>78.0</ele><time>2026-05-03T08:41:22.679Z</time></trkpt><trkpt lat="45.2135638" lon="9.0788368"><ele>78.0</ele><time>2026-05-03T08:41:24.676Z</time></trkpt><trkpt lat="45.2136296" lon="9.078909"><ele>78.0</ele><time>2026-05-03T08:41:26.682Z</time></trkpt><trkpt lat="45.2136867" lon="9.0789734"><ele>78.0</ele><time>2026-05-03T08:41:28.676Z</time></trkpt><trkpt lat="45.2137486" lon="9.0790479"><ele>78.0</ele><time>2026-05-03T08:41:30.684Z</time></trkpt><trkpt lat="45.2138062" lon="9.0791297"><ele>78.0</ele><time>2026-05-03T08:41:32.668Z</time></trkpt><trkpt lat="45.2138791" lon="9.0791997"><ele>78.0</ele><time>2026-05-03T08:41:34.68Z</time></trkpt><trkpt lat="45.2139407" lon="9.0792637"><ele>78.0</ele><time>2026-05-03T08:41:36.676Z</time></trkpt><trkpt lat="45.2139991" lon="9.0793307"><ele>78.0</ele><time>2026-05-03T08:41:38.685Z</time></trkpt><trkpt lat="45.2140627" lon="9.0793986"><ele>78.0</ele><time>2026-05-03T08:41:40.678Z</time></trkpt><trkpt lat="45.2141248" lon="9.0794556"><ele>78.0</ele><time>2026-05-03T08:41:42.68Z</time></trkpt><trkpt lat="45.2141888" lon="9.079513"><ele>78.42857142857143</ele><time>2026-05-03T08:41:44.681Z</time></trkpt><trkpt lat="45.2142459" lon="9.0795828"><ele>78.85714285714285</ele><time>2026-05-03T08:41:46.672Z</time></trkpt><trkpt lat="45.2143051" lon="9.0796377"><ele>79.28571428571428</ele><time>2026-05-03T08:41:48.682Z</time></trkpt><trkpt lat="45.214368" lon="9.079698"><ele>79.71428571428572</ele><time>2026-05-03T08:41:50.758Z</time></trkpt><trkpt lat="45.2144302" lon="9.0797596"><ele>80.14285714285714</ele><time>2026-05-03T08:41:52.68Z</time></trkpt><trkpt lat="45.2144877" lon="9.0798198"><ele>80.57142857142857</ele><time>2026-05-03T08:41:54.681Z</time></trkpt><trkpt lat="45.2145553" lon="9.0798769"><ele>81.0</ele><time>2026-05-03T08:41:56.673Z</time></trkpt><trkpt lat="45.2146178" lon="9.0799394"><ele>81.0</ele><time>2026-05-03T08:41:58.675Z</time></trkpt><trkpt lat="45.2146803" lon="9.0799952"><ele>81.0</ele><time>2026-05-03T08:42:00.68Z</time></trkpt><trkpt lat="45.2147518" lon="9.0800683"><ele>81.0</ele><time>2026-05-03T08:42:03.677Z</time></trkpt><trkpt lat="45.2148203" lon="9.0801487"><ele>81.0</ele><time>2026-05-03T08:42:06.684Z</time></trkpt><trkpt lat="45.2148817" lon="9.0802092"><ele>81.0</ele><time>2026-05-03T08:42:08.675Z</time></trkpt><trkpt lat="45.214925" lon="9.0802811"><ele>81.0</ele><time>2026-05-03T08:42:10.683Z</time></trkpt><trkpt lat="45.2148983" lon="9.0803849"><ele>81.0</ele><time>2026-05-03T08:42:13.676Z</time></trkpt><trkpt lat="45.2148526" lon="9.0804547"><ele>81.0</ele><time>2026-05-03T08:42:15.675Z</time></trkpt><trkpt lat="45.2148134" lon="9.0805386"><ele>81.0</ele><time>2026-05-03T08:42:17.68Z</time></trkpt><trkpt lat="45.2147747" lon="9.0806463"><ele>81.0</ele><time>2026-05-03T08:42:19.69Z</time></trkpt><trkpt lat="45.2147331" lon="9.0807372"><ele>81.0</ele><time>2026-05-03T08:42:21.681Z</time></trkpt><trkpt lat="45.2146891" lon="9.0808262"><ele>81.0</ele><time>2026-05-03T08:42:23.673Z</time></trkpt><trkpt lat="45.2146542" lon="9.0809155"><ele>81.0</ele><time>2026-05-03T08:42:25.677Z</time></trkpt><trkpt lat="45.2146152" lon="9.0810044"><ele>81.0</ele><time>2026-05-03T08:42:27.752Z</time></trkpt><trkpt lat="45.2145704" lon="9.0810971"><ele>81.0</ele><time>2026-05-03T08:42:29.684Z</time></trkpt><trkpt lat="45.2145246" lon="9.0811859"><ele>81.0</ele><time>2026-05-03T08:42:31.667Z</time></trkpt><trkpt lat="45.2144743" lon="9.0812854"><ele>81.0</ele><time>2026-05-03T08:42:33.685Z</time></trkpt><trkpt lat="45.2144261" lon="9.0813784"><ele>81.0</ele><time>2026-05-03T08:42:35.677Z</time></trkpt><trkpt lat="45.2143824" lon="9.0814685"><ele>81.0</ele><time>2026-05-03T08:42:37.692Z</time></trkpt><trkpt lat="45.2143393" lon="9.0815569"><ele>80.83333333333333</ele><time>2026-05-03T08:42:39.762Z</time></trkpt><trkpt lat="45.2142917" lon="9.0816474"><ele>80.66666666666667</ele><time>2026-05-03T08:42:41.752Z</time></trkpt><trkpt lat="45.2142474" lon="9.0817402"><ele>80.5</ele><time>2026-05-03T08:42:43.683Z</time></trkpt><trkpt lat="45.2142046" lon="9.081829"><ele>80.33333333333334</ele><time>2026-05-03T08:42:45.673Z</time></trkpt><trkpt lat="45.2141637" lon="9.0819055"><ele>80.16666666666667</ele><time>2026-05-03T08:42:47.682Z</time></trkpt><trkpt lat="45.2141236" lon="9.0819849"><ele>80.0</ele><time>2026-05-03T08:42:49.682Z</time></trkpt><trkpt lat="45.2140768" lon="9.0820768"><ele>80.0</ele><time>2026-05-03T08:42:51.679Z</time></trkpt><trkpt lat="45.2140291" lon="9.0821689"><ele>80.0</ele><time>2026-05-03T08:42:53.678Z</time></trkpt><trkpt lat="45.2139801" lon="9.0822734"><ele>80.0</ele><time>2026-05-03T08:42:55.68Z</time></trkpt><trkpt lat="45.2139286" lon="9.0823709"><ele>80.0</ele><time>2026-05-03T08:42:57.674Z</time></trkpt><trkpt lat="45.2138803" lon="9.0824679"><ele>80.0</ele><time>2026-05-03T08:42:59.673Z</time></trkpt><trkpt lat="45.2138277" lon="9.0825531"><ele>80.0</ele><time>2026-05-03T08:43:01.679Z</time></trkpt><trkpt lat="45.2137796" lon="9.0826416"><ele>80.16666666666667</ele><time>2026-05-03T08:43:03.693Z</time></trkpt><trkpt lat="45.2137387" lon="9.0827232"><ele>80.33333333333334</ele><time>2026-05-03T08:43:05.672Z</time></trkpt><trkpt lat="45.2136944" lon="9.0828039"><ele>80.5</ele><time>2026-05-03T08:43:07.745Z</time></trkpt><trkpt lat="45.2136451" lon="9.0828854"><ele>80.66666666666667</ele><time>2026-05-03T08:43:09.683Z</time></trkpt><trkpt lat="45.2135911" lon="9.0829746"><ele>80.83333333333333</ele><time>2026-05-03T08:43:11.67Z</time></trkpt><trkpt lat="45.2135345" lon="9.083068"><ele>81.0</ele><time>2026-05-03T08:43:13.682Z</time></trkpt><trkpt lat="45.2134756" lon="9.0831756"><ele>80.83333333333333</ele><time>2026-05-03T08:43:15.684Z</time></trkpt><trkpt lat="45.213427" lon="9.0832749"><ele>80.66666666666667</ele><time>2026-05-03T08:43:17.681Z</time></trkpt><trkpt lat="45.2133799" lon="9.0833625"><ele>80.5</ele><time>2026-05-03T08:43:19.757Z</time></trkpt><trkpt lat="45.2133324" lon="9.0834453"><ele>80.33333333333334</ele><time>2026-05-03T08:43:21.669Z</time></trkpt><trkpt lat="45.2132729" lon="9.0835131"><ele>80.16666666666667</ele><time>2026-05-03T08:43:23.679Z</time></trkpt><trkpt lat="45.2132154" lon="9.0836209"><ele>80.0</ele><time>2026-05-03T08:43:25.681Z</time></trkpt><trkpt lat="45.2131634" lon="9.0837255"><ele>80.2</ele><time>2026-05-03T08:43:27.677Z</time></trkpt><trkpt lat="45.2131075" lon="9.0838113"><ele>80.4</ele><time>2026-05-03T08:43:29.667Z</time></trkpt><trkpt lat="45.2130554" lon="9.0839023"><ele>80.6</ele><time>2026-05-03T08:43:31.677Z</time></trkpt><trkpt lat="45.2129921" lon="9.084014"><ele>80.8</ele><time>2026-05-03T08:43:33.756Z</time></trkpt><trkpt lat="45.2129275" lon="9.0841237"><ele>81.0</ele><time>2026-05-03T08:43:35.691Z</time></trkpt><trkpt lat="45.2128633" lon="9.0842332"><ele>81.0</ele><time>2026-05-03T08:43:37.671Z</time></trkpt><trkpt lat="45.2127993" lon="9.0843422"><ele>81.0</ele><time>2026-05-03T08:43:39.679Z</time></trkpt><trkpt lat="45.2127335" lon="9.0844509"><ele>81.0</ele><time>2026-05-03T08:43:41.691Z</time></trkpt><trkpt lat="45.2126794" lon="9.0845552"><ele>81.0</ele><time>2026-05-03T08:43:43.676Z</time></trkpt><trkpt lat="45.2126269" lon="9.0846355"><ele>81.0</ele><time>2026-05-03T08:43:45.679Z</time></trkpt><trkpt lat="45.2125787" lon="9.0847136"><ele>81.0</ele><time>2026-05-03T08:43:47.679Z</time></trkpt><trkpt lat="45.2125247" lon="9.0848216"><ele>81.0</ele><time>2026-05-03T08:43:49.682Z</time></trkpt><trkpt lat="45.2124667" lon="9.084926"><ele>81.0</ele><time>2026-05-03T08:43:51.679Z</time></trkpt><trkpt lat="45.2124125" lon="9.0850247"><ele>81.0</ele><time>2026-05-03T08:43:53.676Z</time></trkpt><trkpt lat="45.2123504" lon="9.0851324"><ele>81.0</ele><time>2026-05-03T08:43:55.673Z</time></trkpt><trkpt lat="45.2122824" lon="9.085236"><ele>81.0</ele><time>2026-05-03T08:43:57.675Z</time></trkpt><trkpt lat="45.2122245" lon="9.0853459"><ele>80.6</ele><time>2026-05-03T08:43:59.695Z</time></trkpt><trkpt lat="45.2121649" lon="9.085451"><ele>80.19999999999999</ele><time>2026-05-03T08:44:01.682Z</time></trkpt><trkpt lat="45.2121035" lon="9.0855591"><ele>79.80000000000001</ele><time>2026-05-03T08:44:03.674Z</time></trkpt><trkpt lat="45.2120461" lon="9.0856504"><ele>79.4</ele><time>2026-05-03T08:44:05.675Z</time></trkpt><trkpt lat="45.2119899" lon="9.0857513"><ele>79.0</ele><time>2026-05-03T08:44:07.684Z</time></trkpt><trkpt lat="45.2119339" lon="9.0858514"><ele>79.0</ele><time>2026-05-03T08:44:09.673Z</time></trkpt><trkpt lat="45.2118775" lon="9.0859533"><ele>79.0</ele><time>2026-05-03T08:44:11.699Z</time></trkpt><trkpt lat="45.2118148" lon="9.0860584"><ele>79.0</ele><time>2026-05-03T08:44:13.673Z</time></trkpt><trkpt lat="45.2117588" lon="9.0861558"><ele>79.0</ele><time>2026-05-03T08:44:15.678Z</time></trkpt><trkpt lat="45.2117022" lon="9.0862373"><ele>79.0</ele><time>2026-05-03T08:44:17.687Z</time></trkpt><trkpt lat="45.2116578" lon="9.0863243"><ele>79.0</ele><time>2026-05-03T08:44:19.687Z</time></trkpt><trkpt lat="45.21161" lon="9.0864186"><ele>79.0</ele><time>2026-05-03T08:44:21.673Z</time></trkpt><trkpt lat="45.2115545" lon="9.0865174"><ele>79.0</ele><time>2026-05-03T08:44:23.677Z</time></trkpt><trkpt lat="45.2114972" lon="9.086612"><ele>79.0</ele><time>2026-05-03T08:44:25.673Z</time></trkpt><trkpt lat="45.2114467" lon="9.0867106"><ele>79.0</ele><time>2026-05-03T08:44:27.676Z</time></trkpt><trkpt lat="45.2113895" lon="9.0868102"><ele>79.0</ele><time>2026-05-03T08:44:29.674Z</time></trkpt><trkpt lat="45.2113317" lon="9.0869105"><ele>79.0</ele><time>2026-05-03T08:44:31.688Z</time></trkpt><trkpt lat="45.2112768" lon="9.0870089"><ele>79.0</ele><time>2026-05-03T08:44:33.751Z</time></trkpt><trkpt lat="45.2112193" lon="9.0871177"><ele>79.0</ele><time>2026-05-03T08:44:35.687Z</time></trkpt><trkpt lat="45.21116" lon="9.0872234"><ele>79.0</ele><time>2026-05-03T08:44:37.679Z</time></trkpt><trkpt lat="45.2110998" lon="9.0873209"><ele>79.0</ele><time>2026-05-03T08:44:39.68Z</time></trkpt><trkpt lat="45.2110485" lon="9.0874165"><ele>79.0</ele><time>2026-05-03T08:44:41.682Z</time></trkpt><trkpt lat="45.2109921" lon="9.0875236"><ele>79.0</ele><time>2026-05-03T08:44:43.688Z</time></trkpt><trkpt lat="45.2109342" lon="9.0876237"><ele>79.0</ele><time>2026-05-03T08:44:45.687Z</time></trkpt><trkpt lat="45.210872" lon="9.0877199"><ele>79.0</ele><time>2026-05-03T08:44:47.683Z</time></trkpt><trkpt lat="45.2108035" lon="9.0878432"><ele>79.0</ele><time>2026-05-03T08:44:49.674Z</time></trkpt><trkpt lat="45.2107362" lon="9.0879638"><ele>79.0</ele><time>2026-05-03T08:44:51.68Z</time></trkpt><trkpt lat="45.2106664" lon="9.0880788"><ele>79.0</ele><time>2026-05-03T08:44:53.678Z</time></trkpt><trkpt lat="45.2106021" lon="9.088185"><ele>79.0</ele><time>2026-05-03T08:44:55.671Z</time></trkpt><trkpt lat="45.2105493" lon="9.0882834"><ele>79.0</ele><time>2026-05-03T08:44:57.68Z</time></trkpt><trkpt lat="45.2105026" lon="9.0883777"><ele>79.0</ele><time>2026-05-03T08:44:59.683Z</time></trkpt><trkpt lat="45.2104547" lon="9.0884658"><ele>79.0</ele><time>2026-05-03T08:45:01.687Z</time></trkpt><trkpt lat="45.2104012" lon="9.0885652"><ele>79.0</ele><time>2026-05-03T08:45:03.681Z</time></trkpt><trkpt lat="45.2103468" lon="9.0886616"><ele>79.00000000000001</ele><time>2026-05-03T08:45:05.683Z</time></trkpt><trkpt lat="45.2102973" lon="9.0887326"><ele>79.0</ele><time>2026-05-03T08:45:07.684Z</time></trkpt><trkpt lat="45.210232" lon="9.0887783"><ele>79.0</ele><time>2026-05-03T08:45:10.681Z</time></trkpt><trkpt lat="45.2101725" lon="9.0887415"><ele>79.0</ele><time>2026-05-03T08:45:12.675Z</time></trkpt><trkpt lat="45.2101195" lon="9.0886914"><ele>79.0</ele><time>2026-05-03T08:45:14.676Z</time></trkpt><trkpt lat="45.2100648" lon="9.0886331"><ele>79.00000000000001</ele><time>2026-05-03T08:45:16.669Z</time></trkpt><trkpt lat="45.2100112" lon="9.0885706"><ele>79.0</ele><time>2026-05-03T08:45:18.677Z</time></trkpt><trkpt lat="45.2099567" lon="9.0885093"><ele>79.0</ele><time>2026-05-03T08:45:20.679Z</time></trkpt><trkpt lat="45.2098953" lon="9.088458"><ele>79.0</ele><time>2026-05-03T08:45:22.686Z</time></trkpt><trkpt lat="45.209839" lon="9.0883961"><ele>79.0</ele><time>2026-05-03T08:45:24.677Z</time></trkpt><trkpt lat="45.209767" lon="9.0883364"><ele>79.0</ele><time>2026-05-03T08:45:26.671Z</time></trkpt><trkpt lat="45.2096957" lon="9.0882753"><ele>79.0</ele><time>2026-05-03T08:45:28.672Z</time></trkpt><trkpt lat="45.2096313" lon="9.088207"><ele>79.0</ele><time>2026-05-03T08:45:30.669Z</time></trkpt><trkpt lat="45.2095637" lon="9.0881447"><ele>79.0</ele><time>2026-05-03T08:45:32.671Z</time></trkpt><trkpt lat="45.2095057" lon="9.088087"><ele>79.0</ele><time>2026-05-03T08:45:34.669Z</time></trkpt><trkpt lat="45.2094416" lon="9.0880251"><ele>79.0</ele><time>2026-05-03T08:45:36.68Z</time></trkpt><trkpt lat="45.2093759" lon="9.0879679"><ele>79.0</ele><time>2026-05-03T08:45:38.677Z</time></trkpt><trkpt lat="45.2093051" lon="9.0879024"><ele>79.0</ele><time>2026-05-03T08:45:40.695Z</time></trkpt><trkpt lat="45.2092281" lon="9.0878231"><ele>79.0</ele><time>2026-05-03T08:45:42.682Z</time></trkpt><trkpt lat="45.2091533" lon="9.0877551"><ele>79.0</ele><time>2026-05-03T08:45:44.674Z</time></trkpt><trkpt lat="45.2090817" lon="9.0876764"><ele>79.0</ele><time>2026-05-03T08:45:46.671Z</time></trkpt><trkpt lat="45.2090117" lon="9.0875953"><ele>79.0</ele><time>2026-05-03T08:45:48.678Z</time></trkpt><trkpt lat="45.2089514" lon="9.087516"><ele>79.0</ele><time>2026-05-03T08:45:50.672Z</time></trkpt><trkpt lat="45.2088853" lon="9.0874514"><ele>79.0</ele><time>2026-05-03T08:45:52.677Z</time></trkpt><trkpt lat="45.208833" lon="9.0873854"><ele>79.0</ele><time>2026-05-03T08:45:54.682Z</time></trkpt><trkpt lat="45.2087769" lon="9.0873252"><ele>78.71428571428572</ele><time>2026-05-03T08:45:56.677Z</time></trkpt><trkpt lat="45.2087163" lon="9.0872644"><ele>78.42857142857143</ele><time>2026-05-03T08:45:58.678Z</time></trkpt><trkpt lat="45.2086654" lon="9.0872051"><ele>78.14285714285714</ele><time>2026-05-03T08:46:00.68Z</time></trkpt><trkpt lat="45.2086115" lon="9.0871418"><ele>77.85714285714286</ele><time>2026-05-03T08:46:02.675Z</time></trkpt><trkpt lat="45.2085612" lon="9.0870865"><ele>77.57142857142857</ele><time>2026-05-03T08:46:04.756Z</time></trkpt><trkpt lat="45.2085093" lon="9.0870352"><ele>77.28571428571429</ele><time>2026-05-03T08:46:06.68Z</time></trkpt><trkpt lat="45.2084558" lon="9.0869857"><ele>77.0</ele><time>2026-05-03T08:46:08.679Z</time></trkpt><trkpt lat="45.2083948" lon="9.0869159"><ele>77.0</ele><time>2026-05-03T08:46:10.676Z</time></trkpt><trkpt lat="45.2083382" lon="9.0868536"><ele>77.0</ele><time>2026-05-03T08:46:12.682Z</time></trkpt><trkpt lat="45.2082977" lon="9.0867719"><ele>77.0</ele><time>2026-05-03T08:46:14.676Z</time></trkpt><trkpt lat="45.20826" lon="9.0866714"><ele>77.0</ele><time>2026-05-03T08:46:16.674Z</time></trkpt><trkpt lat="45.2082159" lon="9.0865902"><ele>77.0</ele><time>2026-05-03T08:46:18.67Z</time></trkpt><trkpt lat="45.2081551" lon="9.0865321"><ele>77.0</ele><time>2026-05-03T08:46:20.675Z</time></trkpt><trkpt lat="45.2080997" lon="9.0864773"><ele>77.0</ele><time>2026-05-03T08:46:22.674Z</time></trkpt><trkpt lat="45.208026" lon="9.0863989"><ele>76.66666666666667</ele><time>2026-05-03T08:46:25.694Z</time></trkpt><trkpt lat="45.2079708" lon="9.0863332"><ele>76.33333333333334</ele><time>2026-05-03T08:46:27.675Z</time></trkpt><trkpt lat="45.2079105" lon="9.0862336"><ele>76.0</ele><time>2026-05-03T08:46:30.679Z</time></trkpt><trkpt lat="45.2078482" lon="9.0861539"><ele>75.66666666666667</ele><time>2026-05-03T08:46:33.667Z</time></trkpt><trkpt lat="45.2077723" lon="9.08609"><ele>75.33333333333333</ele><time>2026-05-03T08:46:36.674Z</time></trkpt><trkpt lat="45.207718" lon="9.086033"><ele>75.0</ele><time>2026-05-03T08:46:38.68Z</time></trkpt><trkpt lat="45.2076668" lon="9.0859805"><ele>75.0</ele><time>2026-05-03T08:46:40.676Z</time></trkpt><trkpt lat="45.2075953" lon="9.0859726"><ele>75.0</ele><time>2026-05-03T08:46:43.674Z</time></trkpt><trkpt lat="45.2075311" lon="9.0858686"><ele>75.0</ele><time>2026-05-03T08:46:48.679Z</time></trkpt><trkpt lat="45.2074837" lon="9.0857717"><ele>75.0</ele><time>2026-05-03T08:46:50.675Z</time></trkpt><trkpt lat="45.2074639" lon="9.0856794"><ele>75.0</ele><time>2026-05-03T08:46:51.681Z</time></trkpt><trkpt lat="45.2074512" lon="9.0855484"><ele>75.0</ele><time>2026-05-03T08:46:53.677Z</time></trkpt><trkpt lat="45.2073853" lon="9.0855109"><ele>75.42857142857142</ele><time>2026-05-03T08:46:57.673Z</time></trkpt><trkpt lat="45.2073309" lon="9.0854598"><ele>75.85714285714286</ele><time>2026-05-03T08:47:01.686Z</time></trkpt><trkpt lat="45.2072757" lon="9.0853971"><ele>76.28571428571428</ele><time>2026-05-03T08:47:04.671Z</time></trkpt><trkpt lat="45.207217" lon="9.0853285"><ele>76.71428571428571</ele><time>2026-05-03T08:47:08.748Z</time></trkpt><trkpt lat="45.2071819" lon="9.0852328"><ele>77.14285714285714</ele><time>2026-05-03T08:47:11.675Z</time></trkpt><trkpt lat="45.2071792" lon="9.085114"><ele>77.57142857142857</ele><time>2026-05-03T08:47:14.679Z</time></trkpt><trkpt lat="45.2071973" lon="9.0850259"><ele>78.0</ele><time>2026-05-03T08:47:16.679Z</time></trkpt><trkpt lat="45.20717" lon="9.0849172"><ele>76.83333333333333</ele><time>2026-05-03T08:47:19.682Z</time></trkpt><trkpt lat="45.2070857" lon="9.0848387"><ele>75.66666666666667</ele><time>2026-05-03T08:47:23.688Z</time></trkpt><trkpt lat="45.2070114" lon="9.084826"><ele>74.5</ele><time>2026-05-03T08:47:26.679Z</time></trkpt><trkpt lat="45.2069446" lon="9.0848092"><ele>73.33333333333334</ele><time>2026-05-03T08:47:29.675Z</time></trkpt><trkpt lat="45.2069204" lon="9.0847037"><ele>72.16666666666667</ele><time>2026-05-03T08:47:33.685Z</time></trkpt><trkpt lat="45.2069815" lon="9.0846425"><ele>71.0</ele><time>2026-05-03T08:47:37.676Z</time></trkpt><trkpt lat="45.2070548" lon="9.0845892"><ele>71.0</ele><time>2026-05-03T08:47:41.687Z</time></trkpt><trkpt lat="45.2070604" lon="9.084496"><ele>71.0</ele><time>2026-05-03T08:47:45.672Z</time></trkpt><trkpt lat="45.2070144" lon="9.0844284"><ele>71.0</ele><time>2026-05-03T08:47:48.689Z</time></trkpt><trkpt lat="45.2069784" lon="9.0843238"><ele>71.0</ele><time>2026-05-03T08:47:51.698Z</time></trkpt><trkpt lat="45.2069841" lon="9.0842136"><ele>71.0</ele><time>2026-05-03T08:47:54.675Z</time></trkpt><trkpt lat="45.2070017" lon="9.084098"><ele>71.0</ele><time>2026-05-03T08:47:57.671Z</time></trkpt><trkpt lat="45.2070643" lon="9.0840234"><ele>70.5</ele><time>2026-05-03T08:48:00.747Z</time></trkpt><trkpt lat="45.2071198" lon="9.0839382"><ele>70.0</ele><time>2026-05-03T08:48:04.67Z</time></trkpt><trkpt lat="45.2071425" lon="9.0838084"><ele>69.5</ele><time>2026-05-03T08:48:10.672Z</time></trkpt><trkpt lat="45.2071623" lon="9.0837101"><ele>69.0</ele><time>2026-05-03T08:48:13.681Z</time></trkpt><trkpt lat="45.2071917" lon="9.0836174"><ele>68.5</ele><time>2026-05-03T08:48:16.68Z</time></trkpt><trkpt lat="45.2072223" lon="9.0835217"><ele>68.0</ele><time>2026-05-03T08:48:19.666Z</time></trkpt><trkpt lat="45.2072546" lon="9.0834223"><ele>68.0</ele><time>2026-05-03T08:48:22.682Z</time></trkpt><trkpt lat="45.2072988" lon="9.0833207"><ele>68.0</ele><time>2026-05-03T08:48:26.751Z</time></trkpt><trkpt lat="45.2072387" lon="9.0831635"><ele>68.0</ele><time>2026-05-03T08:48:52.675Z</time></trkpt><trkpt lat="45.2071693" lon="9.0831726"><ele>68.0</ele><time>2026-05-03T08:48:56.671Z</time></trkpt><trkpt lat="45.2071649" lon="9.0830833"><ele>68.0</ele><time>2026-05-03T08:48:59.681Z</time></trkpt><trkpt lat="45.2071975" lon="9.0830065"><ele>68.0</ele><time>2026-05-03T08:49:01.684Z</time></trkpt><trkpt lat="45.2072331" lon="9.0829198"><ele>67.66666666666667</ele><time>2026-05-03T08:49:04.675Z</time></trkpt><trkpt lat="45.2072606" lon="9.0828081"><ele>67.33333333333334</ele><time>2026-05-03T08:49:08.677Z</time></trkpt><trkpt lat="45.2073227" lon="9.0827029"><ele>67.0</ele><time>2026-05-03T08:49:11.68Z</time></trkpt><trkpt lat="45.2073718" lon="9.0826073"><ele>66.66666666666667</ele><time>2026-05-03T08:49:14.685Z</time></trkpt><trkpt lat="45.2074159" lon="9.082512"><ele>66.33333333333333</ele><time>2026-05-03T08:49:17.674Z</time></trkpt><trkpt lat="45.2074628" lon="9.0823984"><ele>66.0</ele><time>2026-05-03T08:49:20.68Z</time></trkpt><trkpt lat="45.2074965" lon="9.0822958"><ele>67.57142857142857</ele><time>2026-05-03T08:49:23.69Z</time></trkpt><trkpt lat="45.2074888" lon="9.0821885"><ele>69.14285714285714</ele><time>2026-05-03T08:49:40.668Z</time></trkpt><trkpt lat="45.207431" lon="9.0821306"><ele>70.71428571428572</ele><time>2026-05-03T08:49:44.682Z</time></trkpt><trkpt lat="45.2075067" lon="9.0821512"><ele>72.28571428571428</ele><time>2026-05-03T08:50:21.669Z</time></trkpt><trkpt lat="45.2075719" lon="9.0821143"><ele>73.85714285714286</ele><time>2026-05-03T08:50:25.741Z</time></trkpt><trkpt lat="45.2076303" lon="9.0820646"><ele>75.42857142857143</ele><time>2026-05-03T08:50:28.677Z</time></trkpt><trkpt lat="45.2076573" lon="9.0819734"><ele>77.0</ele><time>2026-05-03T08:50:31.685Z</time></trkpt><trkpt lat="45.2076726" lon="9.0818699"><ele>77.0</ele><time>2026-05-03T08:50:37.669Z</time></trkpt><trkpt lat="45.2076847" lon="9.0817721"><ele>77.0</ele><time>2026-05-03T08:50:41.665Z</time></trkpt><trkpt lat="45.2076968" lon="9.0816839"><ele>77.0</ele><time>2026-05-03T08:50:44.677Z</time></trkpt><trkpt lat="45.2077251" lon="9.0816004"><ele>77.0</ele><time>2026-05-03T08:50:47.691Z</time></trkpt><trkpt lat="45.2077678" lon="9.0815068"><ele>77.0</ele><time>2026-05-03T08:50:51.675Z</time></trkpt><trkpt lat="45.207814" lon="9.0814263"><ele>77.0</ele><time>2026-05-03T08:50:55.672Z</time></trkpt><trkpt lat="45.2078217" lon="9.0813059"><ele>77.0</ele><time>2026-05-03T08:50:59.676Z</time></trkpt><trkpt lat="45.2078232" lon="9.0811834"><ele>76.57142857142857</ele><time>2026-05-03T08:51:02.682Z</time></trkpt><trkpt lat="45.2078097" lon="9.0810894"><ele>76.14285714285714</ele><time>2026-05-03T08:51:05.672Z</time></trkpt><trkpt lat="45.2077533" lon="9.0810341"><ele>75.71428571428572</ele><time>2026-05-03T08:51:08.682Z</time></trkpt><trkpt lat="45.2077342" lon="9.0809286"><ele>75.28571428571428</ele><time>2026-05-03T08:51:11.667Z</time></trkpt><trkpt lat="45.2077803" lon="9.0808574"><ele>74.85714285714286</ele><time>2026-05-03T08:51:15.679Z</time></trkpt><trkpt lat="45.2078401" lon="9.0808079"><ele>74.42857142857143</ele><time>2026-05-03T08:51:18.664Z</time></trkpt><trkpt lat="45.207887" lon="9.0807349"><ele>74.0</ele><time>2026-05-03T08:51:21.739Z</time></trkpt><trkpt lat="45.2079465" lon="9.0806708"><ele>73.57142857142857</ele><time>2026-05-03T08:51:24.672Z</time></trkpt><trkpt lat="45.2079738" lon="9.0805896"><ele>73.14285714285714</ele><time>2026-05-03T08:51:27.671Z</time></trkpt><trkpt lat="45.2079887" lon="9.0804995"><ele>72.71428571428571</ele><time>2026-05-03T08:51:30.679Z</time></trkpt><trkpt lat="45.2080242" lon="9.0804039"><ele>72.28571428571428</ele><time>2026-05-03T08:51:34.674Z</time></trkpt><trkpt lat="45.2080493" lon="9.0803113"><ele>71.85714285714285</ele><time>2026-05-03T08:51:38.678Z</time></trkpt><trkpt lat="45.2080042" lon="9.080231"><ele>71.42857142857143</ele><time>2026-05-03T08:51:42.677Z</time></trkpt><trkpt lat="45.2079466" lon="9.08014"><ele>71.0</ele><time>2026-05-03T08:51:45.672Z</time></trkpt><trkpt lat="45.2078969" lon="9.0800689"><ele>71.0</ele><time>2026-05-03T08:51:49.673Z</time></trkpt><trkpt lat="45.2078297" lon="9.0800528"><ele>71.0</ele><time>2026-05-03T08:51:55.677Z</time></trkpt><trkpt lat="45.2077704" lon="9.0799968"><ele>71.0</ele><time>2026-05-03T08:51:59.672Z</time></trkpt><trkpt lat="45.2077153" lon="9.079933"><ele>71.0</ele><time>2026-05-03T08:52:02.675Z</time></trkpt><trkpt lat="45.2076585" lon="9.0798684"><ele>71.0</ele><time>2026-05-03T08:52:05.677Z</time></trkpt><trkpt lat="45.2075876" lon="9.0797886"><ele>71.0</ele><time>2026-05-03T08:52:11.671Z</time></trkpt><trkpt lat="45.2075369" lon="9.0797053"><ele>71.0</ele><time>2026-05-03T08:52:14.679Z</time></trkpt><trkpt lat="45.2074747" lon="9.0796841"><ele>71.0</ele><time>2026-05-03T08:52:18.668Z</time></trkpt><trkpt lat="45.2074411" lon="9.0797694"><ele>71.0</ele><time>2026-05-03T08:52:21.675Z</time></trkpt><trkpt lat="45.2074172" lon="9.079886"><ele>71.0</ele><time>2026-05-03T08:52:24.679Z</time></trkpt><trkpt lat="45.207384" lon="9.0799807"><ele>71.0</ele><time>2026-05-03T08:52:27.69Z</time></trkpt><trkpt lat="45.2073657" lon="9.0800821"><ele>71.0</ele><time>2026-05-03T08:52:29.672Z</time></trkpt><trkpt lat="45.2073458" lon="9.0802017"><ele>69.66666666666667</ele><time>2026-05-03T08:52:31.679Z</time></trkpt><trkpt lat="45.2073135" lon="9.0803216"><ele>68.33333333333334</ele><time>2026-05-03T08:52:33.687Z</time></trkpt><trkpt lat="45.2072976" lon="9.0804126"><ele>67.0</ele><time>2026-05-03T08:52:35.673Z</time></trkpt><trkpt lat="45.2072725" lon="9.080512"><ele>65.66666666666667</ele><time>2026-05-03T08:52:38.672Z</time></trkpt><trkpt lat="45.2072461" lon="9.0806422"><ele>64.33333333333333</ele><time>2026-05-03T08:52:41.672Z</time></trkpt><trkpt lat="45.2072205" lon="9.0807276"><ele>63.0</ele><time>2026-05-03T08:52:43.67Z</time></trkpt><trkpt lat="45.2071882" lon="9.0808218"><ele>63.0</ele><time>2026-05-03T08:52:45.671Z</time></trkpt><trkpt lat="45.2071673" lon="9.0809306"><ele>63.0</ele><time>2026-05-03T08:52:47.676Z</time></trkpt><trkpt lat="45.2071325" lon="9.0810494"><ele>63.0</ele><time>2026-05-03T08:52:49.734Z</time></trkpt><trkpt lat="45.2071054" lon="9.0811639"><ele>63.0</ele><time>2026-05-03T08:52:51.671Z</time></trkpt><trkpt lat="45.2070696" lon="9.0812898"><ele>63.0</ele><time>2026-05-03T08:52:53.684Z</time></trkpt><trkpt lat="45.2070427" lon="9.0814068"><ele>63.0</ele><time>2026-05-03T08:52:55.685Z</time></trkpt><trkpt lat="45.207011" lon="9.0815206"><ele>63.333333333333336</ele><time>2026-05-03T08:52:57.683Z</time></trkpt><trkpt lat="45.2069797" lon="9.081638"><ele>63.66666666666667</ele><time>2026-05-03T08:52:59.674Z</time></trkpt><trkpt lat="45.2069599" lon="9.0817505"><ele>64.0</ele><time>2026-05-03T08:53:01.672Z</time></trkpt><trkpt lat="45.2069437" lon="9.0818776"><ele>64.33333333333334</ele><time>2026-05-03T08:53:03.743Z</time></trkpt><trkpt lat="45.2069376" lon="9.0819979"><ele>64.66666666666667</ele><time>2026-05-03T08:53:05.698Z</time></trkpt><trkpt lat="45.206921" lon="9.0821187"><ele>65.0</ele><time>2026-05-03T08:53:07.677Z</time></trkpt><trkpt lat="45.206891" lon="9.0822372"><ele>65.0</ele><time>2026-05-03T08:53:09.675Z</time></trkpt><trkpt lat="45.2068807" lon="9.0823501"><ele>65.0</ele><time>2026-05-03T08:53:11.683Z</time></trkpt><trkpt lat="45.2068639" lon="9.0824481"><ele>65.0</ele><time>2026-05-03T08:53:13.697Z</time></trkpt><trkpt lat="45.2068408" lon="9.0825733"><ele>65.0</ele><time>2026-05-03T08:53:16.756Z</time></trkpt><trkpt lat="45.2068262" lon="9.0826621"><ele>65.0</ele><time>2026-05-03T08:53:18.682Z</time></trkpt><trkpt lat="45.2068187" lon="9.0827744"><ele>65.0</ele><time>2026-05-03T08:53:20.665Z</time></trkpt><trkpt lat="45.2067911" lon="9.0828799"><ele>65.16666666666667</ele><time>2026-05-03T08:53:22.673Z</time></trkpt><trkpt lat="45.2067812" lon="9.0829921"><ele>65.33333333333334</ele><time>2026-05-03T08:53:24.675Z</time></trkpt><trkpt lat="45.20676" lon="9.0831011"><ele>65.5</ele><time>2026-05-03T08:53:26.673Z</time></trkpt><trkpt lat="45.2067406" lon="9.0832111"><ele>65.66666666666667</ele><time>2026-05-03T08:53:28.673Z</time></trkpt><trkpt lat="45.2067194" lon="9.083309"><ele>65.83333333333333</ele><time>2026-05-03T08:53:30.669Z</time></trkpt><trkpt lat="45.2066987" lon="9.0834143"><ele>66.0</ele><time>2026-05-03T08:53:32.668Z</time></trkpt><trkpt lat="45.2066855" lon="9.0835204"><ele>66.28571428571428</ele><time>2026-05-03T08:53:34.678Z</time></trkpt><trkpt lat="45.2066597" lon="9.0836159"><ele>66.57142857142857</ele><time>2026-05-03T08:53:36.681Z</time></trkpt><trkpt lat="45.2066396" lon="9.083711"><ele>66.85714285714286</ele><time>2026-05-03T08:53:38.677Z</time></trkpt><trkpt lat="45.2066319" lon="9.0838013"><ele>67.14285714285714</ele><time>2026-05-03T08:53:40.683Z</time></trkpt><trkpt lat="45.2066118" lon="9.0839017"><ele>67.42857142857143</ele><time>2026-05-03T08:53:42.763Z</time></trkpt><trkpt lat="45.2065893" lon="9.0839997"><ele>67.71428571428571</ele><time>2026-05-03T08:53:44.678Z</time></trkpt><trkpt lat="45.2065663" lon="9.0840878"><ele>68.0</ele><time>2026-05-03T08:53:46.679Z</time></trkpt><trkpt lat="45.2064989" lon="9.0841852"><ele>66.66666666666667</ele><time>2026-05-03T08:53:49.666Z</time></trkpt><trkpt lat="45.2064132" lon="9.0841928"><ele>65.33333333333334</ele><time>2026-05-03T08:53:51.675Z</time></trkpt><trkpt lat="45.2063387" lon="9.0841736"><ele>64.0</ele><time>2026-05-03T08:53:53.683Z</time></trkpt><trkpt lat="45.2062626" lon="9.0841532"><ele>62.66666666666667</ele><time>2026-05-03T08:53:55.673Z</time></trkpt><trkpt lat="45.2061935" lon="9.0841306"><ele>61.333333333333336</ele><time>2026-05-03T08:53:57.676Z</time></trkpt><trkpt lat="45.206131" lon="9.0841176"><ele>60.0</ele><time>2026-05-03T08:53:59.682Z</time></trkpt><trkpt lat="45.2060346" lon="9.0840869"><ele>60.0</ele><time>2026-05-03T08:54:02.676Z</time></trkpt><trkpt lat="45.2059614" lon="9.0840632"><ele>60.0</ele><time>2026-05-03T08:54:04.666Z</time></trkpt><trkpt lat="45.2058892" lon="9.0840399"><ele>60.0</ele><time>2026-05-03T08:54:06.76Z</time></trkpt><trkpt lat="45.2058055" lon="9.0840156"><ele>60.0</ele><time>2026-05-03T08:54:08.671Z</time></trkpt><trkpt lat="45.2057151" lon="9.0839876"><ele>60.0</ele><time>2026-05-03T08:54:10.677Z</time></trkpt><trkpt lat="45.2056223" lon="9.0839581"><ele>60.0</ele><time>2026-05-03T08:54:12.676Z</time></trkpt><trkpt lat="45.2055249" lon="9.083933"><ele>60.0</ele><time>2026-05-03T08:54:14.677Z</time></trkpt><trkpt lat="45.20543" lon="9.0838936"><ele>60.0</ele><time>2026-05-03T08:54:16.686Z</time></trkpt><trkpt lat="45.2053348" lon="9.0838731"><ele>60.0</ele><time>2026-05-03T08:54:18.669Z</time></trkpt><trkpt lat="45.2052404" lon="9.0838441"><ele>60.0</ele><time>2026-05-03T08:54:20.672Z</time></trkpt><trkpt lat="45.2051421" lon="9.0838159"><ele>60.0</ele><time>2026-05-03T08:54:22.669Z</time></trkpt><trkpt lat="45.2050437" lon="9.0837835"><ele>60.0</ele><time>2026-05-03T08:54:24.679Z</time></trkpt><trkpt lat="45.2049464" lon="9.0837555"><ele>60.0</ele><time>2026-05-03T08:54:26.676Z</time></trkpt><trkpt lat="45.2048499" lon="9.0837268"><ele>60.0</ele><time>2026-05-03T08:54:28.677Z</time></trkpt><trkpt lat="45.2047544" lon="9.083689"><ele>60.0</ele><time>2026-05-03T08:54:30.672Z</time></trkpt><trkpt lat="45.2046593" lon="9.0836625"><ele>60.0</ele><time>2026-05-03T08:54:32.672Z</time></trkpt><trkpt lat="45.2045666" lon="9.0836421"><ele>59.8</ele><time>2026-05-03T08:54:34.668Z</time></trkpt><trkpt lat="45.2044769" lon="9.0836136"><ele>59.6</ele><time>2026-05-03T08:54:36.683Z</time></trkpt><trkpt lat="45.2043863" lon="9.0835911"><ele>59.400000000000006</ele><time>2026-05-03T08:54:38.676Z</time></trkpt><trkpt lat="45.2042909" lon="9.0835499"><ele>59.2</ele><time>2026-05-03T08:54:40.683Z</time></trkpt><trkpt lat="45.2041989" lon="9.0835224"><ele>59.0</ele><time>2026-05-03T08:54:42.749Z</time></trkpt><trkpt lat="45.2041083" lon="9.0835021"><ele>59.00000000000001</ele><time>2026-05-03T08:54:44.679Z</time></trkpt><trkpt lat="45.2040211" lon="9.0834707"><ele>59.0</ele><time>2026-05-03T08:54:46.675Z</time></trkpt><trkpt lat="45.2039351" lon="9.0834348"><ele>59.0</ele><time>2026-05-03T08:54:48.674Z</time></trkpt><trkpt lat="45.2038538" lon="9.083412"><ele>59.0</ele><time>2026-05-03T08:54:50.678Z</time></trkpt><trkpt lat="45.2037686" lon="9.0833888"><ele>59.00000000000001</ele><time>2026-05-03T08:54:52.677Z</time></trkpt><trkpt lat="45.203688" lon="9.0833634"><ele>59.0</ele><time>2026-05-03T08:54:54.757Z</time></trkpt><trkpt lat="45.203593" lon="9.0833334"><ele>59.0</ele><time>2026-05-03T08:54:56.747Z</time></trkpt><trkpt lat="45.2034944" lon="9.083309"><ele>59.00000000000001</ele><time>2026-05-03T08:54:58.67Z</time></trkpt><trkpt lat="45.2034034" lon="9.0832861"><ele>59.00000000000001</ele><time>2026-05-03T08:55:00.673Z</time></trkpt><trkpt lat="45.2033228" lon="9.0832619"><ele>59.0</ele><time>2026-05-03T08:55:02.677Z</time></trkpt><trkpt lat="45.2032404" lon="9.0832258"><ele>59.0</ele><time>2026-05-03T08:55:04.676Z</time></trkpt><trkpt lat="45.2031514" lon="9.0831992"><ele>59.00000000000001</ele><time>2026-05-03T08:55:06.67Z</time></trkpt><trkpt lat="45.2030717" lon="9.0831721"><ele>59.0</ele><time>2026-05-03T08:55:08.67Z</time></trkpt><trkpt lat="45.2030047" lon="9.0831495"><ele>59.0</ele><time>2026-05-03T08:55:10.684Z</time></trkpt><trkpt lat="45.2029271" lon="9.0831829"><ele>59.0</ele><time>2026-05-03T08:55:13.68Z</time></trkpt><trkpt lat="45.2029371" lon="9.0833215"><ele>59.00000000000001</ele><time>2026-05-03T08:55:16.672Z</time></trkpt><trkpt lat="45.2029405" lon="9.0834441"><ele>59.0</ele><time>2026-05-03T08:55:18.682Z</time></trkpt><trkpt lat="45.2029453" lon="9.0835603"><ele>59.16666666666667</ele><time>2026-05-03T08:55:20.673Z</time></trkpt><trkpt lat="45.2029485" lon="9.0836796"><ele>59.333333333333336</ele><time>2026-05-03T08:55:22.678Z</time></trkpt><trkpt lat="45.2029497" lon="9.0837966"><ele>59.5</ele><time>2026-05-03T08:55:24.672Z</time></trkpt><trkpt lat="45.2029585" lon="9.0839085"><ele>59.66666666666667</ele><time>2026-05-03T08:55:26.676Z</time></trkpt><trkpt lat="45.202964" lon="9.0840245"><ele>59.833333333333336</ele><time>2026-05-03T08:55:28.675Z</time></trkpt><trkpt lat="45.2029709" lon="9.0841401"><ele>60.0</ele><time>2026-05-03T08:55:30.67Z</time></trkpt><trkpt lat="45.2029775" lon="9.0842631"><ele>59.6</ele><time>2026-05-03T08:55:32.671Z</time></trkpt><trkpt lat="45.2029822" lon="9.0843889"><ele>59.2</ele><time>2026-05-03T08:55:34.67Z</time></trkpt><trkpt lat="45.2029889" lon="9.0845155"><ele>58.8</ele><time>2026-05-03T08:55:36.669Z</time></trkpt><trkpt lat="45.2029918" lon="9.0846464"><ele>58.4</ele><time>2026-05-03T08:55:38.67Z</time></trkpt><trkpt lat="45.2030017" lon="9.0847778"><ele>58.0</ele><time>2026-05-03T08:55:40.668Z</time></trkpt><trkpt lat="45.2030028" lon="9.0849086"><ele>57.99999999999999</ele><time>2026-05-03T08:55:42.671Z</time></trkpt><trkpt lat="45.2030085" lon="9.0850329"><ele>58.0</ele><time>2026-05-03T08:55:44.675Z</time></trkpt><trkpt lat="45.2030151" lon="9.0851627"><ele>58.0</ele><time>2026-05-03T08:55:46.678Z</time></trkpt><trkpt lat="45.2030188" lon="9.0852846"><ele>58.0</ele><time>2026-05-03T08:55:48.671Z</time></trkpt><trkpt lat="45.2030293" lon="9.0854092"><ele>57.99999999999999</ele><time>2026-05-03T08:55:50.67Z</time></trkpt><trkpt lat="45.2030324" lon="9.0855354"><ele>58.0</ele><time>2026-05-03T08:55:52.689Z</time></trkpt><trkpt lat="45.2030364" lon="9.085658"><ele>57.83333333333333</ele><time>2026-05-03T08:55:54.678Z</time></trkpt><trkpt lat="45.2030438" lon="9.085779"><ele>57.666666666666664</ele><time>2026-05-03T08:55:56.674Z</time></trkpt><trkpt lat="45.203059" lon="9.0858991"><ele>57.5</ele><time>2026-05-03T08:55:58.674Z</time></trkpt><trkpt lat="45.2030719" lon="9.0860145"><ele>57.33333333333333</ele><time>2026-05-03T08:56:00.679Z</time></trkpt><trkpt lat="45.203084" lon="9.086127"><ele>57.166666666666664</ele><time>2026-05-03T08:56:02.672Z</time></trkpt><trkpt lat="45.203108" lon="9.0862491"><ele>57.0</ele><time>2026-05-03T08:56:04.669Z</time></trkpt><trkpt lat="45.2031332" lon="9.0863486"><ele>57.0</ele><time>2026-05-03T08:56:06.675Z</time></trkpt><trkpt lat="45.203162" lon="9.0864534"><ele>57.0</ele><time>2026-05-03T08:56:08.676Z</time></trkpt><trkpt lat="45.203198" lon="9.0865595"><ele>57.0</ele><time>2026-05-03T08:56:10.675Z</time></trkpt><trkpt lat="45.2032385" lon="9.08667"><ele>57.0</ele><time>2026-05-03T08:56:12.746Z</time></trkpt><trkpt lat="45.203285" lon="9.0867947"><ele>57.0</ele><time>2026-05-03T08:56:14.682Z</time></trkpt><trkpt lat="45.2033311" lon="9.0869241"><ele>57.2</ele><time>2026-05-03T08:56:16.673Z</time></trkpt><trkpt lat="45.2033753" lon="9.0870563"><ele>57.400000000000006</ele><time>2026-05-03T08:56:18.678Z</time></trkpt><trkpt lat="45.2034161" lon="9.0871717"><ele>57.599999999999994</ele><time>2026-05-03T08:56:20.677Z</time></trkpt><trkpt lat="45.2034622" lon="9.0872952"><ele>57.8</ele><time>2026-05-03T08:56:22.674Z</time></trkpt><trkpt lat="45.2035036" lon="9.0874243"><ele>58.0</ele><time>2026-05-03T08:56:24.671Z</time></trkpt><trkpt lat="45.2035426" lon="9.0875369"><ele>58.2</ele><time>2026-05-03T08:56:26.678Z</time></trkpt><trkpt lat="45.2035831" lon="9.0876597"><ele>58.4</ele><time>2026-05-03T08:56:28.678Z</time></trkpt><trkpt lat="45.2036225" lon="9.087785"><ele>58.60000000000001</ele><time>2026-05-03T08:56:30.678Z</time></trkpt><trkpt lat="45.2036645" lon="9.0878958"><ele>58.800000000000004</ele><time>2026-05-03T08:56:32.677Z</time></trkpt><trkpt lat="45.203697" lon="9.0880139"><ele>59.0</ele><time>2026-05-03T08:56:34.684Z</time></trkpt><trkpt lat="45.2037436" lon="9.0881441"><ele>59.2</ele><time>2026-05-03T08:56:36.679Z</time></trkpt><trkpt lat="45.2038058" lon="9.0882733"><ele>59.400000000000006</ele><time>2026-05-03T08:56:38.677Z</time></trkpt><trkpt lat="45.2038813" lon="9.0883774"><ele>59.6</ele><time>2026-05-03T08:56:40.677Z</time></trkpt><trkpt lat="45.2039571" lon="9.0884804"><ele>59.8</ele><time>2026-05-03T08:56:42.681Z</time></trkpt><trkpt lat="45.2040394" lon="9.0885634"><ele>60.0</ele><time>2026-05-03T08:56:44.677Z</time></trkpt><trkpt lat="45.2041296" lon="9.0886349"><ele>60.8</ele><time>2026-05-03T08:56:46.674Z</time></trkpt><trkpt lat="45.2042182" lon="9.0886958"><ele>61.6</ele><time>2026-05-03T08:56:48.694Z</time></trkpt><trkpt lat="45.2043018" lon="9.0887625"><ele>62.400000000000006</ele><time>2026-05-03T08:56:50.673Z</time></trkpt><trkpt lat="45.2043762" lon="9.0888491"><ele>63.2</ele><time>2026-05-03T08:56:52.673Z</time></trkpt><trkpt lat="45.2044591" lon="9.0889144"><ele>64.0</ele><time>2026-05-03T08:56:54.669Z</time></trkpt><trkpt lat="45.2045427" lon="9.0889672"><ele>63.99999999999999</ele><time>2026-05-03T08:56:56.68Z</time></trkpt><trkpt lat="45.2046202" lon="9.0890477"><ele>64.0</ele><time>2026-05-03T08:56:58.676Z</time></trkpt><trkpt lat="45.2046914" lon="9.0891356"><ele>64.0</ele><time>2026-05-03T08:57:00.676Z</time></trkpt><trkpt lat="45.2047487" lon="9.0892183"><ele>64.0</ele><time>2026-05-03T08:57:02.675Z</time></trkpt><trkpt lat="45.2047984" lon="9.089306"><ele>63.99999999999999</ele><time>2026-05-03T08:57:04.674Z</time></trkpt><trkpt lat="45.2048443" lon="9.0894086"><ele>64.0</ele><time>2026-05-03T08:57:06.671Z</time></trkpt><trkpt lat="45.2049016" lon="9.0894929"><ele>65.5</ele><time>2026-05-03T08:57:08.671Z</time></trkpt><trkpt lat="45.204946" lon="9.0895677"><ele>67.0</ele><time>2026-05-03T08:57:10.679Z</time></trkpt><trkpt lat="45.2050013" lon="9.0896417"><ele>68.5</ele><time>2026-05-03T08:57:12.684Z</time></trkpt><trkpt lat="45.2050588" lon="9.0897234"><ele>70.0</ele><time>2026-05-03T08:57:14.672Z</time></trkpt><trkpt lat="45.2051226" lon="9.0897682"><ele>71.5</ele><time>2026-05-03T08:57:16.678Z</time></trkpt><trkpt lat="45.2051927" lon="9.0898049"><ele>73.0</ele><time>2026-05-03T08:57:18.683Z</time></trkpt><trkpt lat="45.2052801" lon="9.0898307"><ele>73.0</ele><time>2026-05-03T08:57:21.68Z</time></trkpt><trkpt lat="45.2053504" lon="9.0899086"><ele>73.0</ele><time>2026-05-03T08:57:23.677Z</time></trkpt><trkpt lat="45.2054098" lon="9.0899847"><ele>73.0</ele><time>2026-05-03T08:57:25.67Z</time></trkpt><trkpt lat="45.2054648" lon="9.0900639"><ele>73.0</ele><time>2026-05-03T08:57:27.681Z</time></trkpt><trkpt lat="45.2055041" lon="9.090146"><ele>73.0</ele><time>2026-05-03T08:57:29.677Z</time></trkpt><trkpt lat="45.2055557" lon="9.0902355"><ele>73.0</ele><time>2026-05-03T08:57:32.677Z</time></trkpt><trkpt lat="45.205636" lon="9.090216"><ele>73.5</ele><time>2026-05-03T08:57:35.678Z</time></trkpt><trkpt lat="45.2056852" lon="9.0901438"><ele>74.0</ele><time>2026-05-03T08:57:37.679Z</time></trkpt><trkpt lat="45.2057363" lon="9.090072"><ele>74.5</ele><time>2026-05-03T08:57:39.674Z</time></trkpt><trkpt lat="45.2057899" lon="9.0900001"><ele>75.0</ele><time>2026-05-03T08:57:41.674Z</time></trkpt><trkpt lat="45.2058489" lon="9.0899317"><ele>75.5</ele><time>2026-05-03T08:57:43.681Z</time></trkpt><trkpt lat="45.2059077" lon="9.0898427"><ele>76.0</ele><time>2026-05-03T08:57:45.671Z</time></trkpt><trkpt lat="45.2059691" lon="9.0897524"><ele>76.0</ele><time>2026-05-03T08:57:47.679Z</time></trkpt><trkpt lat="45.2060383" lon="9.089679"><ele>76.0</ele><time>2026-05-03T08:57:49.755Z</time></trkpt><trkpt lat="45.2061024" lon="9.0896102"><ele>76.0</ele><time>2026-05-03T08:57:51.674Z</time></trkpt><trkpt lat="45.2061608" lon="9.0895479"><ele>76.0</ele><time>2026-05-03T08:57:53.684Z</time></trkpt><trkpt lat="45.2062153" lon="9.0894614"><ele>76.0</ele><time>2026-05-03T08:57:55.68Z</time></trkpt><trkpt lat="45.2062748" lon="9.0893806"><ele>76.0</ele><time>2026-05-03T08:57:57.677Z</time></trkpt><trkpt lat="45.2063325" lon="9.0892936"><ele>76.0</ele><time>2026-05-03T08:57:59.674Z</time></trkpt><trkpt lat="45.2063921" lon="9.0892148"><ele>76.0</ele><time>2026-05-03T08:58:01.67Z</time></trkpt><trkpt lat="45.206455" lon="9.0891319"><ele>76.0</ele><time>2026-05-03T08:58:03.68Z</time></trkpt><trkpt lat="45.2065248" lon="9.0890423"><ele>76.0</ele><time>2026-05-03T08:58:05.671Z</time></trkpt><trkpt lat="45.2065982" lon="9.0889574"><ele>76.0</ele><time>2026-05-03T08:58:07.685Z</time></trkpt><trkpt lat="45.2066666" lon="9.0888666"><ele>76.2</ele><time>2026-05-03T08:58:09.672Z</time></trkpt><trkpt lat="45.2067357" lon="9.088777"><ele>76.39999999999999</ele><time>2026-05-03T08:58:11.683Z</time></trkpt><trkpt lat="45.206802" lon="9.0886866"><ele>76.6</ele><time>2026-05-03T08:58:13.671Z</time></trkpt><trkpt lat="45.2068741" lon="9.0885987"><ele>76.8</ele><time>2026-05-03T08:58:15.674Z</time></trkpt><trkpt lat="45.2069441" lon="9.0885216"><ele>77.0</ele><time>2026-05-03T08:58:17.669Z</time></trkpt><trkpt lat="45.2070076" lon="9.088437"><ele>77.0</ele><time>2026-05-03T08:58:19.667Z</time></trkpt><trkpt lat="45.207073" lon="9.0883613"><ele>77.0</ele><time>2026-05-03T08:58:21.676Z</time></trkpt><trkpt lat="45.2071434" lon="9.0882749"><ele>77.0</ele><time>2026-05-03T08:58:23.684Z</time></trkpt><trkpt lat="45.2072108" lon="9.0881842"><ele>77.0</ele><time>2026-05-03T08:58:25.68Z</time></trkpt><trkpt lat="45.2072855" lon="9.0880856"><ele>77.0</ele><time>2026-05-03T08:58:27.672Z</time></trkpt><trkpt lat="45.2073716" lon="9.087994"><ele>77.33333333333334</ele><time>2026-05-03T08:58:29.678Z</time></trkpt><trkpt lat="45.2074555" lon="9.0879418"><ele>77.66666666666667</ele><time>2026-05-03T08:58:31.696Z</time></trkpt><trkpt lat="45.2075486" lon="9.0879138"><ele>78.0</ele><time>2026-05-03T08:58:33.666Z</time></trkpt><trkpt lat="45.2076303" lon="9.0878981"><ele>78.33333333333333</ele><time>2026-05-03T08:58:35.681Z</time></trkpt><trkpt lat="45.207705" lon="9.0878836"><ele>78.66666666666666</ele><time>2026-05-03T08:58:37.677Z</time></trkpt><trkpt lat="45.2077752" lon="9.0878833"><ele>79.0</ele><time>2026-05-03T08:58:39.669Z</time></trkpt><trkpt lat="45.2078623" lon="9.087882"><ele>79.0</ele><time>2026-05-03T08:58:41.678Z</time></trkpt><trkpt lat="45.2079507" lon="9.0878826"><ele>79.0</ele><time>2026-05-03T08:58:43.672Z</time></trkpt><trkpt lat="45.2080219" lon="9.0878973"><ele>79.0</ele><time>2026-05-03T08:58:45.676Z</time></trkpt><trkpt lat="45.2081099" lon="9.0879237"><ele>79.0</ele><time>2026-05-03T08:58:47.668Z</time></trkpt><trkpt lat="45.208183" lon="9.0879583"><ele>79.0</ele><time>2026-05-03T08:58:49.685Z</time></trkpt><trkpt lat="45.2082639" lon="9.0879642"><ele>79.0</ele><time>2026-05-03T08:58:51.673Z</time></trkpt><trkpt lat="45.2083452" lon="9.0879588"><ele>78.66666666666666</ele><time>2026-05-03T08:58:53.673Z</time></trkpt><trkpt lat="45.2084246" lon="9.0879224"><ele>78.33333333333333</ele><time>2026-05-03T08:58:55.679Z</time></trkpt><trkpt lat="45.2084859" lon="9.0878706"><ele>78.0</ele><time>2026-05-03T08:58:57.682Z</time></trkpt><trkpt lat="45.2085397" lon="9.0877879"><ele>77.66666666666667</ele><time>2026-05-03T08:58:59.682Z</time></trkpt><trkpt lat="45.2085864" lon="9.0876882"><ele>77.33333333333334</ele><time>2026-05-03T08:59:01.686Z</time></trkpt><trkpt lat="45.2086224" lon="9.0876095"><ele>77.0</ele><time>2026-05-03T08:59:03.672Z</time></trkpt><trkpt lat="45.2086656" lon="9.0875299"><ele>77.0</ele><time>2026-05-03T08:59:05.672Z</time></trkpt><trkpt lat="45.2087306" lon="9.0874561"><ele>77.0</ele><time>2026-05-03T08:59:07.67Z</time></trkpt><trkpt lat="45.208812" lon="9.0874218"><ele>77.0</ele><time>2026-05-03T08:59:09.674Z</time></trkpt><trkpt lat="45.2088935" lon="9.0874505"><ele>77.0</ele><time>2026-05-03T08:59:11.688Z</time></trkpt><trkpt lat="45.2089735" lon="9.0875133"><ele>77.0</ele><time>2026-05-03T08:59:13.674Z</time></trkpt><trkpt lat="45.209055" lon="9.0875989"><ele>77.0</ele><time>2026-05-03T08:59:15.668Z</time></trkpt><trkpt lat="45.2091378" lon="9.0876885"><ele>77.33333333333334</ele><time>2026-05-03T08:59:17.668Z</time></trkpt><trkpt lat="45.2092242" lon="9.0877696"><ele>77.66666666666667</ele><time>2026-05-03T08:59:19.676Z</time></trkpt><trkpt lat="45.2093033" lon="9.0878398"><ele>78.0</ele><time>2026-05-03T08:59:21.688Z</time></trkpt><trkpt lat="45.2093817" lon="9.0879166"><ele>78.33333333333333</ele><time>2026-05-03T08:59:23.675Z</time></trkpt><trkpt lat="45.2094497" lon="9.0879897"><ele>78.66666666666666</ele><time>2026-05-03T08:59:25.68Z</time></trkpt><trkpt lat="45.2095114" lon="9.0880413"><ele>79.0</ele><time>2026-05-03T08:59:27.673Z</time></trkpt><trkpt lat="45.2095759" lon="9.0881037"><ele>79.0</ele><time>2026-05-03T08:59:29.686Z</time></trkpt><trkpt lat="45.2096531" lon="9.088177"><ele>79.0</ele><time>2026-05-03T08:59:31.762Z</time></trkpt><trkpt lat="45.2097281" lon="9.0882482"><ele>79.0</ele><time>2026-05-03T08:59:33.683Z</time></trkpt><trkpt lat="45.2098036" lon="9.0883218"><ele>79.0</ele><time>2026-05-03T08:59:35.676Z</time></trkpt><trkpt lat="45.2098687" lon="9.0883872"><ele>79.0</ele><time>2026-05-03T08:59:37.674Z</time></trkpt><trkpt lat="45.2099278" lon="9.0884452"><ele>79.0</ele><time>2026-05-03T08:59:39.673Z</time></trkpt><trkpt lat="45.2099948" lon="9.0885154"><ele>79.00000000000001</ele><time>2026-05-03T08:59:41.675Z</time></trkpt><trkpt lat="45.2100566" lon="9.0885868"><ele>79.0</ele><time>2026-05-03T08:59:43.69Z</time></trkpt><trkpt lat="45.2101102" lon="9.0886461"><ele>79.0</ele><time>2026-05-03T08:59:45.67Z</time></trkpt><trkpt lat="45.2101638" lon="9.0887005"><ele>79.0</ele><time>2026-05-03T08:59:47.683Z</time></trkpt><trkpt lat="45.2102353" lon="9.0887664"><ele>79.0</ele><time>2026-05-03T08:59:50.672Z</time></trkpt><trkpt lat="45.2103015" lon="9.0887089"><ele>79.00000000000001</ele><time>2026-05-03T08:59:53.671Z</time></trkpt><trkpt lat="45.2103484" lon="9.0886301"><ele>79.0</ele><time>2026-05-03T08:59:55.752Z</time></trkpt><trkpt lat="45.2104067" lon="9.0885405"><ele>79.0</ele><time>2026-05-03T08:59:57.687Z</time></trkpt><trkpt lat="45.2104624" lon="9.0884453"><ele>79.0</ele><time>2026-05-03T08:59:59.681Z</time></trkpt><trkpt lat="45.2105115" lon="9.088356"><ele>79.0</ele><time>2026-05-03T09:00:01.678Z</time></trkpt><trkpt lat="45.2105576" lon="9.0882717"><ele>79.0</ele><time>2026-05-03T09:00:03.678Z</time></trkpt><trkpt lat="45.2106125" lon="9.088179"><ele>79.0</ele><time>2026-05-03T09:00:05.678Z</time></trkpt><trkpt lat="45.210666" lon="9.0880869"><ele>79.0</ele><time>2026-05-03T09:00:07.676Z</time></trkpt><trkpt lat="45.2107178" lon="9.0879936"><ele>79.0</ele><time>2026-05-03T09:00:09.683Z</time></trkpt><trkpt lat="45.2107735" lon="9.0878951"><ele>79.0</ele><time>2026-05-03T09:00:11.687Z</time></trkpt><trkpt lat="45.2108323" lon="9.0877956"><ele>79.0</ele><time>2026-05-03T09:00:13.663Z</time></trkpt><trkpt lat="45.2108826" lon="9.0876992"><ele>79.0</ele><time>2026-05-03T09:00:15.68Z</time></trkpt><trkpt lat="45.2109452" lon="9.0875947"><ele>79.0</ele><time>2026-05-03T09:00:17.677Z</time></trkpt><trkpt lat="45.2110038" lon="9.0874871"><ele>78.8</ele><time>2026-05-03T09:00:19.678Z</time></trkpt><trkpt lat="45.2110576" lon="9.0873973"><ele>78.60000000000001</ele><time>2026-05-03T09:00:21.683Z</time></trkpt><trkpt lat="45.2111141" lon="9.0872933"><ele>78.4</ele><time>2026-05-03T09:00:23.676Z</time></trkpt><trkpt lat="45.2111738" lon="9.0871896"><ele>78.2</ele><time>2026-05-03T09:00:25.678Z</time></trkpt><trkpt lat="45.211231" lon="9.0870929"><ele>78.0</ele><time>2026-05-03T09:00:27.68Z</time></trkpt><trkpt lat="45.2112922" lon="9.086984"><ele>78.0</ele><time>2026-05-03T09:00:29.688Z</time></trkpt><trkpt lat="45.2113533" lon="9.0868822"><ele>78.0</ele><time>2026-05-03T09:00:31.673Z</time></trkpt><trkpt lat="45.2114134" lon="9.0867753"><ele>78.0</ele><time>2026-05-03T09:00:33.679Z</time></trkpt><trkpt lat="45.2114706" lon="9.086678"><ele>78.0</ele><time>2026-05-03T09:00:35.674Z</time></trkpt><trkpt lat="45.2115257" lon="9.0865709"><ele>78.0</ele><time>2026-05-03T09:00:37.677Z</time></trkpt><trkpt lat="45.2115864" lon="9.0864616"><ele>78.16666666666667</ele><time>2026-05-03T09:00:39.679Z</time></trkpt><trkpt lat="45.2116437" lon="9.086364"><ele>78.33333333333333</ele><time>2026-05-03T09:00:41.672Z</time></trkpt><trkpt lat="45.2116965" lon="9.0862616"><ele>78.5</ele><time>2026-05-03T09:00:43.683Z</time></trkpt><trkpt lat="45.2117486" lon="9.0861651"><ele>78.66666666666666</ele><time>2026-05-03T09:00:45.669Z</time></trkpt><trkpt lat="45.2117933" lon="9.0860894"><ele>78.83333333333333</ele><time>2026-05-03T09:00:47.681Z</time></trkpt><trkpt lat="45.2118443" lon="9.085997"><ele>79.0</ele><time>2026-05-03T09:00:49.674Z</time></trkpt><trkpt lat="45.211894" lon="9.0859054"><ele>79.0</ele><time>2026-05-03T09:00:51.675Z</time></trkpt><trkpt lat="45.2119403" lon="9.0858199"><ele>79.0</ele><time>2026-05-03T09:00:53.683Z</time></trkpt><trkpt lat="45.2119959" lon="9.0857179"><ele>79.0</ele><time>2026-05-03T09:00:55.678Z</time></trkpt><trkpt lat="45.2120572" lon="9.0856213"><ele>79.0</ele><time>2026-05-03T09:00:57.696Z</time></trkpt><trkpt lat="45.2121151" lon="9.0855264"><ele>79.0</ele><time>2026-05-03T09:00:59.68Z</time></trkpt><trkpt lat="45.2121721" lon="9.0854268"><ele>79.0</ele><time>2026-05-03T09:01:01.678Z</time></trkpt><trkpt lat="45.2122269" lon="9.0853229"><ele>79.0</ele><time>2026-05-03T09:01:03.685Z</time></trkpt><trkpt lat="45.2122816" lon="9.0852193"><ele>79.0</ele><time>2026-05-03T09:01:05.67Z</time></trkpt><trkpt lat="45.2123455" lon="9.0851153"><ele>79.0</ele><time>2026-05-03T09:01:07.668Z</time></trkpt><trkpt lat="45.2124031" lon="9.0850232"><ele>79.0</ele><time>2026-05-03T09:01:09.679Z</time></trkpt><trkpt lat="45.2124595" lon="9.0849271"><ele>79.0</ele><time>2026-05-03T09:01:11.744Z</time></trkpt><trkpt lat="45.2125148" lon="9.0848316"><ele>79.33333333333333</ele><time>2026-05-03T09:01:13.689Z</time></trkpt><trkpt lat="45.2125628" lon="9.0847392"><ele>79.66666666666666</ele><time>2026-05-03T09:01:15.678Z</time></trkpt><trkpt lat="45.2126226" lon="9.0846355"><ele>80.0</ele><time>2026-05-03T09:01:17.677Z</time></trkpt><trkpt lat="45.2126768" lon="9.0845385"><ele>80.33333333333333</ele><time>2026-05-03T09:01:19.67Z</time></trkpt><trkpt lat="45.2127363" lon="9.0844408"><ele>80.66666666666667</ele><time>2026-05-03T09:01:21.67Z</time></trkpt><trkpt lat="45.212792" lon="9.0843353"><ele>81.0</ele><time>2026-05-03T09:01:23.678Z</time></trkpt><trkpt lat="45.2128445" lon="9.0842378"><ele>81.0</ele><time>2026-05-03T09:01:25.677Z</time></trkpt><trkpt lat="45.2129048" lon="9.0841332"><ele>81.0</ele><time>2026-05-03T09:01:27.679Z</time></trkpt><trkpt lat="45.2129617" lon="9.0840157"><ele>81.0</ele><time>2026-05-03T09:01:29.68Z</time></trkpt><trkpt lat="45.2130228" lon="9.0839147"><ele>81.0</ele><time>2026-05-03T09:01:31.689Z</time></trkpt><trkpt lat="45.213074" lon="9.0838198"><ele>81.0</ele><time>2026-05-03T09:01:33.674Z</time></trkpt><trkpt lat="45.2131219" lon="9.08374"><ele>81.0</ele><time>2026-05-03T09:01:35.681Z</time></trkpt><trkpt lat="45.2131829" lon="9.0836479"><ele>81.0</ele><time>2026-05-03T09:01:37.669Z</time></trkpt><trkpt lat="45.2132434" lon="9.0835531"><ele>81.0</ele><time>2026-05-03T09:01:39.675Z</time></trkpt><trkpt lat="45.2132991" lon="9.0834535"><ele>81.0</ele><time>2026-05-03T09:01:41.678Z</time></trkpt><trkpt lat="45.2133516" lon="9.0833674"><ele>81.0</ele><time>2026-05-03T09:01:43.676Z</time></trkpt><trkpt lat="45.2134036" lon="9.0832843"><ele>81.0</ele><time>2026-05-03T09:01:45.683Z</time></trkpt><trkpt lat="45.2134554" lon="9.0831769"><ele>81.0</ele><time>2026-05-03T09:01:47.671Z</time></trkpt><trkpt lat="45.2135162" lon="9.083091"><ele>81.0</ele><time>2026-05-03T09:01:49.676Z</time></trkpt><trkpt lat="45.2135762" lon="9.0829994"><ele>81.0</ele><time>2026-05-03T09:01:51.664Z</time></trkpt><trkpt lat="45.2136332" lon="9.0829026"><ele>81.0</ele><time>2026-05-03T09:01:53.674Z</time></trkpt><trkpt lat="45.2136925" lon="9.0827997"><ele>81.0</ele><time>2026-05-03T09:01:55.678Z</time></trkpt><trkpt lat="45.2137525" lon="9.0826854"><ele>81.0</ele><time>2026-05-03T09:01:57.683Z</time></trkpt><trkpt lat="45.213811" lon="9.0825812"><ele>81.0</ele><time>2026-05-03T09:01:59.674Z</time></trkpt><trkpt lat="45.2138632" lon="9.0824869"><ele>81.0</ele><time>2026-05-03T09:02:01.676Z</time></trkpt><trkpt lat="45.2139061" lon="9.0824026"><ele>81.0</ele><time>2026-05-03T09:02:03.671Z</time></trkpt><trkpt lat="45.2139584" lon="9.082301"><ele>81.0</ele><time>2026-05-03T09:02:05.678Z</time></trkpt><trkpt lat="45.2140203" lon="9.0821988"><ele>81.0</ele><time>2026-05-03T09:02:07.669Z</time></trkpt><trkpt lat="45.2140716" lon="9.0820975"><ele>81.0</ele><time>2026-05-03T09:02:09.677Z</time></trkpt><trkpt lat="45.2141255" lon="9.0819801"><ele>81.0</ele><time>2026-05-03T09:02:11.675Z</time></trkpt><trkpt lat="45.2141783" lon="9.081866"><ele>81.0</ele><time>2026-05-03T09:02:13.677Z</time></trkpt><trkpt lat="45.2142396" lon="9.0817503"><ele>81.0</ele><time>2026-05-03T09:02:15.68Z</time></trkpt><trkpt lat="45.2142933" lon="9.0816296"><ele>81.0</ele><time>2026-05-03T09:02:17.686Z</time></trkpt><trkpt lat="45.2143524" lon="9.0815188"><ele>81.0</ele><time>2026-05-03T09:02:19.672Z</time></trkpt><trkpt lat="45.2144065" lon="9.0814012"><ele>81.0</ele><time>2026-05-03T09:02:21.672Z</time></trkpt><trkpt lat="45.2144594" lon="9.0812939"><ele>81.0</ele><time>2026-05-03T09:02:23.67Z</time></trkpt><trkpt lat="45.2145109" lon="9.0811955"><ele>81.0</ele><time>2026-05-03T09:02:25.675Z</time></trkpt><trkpt lat="45.214565" lon="9.0810951"><ele>81.0</ele><time>2026-05-03T09:02:27.674Z</time></trkpt><trkpt lat="45.2146168" lon="9.080993"><ele>81.0</ele><time>2026-05-03T09:02:29.686Z</time></trkpt><trkpt lat="45.2146713" lon="9.0808773"><ele>81.0</ele><time>2026-05-03T09:02:31.675Z</time></trkpt><trkpt lat="45.2147207" lon="9.0807643"><ele>81.0</ele><time>2026-05-03T09:02:33.681Z</time></trkpt><trkpt lat="45.214771" lon="9.0806452"><ele>81.0</ele><time>2026-05-03T09:02:35.682Z</time></trkpt><trkpt lat="45.2148203" lon="9.0805355"><ele>81.0</ele><time>2026-05-03T09:02:37.667Z</time></trkpt><trkpt lat="45.2148651" lon="9.0804307"><ele>81.0</ele><time>2026-05-03T09:02:39.678Z</time></trkpt><trkpt lat="45.214895" lon="9.0803403"><ele>81.0</ele><time>2026-05-03T09:02:41.678Z</time></trkpt><trkpt lat="45.2148882" lon="9.0802336"><ele>81.0</ele><time>2026-05-03T09:02:44.676Z</time></trkpt><trkpt lat="45.2148299" lon="9.0801926"><ele>81.0</ele><time>2026-05-03T09:02:46.667Z</time></trkpt><trkpt lat="45.214768" lon="9.0801181"><ele>81.0</ele><time>2026-05-03T09:02:48.676Z</time></trkpt><trkpt lat="45.2147061" lon="9.0800473"><ele>81.0</ele><time>2026-05-03T09:02:50.748Z</time></trkpt><trkpt lat="45.2146467" lon="9.0799829"><ele>81.0</ele><time>2026-05-03T09:02:52.688Z</time></trkpt><trkpt lat="45.2145776" lon="9.0799107"><ele>81.0</ele><time>2026-05-03T09:02:54.677Z</time></trkpt><trkpt lat="45.2145062" lon="9.0798471"><ele>81.0</ele><time>2026-05-03T09:02:56.674Z</time></trkpt><trkpt lat="45.2144383" lon="9.0797757"><ele>81.0</ele><time>2026-05-03T09:02:58.67Z</time></trkpt><trkpt lat="45.2143629" lon="9.0796984"><ele>81.0</ele><time>2026-05-03T09:03:00.673Z</time></trkpt><trkpt lat="45.2142867" lon="9.0796271"><ele>81.0</ele><time>2026-05-03T09:03:02.672Z</time></trkpt><trkpt lat="45.2142132" lon="9.0795511"><ele>81.0</ele><time>2026-05-03T09:03:04.675Z</time></trkpt><trkpt lat="45.2141342" lon="9.0794658"><ele>81.0</ele><time>2026-05-03T09:03:06.669Z</time></trkpt><trkpt lat="45.214057" lon="9.0793889"><ele>81.0</ele><time>2026-05-03T09:03:08.682Z</time></trkpt><trkpt lat="45.2139786" lon="9.0793135"><ele>81.0</ele><time>2026-05-03T09:03:10.684Z</time></trkpt><trkpt lat="45.2138966" lon="9.0792302"><ele>81.0</ele><time>2026-05-03T09:03:12.676Z</time></trkpt><trkpt lat="45.2138121" lon="9.0791406"><ele>81.0</ele><time>2026-05-03T09:03:14.676Z</time></trkpt><trkpt lat="45.2137345" lon="9.0790533"><ele>79.83333333333333</ele><time>2026-05-03T09:03:16.667Z</time></trkpt><trkpt lat="45.213659" lon="9.0789666"><ele>78.66666666666667</ele><time>2026-05-03T09:03:18.668Z</time></trkpt><trkpt lat="45.2135887" lon="9.0788862"><ele>77.5</ele><time>2026-05-03T09:03:20.671Z</time></trkpt><trkpt lat="45.213525" lon="9.0788142"><ele>76.33333333333334</ele><time>2026-05-03T09:03:22.674Z</time></trkpt><trkpt lat="45.2134662" lon="9.0787601"><ele>75.16666666666667</ele><time>2026-05-03T09:03:24.672Z</time></trkpt><trkpt lat="45.2134172" lon="9.0787008"><ele>74.0</ele><time>2026-05-03T09:03:26.676Z</time></trkpt><trkpt lat="45.2133647" lon="9.0786438"><ele>74.0</ele><time>2026-05-03T09:03:28.675Z</time></trkpt><trkpt lat="45.213301" lon="9.0785899"><ele>74.0</ele><time>2026-05-03T09:03:30.681Z</time></trkpt><trkpt lat="45.2132458" lon="9.0785322"><ele>74.0</ele><time>2026-05-03T09:03:32.674Z</time></trkpt><trkpt lat="45.2131879" lon="9.0784951"><ele>74.0</ele><time>2026-05-03T09:03:34.669Z</time></trkpt><trkpt lat="45.2131365" lon="9.0784423"><ele>74.0</ele><time>2026-05-03T09:03:36.673Z</time></trkpt><trkpt lat="45.2130923" lon="9.0783314"><ele>74.0</ele><time>2026-05-03T09:03:39.664Z</time></trkpt><trkpt lat="45.2131176" lon="9.0782171"><ele>74.0</ele><time>2026-05-03T09:03:42.67Z</time></trkpt><trkpt lat="45.2131367" lon="9.0781293"><ele>74.66666666666667</ele><time>2026-05-03T09:03:44.669Z</time></trkpt><trkpt lat="45.2131355" lon="9.0780139"><ele>75.33333333333334</ele><time>2026-05-03T09:03:46.67Z</time></trkpt><trkpt lat="45.2131403" lon="9.0778909"><ele>76.0</ele><time>2026-05-03T09:03:48.669Z</time></trkpt><trkpt lat="45.213137" lon="9.0777611"><ele>76.66666666666667</ele><time>2026-05-03T09:03:50.676Z</time></trkpt><trkpt lat="45.2131379" lon="9.077643"><ele>77.33333333333333</ele><time>2026-05-03T09:03:52.668Z</time></trkpt><trkpt lat="45.2131344" lon="9.0775368"><ele>78.0</ele><time>2026-05-03T09:03:54.674Z</time></trkpt><trkpt lat="45.2131352" lon="9.0774439"><ele>77.5</ele><time>2026-05-03T09:03:56.665Z</time></trkpt><trkpt lat="45.2131348" lon="9.0773507"><ele>77.0</ele><time>2026-05-03T09:03:58.672Z</time></trkpt><trkpt lat="45.2131401" lon="9.0772415"><ele>76.5</ele><time>2026-05-03T09:04:00.67Z</time></trkpt><trkpt lat="45.2131399" lon="9.0771457"><ele>76.0</ele><time>2026-05-03T09:04:02.671Z</time></trkpt><trkpt lat="45.2131477" lon="9.0770193"><ele>75.5</ele><time>2026-05-03T09:04:05.674Z</time></trkpt><trkpt lat="45.2131834" lon="9.0769156"><ele>75.0</ele><time>2026-05-03T09:04:07.667Z</time></trkpt><trkpt lat="45.2132129" lon="9.0768066"><ele>75.0</ele><time>2026-05-03T09:04:09.672Z</time></trkpt><trkpt lat="45.2132463" lon="9.0767013"><ele>75.0</ele><time>2026-05-03T09:04:11.672Z</time></trkpt><trkpt lat="45.213285" lon="9.076589"><ele>75.0</ele><time>2026-05-03T09:04:13.67Z</time></trkpt><trkpt lat="45.2133212" lon="9.0764758"><ele>75.0</ele><time>2026-05-03T09:04:15.668Z</time></trkpt><trkpt lat="45.2133585" lon="9.0763583"><ele>75.0</ele><time>2026-05-03T09:04:17.67Z</time></trkpt><trkpt lat="45.2134006" lon="9.0762507"><ele>75.0</ele><time>2026-05-03T09:04:19.671Z</time></trkpt><trkpt lat="45.2134377" lon="9.0761395"><ele>74.5</ele><time>2026-05-03T09:04:21.665Z</time></trkpt><trkpt lat="45.2134784" lon="9.0760271"><ele>74.0</ele><time>2026-05-03T09:04:23.671Z</time></trkpt><trkpt lat="45.2135201" lon="9.0759154"><ele>73.5</ele><time>2026-05-03T09:04:25.673Z</time></trkpt><trkpt lat="45.2135548" lon="9.0758046"><ele>73.0</ele><time>2026-05-03T09:04:27.671Z</time></trkpt><trkpt lat="45.2135902" lon="9.0757106"><ele>72.5</ele><time>2026-05-03T09:04:29.672Z</time></trkpt><trkpt lat="45.213634" lon="9.0756259"><ele>72.0</ele><time>2026-05-03T09:04:31.68Z</time></trkpt><trkpt lat="45.2136848" lon="9.0755337"><ele>71.2</ele><time>2026-05-03T09:04:33.675Z</time></trkpt><trkpt lat="45.2137385" lon="9.0754416"><ele>70.4</ele><time>2026-05-03T09:04:35.669Z</time></trkpt><trkpt lat="45.2137844" lon="9.0753392"><ele>69.6</ele><time>2026-05-03T09:04:37.669Z</time></trkpt><trkpt lat="45.2138457" lon="9.0752409"><ele>68.8</ele><time>2026-05-03T09:04:39.675Z</time></trkpt><trkpt lat="45.2139161" lon="9.0751494"><ele>68.0</ele><time>2026-05-03T09:04:41.688Z</time></trkpt><trkpt lat="45.2139783" lon="9.075039"><ele>69.16666666666667</ele><time>2026-05-03T09:04:43.671Z</time></trkpt><trkpt lat="45.2140214" lon="9.0749307"><ele>70.33333333333334</ele><time>2026-05-03T09:04:45.674Z</time></trkpt><trkpt lat="45.2140795" lon="9.0748402"><ele>71.5</ele><time>2026-05-03T09:04:47.67Z</time></trkpt><trkpt lat="45.214144" lon="9.0747454"><ele>72.66666666666667</ele><time>2026-05-03T09:04:49.666Z</time></trkpt><trkpt lat="45.214196" lon="9.0746403"><ele>73.83333333333333</ele><time>2026-05-03T09:04:51.677Z</time></trkpt><trkpt lat="45.2142521" lon="9.0745481"><ele>75.0</ele><time>2026-05-03T09:04:53.686Z</time></trkpt><trkpt lat="45.2143104" lon="9.0744753"><ele>74.99999999999999</ele><time>2026-05-03T09:04:55.673Z</time></trkpt><trkpt lat="45.214371" lon="9.0744128"><ele>75.0</ele><time>2026-05-03T09:04:57.743Z</time></trkpt><trkpt lat="45.2144354" lon="9.0743511"><ele>75.0</ele><time>2026-05-03T09:04:59.681Z</time></trkpt><trkpt lat="45.2144938" lon="9.0743117"><ele>75.0</ele><time>2026-05-03T09:05:01.67Z</time></trkpt><trkpt lat="45.2145592" lon="9.0742785"><ele>75.0</ele><time>2026-05-03T09:05:03.672Z</time></trkpt><trkpt lat="45.2146322" lon="9.0742258"><ele>74.99999999999999</ele><time>2026-05-03T09:05:05.671Z</time></trkpt><trkpt lat="45.2147029" lon="9.074186"><ele>75.0</ele><time>2026-05-03T09:05:07.671Z</time></trkpt><trkpt lat="45.2147748" lon="9.074127"><ele>74.66666666666667</ele><time>2026-05-03T09:05:09.679Z</time></trkpt><trkpt lat="45.2148344" lon="9.0740531"><ele>74.33333333333333</ele><time>2026-05-03T09:05:11.667Z</time></trkpt><trkpt lat="45.2148858" lon="9.0739734"><ele>74.0</ele><time>2026-05-03T09:05:13.676Z</time></trkpt><trkpt lat="45.2149397" lon="9.0739071"><ele>73.66666666666666</ele><time>2026-05-03T09:05:15.672Z</time></trkpt><trkpt lat="45.2149899" lon="9.0738363"><ele>73.33333333333333</ele><time>2026-05-03T09:05:17.675Z</time></trkpt><trkpt lat="45.21504" lon="9.0737514"><ele>73.0</ele><time>2026-05-03T09:05:19.698Z</time></trkpt><trkpt lat="45.2150951" lon="9.0736788"><ele>73.0</ele><time>2026-05-03T09:05:21.671Z</time></trkpt><trkpt lat="45.2151429" lon="9.0736059"><ele>73.0</ele><time>2026-05-03T09:05:23.672Z</time></trkpt><trkpt lat="45.2152005" lon="9.0735284"><ele>73.0</ele><time>2026-05-03T09:05:25.678Z</time></trkpt><trkpt lat="45.2152534" lon="9.0734537"><ele>73.0</ele><time>2026-05-03T09:05:27.668Z</time></trkpt><trkpt lat="45.2153102" lon="9.0733564"><ele>73.0</ele><time>2026-05-03T09:05:29.669Z</time></trkpt><trkpt lat="45.2153761" lon="9.0732952"><ele>73.0</ele><time>2026-05-03T09:05:31.685Z</time></trkpt><trkpt lat="45.2154439" lon="9.0732103"><ele>73.16666666666666</ele><time>2026-05-03T09:05:33.67Z</time></trkpt><trkpt lat="45.2155004" lon="9.0731118"><ele>73.33333333333333</ele><time>2026-05-03T09:05:35.663Z</time></trkpt><trkpt lat="45.2155551" lon="9.0730342"><ele>73.5</ele><time>2026-05-03T09:05:37.669Z</time></trkpt><trkpt lat="45.2156098" lon="9.0729624"><ele>73.66666666666667</ele><time>2026-05-03T09:05:39.677Z</time></trkpt><trkpt lat="45.2156648" lon="9.0728832"><ele>73.83333333333334</ele><time>2026-05-03T09:05:41.661Z</time></trkpt><trkpt lat="45.2157285" lon="9.0727952"><ele>74.0</ele><time>2026-05-03T09:05:43.669Z</time></trkpt><trkpt lat="45.2157951" lon="9.0727068"><ele>74.0</ele><time>2026-05-03T09:05:45.679Z</time></trkpt><trkpt lat="45.2158608" lon="9.0726161"><ele>74.0</ele><time>2026-05-03T09:05:47.76Z</time></trkpt><trkpt lat="45.2159347" lon="9.0725188"><ele>74.0</ele><time>2026-05-03T09:05:49.674Z</time></trkpt><trkpt lat="45.2160027" lon="9.0724269"><ele>74.0</ele><time>2026-05-03T09:05:51.673Z</time></trkpt><trkpt lat="45.2160668" lon="9.0723378"><ele>74.0</ele><time>2026-05-03T09:05:53.67Z</time></trkpt><trkpt lat="45.2161373" lon="9.0722456"><ele>73.60000000000001</ele><time>2026-05-03T09:05:55.678Z</time></trkpt><trkpt lat="45.2162124" lon="9.0721504"><ele>73.2</ele><time>2026-05-03T09:05:57.676Z</time></trkpt><trkpt lat="45.2162827" lon="9.0720513"><ele>72.80000000000001</ele><time>2026-05-03T09:05:59.682Z</time></trkpt><trkpt lat="45.2163273" lon="9.0719509"><ele>72.4</ele><time>2026-05-03T09:06:01.672Z</time></trkpt><trkpt lat="45.2163737" lon="9.071847"><ele>72.0</ele><time>2026-05-03T09:06:03.671Z</time></trkpt><trkpt lat="45.2164421" lon="9.0717525"><ele>72.2</ele><time>2026-05-03T09:06:05.672Z</time></trkpt><trkpt lat="45.2165133" lon="9.0716553"><ele>72.4</ele><time>2026-05-03T09:06:07.669Z</time></trkpt><trkpt lat="45.2165823" lon="9.0715589"><ele>72.6</ele><time>2026-05-03T09:06:09.67Z</time></trkpt><trkpt lat="45.2166506" lon="9.07146"><ele>72.8</ele><time>2026-05-03T09:06:11.668Z</time></trkpt><trkpt lat="45.2167174" lon="9.0713924"><ele>73.0</ele><time>2026-05-03T09:06:13.672Z</time></trkpt><trkpt lat="45.2167855" lon="9.0713435"><ele>73.0</ele><time>2026-05-03T09:06:15.67Z</time></trkpt><trkpt lat="45.2168467" lon="9.0713085"><ele>73.0</ele><time>2026-05-03T09:06:17.661Z</time></trkpt><trkpt lat="45.2169314" lon="9.0712544"><ele>73.0</ele><time>2026-05-03T09:06:20.668Z</time></trkpt><trkpt lat="45.2169957" lon="9.0712166"><ele>73.0</ele><time>2026-05-03T09:06:22.667Z</time></trkpt><trkpt lat="45.2170677" lon="9.0711757"><ele>73.0</ele><time>2026-05-03T09:06:24.676Z</time></trkpt><trkpt lat="45.2171309" lon="9.07114"><ele>73.0</ele><time>2026-05-03T09:06:26.675Z</time></trkpt><trkpt lat="45.2171948" lon="9.0711092"><ele>73.0</ele><time>2026-05-03T09:06:28.676Z</time></trkpt><trkpt lat="45.2172542" lon="9.0710725"><ele>73.66666666666666</ele><time>2026-05-03T09:06:30.678Z</time></trkpt><trkpt lat="45.217323" lon="9.0710335"><ele>74.33333333333333</ele><time>2026-05-03T09:06:32.672Z</time></trkpt><trkpt lat="45.2173952" lon="9.0709911"><ele>75.0</ele><time>2026-05-03T09:06:34.678Z</time></trkpt><trkpt lat="45.2174707" lon="9.0709514"><ele>75.66666666666667</ele><time>2026-05-03T09:06:36.684Z</time></trkpt><trkpt lat="45.2175451" lon="9.0709239"><ele>76.33333333333334</ele><time>2026-05-03T09:06:38.671Z</time></trkpt><trkpt lat="45.2176114" lon="9.070888"><ele>77.0</ele><time>2026-05-03T09:06:40.679Z</time></trkpt><trkpt lat="45.217684" lon="9.0707918"><ele>76.66666666666667</ele><time>2026-05-03T09:06:42.66Z</time></trkpt><trkpt lat="45.2177368" lon="9.0706872"><ele>76.33333333333334</ele><time>2026-05-03T09:06:44.675Z</time></trkpt><trkpt lat="45.2177954" lon="9.0705862"><ele>76.0</ele><time>2026-05-03T09:06:46.668Z</time></trkpt><trkpt lat="45.2178615" lon="9.0704991"><ele>75.66666666666667</ele><time>2026-05-03T09:06:48.674Z</time></trkpt><trkpt lat="45.2179201" lon="9.0704059"><ele>75.33333333333333</ele><time>2026-05-03T09:06:50.679Z</time></trkpt><trkpt lat="45.2179533" lon="9.0703135"><ele>75.0</ele><time>2026-05-03T09:06:52.671Z</time></trkpt><trkpt lat="45.2179723" lon="9.0702168"><ele>75.0</ele><time>2026-05-03T09:06:54.674Z</time></trkpt><trkpt lat="45.2179831" lon="9.0701153"><ele>75.0</ele><time>2026-05-03T09:06:56.674Z</time></trkpt><trkpt lat="45.2179703" lon="9.0699979"><ele>75.0</ele><time>2026-05-03T09:06:58.68Z</time></trkpt><trkpt lat="45.217961" lon="9.069875"><ele>75.0</ele><time>2026-05-03T09:07:00.674Z</time></trkpt><trkpt lat="45.217961" lon="9.0697686"><ele>75.0</ele><time>2026-05-03T09:07:02.755Z</time></trkpt><trkpt lat="45.2179224" lon="9.069635"><ele>75.0</ele><time>2026-05-03T09:07:04.676Z</time></trkpt><trkpt lat="45.2178872" lon="9.0695196"><ele>74.8</ele><time>2026-05-03T09:07:06.679Z</time></trkpt><trkpt lat="45.2178538" lon="9.0694122"><ele>74.6</ele><time>2026-05-03T09:07:08.677Z</time></trkpt><trkpt lat="45.2178146" lon="9.0692985"><ele>74.4</ele><time>2026-05-03T09:07:10.668Z</time></trkpt><trkpt lat="45.2177818" lon="9.0691679"><ele>74.2</ele><time>2026-05-03T09:07:12.67Z</time></trkpt><trkpt lat="45.2177281" lon="9.0690535"><ele>74.0</ele><time>2026-05-03T09:07:14.666Z</time></trkpt><trkpt lat="45.2176737" lon="9.0689555"><ele>73.8</ele><time>2026-05-03T09:07:16.666Z</time></trkpt><trkpt lat="45.217628" lon="9.0688291"><ele>73.60000000000001</ele><time>2026-05-03T09:07:18.67Z</time></trkpt><trkpt lat="45.2175834" lon="9.0687115"><ele>73.4</ele><time>2026-05-03T09:07:20.674Z</time></trkpt><trkpt lat="45.217549" lon="9.0686018"><ele>73.2</ele><time>2026-05-03T09:07:22.676Z</time></trkpt><trkpt lat="45.2175062" lon="9.0684828"><ele>73.0</ele><time>2026-05-03T09:07:24.674Z</time></trkpt><trkpt lat="45.2174691" lon="9.0683519"><ele>73.2</ele><time>2026-05-03T09:07:26.669Z</time></trkpt><trkpt lat="45.2174419" lon="9.0682218"><ele>73.4</ele><time>2026-05-03T09:07:28.669Z</time></trkpt><trkpt lat="45.2174196" lon="9.0680984"><ele>73.60000000000001</ele><time>2026-05-03T09:07:30.67Z</time></trkpt><trkpt lat="45.2174075" lon="9.0679693"><ele>73.8</ele><time>2026-05-03T09:07:32.667Z</time></trkpt><trkpt lat="45.2173854" lon="9.0678452"><ele>74.0</ele><time>2026-05-03T09:07:34.673Z</time></trkpt><trkpt lat="45.2173654" lon="9.0677242"><ele>74.0</ele><time>2026-05-03T09:07:36.673Z</time></trkpt><trkpt lat="45.2173506" lon="9.0676167"><ele>74.0</ele><time>2026-05-03T09:07:38.672Z</time></trkpt><trkpt lat="45.2173344" lon="9.0675023"><ele>74.0</ele><time>2026-05-03T09:07:40.69Z</time></trkpt><trkpt lat="45.2173237" lon="9.0673838"><ele>74.0</ele><time>2026-05-03T09:07:42.668Z</time></trkpt><trkpt lat="45.2173051" lon="9.067253"><ele>74.0</ele><time>2026-05-03T09:07:44.668Z</time></trkpt><trkpt lat="45.2172811" lon="9.0671332"><ele>74.0</ele><time>2026-05-03T09:07:46.67Z</time></trkpt><trkpt lat="45.2172539" lon="9.0670209"><ele>73.83333333333334</ele><time>2026-05-03T09:07:48.664Z</time></trkpt><trkpt lat="45.2172521" lon="9.0669126"><ele>73.66666666666667</ele><time>2026-05-03T09:07:50.665Z</time></trkpt><trkpt lat="45.2172958" lon="9.0668393"><ele>73.5</ele><time>2026-05-03T09:07:52.672Z</time></trkpt><trkpt lat="45.2173592" lon="9.066778"><ele>73.33333333333333</ele><time>2026-05-03T09:07:54.749Z</time></trkpt><trkpt lat="45.2174269" lon="9.066727"><ele>73.16666666666666</ele><time>2026-05-03T09:07:56.684Z</time></trkpt><trkpt lat="45.2175051" lon="9.0666602"><ele>73.0</ele><time>2026-05-03T09:07:58.674Z</time></trkpt><trkpt lat="45.2175844" lon="9.066595"><ele>73.6</ele><time>2026-05-03T09:08:00.676Z</time></trkpt><trkpt lat="45.2176636" lon="9.0665262"><ele>74.19999999999999</ele><time>2026-05-03T09:08:02.678Z</time></trkpt><trkpt lat="45.2177424" lon="9.0664645"><ele>74.8</ele><time>2026-05-03T09:08:04.676Z</time></trkpt><trkpt lat="45.2178228" lon="9.0663975"><ele>75.39999999999999</ele><time>2026-05-03T09:08:06.67Z</time></trkpt><trkpt lat="45.2179019" lon="9.0663303"><ele>76.0</ele><time>2026-05-03T09:08:08.678Z</time></trkpt><trkpt lat="45.2179718" lon="9.0662588"><ele>76.0</ele><time>2026-05-03T09:08:10.665Z</time></trkpt><trkpt lat="45.2180419" lon="9.0661972"><ele>76.0</ele><time>2026-05-03T09:08:12.678Z</time></trkpt><trkpt lat="45.2181208" lon="9.0661411"><ele>76.0</ele><time>2026-05-03T09:08:14.668Z</time></trkpt><trkpt lat="45.2181969" lon="9.0660869"><ele>76.0</ele><time>2026-05-03T09:08:16.669Z</time></trkpt><trkpt lat="45.2182734" lon="9.0660203"><ele>76.0</ele><time>2026-05-03T09:08:18.685Z</time></trkpt><trkpt lat="45.2183416" lon="9.0659637"><ele>76.0</ele><time>2026-05-03T09:08:20.678Z</time></trkpt><trkpt lat="45.2184077" lon="9.0659116"><ele>76.0</ele><time>2026-05-03T09:08:22.67Z</time></trkpt><trkpt lat="45.2184816" lon="9.0658578"><ele>76.0</ele><time>2026-05-03T09:08:24.671Z</time></trkpt><trkpt lat="45.2185497" lon="9.0657946"><ele>76.0</ele><time>2026-05-03T09:08:26.675Z</time></trkpt><trkpt lat="45.21862" lon="9.0657359"><ele>76.0</ele><time>2026-05-03T09:08:28.671Z</time></trkpt><trkpt lat="45.2186915" lon="9.0656686"><ele>76.0</ele><time>2026-05-03T09:08:30.666Z</time></trkpt><trkpt lat="45.2187628" lon="9.0656038"><ele>76.0</ele><time>2026-05-03T09:08:32.671Z</time></trkpt><trkpt lat="45.2188332" lon="9.0655508"><ele>76.0</ele><time>2026-05-03T09:08:34.666Z</time></trkpt><trkpt lat="45.2188973" lon="9.0654981"><ele>76.0</ele><time>2026-05-03T09:08:36.677Z</time></trkpt><trkpt lat="45.2189658" lon="9.0654369"><ele>76.0</ele><time>2026-05-03T09:08:38.681Z</time></trkpt><trkpt lat="45.2190419" lon="9.0653735"><ele>76.0</ele><time>2026-05-03T09:08:40.669Z</time></trkpt><trkpt lat="45.2191178" lon="9.065308"><ele>76.0</ele><time>2026-05-03T09:08:42.757Z</time></trkpt><trkpt lat="45.2191873" lon="9.0652435"><ele>76.0</ele><time>2026-05-03T09:08:44.756Z</time></trkpt><trkpt lat="45.219255" lon="9.0651861"><ele>76.0</ele><time>2026-05-03T09:08:46.67Z</time></trkpt><trkpt lat="45.2193306" lon="9.0651352"><ele>76.0</ele><time>2026-05-03T09:08:48.664Z</time></trkpt><trkpt lat="45.2193882" lon="9.0650865"><ele>76.0</ele><time>2026-05-03T09:08:50.671Z</time></trkpt><trkpt lat="45.2194512" lon="9.0650356"><ele>76.0</ele><time>2026-05-03T09:08:52.676Z</time></trkpt><trkpt lat="45.2195232" lon="9.0649704"><ele>76.0</ele><time>2026-05-03T09:08:54.686Z</time></trkpt><trkpt lat="45.2195961" lon="9.064902"><ele>76.0</ele><time>2026-05-03T09:08:56.662Z</time></trkpt><trkpt lat="45.2196745" lon="9.0648339"><ele>76.0</ele><time>2026-05-03T09:08:58.671Z</time></trkpt><trkpt lat="45.2197455" lon="9.0647798"><ele>76.0</ele><time>2026-05-03T09:09:00.665Z</time></trkpt><trkpt lat="45.2198145" lon="9.0647177"><ele>76.0</ele><time>2026-05-03T09:09:02.668Z</time></trkpt><trkpt lat="45.219889" lon="9.0646493"><ele>76.0</ele><time>2026-05-03T09:09:04.673Z</time></trkpt><trkpt lat="45.2199623" lon="9.0645886"><ele>76.0</ele><time>2026-05-03T09:09:06.68Z</time></trkpt><trkpt lat="45.2200395" lon="9.0645298"><ele>76.0</ele><time>2026-05-03T09:09:08.754Z</time></trkpt><trkpt lat="45.2201148" lon="9.0644619"><ele>76.0</ele><time>2026-05-03T09:09:10.674Z</time></trkpt><trkpt lat="45.2201877" lon="9.0643997"><ele>76.0</ele><time>2026-05-03T09:09:12.674Z</time></trkpt><trkpt lat="45.2202662" lon="9.0643309"><ele>76.0</ele><time>2026-05-03T09:09:14.678Z</time></trkpt><trkpt lat="45.2203434" lon="9.0642753"><ele>76.0</ele><time>2026-05-03T09:09:16.667Z</time></trkpt><trkpt lat="45.2204257" lon="9.0642157"><ele>76.0</ele><time>2026-05-03T09:09:18.662Z</time></trkpt><trkpt lat="45.2205015" lon="9.0641483"><ele>76.0</ele><time>2026-05-03T09:09:20.674Z</time></trkpt><trkpt lat="45.2205824" lon="9.0640657"><ele>76.0</ele><time>2026-05-03T09:09:22.743Z</time></trkpt><trkpt lat="45.220662" lon="9.0639883"><ele>76.0</ele><time>2026-05-03T09:09:24.681Z</time></trkpt><trkpt lat="45.2207333" lon="9.0639083"><ele>76.0</ele><time>2026-05-03T09:09:26.666Z</time></trkpt><trkpt lat="45.220804" lon="9.0638339"><ele>76.0</ele><time>2026-05-03T09:09:28.669Z</time></trkpt><trkpt lat="45.2208652" lon="9.0637645"><ele>76.0</ele><time>2026-05-03T09:09:30.675Z</time></trkpt><trkpt lat="45.220934" lon="9.0636808"><ele>76.0</ele><time>2026-05-03T09:09:32.667Z</time></trkpt><trkpt lat="45.2210077" lon="9.0636012"><ele>76.0</ele><time>2026-05-03T09:09:34.672Z</time></trkpt><trkpt lat="45.2210743" lon="9.0635341"><ele>76.0</ele><time>2026-05-03T09:09:36.753Z</time></trkpt><trkpt lat="45.2211326" lon="9.0634638"><ele>76.0</ele><time>2026-05-03T09:09:38.673Z</time></trkpt><trkpt lat="45.2211959" lon="9.0633907"><ele>76.0</ele><time>2026-05-03T09:09:40.674Z</time></trkpt><trkpt lat="45.2212645" lon="9.0633027"><ele>76.0</ele><time>2026-05-03T09:09:42.673Z</time></trkpt><trkpt lat="45.2212717" lon="9.0631812"><ele>76.0</ele><time>2026-05-03T09:09:44.664Z</time></trkpt><trkpt lat="45.2212301" lon="9.0630792"><ele>76.39999999999999</ele><time>2026-05-03T09:09:46.674Z</time></trkpt><trkpt lat="45.2211825" lon="9.0629803"><ele>76.8</ele><time>2026-05-03T09:09:48.661Z</time></trkpt><trkpt lat="45.2211378" lon="9.0628814"><ele>77.19999999999999</ele><time>2026-05-03T09:09:50.668Z</time></trkpt><trkpt lat="45.2210927" lon="9.0627585"><ele>77.6</ele><time>2026-05-03T09:09:52.674Z</time></trkpt><trkpt lat="45.2210387" lon="9.0626328"><ele>78.0</ele><time>2026-05-03T09:09:54.67Z</time></trkpt><trkpt lat="45.2209816" lon="9.0625276"><ele>77.8</ele><time>2026-05-03T09:09:56.673Z</time></trkpt><trkpt lat="45.2209272" lon="9.0624275"><ele>77.6</ele><time>2026-05-03T09:09:58.67Z</time></trkpt><trkpt lat="45.2208805" lon="9.062313"><ele>77.4</ele><time>2026-05-03T09:10:00.668Z</time></trkpt><trkpt lat="45.2208155" lon="9.0621944"><ele>77.2</ele><time>2026-05-03T09:10:02.744Z</time></trkpt><trkpt lat="45.2207579" lon="9.0620763"><ele>77.0</ele><time>2026-05-03T09:10:04.671Z</time></trkpt><trkpt lat="45.2207059" lon="9.0619711"><ele>77.0</ele><time>2026-05-03T09:10:06.672Z</time></trkpt><trkpt lat="45.2206561" lon="9.0618733"><ele>77.0</ele><time>2026-05-03T09:10:08.669Z</time></trkpt><trkpt lat="45.2206153" lon="9.0617707"><ele>77.0</ele><time>2026-05-03T09:10:10.67Z</time></trkpt><trkpt lat="45.2205625" lon="9.0616738"><ele>77.0</ele><time>2026-05-03T09:10:12.668Z</time></trkpt><trkpt lat="45.2205137" lon="9.0615738"><ele>77.0</ele><time>2026-05-03T09:10:14.746Z</time></trkpt><trkpt lat="45.2204718" lon="9.0614806"><ele>77.0</ele><time>2026-05-03T09:10:16.676Z</time></trkpt><trkpt lat="45.2204388" lon="9.0613905"><ele>77.0</ele><time>2026-05-03T09:10:18.67Z</time></trkpt><trkpt lat="45.2204398" lon="9.0612922"><ele>77.0</ele><time>2026-05-03T09:10:20.671Z</time></trkpt><trkpt lat="45.2205013" lon="9.0611916"><ele>77.0</ele><time>2026-05-03T09:10:22.658Z</time></trkpt><trkpt lat="45.2205808" lon="9.0611029"><ele>77.0</ele><time>2026-05-03T09:10:24.666Z</time></trkpt><trkpt lat="45.2206492" lon="9.0610273"><ele>77.0</ele><time>2026-05-03T09:10:26.669Z</time></trkpt><trkpt lat="45.2207167" lon="9.0609724"><ele>77.0</ele><time>2026-05-03T09:10:28.67Z</time></trkpt><trkpt lat="45.2207793" lon="9.0609078"><ele>77.0</ele><time>2026-05-03T09:10:30.672Z</time></trkpt><trkpt lat="45.2208419" lon="9.0608349"><ele>77.0</ele><time>2026-05-03T09:10:32.675Z</time></trkpt><trkpt lat="45.2209085" lon="9.0607549"><ele>77.0</ele><time>2026-05-03T09:10:34.68Z</time></trkpt><trkpt lat="45.2209735" lon="9.060686"><ele>77.0</ele><time>2026-05-03T09:10:36.672Z</time></trkpt><trkpt lat="45.2210378" lon="9.0606093"><ele>77.0</ele><time>2026-05-03T09:10:38.667Z</time></trkpt><trkpt lat="45.2211025" lon="9.060538"><ele>77.0</ele><time>2026-05-03T09:10:40.668Z</time></trkpt><trkpt lat="45.2211703" lon="9.0604637"><ele>76.83333333333334</ele><time>2026-05-03T09:10:42.678Z</time></trkpt><trkpt lat="45.2212323" lon="9.0603925"><ele>76.66666666666667</ele><time>2026-05-03T09:10:44.675Z</time></trkpt><trkpt lat="45.2212936" lon="9.0603265"><ele>76.5</ele><time>2026-05-03T09:10:46.667Z</time></trkpt><trkpt lat="45.2213543" lon="9.0602577"><ele>76.33333333333333</ele><time>2026-05-03T09:10:48.672Z</time></trkpt><trkpt lat="45.2214234" lon="9.0601871"><ele>76.16666666666666</ele><time>2026-05-03T09:10:50.667Z</time></trkpt><trkpt lat="45.2214991" lon="9.0600998"><ele>76.0</ele><time>2026-05-03T09:10:52.676Z</time></trkpt><trkpt lat="45.2215705" lon="9.0600198"><ele>75.33333333333333</ele><time>2026-05-03T09:10:54.665Z</time></trkpt><trkpt lat="45.2216419" lon="9.0599414"><ele>74.66666666666666</ele><time>2026-05-03T09:10:56.665Z</time></trkpt><trkpt lat="45.2217008" lon="9.0598751"><ele>74.0</ele><time>2026-05-03T09:10:58.664Z</time></trkpt><trkpt lat="45.2217585" lon="9.0598028"><ele>73.33333333333333</ele><time>2026-05-03T09:11:00.666Z</time></trkpt><trkpt lat="45.2218273" lon="9.059735"><ele>72.66666666666667</ele><time>2026-05-03T09:11:02.664Z</time></trkpt><trkpt lat="45.2218976" lon="9.0596634"><ele>72.0</ele><time>2026-05-03T09:11:04.669Z</time></trkpt><trkpt lat="45.2219736" lon="9.0595882"><ele>72.0</ele><time>2026-05-03T09:11:06.744Z</time></trkpt><trkpt lat="45.2220466" lon="9.0595094"><ele>72.0</ele><time>2026-05-03T09:11:08.671Z</time></trkpt><trkpt lat="45.2221113" lon="9.0594293"><ele>72.0</ele><time>2026-05-03T09:11:10.673Z</time></trkpt><trkpt lat="45.2221657" lon="9.0593699"><ele>72.0</ele><time>2026-05-03T09:11:12.67Z</time></trkpt><trkpt lat="45.2222286" lon="9.0592942"><ele>72.0</ele><time>2026-05-03T09:11:14.667Z</time></trkpt><trkpt lat="45.2222978" lon="9.059204"><ele>72.0</ele><time>2026-05-03T09:11:16.662Z</time></trkpt><trkpt lat="45.2223603" lon="9.0591025"><ele>71.83333333333333</ele><time>2026-05-03T09:11:18.674Z</time></trkpt><trkpt lat="45.2224235" lon="9.0590049"><ele>71.66666666666667</ele><time>2026-05-03T09:11:20.671Z</time></trkpt><trkpt lat="45.2224987" lon="9.0589374"><ele>71.5</ele><time>2026-05-03T09:11:22.675Z</time></trkpt><trkpt lat="45.2225748" lon="9.0589176"><ele>71.33333333333334</ele><time>2026-05-03T09:11:24.66Z</time></trkpt><trkpt lat="45.2226404" lon="9.0589586"><ele>71.16666666666667</ele><time>2026-05-03T09:11:26.67Z</time></trkpt><trkpt lat="45.2227025" lon="9.0590288"><ele>71.0</ele><time>2026-05-03T09:11:28.672Z</time></trkpt><trkpt lat="45.2227711" lon="9.0591226"><ele>71.83333333333334</ele><time>2026-05-03T09:11:30.666Z</time></trkpt><trkpt lat="45.2228327" lon="9.0592027"><ele>72.66666666666667</ele><time>2026-05-03T09:11:32.666Z</time></trkpt><trkpt lat="45.2228886" lon="9.0592731"><ele>73.5</ele><time>2026-05-03T09:11:34.669Z</time></trkpt><trkpt lat="45.2229477" lon="9.0593482"><ele>74.33333333333333</ele><time>2026-05-03T09:11:36.663Z</time></trkpt><trkpt lat="45.2230137" lon="9.0594363"><ele>75.16666666666666</ele><time>2026-05-03T09:11:38.673Z</time></trkpt><trkpt lat="45.2230805" lon="9.0595246"><ele>76.0</ele><time>2026-05-03T09:11:40.67Z</time></trkpt><trkpt lat="45.2231451" lon="9.0596027"><ele>76.2</ele><time>2026-05-03T09:11:42.75Z</time></trkpt><trkpt lat="45.223218" lon="9.059681"><ele>76.39999999999999</ele><time>2026-05-03T09:11:44.68Z</time></trkpt><trkpt lat="45.2232878" lon="9.0597682"><ele>76.6</ele><time>2026-05-03T09:11:46.672Z</time></trkpt><trkpt lat="45.2233581" lon="9.0598731"><ele>76.8</ele><time>2026-05-03T09:11:48.67Z</time></trkpt><trkpt lat="45.2234336" lon="9.0599646"><ele>77.0</ele><time>2026-05-03T09:11:50.671Z</time></trkpt><trkpt lat="45.2235048" lon="9.0600569"><ele>77.16666666666667</ele><time>2026-05-03T09:11:52.673Z</time></trkpt><trkpt lat="45.2235699" lon="9.0601212"><ele>77.33333333333334</ele><time>2026-05-03T09:11:54.676Z</time></trkpt><trkpt lat="45.2236399" lon="9.0601803"><ele>77.5</ele><time>2026-05-03T09:11:56.749Z</time></trkpt><trkpt lat="45.2237224" lon="9.0602429"><ele>77.66666666666667</ele><time>2026-05-03T09:11:58.753Z</time></trkpt><trkpt lat="45.2237919" lon="9.0602998"><ele>77.83333333333333</ele><time>2026-05-03T09:12:00.676Z</time></trkpt><trkpt lat="45.2238607" lon="9.0603482"><ele>78.0</ele><time>2026-05-03T09:12:02.667Z</time></trkpt><trkpt lat="45.2239473" lon="9.0603928"><ele>77.83333333333333</ele><time>2026-05-03T09:12:04.674Z</time></trkpt><trkpt lat="45.2240441" lon="9.0604407"><ele>77.66666666666667</ele><time>2026-05-03T09:12:06.671Z</time></trkpt><trkpt lat="45.2241326" lon="9.0605043"><ele>77.5</ele><time>2026-05-03T09:12:08.673Z</time></trkpt><trkpt lat="45.2242065" lon="9.0605604"><ele>77.33333333333334</ele><time>2026-05-03T09:12:10.664Z</time></trkpt><trkpt lat="45.2242566" lon="9.0606466"><ele>77.16666666666667</ele><time>2026-05-03T09:12:12.675Z</time></trkpt><trkpt lat="45.2243099" lon="9.0607325"><ele>77.0</ele><time>2026-05-03T09:12:14.67Z</time></trkpt><trkpt lat="45.2243674" lon="9.0608255"><ele>77.0</ele><time>2026-05-03T09:12:16.678Z</time></trkpt><trkpt lat="45.2244166" lon="9.0609086"><ele>77.0</ele><time>2026-05-03T09:12:18.67Z</time></trkpt><trkpt lat="45.2244739" lon="9.0609466"><ele>77.0</ele><time>2026-05-03T09:12:20.67Z</time></trkpt><trkpt lat="45.2245386" lon="9.0608926"><ele>77.0</ele><time>2026-05-03T09:12:22.667Z</time></trkpt><trkpt lat="45.2245856" lon="9.0607772"><ele>77.0</ele><time>2026-05-03T09:12:24.671Z</time></trkpt><trkpt lat="45.2246334" lon="9.0607031"><ele>77.0</ele><time>2026-05-03T09:12:26.669Z</time></trkpt><trkpt lat="45.2246749" lon="9.0605974"><ele>77.0</ele><time>2026-05-03T09:12:28.665Z</time></trkpt><trkpt lat="45.2247106" lon="9.0605191"><ele>77.0</ele><time>2026-05-03T09:12:30.667Z</time></trkpt><trkpt lat="45.2247482" lon="9.060444"><ele>77.0</ele><time>2026-05-03T09:12:32.678Z</time></trkpt><trkpt lat="45.2247669" lon="9.0603551"><ele>77.0</ele><time>2026-05-03T09:12:34.674Z</time></trkpt><trkpt lat="45.2247851" lon="9.0602384"><ele>77.0</ele><time>2026-05-03T09:12:36.674Z</time></trkpt><trkpt lat="45.2247889" lon="9.0601328"><ele>77.0</ele><time>2026-05-03T09:12:38.673Z</time></trkpt><trkpt lat="45.2247893" lon="9.0600171"><ele>77.0</ele><time>2026-05-03T09:12:40.67Z</time></trkpt><trkpt lat="45.2247875" lon="9.0598858"><ele>77.0</ele><time>2026-05-03T09:12:42.669Z</time></trkpt><trkpt lat="45.2247652" lon="9.0597655"><ele>77.0</ele><time>2026-05-03T09:12:44.672Z</time></trkpt><trkpt lat="45.2247452" lon="9.0596495"><ele>77.0</ele><time>2026-05-03T09:12:46.672Z</time></trkpt><trkpt lat="45.224723" lon="9.0595402"><ele>77.0</ele><time>2026-05-03T09:12:48.675Z</time></trkpt><trkpt lat="45.224707" lon="9.0594497"><ele>77.0</ele><time>2026-05-03T09:12:50.674Z</time></trkpt><trkpt lat="45.2246856" lon="9.0593516"><ele>77.0</ele><time>2026-05-03T09:12:52.683Z</time></trkpt><trkpt lat="45.2246578" lon="9.0592505"><ele>77.0</ele><time>2026-05-03T09:12:54.675Z</time></trkpt><trkpt lat="45.2246464" lon="9.0591262"><ele>77.0</ele><time>2026-05-03T09:12:56.67Z</time></trkpt><trkpt lat="45.2246477" lon="9.0590087"><ele>77.0</ele><time>2026-05-03T09:12:58.679Z</time></trkpt><trkpt lat="45.2246858" lon="9.0588983"><ele>77.0</ele><time>2026-05-03T09:13:00.676Z</time></trkpt><trkpt lat="45.2247386" lon="9.0588009"><ele>77.0</ele><time>2026-05-03T09:13:02.671Z</time></trkpt><trkpt lat="45.2248051" lon="9.0587077"><ele>77.0</ele><time>2026-05-03T09:13:04.675Z</time></trkpt><trkpt lat="45.2248755" lon="9.0586245"><ele>76.83333333333334</ele><time>2026-05-03T09:13:06.671Z</time></trkpt><trkpt lat="45.2249539" lon="9.0585357"><ele>76.66666666666667</ele><time>2026-05-03T09:13:08.671Z</time></trkpt><trkpt lat="45.2250244" lon="9.0584584"><ele>76.5</ele><time>2026-05-03T09:13:10.677Z</time></trkpt><trkpt lat="45.225091" lon="9.0583799"><ele>76.33333333333333</ele><time>2026-05-03T09:13:12.759Z</time></trkpt><trkpt lat="45.2251526" lon="9.0583135"><ele>76.16666666666666</ele><time>2026-05-03T09:13:14.678Z</time></trkpt><trkpt lat="45.2252071" lon="9.0582241"><ele>76.0</ele><time>2026-05-03T09:13:16.671Z</time></trkpt><trkpt lat="45.225257" lon="9.0581375"><ele>75.83333333333333</ele><time>2026-05-03T09:13:18.671Z</time></trkpt><trkpt lat="45.2253144" lon="9.0580638"><ele>75.66666666666666</ele><time>2026-05-03T09:13:20.673Z</time></trkpt><trkpt lat="45.2253607" lon="9.0579858"><ele>75.5</ele><time>2026-05-03T09:13:22.665Z</time></trkpt><trkpt lat="45.2254021" lon="9.0579043"><ele>75.33333333333333</ele><time>2026-05-03T09:13:24.67Z</time></trkpt><trkpt lat="45.2254503" lon="9.0578141"><ele>75.16666666666667</ele><time>2026-05-03T09:13:26.663Z</time></trkpt><trkpt lat="45.2255037" lon="9.0576921"><ele>75.0</ele><time>2026-05-03T09:13:29.674Z</time></trkpt><trkpt lat="45.2255391" lon="9.0575431"><ele>74.83333333333333</ele><time>2026-05-03T09:13:31.67Z</time></trkpt><trkpt lat="45.2255752" lon="9.0574199"><ele>74.66666666666667</ele><time>2026-05-03T09:13:33.674Z</time></trkpt><trkpt lat="45.2256141" lon="9.0573342"><ele>74.5</ele><time>2026-05-03T09:13:35.67Z</time></trkpt><trkpt lat="45.2256522" lon="9.0572611"><ele>74.33333333333334</ele><time>2026-05-03T09:13:37.666Z</time></trkpt><trkpt lat="45.2256994" lon="9.0571814"><ele>74.16666666666667</ele><time>2026-05-03T09:13:39.666Z</time></trkpt><trkpt lat="45.2257477" lon="9.0571013"><ele>74.0</ele><time>2026-05-03T09:13:41.671Z</time></trkpt><trkpt lat="45.2258023" lon="9.0570083"><ele>74.0</ele><time>2026-05-03T09:13:43.672Z</time></trkpt><trkpt lat="45.2258486" lon="9.0569019"><ele>74.0</ele><time>2026-05-03T09:13:45.671Z</time></trkpt><trkpt lat="45.2259104" lon="9.0568115"><ele>74.0</ele><time>2026-05-03T09:13:47.673Z</time></trkpt><trkpt lat="45.2259793" lon="9.0567325"><ele>74.0</ele><time>2026-05-03T09:13:49.68Z</time></trkpt><trkpt lat="45.2260535" lon="9.05669"><ele>74.0</ele><time>2026-05-03T09:13:51.67Z</time></trkpt><trkpt lat="45.2261276" lon="9.056636"><ele>74.0</ele><time>2026-05-03T09:13:53.747Z</time></trkpt><trkpt lat="45.2261856" lon="9.0565586"><ele>74.0</ele><time>2026-05-03T09:13:55.674Z</time></trkpt><trkpt lat="45.2262243" lon="9.0564578"><ele>74.0</ele><time>2026-05-03T09:13:57.669Z</time></trkpt><trkpt lat="45.2262763" lon="9.0563507"><ele>74.0</ele><time>2026-05-03T09:14:00.667Z</time></trkpt><trkpt lat="45.2263212" lon="9.0562579"><ele>74.0</ele><time>2026-05-03T09:14:02.669Z</time></trkpt><trkpt lat="45.2263602" lon="9.0561592"><ele>74.0</ele><time>2026-05-03T09:14:04.668Z</time></trkpt><trkpt lat="45.2263961" lon="9.0560784"><ele>74.0</ele><time>2026-05-03T09:14:06.683Z</time></trkpt><trkpt lat="45.2264276" lon="9.0559995"><ele>74.0</ele><time>2026-05-03T09:14:08.666Z</time></trkpt><trkpt lat="45.2264629" lon="9.0559078"><ele>74.0</ele><time>2026-05-03T09:14:10.672Z</time></trkpt><trkpt lat="45.2264926" lon="9.0558032"><ele>74.0</ele><time>2026-05-03T09:14:12.671Z</time></trkpt><trkpt lat="45.2265349" lon="9.0556952"><ele>74.0</ele><time>2026-05-03T09:14:14.666Z</time></trkpt><trkpt lat="45.22658" lon="9.0555879"><ele>74.0</ele><time>2026-05-03T09:14:16.673Z</time></trkpt><trkpt lat="45.2266158" lon="9.0554769"><ele>74.0</ele><time>2026-05-03T09:14:18.667Z</time></trkpt><trkpt lat="45.2266568" lon="9.0553646"><ele>74.16666666666667</ele><time>2026-05-03T09:14:20.679Z</time></trkpt><trkpt lat="45.2266928" lon="9.0552561"><ele>74.33333333333334</ele><time>2026-05-03T09:14:22.679Z</time></trkpt><trkpt lat="45.2267288" lon="9.0551458"><ele>74.5</ele><time>2026-05-03T09:14:24.671Z</time></trkpt><trkpt lat="45.2267687" lon="9.0550461"><ele>74.66666666666667</ele><time>2026-05-03T09:14:26.673Z</time></trkpt><trkpt lat="45.2268056" lon="9.05494"><ele>74.83333333333333</ele><time>2026-05-03T09:14:28.669Z</time></trkpt><trkpt lat="45.2268376" lon="9.0548405"><ele>75.0</ele><time>2026-05-03T09:14:30.747Z</time></trkpt><trkpt lat="45.2268749" lon="9.0547466"><ele>75.0</ele><time>2026-05-03T09:14:32.67Z</time></trkpt><trkpt lat="45.2269092" lon="9.0546374"><ele>75.0</ele><time>2026-05-03T09:14:34.67Z</time></trkpt><trkpt lat="45.2269402" lon="9.0545244"><ele>75.0</ele><time>2026-05-03T09:14:36.67Z</time></trkpt><trkpt lat="45.2269723" lon="9.0544211"><ele>75.0</ele><time>2026-05-03T09:14:38.671Z</time></trkpt><trkpt lat="45.2270211" lon="9.0542999"><ele>75.0</ele><time>2026-05-03T09:14:41.668Z</time></trkpt><trkpt lat="45.2270604" lon="9.0541997"><ele>75.0</ele><time>2026-05-03T09:14:43.664Z</time></trkpt><trkpt lat="45.2271019" lon="9.0540807"><ele>75.33333333333333</ele><time>2026-05-03T09:14:45.681Z</time></trkpt><trkpt lat="45.2271349" lon="9.0539577"><ele>75.66666666666667</ele><time>2026-05-03T09:14:47.685Z</time></trkpt><trkpt lat="45.227181" lon="9.0538441"><ele>76.0</ele><time>2026-05-03T09:14:49.672Z</time></trkpt><trkpt lat="45.2272159" lon="9.0537373"><ele>76.33333333333334</ele><time>2026-05-03T09:14:51.676Z</time></trkpt><trkpt lat="45.2272462" lon="9.0536462"><ele>76.66666666666667</ele><time>2026-05-03T09:14:53.672Z</time></trkpt><trkpt lat="45.2273059" lon="9.0535478"><ele>77.0</ele><time>2026-05-03T09:14:56.683Z</time></trkpt><trkpt lat="45.2273714" lon="9.0535092"><ele>77.0</ele><time>2026-05-03T09:14:58.664Z</time></trkpt><trkpt lat="45.2274703" lon="9.0535188"><ele>77.0</ele><time>2026-05-03T09:15:00.664Z</time></trkpt><trkpt lat="45.2275628" lon="9.0535463"><ele>77.0</ele><time>2026-05-03T09:15:02.671Z</time></trkpt><trkpt lat="45.2276474" lon="9.0535829"><ele>77.0</ele><time>2026-05-03T09:15:04.663Z</time></trkpt><trkpt lat="45.227724" lon="9.05363"><ele>77.0</ele><time>2026-05-03T09:15:06.751Z</time></trkpt><trkpt lat="45.2277889" lon="9.0536768"><ele>77.0</ele><time>2026-05-03T09:15:08.677Z</time></trkpt><trkpt lat="45.2278571" lon="9.0537201"><ele>77.0</ele><time>2026-05-03T09:15:10.664Z</time></trkpt><trkpt lat="45.2279301" lon="9.0537653"><ele>77.0</ele><time>2026-05-03T09:15:12.672Z</time></trkpt><trkpt lat="45.2280169" lon="9.0538156"><ele>77.0</ele><time>2026-05-03T09:15:14.669Z</time></trkpt><trkpt lat="45.2280993" lon="9.0538692"><ele>77.0</ele><time>2026-05-03T09:15:16.669Z</time></trkpt><trkpt lat="45.2281757" lon="9.0539078"><ele>77.0</ele><time>2026-05-03T09:15:18.668Z</time></trkpt><trkpt lat="45.22825" lon="9.0539615"><ele>77.0</ele><time>2026-05-03T09:15:20.68Z</time></trkpt><trkpt lat="45.2283176" lon="9.0539764"><ele>77.33333333333334</ele><time>2026-05-03T09:15:22.669Z</time></trkpt><trkpt lat="45.2283836" lon="9.0539549"><ele>77.66666666666667</ele><time>2026-05-03T09:15:24.67Z</time></trkpt><trkpt lat="45.2284401" lon="9.0538697"><ele>78.0</ele><time>2026-05-03T09:15:26.665Z</time></trkpt><trkpt lat="45.2284779" lon="9.0537742"><ele>78.33333333333333</ele><time>2026-05-03T09:15:28.664Z</time></trkpt><trkpt lat="45.2285149" lon="9.0536561"><ele>78.66666666666666</ele><time>2026-05-03T09:15:30.669Z</time></trkpt><trkpt lat="45.2285519" lon="9.0535545"><ele>79.0</ele><time>2026-05-03T09:15:32.678Z</time></trkpt><trkpt lat="45.2285939" lon="9.0534715"><ele>79.0</ele><time>2026-05-03T09:15:34.683Z</time></trkpt><trkpt lat="45.228617" lon="9.0533502"><ele>79.0</ele><time>2026-05-03T09:15:36.671Z</time></trkpt><trkpt lat="45.2286323" lon="9.0532135"><ele>79.0</ele><time>2026-05-03T09:15:38.676Z</time></trkpt><trkpt lat="45.2286486" lon="9.0530729"><ele>79.0</ele><time>2026-05-03T09:15:40.68Z</time></trkpt><trkpt lat="45.2286633" lon="9.0529402"><ele>79.0</ele><time>2026-05-03T09:15:42.667Z</time></trkpt><trkpt lat="45.228674" lon="9.0528204"><ele>78.5</ele><time>2026-05-03T09:15:44.668Z</time></trkpt><trkpt lat="45.2286807" lon="9.0527055"><ele>78.0</ele><time>2026-05-03T09:15:46.663Z</time></trkpt><trkpt lat="45.228687" lon="9.0526016"><ele>77.5</ele><time>2026-05-03T09:15:48.665Z</time></trkpt><trkpt lat="45.2287" lon="9.0524843"><ele>77.0</ele><time>2026-05-03T09:15:50.675Z</time></trkpt><trkpt lat="45.2287097" lon="9.0523816"><ele>76.5</ele><time>2026-05-03T09:15:52.661Z</time></trkpt><trkpt lat="45.2287205" lon="9.0522828"><ele>76.0</ele><time>2026-05-03T09:15:54.679Z</time></trkpt><trkpt lat="45.2287254" lon="9.0521773"><ele>76.0</ele><time>2026-05-03T09:15:56.672Z</time></trkpt><trkpt lat="45.2287358" lon="9.0520775"><ele>76.0</ele><time>2026-05-03T09:15:58.67Z</time></trkpt><trkpt lat="45.2287498" lon="9.0519685"><ele>76.0</ele><time>2026-05-03T09:16:00.679Z</time></trkpt><trkpt lat="45.2287597" lon="9.0518519"><ele>76.0</ele><time>2026-05-03T09:16:02.667Z</time></trkpt><trkpt lat="45.2287699" lon="9.0517455"><ele>76.0</ele><time>2026-05-03T09:16:04.662Z</time></trkpt><trkpt lat="45.2287568" lon="9.0516141"><ele>76.0</ele><time>2026-05-03T09:16:07.673Z</time></trkpt><trkpt lat="45.2287045" lon="9.0515353"><ele>76.6</ele><time>2026-05-03T09:16:09.674Z</time></trkpt><trkpt lat="45.2286136" lon="9.0515052"><ele>77.19999999999999</ele><time>2026-05-03T09:16:11.752Z</time></trkpt><trkpt lat="45.2285367" lon="9.0514612"><ele>77.80000000000001</ele><time>2026-05-03T09:16:13.674Z</time></trkpt><trkpt lat="45.2284996" lon="9.0513382"><ele>78.4</ele><time>2026-05-03T09:16:15.661Z</time></trkpt><trkpt lat="45.2285219" lon="9.0512128"><ele>79.0</ele><time>2026-05-03T09:16:17.676Z</time></trkpt><trkpt lat="45.2285524" lon="9.0510868"><ele>79.0</ele><time>2026-05-03T09:16:19.67Z</time></trkpt><trkpt lat="45.2285782" lon="9.0509667"><ele>79.0</ele><time>2026-05-03T09:16:21.675Z</time></trkpt><trkpt lat="45.228598" lon="9.0508658"><ele>79.0</ele><time>2026-05-03T09:16:23.676Z</time></trkpt><trkpt lat="45.228612" lon="9.0507585"><ele>79.0</ele><time>2026-05-03T09:16:25.747Z</time></trkpt><trkpt lat="45.2286364" lon="9.0506434"><ele>79.0</ele><time>2026-05-03T09:16:27.674Z</time></trkpt><trkpt lat="45.2286549" lon="9.0505307"><ele>79.0</ele><time>2026-05-03T09:16:29.667Z</time></trkpt><trkpt lat="45.2286751" lon="9.0504296"><ele>79.00000000000001</ele><time>2026-05-03T09:16:31.67Z</time></trkpt><trkpt lat="45.228698" lon="9.0503213"><ele>79.0</ele><time>2026-05-03T09:16:33.678Z</time></trkpt><trkpt lat="45.2287163" lon="9.0502212"><ele>79.0</ele><time>2026-05-03T09:16:35.675Z</time></trkpt><trkpt lat="45.2287038" lon="9.0501286"><ele>79.0</ele><time>2026-05-03T09:16:37.671Z</time></trkpt><trkpt lat="45.2286384" lon="9.0500853"><ele>79.0</ele><time>2026-05-03T09:16:39.68Z</time></trkpt><trkpt lat="45.2285595" lon="9.0500498"><ele>79.00000000000001</ele><time>2026-05-03T09:16:41.675Z</time></trkpt><trkpt lat="45.2284873" lon="9.0500272"><ele>79.0</ele><time>2026-05-03T09:16:43.67Z</time></trkpt><trkpt lat="45.2284087" lon="9.0499752"><ele>78.83333333333333</ele><time>2026-05-03T09:16:45.671Z</time></trkpt><trkpt lat="45.2283689" lon="9.0498717"><ele>78.66666666666666</ele><time>2026-05-03T09:16:47.744Z</time></trkpt><trkpt lat="45.2283704" lon="9.0497653"><ele>78.5</ele><time>2026-05-03T09:16:49.674Z</time></trkpt><trkpt lat="45.2283839" lon="9.0496586"><ele>78.33333333333333</ele><time>2026-05-03T09:16:51.668Z</time></trkpt><trkpt lat="45.2283984" lon="9.0495379"><ele>78.16666666666667</ele><time>2026-05-03T09:16:53.664Z</time></trkpt><trkpt lat="45.228414" lon="9.0494125"><ele>78.0</ele><time>2026-05-03T09:16:55.663Z</time></trkpt><trkpt lat="45.2284241" lon="9.0492818"><ele>78.0</ele><time>2026-05-03T09:16:57.67Z</time></trkpt><trkpt lat="45.2284333" lon="9.049169"><ele>78.0</ele><time>2026-05-03T09:16:59.674Z</time></trkpt><trkpt lat="45.228446" lon="9.0490618"><ele>78.0</ele><time>2026-05-03T09:17:01.67Z</time></trkpt><trkpt lat="45.2284594" lon="9.0489468"><ele>78.0</ele><time>2026-05-03T09:17:03.667Z</time></trkpt><trkpt lat="45.2284756" lon="9.0488303"><ele>78.0</ele><time>2026-05-03T09:17:05.668Z</time></trkpt><trkpt lat="45.2284894" lon="9.0487251"><ele>78.0</ele><time>2026-05-03T09:17:07.666Z</time></trkpt><trkpt lat="45.2285001" lon="9.0486122"><ele>78.16666666666667</ele><time>2026-05-03T09:17:09.671Z</time></trkpt><trkpt lat="45.2285097" lon="9.0484951"><ele>78.33333333333333</ele><time>2026-05-03T09:17:11.674Z</time></trkpt><trkpt lat="45.2285218" lon="9.048381"><ele>78.5</ele><time>2026-05-03T09:17:13.671Z</time></trkpt><trkpt lat="45.2285321" lon="9.0482825"><ele>78.66666666666666</ele><time>2026-05-03T09:17:15.666Z</time></trkpt><trkpt lat="45.2285493" lon="9.0481714"><ele>78.83333333333333</ele><time>2026-05-03T09:17:17.664Z</time></trkpt><trkpt lat="45.2285588" lon="9.0480521"><ele>79.0</ele><time>2026-05-03T09:17:19.672Z</time></trkpt><trkpt lat="45.2285696" lon="9.0479283"><ele>78.5</ele><time>2026-05-03T09:17:21.675Z</time></trkpt><trkpt lat="45.2285838" lon="9.0478"><ele>78.0</ele><time>2026-05-03T09:17:23.675Z</time></trkpt><trkpt lat="45.2286003" lon="9.0476787"><ele>77.5</ele><time>2026-05-03T09:17:25.669Z</time></trkpt><trkpt lat="45.2286148" lon="9.0475712"><ele>77.0</ele><time>2026-05-03T09:17:27.671Z</time></trkpt><trkpt lat="45.2286308" lon="9.0474523"><ele>76.5</ele><time>2026-05-03T09:17:29.666Z</time></trkpt><trkpt lat="45.2286445" lon="9.0473312"><ele>76.0</ele><time>2026-05-03T09:17:31.671Z</time></trkpt><trkpt lat="45.2286612" lon="9.0472128"><ele>75.83333333333333</ele><time>2026-05-03T09:17:33.678Z</time></trkpt><trkpt lat="45.2286663" lon="9.047098"><ele>75.66666666666666</ele><time>2026-05-03T09:17:35.678Z</time></trkpt><trkpt lat="45.2286483" lon="9.047005"><ele>75.5</ele><time>2026-05-03T09:17:37.671Z</time></trkpt><trkpt lat="45.2286001" lon="9.0469199"><ele>75.33333333333333</ele><time>2026-05-03T09:17:39.676Z</time></trkpt><trkpt lat="45.2285424" lon="9.0468304"><ele>75.16666666666667</ele><time>2026-05-03T09:17:41.669Z</time></trkpt><trkpt lat="45.2285086" lon="9.0467192"><ele>75.0</ele><time>2026-05-03T09:17:43.666Z</time></trkpt><trkpt lat="45.2284895" lon="9.0466148"><ele>75.5</ele><time>2026-05-03T09:17:45.665Z</time></trkpt><trkpt lat="45.228481" lon="9.0464877"><ele>76.0</ele><time>2026-05-03T09:17:48.667Z</time></trkpt><trkpt lat="45.2284767" lon="9.0463894"><ele>76.5</ele><time>2026-05-03T09:17:50.666Z</time></trkpt><trkpt lat="45.2284737" lon="9.0462697"><ele>77.0</ele><time>2026-05-03T09:17:52.672Z</time></trkpt><trkpt lat="45.2284787" lon="9.0461459"><ele>77.5</ele><time>2026-05-03T09:17:54.679Z</time></trkpt><trkpt lat="45.2284722" lon="9.0460279"><ele>78.0</ele><time>2026-05-03T09:17:56.67Z</time></trkpt><trkpt lat="45.2284695" lon="9.0458919"><ele>78.0</ele><time>2026-05-03T09:17:58.666Z</time></trkpt><trkpt lat="45.2284648" lon="9.0457692"><ele>78.0</ele><time>2026-05-03T09:18:00.669Z</time></trkpt><trkpt lat="45.2284599" lon="9.045656"><ele>78.0</ele><time>2026-05-03T09:18:02.668Z</time></trkpt><trkpt lat="45.2284566" lon="9.0455377"><ele>78.0</ele><time>2026-05-03T09:18:04.67Z</time></trkpt><trkpt lat="45.228452" lon="9.0454194"><ele>78.0</ele><time>2026-05-03T09:18:06.757Z</time></trkpt><trkpt lat="45.2284647" lon="9.0452886"><ele>78.0</ele><time>2026-05-03T09:18:08.67Z</time></trkpt><trkpt lat="45.2284814" lon="9.0451638"><ele>78.0</ele><time>2026-05-03T09:18:10.672Z</time></trkpt><trkpt lat="45.228517" lon="9.0450478"><ele>78.0</ele><time>2026-05-03T09:18:12.671Z</time></trkpt><trkpt lat="45.2285579" lon="9.0449388"><ele>78.0</ele><time>2026-05-03T09:18:14.662Z</time></trkpt><trkpt lat="45.2286071" lon="9.0448344"><ele>78.0</ele><time>2026-05-03T09:18:16.666Z</time></trkpt><trkpt lat="45.2286587" lon="9.0447437"><ele>78.0</ele><time>2026-05-03T09:18:18.675Z</time></trkpt><trkpt lat="45.228715" lon="9.0446501"><ele>78.0</ele><time>2026-05-03T09:18:20.671Z</time></trkpt><trkpt lat="45.2287703" lon="9.0445524"><ele>78.0</ele><time>2026-05-03T09:18:22.675Z</time></trkpt><trkpt lat="45.2288291" lon="9.0444554"><ele>78.0</ele><time>2026-05-03T09:18:24.668Z</time></trkpt><trkpt lat="45.2288898" lon="9.0443575"><ele>78.0</ele><time>2026-05-03T09:18:26.672Z</time></trkpt><trkpt lat="45.2289539" lon="9.0442524"><ele>78.0</ele><time>2026-05-03T09:18:28.669Z</time></trkpt><trkpt lat="45.2290112" lon="9.0441547"><ele>78.0</ele><time>2026-05-03T09:18:30.672Z</time></trkpt><trkpt lat="45.2290806" lon="9.044065"><ele>78.2</ele><time>2026-05-03T09:18:32.665Z</time></trkpt><trkpt lat="45.2291582" lon="9.0439662"><ele>78.4</ele><time>2026-05-03T09:18:34.668Z</time></trkpt><trkpt lat="45.229224" lon="9.0438774"><ele>78.60000000000001</ele><time>2026-05-03T09:18:36.674Z</time></trkpt><trkpt lat="45.22929" lon="9.0437759"><ele>78.8</ele><time>2026-05-03T09:18:38.683Z</time></trkpt><trkpt lat="45.2293556" lon="9.0436948"><ele>79.0</ele><time>2026-05-03T09:18:40.671Z</time></trkpt><trkpt lat="45.229415" lon="9.0436171"><ele>79.0</ele><time>2026-05-03T09:18:42.662Z</time></trkpt><trkpt lat="45.2294777" lon="9.0435368"><ele>79.0</ele><time>2026-05-03T09:18:44.672Z</time></trkpt><trkpt lat="45.2295338" lon="9.0434559"><ele>79.0</ele><time>2026-05-03T09:18:46.668Z</time></trkpt><trkpt lat="45.2295843" lon="9.0433841"><ele>79.0</ele><time>2026-05-03T09:18:48.675Z</time></trkpt><trkpt lat="45.2296325" lon="9.0433114"><ele>79.0</ele><time>2026-05-03T09:18:50.67Z</time></trkpt><trkpt lat="45.2296908" lon="9.0432415"><ele>79.0</ele><time>2026-05-03T09:18:52.669Z</time></trkpt><trkpt lat="45.2297542" lon="9.0431486"><ele>78.83333333333333</ele><time>2026-05-03T09:18:54.659Z</time></trkpt><trkpt lat="45.2298197" lon="9.0430556"><ele>78.66666666666666</ele><time>2026-05-03T09:18:56.667Z</time></trkpt><trkpt lat="45.2298821" lon="9.0429798"><ele>78.5</ele><time>2026-05-03T09:18:58.665Z</time></trkpt><trkpt lat="45.2299511" lon="9.0429369"><ele>78.33333333333333</ele><time>2026-05-03T09:19:00.664Z</time></trkpt><trkpt lat="45.2300192" lon="9.0429212"><ele>78.16666666666667</ele><time>2026-05-03T09:19:02.668Z</time></trkpt><trkpt lat="45.2300811" lon="9.042942"><ele>78.0</ele><time>2026-05-03T09:19:04.669Z</time></trkpt><trkpt lat="45.2301568" lon="9.0429797"><ele>78.0</ele><time>2026-05-03T09:19:06.669Z</time></trkpt><trkpt lat="45.2302217" lon="9.0430448"><ele>78.0</ele><time>2026-05-03T09:19:08.667Z</time></trkpt><trkpt lat="45.2302855" lon="9.0431068"><ele>78.0</ele><time>2026-05-03T09:19:10.666Z</time></trkpt><trkpt lat="45.2303523" lon="9.0431796"><ele>78.0</ele><time>2026-05-03T09:19:12.671Z</time></trkpt><trkpt lat="45.2304026" lon="9.0432586"><ele>78.0</ele><time>2026-05-03T09:19:14.669Z</time></trkpt><trkpt lat="45.2304682" lon="9.0433311"><ele>78.0</ele><time>2026-05-03T09:19:16.667Z</time></trkpt><trkpt lat="45.2305327" lon="9.0434114"><ele>78.2</ele><time>2026-05-03T09:19:18.668Z</time></trkpt><trkpt lat="45.2305968" lon="9.0434958"><ele>78.4</ele><time>2026-05-03T09:19:20.67Z</time></trkpt><trkpt lat="45.2306576" lon="9.0435802"><ele>78.60000000000001</ele><time>2026-05-03T09:19:22.67Z</time></trkpt><trkpt lat="45.2307222" lon="9.0436696"><ele>78.8</ele><time>2026-05-03T09:19:24.667Z</time></trkpt><trkpt lat="45.2307948" lon="9.0437604"><ele>79.0</ele><time>2026-05-03T09:19:26.68Z</time></trkpt><trkpt lat="45.23087" lon="9.0438512"><ele>79.0</ele><time>2026-05-03T09:19:28.682Z</time></trkpt><trkpt lat="45.2309363" lon="9.0439399"><ele>79.0</ele><time>2026-05-03T09:19:30.691Z</time></trkpt><trkpt lat="45.2309939" lon="9.0440327"><ele>79.0</ele><time>2026-05-03T09:19:32.67Z</time></trkpt><trkpt lat="45.2310643" lon="9.0441276"><ele>79.0</ele><time>2026-05-03T09:19:34.671Z</time></trkpt><trkpt lat="45.2311389" lon="9.0442226"><ele>79.0</ele><time>2026-05-03T09:19:36.671Z</time></trkpt><trkpt lat="45.2312028" lon="9.0443051"><ele>79.0</ele><time>2026-05-03T09:19:38.663Z</time></trkpt><trkpt lat="45.2312681" lon="9.0443982"><ele>79.0</ele><time>2026-05-03T09:19:40.671Z</time></trkpt><trkpt lat="45.2313365" lon="9.0444884"><ele>79.0</ele><time>2026-05-03T09:19:42.682Z</time></trkpt><trkpt lat="45.2314069" lon="9.0445838"><ele>79.0</ele><time>2026-05-03T09:19:44.68Z</time></trkpt><trkpt lat="45.2314762" lon="9.0446814"><ele>79.0</ele><time>2026-05-03T09:19:46.669Z</time></trkpt><trkpt lat="45.2315401" lon="9.0447696"><ele>78.83333333333333</ele><time>2026-05-03T09:19:48.671Z</time></trkpt><trkpt lat="45.2315999" lon="9.0448527"><ele>78.66666666666666</ele><time>2026-05-03T09:19:50.673Z</time></trkpt><trkpt lat="45.2316602" lon="9.0449296"><ele>78.5</ele><time>2026-05-03T09:19:52.66Z</time></trkpt><trkpt lat="45.2317224" lon="9.0450084"><ele>78.33333333333333</ele><time>2026-05-03T09:19:54.673Z</time></trkpt><trkpt lat="45.2317818" lon="9.0450725"><ele>78.16666666666667</ele><time>2026-05-03T09:19:56.66Z</time></trkpt><trkpt lat="45.2318291" lon="9.0451394"><ele>78.0</ele><time>2026-05-03T09:19:58.667Z</time></trkpt><trkpt lat="45.2318825" lon="9.0452179"><ele>77.8</ele><time>2026-05-03T09:20:00.666Z</time></trkpt><trkpt lat="45.2319455" lon="9.0453063"><ele>77.6</ele><time>2026-05-03T09:20:02.678Z</time></trkpt><trkpt lat="45.2320104" lon="9.0453902"><ele>77.4</ele><time>2026-05-03T09:20:04.672Z</time></trkpt><trkpt lat="45.2320752" lon="9.0454797"><ele>77.2</ele><time>2026-05-03T09:20:06.67Z</time></trkpt><trkpt lat="45.2321438" lon="9.0455653"><ele>77.0</ele><time>2026-05-03T09:20:08.679Z</time></trkpt><trkpt lat="45.2322164" lon="9.0456534"><ele>77.0</ele><time>2026-05-03T09:20:10.668Z</time></trkpt><trkpt lat="45.232284" lon="9.0457442"><ele>77.0</ele><time>2026-05-03T09:20:12.671Z</time></trkpt><trkpt lat="45.2323578" lon="9.0458426"><ele>77.0</ele><time>2026-05-03T09:20:14.671Z</time></trkpt><trkpt lat="45.2324262" lon="9.0459364"><ele>77.0</ele><time>2026-05-03T09:20:16.673Z</time></trkpt><trkpt lat="45.2324851" lon="9.0460177"><ele>77.0</ele><time>2026-05-03T09:20:18.675Z</time></trkpt><trkpt lat="45.2325436" lon="9.046097"><ele>77.66666666666667</ele><time>2026-05-03T09:20:20.675Z</time></trkpt><trkpt lat="45.2326032" lon="9.0461756"><ele>78.33333333333334</ele><time>2026-05-03T09:20:22.67Z</time></trkpt><trkpt lat="45.2326633" lon="9.046262"><ele>79.0</ele><time>2026-05-03T09:20:24.674Z</time></trkpt><trkpt lat="45.2327242" lon="9.0463375"><ele>79.66666666666667</ele><time>2026-05-03T09:20:26.667Z</time></trkpt><trkpt lat="45.2327939" lon="9.0463474"><ele>80.33333333333333</ele><time>2026-05-03T09:20:28.667Z</time></trkpt><trkpt lat="45.2328457" lon="9.0462818"><ele>81.0</ele><time>2026-05-03T09:20:30.663Z</time></trkpt><trkpt lat="45.2328937" lon="9.0461988"><ele>81.0</ele><time>2026-05-03T09:20:32.676Z</time></trkpt><trkpt lat="45.2329511" lon="9.0461005"><ele>81.0</ele><time>2026-05-03T09:20:34.667Z</time></trkpt><trkpt lat="45.2330024" lon="9.0460144"><ele>81.0</ele><time>2026-05-03T09:20:36.735Z</time></trkpt><trkpt lat="45.2330517" lon="9.0459202"><ele>81.0</ele><time>2026-05-03T09:20:38.678Z</time></trkpt><trkpt lat="45.2331049" lon="9.0458314"><ele>81.0</ele><time>2026-05-03T09:20:40.679Z</time></trkpt><trkpt lat="45.2331592" lon="9.0457476"><ele>81.0</ele><time>2026-05-03T09:20:42.668Z</time></trkpt><trkpt lat="45.2332337" lon="9.0456879"><ele>80.8</ele><time>2026-05-03T09:20:44.666Z</time></trkpt><trkpt lat="45.2333228" lon="9.0457057"><ele>80.6</ele><time>2026-05-03T09:20:46.679Z</time></trkpt><trkpt lat="45.2333983" lon="9.0457867"><ele>80.4</ele><time>2026-05-03T09:20:48.668Z</time></trkpt><trkpt lat="45.2334723" lon="9.0458694"><ele>80.2</ele><time>2026-05-03T09:20:50.672Z</time></trkpt><trkpt lat="45.2335412" lon="9.0459552"><ele>80.0</ele><time>2026-05-03T09:20:52.668Z</time></trkpt><trkpt lat="45.2336159" lon="9.0460263"><ele>79.8</ele><time>2026-05-03T09:20:54.672Z</time></trkpt><trkpt lat="45.2336991" lon="9.0460965"><ele>79.6</ele><time>2026-05-03T09:20:56.683Z</time></trkpt><trkpt lat="45.2337788" lon="9.0461809"><ele>79.4</ele><time>2026-05-03T09:20:58.752Z</time></trkpt><trkpt lat="45.2338507" lon="9.0462602"><ele>79.2</ele><time>2026-05-03T09:21:00.67Z</time></trkpt><trkpt lat="45.2339307" lon="9.0463345"><ele>79.0</ele><time>2026-05-03T09:21:02.671Z</time></trkpt><trkpt lat="45.2340048" lon="9.0464051"><ele>78.83333333333333</ele><time>2026-05-03T09:21:04.666Z</time></trkpt><trkpt lat="45.2340706" lon="9.0464623"><ele>78.66666666666666</ele><time>2026-05-03T09:21:06.663Z</time></trkpt><trkpt lat="45.2341443" lon="9.046516"><ele>78.5</ele><time>2026-05-03T09:21:08.656Z</time></trkpt><trkpt lat="45.2342183" lon="9.0465834"><ele>78.33333333333333</ele><time>2026-05-03T09:21:10.75Z</time></trkpt><trkpt lat="45.2342854" lon="9.0466443"><ele>78.16666666666667</ele><time>2026-05-03T09:21:12.676Z</time></trkpt><trkpt lat="45.2343699" lon="9.0467104"><ele>78.0</ele><time>2026-05-03T09:21:14.673Z</time></trkpt><trkpt lat="45.2344589" lon="9.0467651"><ele>78.33333333333333</ele><time>2026-05-03T09:21:16.664Z</time></trkpt><trkpt lat="45.2345311" lon="9.046826"><ele>78.66666666666667</ele><time>2026-05-03T09:21:18.667Z</time></trkpt><trkpt lat="45.2346078" lon="9.0468806"><ele>79.0</ele><time>2026-05-03T09:21:20.673Z</time></trkpt><trkpt lat="45.2346735" lon="9.0469343"><ele>79.33333333333334</ele><time>2026-05-03T09:21:22.668Z</time></trkpt><trkpt lat="45.2347391" lon="9.0470002"><ele>79.66666666666667</ele><time>2026-05-03T09:21:24.663Z</time></trkpt><trkpt lat="45.2348041" lon="9.0470732"><ele>80.0</ele><time>2026-05-03T09:21:26.669Z</time></trkpt><trkpt lat="45.2348707" lon="9.0471256"><ele>80.66666666666667</ele><time>2026-05-03T09:21:28.666Z</time></trkpt><trkpt lat="45.2349508" lon="9.0471823"><ele>81.33333333333334</ele><time>2026-05-03T09:21:31.674Z</time></trkpt><trkpt lat="45.2350331" lon="9.047239"><ele>82.0</ele><time>2026-05-03T09:21:33.669Z</time></trkpt><trkpt lat="45.2351021" lon="9.0473138"><ele>82.66666666666667</ele><time>2026-05-03T09:21:35.71Z</time></trkpt><trkpt lat="45.2351826" lon="9.0473343"><ele>83.33333333333333</ele><time>2026-05-03T09:21:37.673Z</time></trkpt><trkpt lat="45.2352482" lon="9.0473714"><ele>84.0</ele><time>2026-05-03T09:21:39.67Z</time></trkpt><trkpt lat="45.2353343" lon="9.0473928"><ele>84.0</ele><time>2026-05-03T09:21:41.67Z</time></trkpt><trkpt lat="45.235423" lon="9.0474332"><ele>84.0</ele><time>2026-05-03T09:21:43.673Z</time></trkpt><trkpt lat="45.2354996" lon="9.0474881"><ele>84.0</ele><time>2026-05-03T09:21:45.677Z</time></trkpt><trkpt lat="45.2355754" lon="9.0475486"><ele>84.0</ele><time>2026-05-03T09:21:47.669Z</time></trkpt><trkpt lat="45.2356427" lon="9.0475964"><ele>84.0</ele><time>2026-05-03T09:21:49.67Z</time></trkpt><trkpt lat="45.2357083" lon="9.0476259"><ele>84.0</ele><time>2026-05-03T09:21:51.664Z</time></trkpt><trkpt lat="45.2357811" lon="9.0476506"><ele>84.5</ele><time>2026-05-03T09:21:53.671Z</time></trkpt><trkpt lat="45.2358471" lon="9.0477049"><ele>85.0</ele><time>2026-05-03T09:21:55.669Z</time></trkpt><trkpt lat="45.2359139" lon="9.0477843"><ele>85.5</ele><time>2026-05-03T09:21:57.668Z</time></trkpt><trkpt lat="45.2359822" lon="9.0478456"><ele>86.0</ele><time>2026-05-03T09:21:59.661Z</time></trkpt><trkpt lat="45.2360447" lon="9.0479245"><ele>86.5</ele><time>2026-05-03T09:22:01.666Z</time></trkpt><trkpt lat="45.2361133" lon="9.0480044"><ele>87.0</ele><time>2026-05-03T09:22:03.661Z</time></trkpt><trkpt lat="45.236182" lon="9.048086"><ele>87.0</ele><time>2026-05-03T09:22:05.664Z</time></trkpt><trkpt lat="45.2362465" lon="9.0481742"><ele>87.0</ele><time>2026-05-03T09:22:07.664Z</time></trkpt><trkpt lat="45.2363143" lon="9.0482624"><ele>87.0</ele><time>2026-05-03T09:22:09.656Z</time></trkpt><trkpt lat="45.2363725" lon="9.0483481"><ele>87.0</ele><time>2026-05-03T09:22:11.671Z</time></trkpt><trkpt lat="45.2364402" lon="9.0484294"><ele>87.0</ele><time>2026-05-03T09:22:13.744Z</time></trkpt><trkpt lat="45.2365086" lon="9.0485195"><ele>87.0</ele><time>2026-05-03T09:22:15.747Z</time></trkpt><trkpt lat="45.2365627" lon="9.048578"><ele>87.0</ele><time>2026-05-03T09:22:17.67Z</time></trkpt><trkpt lat="45.2366385" lon="9.048645"><ele>87.0</ele><time>2026-05-03T09:22:20.677Z</time></trkpt><trkpt lat="45.2367161" lon="9.0487051"><ele>87.0</ele><time>2026-05-03T09:22:23.668Z</time></trkpt><trkpt lat="45.2367952" lon="9.0487447"><ele>87.0</ele><time>2026-05-03T09:22:26.668Z</time></trkpt><trkpt lat="45.2368646" lon="9.0487088"><ele>87.0</ele><time>2026-05-03T09:22:30.678Z</time></trkpt><trkpt lat="45.2369063" lon="9.0485997"><ele>87.0</ele><time>2026-05-03T09:22:33.677Z</time></trkpt><trkpt lat="45.2369065" lon="9.0485057"><ele>87.0</ele><time>2026-05-03T09:22:35.679Z</time></trkpt><trkpt lat="45.2368996" lon="9.0483845"><ele>87.0</ele><time>2026-05-03T09:22:37.674Z</time></trkpt><trkpt lat="45.2368881" lon="9.0482588"><ele>87.0</ele><time>2026-05-03T09:22:39.672Z</time></trkpt><trkpt lat="45.236893" lon="9.0481563"><ele>87.0</ele><time>2026-05-03T09:22:41.751Z</time></trkpt><trkpt lat="45.2368997" lon="9.0480486"><ele>87.0</ele><time>2026-05-03T09:22:43.666Z</time></trkpt><trkpt lat="45.2368864" lon="9.0479407"><ele>87.0</ele><time>2026-05-03T09:22:45.671Z</time></trkpt><trkpt lat="45.2368917" lon="9.0478275"><ele>87.0</ele><time>2026-05-03T09:22:47.682Z</time></trkpt><trkpt lat="45.23691" lon="9.0477029"><ele>87.0</ele><time>2026-05-03T09:22:49.665Z</time></trkpt><trkpt lat="45.2369183" lon="9.0476086"><ele>87.0</ele><time>2026-05-03T09:22:51.673Z</time></trkpt><trkpt lat="45.2369212" lon="9.047513"><ele>87.0</ele><time>2026-05-03T09:22:53.672Z</time></trkpt><trkpt lat="45.2369066" lon="9.0473929"><ele>87.0</ele><time>2026-05-03T09:22:55.673Z</time></trkpt><trkpt lat="45.2369029" lon="9.0472732"><ele>87.0</ele><time>2026-05-03T09:22:57.677Z</time></trkpt><trkpt lat="45.2369028" lon="9.0471384"><ele>87.19999999999999</ele><time>2026-05-03T09:22:59.67Z</time></trkpt><trkpt lat="45.2368983" lon="9.047008"><ele>87.4</ele><time>2026-05-03T09:23:01.666Z</time></trkpt><trkpt lat="45.2368973" lon="9.0468747"><ele>87.6</ele><time>2026-05-03T09:23:03.676Z</time></trkpt><trkpt lat="45.2368968" lon="9.0467406"><ele>87.80000000000001</ele><time>2026-05-03T09:23:05.666Z</time></trkpt><trkpt lat="45.2369007" lon="9.046619"><ele>88.0</ele><time>2026-05-03T09:23:07.661Z</time></trkpt><trkpt lat="45.2368935" lon="9.0464952"><ele>88.0</ele><time>2026-05-03T09:23:09.669Z</time></trkpt><trkpt lat="45.2368884" lon="9.0463783"><ele>88.0</ele><time>2026-05-03T09:23:11.67Z</time></trkpt><trkpt lat="45.2368803" lon="9.0462575"><ele>88.0</ele><time>2026-05-03T09:23:13.667Z</time></trkpt><trkpt lat="45.2368808" lon="9.046127"><ele>88.0</ele><time>2026-05-03T09:23:15.667Z</time></trkpt><trkpt lat="45.2368798" lon="9.0460033"><ele>88.0</ele><time>2026-05-03T09:23:17.662Z</time></trkpt><trkpt lat="45.2368642" lon="9.0458823"><ele>88.0</ele><time>2026-05-03T09:23:19.668Z</time></trkpt><trkpt lat="45.2368593" lon="9.0457539"><ele>88.16666666666666</ele><time>2026-05-03T09:23:21.67Z</time></trkpt><trkpt lat="45.2368705" lon="9.0456228"><ele>88.33333333333333</ele><time>2026-05-03T09:23:23.679Z</time></trkpt><trkpt lat="45.2368746" lon="9.0455001"><ele>88.5</ele><time>2026-05-03T09:23:25.676Z</time></trkpt><trkpt lat="45.2368568" lon="9.0453839"><ele>88.66666666666667</ele><time>2026-05-03T09:23:27.668Z</time></trkpt><trkpt lat="45.2368492" lon="9.0452535"><ele>88.83333333333334</ele><time>2026-05-03T09:23:29.675Z</time></trkpt><trkpt lat="45.2368468" lon="9.0451244"><ele>89.0</ele><time>2026-05-03T09:23:31.75Z</time></trkpt><trkpt lat="45.2368541" lon="9.0450146"><ele>89.0</ele><time>2026-05-03T09:23:33.666Z</time></trkpt><trkpt lat="45.2368711" lon="9.0448998"><ele>89.0</ele><time>2026-05-03T09:23:35.668Z</time></trkpt><trkpt lat="45.2368852" lon="9.0447811"><ele>89.0</ele><time>2026-05-03T09:23:37.693Z</time></trkpt><trkpt lat="45.2369107" lon="9.0446515"><ele>89.0</ele><time>2026-05-03T09:23:39.668Z</time></trkpt><trkpt lat="45.2369423" lon="9.044524"><ele>89.0</ele><time>2026-05-03T09:23:41.663Z</time></trkpt><trkpt lat="45.2369604" lon="9.0444044"><ele>89.0</ele><time>2026-05-03T09:23:43.674Z</time></trkpt><trkpt lat="45.2369941" lon="9.0442849"><ele>89.0</ele><time>2026-05-03T09:23:45.663Z</time></trkpt><trkpt lat="45.2370318" lon="9.0441603"><ele>89.0</ele><time>2026-05-03T09:23:47.673Z</time></trkpt><trkpt lat="45.2370652" lon="9.0440337"><ele>89.0</ele><time>2026-05-03T09:23:49.667Z</time></trkpt><trkpt lat="45.2371043" lon="9.0438954"><ele>89.0</ele><time>2026-05-03T09:23:51.673Z</time></trkpt><trkpt lat="45.2371373" lon="9.0437598"><ele>89.0</ele><time>2026-05-03T09:23:53.663Z</time></trkpt><trkpt lat="45.2371696" lon="9.0436308"><ele>88.80000000000001</ele><time>2026-05-03T09:23:55.669Z</time></trkpt><trkpt lat="45.2372132" lon="9.0435051"><ele>88.60000000000001</ele><time>2026-05-03T09:23:57.67Z</time></trkpt><trkpt lat="45.2372548" lon="9.0433692"><ele>88.4</ele><time>2026-05-03T09:23:59.69Z</time></trkpt><trkpt lat="45.237289" lon="9.0432224"><ele>88.2</ele><time>2026-05-03T09:24:01.67Z</time></trkpt><trkpt lat="45.2373306" lon="9.0430643"><ele>88.0</ele><time>2026-05-03T09:24:03.667Z</time></trkpt><trkpt lat="45.2373812" lon="9.0429031"><ele>87.60000000000001</ele><time>2026-05-03T09:24:05.665Z</time></trkpt><trkpt lat="45.2374555" lon="9.0427675"><ele>87.2</ele><time>2026-05-03T09:24:07.664Z</time></trkpt><trkpt lat="45.2375264" lon="9.0426472"><ele>86.8</ele><time>2026-05-03T09:24:09.672Z</time></trkpt><trkpt lat="45.2376003" lon="9.0425461"><ele>86.4</ele><time>2026-05-03T09:24:11.675Z</time></trkpt><trkpt lat="45.2376829" lon="9.0424341"><ele>86.0</ele><time>2026-05-03T09:24:13.672Z</time></trkpt><trkpt lat="45.2377694" lon="9.0423262"><ele>86.0</ele><time>2026-05-03T09:24:15.666Z</time></trkpt><trkpt lat="45.2378539" lon="9.0422168"><ele>86.0</ele><time>2026-05-03T09:24:17.667Z</time></trkpt><trkpt lat="45.2379359" lon="9.042099"><ele>86.0</ele><time>2026-05-03T09:24:19.671Z</time></trkpt><trkpt lat="45.2380161" lon="9.041993"><ele>86.0</ele><time>2026-05-03T09:24:21.67Z</time></trkpt><trkpt lat="45.2380816" lon="9.0418935"><ele>86.0</ele><time>2026-05-03T09:24:23.668Z</time></trkpt><trkpt lat="45.2381504" lon="9.0418109"><ele>86.19999999999999</ele><time>2026-05-03T09:24:25.661Z</time></trkpt><trkpt lat="45.2382324" lon="9.0417045"><ele>86.39999999999999</ele><time>2026-05-03T09:24:27.667Z</time></trkpt><trkpt lat="45.2383115" lon="9.0416005"><ele>86.6</ele><time>2026-05-03T09:24:29.671Z</time></trkpt><trkpt lat="45.2383861" lon="9.0414885"><ele>86.8</ele><time>2026-05-03T09:24:31.669Z</time></trkpt><trkpt lat="45.2384695" lon="9.0413756"><ele>87.0</ele><time>2026-05-03T09:24:33.672Z</time></trkpt><trkpt lat="45.238555" lon="9.0412698"><ele>86.6</ele><time>2026-05-03T09:24:35.672Z</time></trkpt><trkpt lat="45.2386398" lon="9.0411662"><ele>86.19999999999999</ele><time>2026-05-03T09:24:37.68Z</time></trkpt><trkpt lat="45.2387053" lon="9.0410748"><ele>85.8</ele><time>2026-05-03T09:24:39.666Z</time></trkpt><trkpt lat="45.23877" lon="9.0409866"><ele>85.4</ele><time>2026-05-03T09:24:41.673Z</time></trkpt><trkpt lat="45.2388446" lon="9.040884"><ele>85.0</ele><time>2026-05-03T09:24:43.67Z</time></trkpt><trkpt lat="45.2389132" lon="9.0407917"><ele>85.4</ele><time>2026-05-03T09:24:45.673Z</time></trkpt><trkpt lat="45.2389835" lon="9.0407055"><ele>85.8</ele><time>2026-05-03T09:24:47.671Z</time></trkpt><trkpt lat="45.2390684" lon="9.0406018"><ele>86.19999999999999</ele><time>2026-05-03T09:24:49.679Z</time></trkpt><trkpt lat="45.2391648" lon="9.040481"><ele>86.6</ele><time>2026-05-03T09:24:51.669Z</time></trkpt><trkpt lat="45.2392507" lon="9.040372"><ele>87.0</ele><time>2026-05-03T09:24:53.67Z</time></trkpt><trkpt lat="45.2393318" lon="9.0402659"><ele>87.0</ele><time>2026-05-03T09:24:55.67Z</time></trkpt><trkpt lat="45.2394006" lon="9.0401772"><ele>87.0</ele><time>2026-05-03T09:24:57.668Z</time></trkpt><trkpt lat="45.239463" lon="9.0400926"><ele>87.0</ele><time>2026-05-03T09:24:59.667Z</time></trkpt><trkpt lat="45.2395268" lon="9.0400193"><ele>87.0</ele><time>2026-05-03T09:25:01.67Z</time></trkpt><trkpt lat="45.2395889" lon="9.0399302"><ele>87.0</ele><time>2026-05-03T09:25:03.666Z</time></trkpt><trkpt lat="45.2396438" lon="9.0398249"><ele>87.0</ele><time>2026-05-03T09:25:05.674Z</time></trkpt><trkpt lat="45.2396871" lon="9.039729"><ele>87.0</ele><time>2026-05-03T09:25:07.683Z</time></trkpt><trkpt lat="45.2397501" lon="9.0396439"><ele>87.0</ele><time>2026-05-03T09:25:09.665Z</time></trkpt><trkpt lat="45.2398039" lon="9.0395766"><ele>87.0</ele><time>2026-05-03T09:25:11.671Z</time></trkpt><trkpt lat="45.2398616" lon="9.039525"><ele>87.0</ele><time>2026-05-03T09:25:13.671Z</time></trkpt><trkpt lat="45.2399318" lon="9.039462"><ele>87.0</ele><time>2026-05-03T09:25:16.666Z</time></trkpt><trkpt lat="45.2399508" lon="9.0393631"><ele>87.0</ele><time>2026-05-03T09:25:19.662Z</time></trkpt><trkpt lat="45.2399215" lon="9.0392643"><ele>87.0</ele><time>2026-05-03T09:25:21.669Z</time></trkpt><trkpt lat="45.239853" lon="9.0391962"><ele>87.0</ele><time>2026-05-03T09:25:25.667Z</time></trkpt><trkpt lat="45.2398072" lon="9.0390824"><ele>87.0</ele><time>2026-05-03T09:25:27.669Z</time></trkpt><trkpt lat="45.2397612" lon="9.0389537"><ele>87.0</ele><time>2026-05-03T09:25:29.665Z</time></trkpt><trkpt lat="45.2397078" lon="9.0388156"><ele>87.0</ele><time>2026-05-03T09:25:31.677Z</time></trkpt><trkpt lat="45.2396467" lon="9.0386743"><ele>87.0</ele><time>2026-05-03T09:25:33.734Z</time></trkpt><trkpt lat="45.2396133" lon="9.0385875"><ele>87.0</ele><time>2026-05-03T09:25:34.668Z</time></trkpt><trkpt lat="45.2395827" lon="9.0385049"><ele>87.0</ele><time>2026-05-03T09:25:35.68Z</time></trkpt><trkpt lat="45.2395283" lon="9.0383453"><ele>87.0</ele><time>2026-05-03T09:25:37.671Z</time></trkpt><trkpt lat="45.2394978" lon="9.0381716"><ele>87.0</ele><time>2026-05-03T09:25:39.668Z</time></trkpt><trkpt lat="45.2395175" lon="9.0380154"><ele>86.0</ele><time>2026-05-03T09:25:41.665Z</time></trkpt><trkpt lat="45.239543" lon="9.0379193"><ele>85.0</ele><time>2026-05-03T09:25:42.674Z</time></trkpt><trkpt lat="45.2395858" lon="9.0378326"><ele>84.0</ele><time>2026-05-03T09:25:43.672Z</time></trkpt><trkpt lat="45.2396091" lon="9.0377454"><ele>83.0</ele><time>2026-05-03T09:25:44.661Z</time></trkpt><trkpt lat="45.2396188" lon="9.03765"><ele>82.0</ele><time>2026-05-03T09:25:45.676Z</time></trkpt><trkpt lat="45.2395864" lon="9.0375158"><ele>81.0</ele><time>2026-05-03T09:25:47.663Z</time></trkpt><trkpt lat="45.2394859" lon="9.0374286"><ele>80.6</ele><time>2026-05-03T09:25:49.666Z</time></trkpt><trkpt lat="45.2393951" lon="9.0373391"><ele>80.19999999999999</ele><time>2026-05-03T09:25:51.684Z</time></trkpt><trkpt lat="45.2393003" lon="9.0372422"><ele>79.80000000000001</ele><time>2026-05-03T09:25:53.672Z</time></trkpt><trkpt lat="45.2391964" lon="9.0371492"><ele>79.4</ele><time>2026-05-03T09:25:55.667Z</time></trkpt><trkpt lat="45.2391362" lon="9.0371002"><ele>79.0</ele><time>2026-05-03T09:25:56.673Z</time></trkpt><trkpt lat="45.2390771" lon="9.0370439"><ele>79.0</ele><time>2026-05-03T09:25:57.671Z</time></trkpt><trkpt lat="45.2390028" lon="9.036992"><ele>79.0</ele><time>2026-05-03T09:25:58.678Z</time></trkpt><trkpt lat="45.238927" lon="9.0369321"><ele>79.0</ele><time>2026-05-03T09:25:59.678Z</time></trkpt><trkpt lat="45.2388573" lon="9.0368666"><ele>79.0</ele><time>2026-05-03T09:26:00.74Z</time></trkpt><trkpt lat="45.2387804" lon="9.036803"><ele>79.0</ele><time>2026-05-03T09:26:01.675Z</time></trkpt><trkpt lat="45.2387049" lon="9.0367478"><ele>79.0</ele><time>2026-05-03T09:26:02.667Z</time></trkpt><trkpt lat="45.2386336" lon="9.0366809"><ele>77.83333333333333</ele><time>2026-05-03T09:26:03.67Z</time></trkpt><trkpt lat="45.2385692" lon="9.0366239"><ele>76.66666666666666</ele><time>2026-05-03T09:26:04.663Z</time></trkpt><trkpt lat="45.2385042" lon="9.0365638"><ele>75.5</ele><time>2026-05-03T09:26:05.686Z</time></trkpt><trkpt lat="45.2384354" lon="9.0365306"><ele>74.33333333333333</ele><time>2026-05-03T09:26:06.674Z</time></trkpt><trkpt lat="45.2383613" lon="9.0364962"><ele>73.16666666666667</ele><time>2026-05-03T09:26:07.674Z</time></trkpt><trkpt lat="45.2382863" lon="9.0364601"><ele>72.0</ele><time>2026-05-03T09:26:08.672Z</time></trkpt><trkpt lat="45.2381911" lon="9.036425"><ele>71.33333333333333</ele><time>2026-05-03T09:26:09.67Z</time></trkpt><trkpt lat="45.2381042" lon="9.0363877"><ele>70.66666666666667</ele><time>2026-05-03T09:26:10.676Z</time></trkpt><trkpt lat="45.2380276" lon="9.0363431"><ele>70.0</ele><time>2026-05-03T09:26:11.663Z</time></trkpt><trkpt lat="45.2379612" lon="9.0363006"><ele>69.33333333333334</ele><time>2026-05-03T09:26:12.669Z</time></trkpt><trkpt lat="45.2378915" lon="9.036254"><ele>68.66666666666667</ele><time>2026-05-03T09:26:13.744Z</time></trkpt><trkpt lat="45.2378009" lon="9.0361898"><ele>68.0</ele><time>2026-05-03T09:26:14.669Z</time></trkpt><trkpt lat="45.2377134" lon="9.0361291"><ele>68.0</ele><time>2026-05-03T09:26:15.681Z</time></trkpt><trkpt lat="45.2376345" lon="9.0360572"><ele>68.0</ele><time>2026-05-03T09:26:16.667Z</time></trkpt><trkpt lat="45.2375649" lon="9.035989"><ele>68.0</ele><time>2026-05-03T09:26:17.662Z</time></trkpt><trkpt lat="45.2374364" lon="9.0358844"><ele>68.0</ele><time>2026-05-03T09:26:19.663Z</time></trkpt><trkpt lat="45.2373694" lon="9.0358226"><ele>68.0</ele><time>2026-05-03T09:26:20.672Z</time></trkpt><trkpt lat="45.23729" lon="9.0357599"><ele>68.16666666666667</ele><time>2026-05-03T09:26:21.669Z</time></trkpt><trkpt lat="45.2372165" lon="9.0357039"><ele>68.33333333333334</ele><time>2026-05-03T09:26:22.74Z</time></trkpt><trkpt lat="45.2371603" lon="9.0356592"><ele>68.5</ele><time>2026-05-03T09:26:23.674Z</time></trkpt><trkpt lat="45.2371066" lon="9.0356039"><ele>68.66666666666667</ele><time>2026-05-03T09:26:24.669Z</time></trkpt><trkpt lat="45.2369955" lon="9.0355138"><ele>68.83333333333333</ele><time>2026-05-03T09:26:26.667Z</time></trkpt><trkpt lat="45.23694" lon="9.0354648"><ele>69.0</ele><time>2026-05-03T09:26:27.672Z</time></trkpt><trkpt lat="45.2368443" lon="9.0353671"><ele>69.0</ele><time>2026-05-03T09:26:29.668Z</time></trkpt><trkpt lat="45.236744" lon="9.0353017"><ele>69.0</ele><time>2026-05-03T09:26:31.669Z</time></trkpt><trkpt lat="45.2366494" lon="9.0353324"><ele>69.0</ele><time>2026-05-03T09:26:33.666Z</time></trkpt><trkpt lat="45.2365954" lon="9.035391"><ele>69.0</ele><time>2026-05-03T09:26:35.666Z</time></trkpt><trkpt lat="45.2365521" lon="9.0355274"><ele>69.0</ele><time>2026-05-03T09:26:38.67Z</time></trkpt><trkpt lat="45.2365228" lon="9.0356869"><ele>68.66666666666667</ele><time>2026-05-03T09:26:40.665Z</time></trkpt><trkpt lat="45.2364665" lon="9.0358256"><ele>68.33333333333333</ele><time>2026-05-03T09:26:42.665Z</time></trkpt><trkpt lat="45.2364215" lon="9.0358989"><ele>68.0</ele><time>2026-05-03T09:26:43.669Z</time></trkpt><trkpt lat="45.2363814" lon="9.035969"><ele>67.66666666666666</ele><time>2026-05-03T09:26:44.658Z</time></trkpt><trkpt lat="45.2363391" lon="9.0360448"><ele>67.33333333333333</ele><time>2026-05-03T09:26:45.669Z</time></trkpt><trkpt lat="45.2362508" lon="9.0361654"><ele>67.0</ele><time>2026-05-03T09:26:47.667Z</time></trkpt><trkpt lat="45.2361891" lon="9.0362689"><ele>67.0</ele><time>2026-05-03T09:26:49.676Z</time></trkpt><trkpt lat="45.2361302" lon="9.0363438"><ele>67.0</ele><time>2026-05-03T09:26:51.666Z</time></trkpt><trkpt lat="45.236067" lon="9.0364174"><ele>67.0</ele><time>2026-05-03T09:26:53.668Z</time></trkpt><trkpt lat="45.2360119" lon="9.0365145"><ele>67.0</ele><time>2026-05-03T09:26:55.67Z</time></trkpt><trkpt lat="45.235954" lon="9.0366182"><ele>67.0</ele><time>2026-05-03T09:26:57.657Z</time></trkpt><trkpt lat="45.2359011" lon="9.0367042"><ele>67.0</ele><time>2026-05-03T09:26:59.668Z</time></trkpt><trkpt lat="45.2358467" lon="9.0367838"><ele>66.0</ele><time>2026-05-03T09:27:01.665Z</time></trkpt><trkpt lat="45.2357967" lon="9.036857"><ele>66.0</ele><time>2026-05-03T09:27:03.74Z</time></trkpt><trkpt lat="45.2357526" lon="9.0369444"><ele>66.0</ele><time>2026-05-03T09:27:05.668Z</time></trkpt><trkpt lat="45.2357106" lon="9.0370313"><ele>66.0</ele><time>2026-05-03T09:27:07.665Z</time></trkpt><trkpt lat="45.2356588" lon="9.0371019"><ele>66.0</ele><time>2026-05-03T09:27:09.675Z</time></trkpt><trkpt lat="45.2356128" lon="9.0371661"><ele>67.0</ele><time>2026-05-03T09:27:11.669Z</time></trkpt></trkseg></trk></gpx>